# Wetter Temperatur Luftdruck Luftfeuchtigkeit Sichtweite Windgeschwindigkeit Windrichtung Zeit
1 Clear 18 1013 82 10000 4.6 320 04:57 11.07.2020
2 Clear 18 1013 82 10000 4.6 320 04:37 11.07.2020
3 Clear 18 1013 82 10000 3.1 320 04:18 11.07.2020
4 Clear 19 1013 82 10000 6.7 310 02:51 11.07.2020
5 Clear 19 1014 77 10000 8.2 310 01:53 11.07.2020
6 Clear 19 1014 77 10000 7.7 310 01:20 11.07.2020
7 Clear 19 1014 77 10000 6.7 310 00:41 11.07.2020
8 Clear 19 1014 77 10000 7.2 320 00:22 11.07.2020
9 Clear 20 1014 72 10000 6.7 320 23:58 10.07.2020
10 Clear 20 1014 72 10000 6.7 320 23:40 10.07.2020
11 Clear 20 1014 72 10000 5.7 320 23:21 10.07.2020
12 Clear 21 1014 68 10000 5.7 320 22:49 10.07.2020
13 Clear 22 1013 60 10000 4.6 330 22:24 10.07.2020
14 Clear 23 1013 53 10000 5.7 320 21:59 10.07.2020
15 Clear 23 1013 53 10000 5.7 320 21:38 10.07.2020
16 Clear 25 1013 53 10000 6.7 320 21:20 10.07.2020
17 Clear 25 1013 50 10000 7.2 310 20:54 10.07.2020
18 Clear 24 1013 50 10000 7.2 310 20:54 10.07.2020
19 Clear 24 1013 50 10000 7.2 310 20:36 10.07.2020
20 Clear 25 1013 50 10000 7.7 330 20:18 10.07.2020
21 Clear 26 1013 50 10000 7.7 330 19:42 10.07.2020
22 Clear 26 1013 50 10000 7.2 310 19:21 10.07.2020
23 Clear 26 1013 47 10000 6.2 310 18:55 10.07.2020
24 Clear 26 1013 44 10000 7.7 340 18:37 10.07.2020
25 Clear 26 1013 44 10000 7.7 340 18:18 10.07.2020
26 Clear 27 1014 42 10000 6.2 310 17:43 10.07.2020
27 Clear 27 1014 42 10000 6.2 330 17:23 10.07.2020
28 Clear 27 1014 42 10000 5.7 320 16:57 10.07.2020
29 Clear 27 1014 42 10000 5.7 320 16:39 10.07.2020
30 Clear 27 1014 42 10000 5.1 320 16:18 10.07.2020
31 Clear 28 1015 42 10000 4.6 310 15:44 10.07.2020
32 Clouds 26 1015 50 10000 5.1 320 15:21 10.07.2020
33 Clouds 27 1015 44 10000 6.2 330 14:54 10.07.2020
34 Clouds 26 1015 44 10000 6.2 330 14:36 10.07.2020
35 Clouds 25 1015 53 10000 5.1 320 14:18 10.07.2020
36 Clouds 25 1015 47 10000 5.1 350 13:54 10.07.2020
37 Clouds 25 1015 47 10000 5.1 350 13:36 10.07.2020
38 Clouds 24 1015 57 10000 4.6 310 13:18 10.07.2020
39 Clouds 23 1015 60 10000 5.1 330 12:42 10.07.2020
40 Clouds 23 1015 64 10000 6.2 340 12:23 10.07.2020
41 Clouds 22 1015 64 10000 6.2 340 11:58 10.07.2020
42 Clouds 22 1016 64 10000 5.1 330 11:38 10.07.2020
43 Clouds 22 1015 68 10000 6.7 340 11:18 10.07.2020
44 Clouds 21 1015 72 10000 6.2 340 10:41 10.07.2020
45 Clouds 19 1015 82 10000 7.2 320 10:21 10.07.2020
46 Clouds 19 1015 82 10000 7.2 320 09:59 10.07.2020
47 Clouds 19 1015 82 10000 7.2 320 09:37 10.07.2020
48 Clouds 19 1015 82 10000 7.7 320 09:19 10.07.2020
49 Clouds 18 1015 88 10000 6.2 320 08:56 10.07.2020
50 Clouds 18 1015 88 10000 6.2 320 08:37 10.07.2020
51 Clouds 18 1015 88 10000 6.2 320 08:19 10.07.2020
52 Clouds 18 1015 88 10000 8.2 330 07:41 10.07.2020
53 Clear 18 1015 82 10000 4.6 340 07:22 10.07.2020
54 Clear 18 1015 82 10000 2.1 330 06:49 10.07.2020
55 Clouds 18 1015 88 10000 7.7 330 05:55 10.07.2020
56 Clouds 18 1016 82 10000 7.7 340 04:33 10.07.2020
57 Clouds 18 1016 82 10000 4.6 340 03:31 10.07.2020
58 Clear 19 1016 77 10000 9.8 330 02:51 10.07.2020
59 Clear 19 1017 72 10000 7.7 330 01:48 10.07.2020
60 Clear 19 1017 72 10000 7.7 340 00:47 10.07.2020
61 Clear 20 1017 64 10000 6.7 350 00:19 10.07.2020
62 Clear 20 1016 64 10000 6.2 350 23:46 09.07.2020
63 Clear 20 1016 60 10000 11.3 330 23:21 09.07.2020
64 Clear 20 1015 60 10000 10.8 330 22:58 09.07.2020
65 Clear 20 1015 60 10000 10.8 330 22:40 09.07.2020
66 Clouds 20 1015 64 10000 8.7 310 22:21 09.07.2020
67 Clouds 21 1015 64 10000 8.2 320 21:56 09.07.2020
68 Clouds 21 1015 64 10000 8.2 320 21:38 09.07.2020
69 Clouds 23 1015 64 10000 8.2 320 21:19 09.07.2020
70 Clouds 23 1015 60 10000 6.7 310 20:44 09.07.2020
71 Clouds 23 1015 57 10000 7.7 320 20:25 09.07.2020
72 Clouds 24 1015 54 10000 7.2 320 19:58 09.07.2020
73 Clouds 24 1015 54 10000 7.2 320 19:40 09.07.2020
74 Clouds 25 1016 54 10000 5.7 320 19:20 09.07.2020
75 Clouds 25 1016 57 10000 4.6 310 18:42 09.07.2020
76 Clouds 24 1016 61 10000 5.7 310 18:22 09.07.2020
77 Clouds 25 1016 61 10000 6.2 310 17:55 09.07.2020
78 Clouds 25 1016 61 10000 6.2 310 17:37 09.07.2020
79 Clear 25 1016 57 10000 4.1 290 17:18 09.07.2020
80 Clear 25 1016 54 10000 4.6 330 16:55 09.07.2020
81 Clear 26 1016 54 10000 4.6 330 16:37 09.07.2020
82 Clear 26 1017 57 10000 3.1 330 16:18 09.07.2020
83 Clear 26 1017 61 10000 3.6 320 15:46 09.07.2020
84 Clouds 25 1017 61 10000 3.6 320 15:28 09.07.2020
85 Clouds 24 1017 64 10000 3.1 310 14:59 09.07.2020
86 Clouds 24 1017 64 10000 3.1 310 14:41 09.07.2020
87 Clouds 22 1017 73 10000 3.1 290 14:23 09.07.2020
88 Clouds 22 1017 78 10000 2.6 0 13:59 09.07.2020
89 Clouds 22 1017 78 10000 2.6 0 13:41 09.07.2020
90 Clouds 22 1017 77 10000 2.1 310 13:20 09.07.2020
91 Clouds 20 1017 82 10000 2.6 300 12:57 09.07.2020
92 Clouds 20 1017 82 10000 2.6 300 12:38 09.07.2020
93 Clouds 20 1017 82 10000 2.1 330 12:20 09.07.2020
94 Clouds 19 1017 88 10000 2.6 340 11:44 09.07.2020
95 Clouds 19 1017 88 10000 4.1 340 11:26 09.07.2020
96 Clouds 19 1017 88 10000 4.1 350 10:59 09.07.2020
97 Clouds 19 1017 88 10000 4.1 350 10:41 09.07.2020
98 Clouds 19 1016 88 10000 3.6 340 10:23 09.07.2020
99 Clouds 19 1016 93 10000 3.6 340 09:58 09.07.2020
100 Clouds 19 1016 93 10000 3.6 340 09:40 09.07.2020
101 Clouds 19 1016 93 10000 3.6 340 09:40 09.07.2020
102 Clouds 19 1016 93 10000 4.1 350 09:21 09.07.2020
103 Clouds 18 1016 93 10000 2.6 330 08:44 09.07.2020
104 Clouds 18 1015 88 10000 3.6 340 08:25 09.07.2020
105 Clouds 18 1015 88 10000 5.1 340 07:47 09.07.2020
106 Clouds 18 1015 88 10000 3.6 330 07:24 09.07.2020
107 Clouds 18 1015 88 10000 4.1 330 06:54 09.07.2020
108 Clouds 19 1015 88 10000 4.1 330 06:20 09.07.2020
109 Clouds 19 1015 88 10000 5.1 330 05:26 09.07.2020
110 Clouds 18 1015 88 10000 3.6 310 04:28 09.07.2020
111 Clouds 18 1015 88 10000 4.1 340 02:21 09.07.2020
112 Clouds 19 1015 88 10000 4.1 340 01:39 09.07.2020
113 Clouds 19 1015 93 10000 3.6 310 00:53 09.07.2020
114 Clouds 19 1015 88 10000 4.6 320 00:25 09.07.2020
115 Clouds 19 1015 88 10000 4.1 310 23:47 08.07.2020
116 Clouds 19 1014 82 10000 4.6 310 23:28 08.07.2020
117 Clouds 19 1014 82 10000 5.1 300 22:59 08.07.2020
118 Clouds 19 1014 82 10000 5.1 300 22:41 08.07.2020
119 Clouds 19 1014 77 10000 5.1 300 22:23 08.07.2020
120 Clouds 20 1013 72 10000 4.6 290 21:58 08.07.2020
121 Clouds 20 1013 72 10000 4.6 290 21:39 08.07.2020
122 Clouds 21 1013 64 10000 4.6 290 21:21 08.07.2020
123 Clear 22 1013 64 10000 3.6 290 20:56 08.07.2020
124 Clear 22 1013 64 10000 3.6 290 20:38 08.07.2020
125 Clear 23 1013 64 10000 4.6 310 20:20 08.07.2020
126 Clear 23 1014 60 10000 4.1 300 19:43 08.07.2020
127 Clouds 23 1014 57 10000 4.1 310 19:23 08.07.2020
128 Clouds 23 1014 60 10000 3.6 300 18:57 08.07.2020
129 Clouds 23 1014 60 10000 3.6 300 18:39 08.07.2020
130 Clouds 24 1014 57 10000 4.1 270 18:20 08.07.2020
131 Clouds 24 1014 60 10000 4.6 0 17:56 08.07.2020
132 Clouds 23 1014 60 10000 4.6 0 17:37 08.07.2020
133 Clouds 23 1014 60 10000 4.6 280 17:19 08.07.2020
134 Clouds 24 1014 57 10000 5.7 250 16:43 08.07.2020
135 Clouds 23 1014 57 10000 4.1 290 16:24 08.07.2020
136 Clouds 23 1014 60 10000 3.1 290 15:59 08.07.2020
137 Clouds 24 1014 60 10000 3.1 290 15:41 08.07.2020
138 Clouds 23 1014 60 10000 3.1 290 15:20 08.07.2020
139 Clouds 23 1014 60 10000 4.1 270 14:59 08.07.2020
140 Clouds 23 1014 60 10000 4.1 270 14:41 08.07.2020
141 Clouds 23 1014 57 10000 3.6 0 14:19 08.07.2020
142 Clouds 23 1015 60 10000 4.1 270 13:45 08.07.2020
143 Clouds 22 1015 64 10000 3.6 310 13:27 08.07.2020
144 Clouds 22 1015 64 10000 3.6 310 12:46 08.07.2020
145 Clouds 21 1014 68 10000 3.6 290 12:22 08.07.2020
146 Clouds 21 1014 68 10000 3.6 290 12:22 08.07.2020
147 Clouds 20 1014 72 10000 4.6 310 11:59 08.07.2020
148 Clouds 20 1014 72 10000 4.6 310 11:39 08.07.2020
149 Clouds 20 1014 77 10000 3.1 290 11:20 08.07.2020
150 Clouds 20 1014 77 10000 3.6 300 10:56 08.07.2020
151 Clouds 19 1014 77 10000 3.6 300 10:38 08.07.2020
152 Clouds 19 1014 77 10000 4.1 300 10:19 08.07.2020
153 Clouds 19 1014 77 10000 4.1 280 09:41 08.07.2020
154 Clouds 19 1013 77 10000 3.1 300 09:23 08.07.2020
155 Clouds 18 1013 82 10000 4.1 300 08:43 08.07.2020
156 Clouds 18 1013 82 10000 3.6 290 08:24 08.07.2020
157 Clouds 17 1013 82 10000 2.6 300 07:48 08.07.2020
158 Clouds 17 1013 88 10000 3.1 290 07:24 08.07.2020
159 Clouds 17 1013 88 10000 4.1 300 06:56 08.07.2020
160 Clouds 17 1013 88 10000 4.1 300 06:37 08.07.2020
161 Clouds 17 1013 88 10000 3.6 300 06:19 08.07.2020
162 Clouds 17 1013 82 10000 3.6 300 05:33 08.07.2020
163 Clouds 17 1014 88 10000 3.1 310 04:37 08.07.2020
164 Clouds 18 1014 88 10000 4.1 310 02:49 08.07.2020
165 Clouds 18 1014 82 10000 5.7 290 01:57 08.07.2020
166 Clouds 18 1014 82 10000 5.7 290 01:37 08.07.2020
167 Clouds 19 1014 88 10000 9.3 310 00:37 08.07.2020
168 Clouds 19 1014 88 10000 7.7 310 00:18 08.07.2020
169 Clouds 20 1013 82 10000 8.2 320 23:41 07.07.2020
170 Clouds 20 1013 77 10000 6.7 310 23:20 07.07.2020
171 Clouds 21 1013 77 10000 6.2 300 22:45 07.07.2020
172 Clouds 23 1013 68 10000 6.2 310 22:24 07.07.2020
173 Clouds 24 1013 60 10000 6.2 310 21:59 07.07.2020
174 Clouds 24 1013 60 10000 6.2 310 21:41 07.07.2020
175 Clear 27 1013 51 10000 4.1 320 21:22 07.07.2020
176 Clear 27 1013 51 10000 4.1 320 21:22 07.07.2020
177 Clouds 26 1013 48 10000 3.6 310 20:58 07.07.2020
178 Clouds 27 1013 48 10000 3.6 310 20:40 07.07.2020
179 Clouds 28 1013 48 10000 3.6 310 20:22 07.07.2020
180 Clouds 29 1013 40 10000 4.1 270 19:55 07.07.2020
181 Clouds 29 1013 40 10000 4.1 270 19:36 07.07.2020
182 Clouds 31 1013 28 10000 3.1 210 19:18 07.07.2020
183 Clouds 31 1013 31 10000 3.6 220 18:54 07.07.2020
184 Clouds 31 1013 31 10000 3.6 220 18:36 07.07.2020
185 Clear 32 1014 33 10000 3.6 220 18:18 07.07.2020
186 Clear 32 1014 33 10000 4.6 220 17:43 07.07.2020
187 Clear 31 1014 36 10000 4.6 230 17:23 07.07.2020
188 Clear 31 1014 38 10000 2.6 0 16:58 07.07.2020
189 Clear 31 1014 38 10000 2.6 0 16:40 07.07.2020
190 Clouds 31 1014 40 10000 2.1 0 16:21 07.07.2020
191 Clouds 30 1014 40 10000 2.6 170 15:55 07.07.2020
192 Clouds 30 1014 40 10000 2.6 170 15:36 07.07.2020
193 Clouds 29 1015 43 10000 3.1 130 15:18 07.07.2020
194 Clouds 29 1015 45 10000 2.1 130 14:42 07.07.2020
195 Clear 28 1015 48 10000 2.6 110 14:23 07.07.2020
196 Clear 27 1015 51 10000 2.1 0 13:43 07.07.2020
197 Clear 27 1015 61 10000 3.1 100 13:19 07.07.2020
198 Clear 26 1015 61 10000 2.6 80 12:56 07.07.2020
199 Clear 26 1015 61 10000 2.6 80 12:36 07.07.2020
200 Clear 26 1015 61 10000 2.6 80 12:18 07.07.2020
201 Clear 24 1015 64 10000 2.1 30 11:42 07.07.2020
202 Clear 23 1015 64 10000 2.6 350 11:21 07.07.2020
203 Clear 22 1015 68 10000 2.1 340 10:58 07.07.2020
204 Clear 22 1015 68 10000 2.1 340 10:39 07.07.2020
205 Clear 21 1015 73 10000 1.5 310 10:20 07.07.2020
206 Clear 20 1014 72 10000 2.1 340 09:42 07.07.2020
207 Clear 19 1014 77 10000 0.57 11 09:21 07.07.2020
208 Clear 19 1014 82 10000 1 20 08:54 07.07.2020
209 Clear 18 1014 82 10000 1 20 08:36 07.07.2020
210 Clear 19 1014 82 10000 2.1 360 08:18 07.07.2020
211 Clear 19 1014 82 10000 1.5 350 07:38 07.07.2020
212 Clear 18 1014 82 10000 2.6 350 07:19 07.07.2020
213 Clear 18 1014 82 10000 2.6 350 06:41 07.07.2020
214 Clear 19 1014 77 10000 2.1 320 06:22 07.07.2020
215 Clear 20 1014 68 10000 2.6 310 05:28 07.07.2020
216 Clear 20 1014 68 10000 1.5 330 04:52 07.07.2020
217 Clear 20 1015 68 10000 1 0 03:43 07.07.2020
218 Clear 20 1015 64 10000 1 0 03:23 07.07.2020
219 Clear 22 1015 60 10000 5.7 310 01:50 07.07.2020
220 Clear 22 1015 64 10000 5.7 310 00:59 07.07.2020
221 Clear 23 1015 64 10000 5.7 310 00:40 07.07.2020
222 Clear 23 1015 64 10000 6.7 310 00:20 07.07.2020
223 Clear 23 1015 64 10000 3.6 330 23:44 06.07.2020
224 Clear 24 1015 64 10000 2.1 350 23:25 06.07.2020
225 Clear 24 1015 61 10000 4.1 350 22:57 06.07.2020
226 Clear 24 1015 61 10000 4.1 350 22:39 06.07.2020
227 Clear 25 1015 54 10000 4.1 310 22:18 06.07.2020
228 Clear 27 1015 51 10000 4.6 300 21:56 06.07.2020
229 Clear 27 1015 51 10000 4.6 300 21:36 06.07.2020
230 Clear 28 1015 45 10000 3.6 300 21:18 06.07.2020
231 Clear 29 1015 45 10000 3.6 290 20:41 06.07.2020
232 Clear 30 1015 43 10000 4.6 310 20:21 06.07.2020
233 Clear 30 1015 43 10000 4.6 310 19:59 06.07.2020
234 Clear 31 1015 38 10000 5.1 320 19:41 06.07.2020
235 Clear 32 1015 38 10000 5.1 320 19:23 06.07.2020
236 Clear 32 1015 38 10000 5.1 320 18:58 06.07.2020
237 Clear 32 1015 38 10000 5.1 320 18:40 06.07.2020
238 Clear 33 1015 30 10000 4.1 310 18:22 06.07.2020
239 Clear 33 1015 32 10000 4.6 340 17:56 06.07.2020
240 Clear 33 1015 32 10000 4.6 340 17:37 06.07.2020
241 Clear 33 1016 33 10000 4.6 320 17:19 06.07.2020
242 Clear 33 1016 34 10000 5.1 320 16:43 06.07.2020
243 Clear 33 1016 34 10000 5.1 330 16:23 06.07.2020
244 Clear 33 1016 34 10000 3.6 330 15:57 06.07.2020
245 Clear 33 1016 34 10000 3.6 330 15:38 06.07.2020
246 Clear 32 1016 36 10000 3.6 340 15:19 06.07.2020
247 Clear 32 1017 41 10000 2.1 0 14:55 06.07.2020
248 Clear 31 1017 41 10000 2.1 0 14:36 06.07.2020
249 Clear 30 1017 40 10000 2.1 340 14:18 06.07.2020
250 Clear 30 1017 40 10000 2.1 340 13:40 06.07.2020
251 Clear 28 1016 51 10000 3.1 350 13:21 06.07.2020
252 Clear 27 1017 57 10000 3.6 320 12:45 06.07.2020
253 Clear 25 1017 61 10000 4.1 340 12:20 06.07.2020
254 Clear 24 1017 69 10000 3.6 340 11:59 06.07.2020
255 Clear 24 1017 69 10000 3.6 340 11:41 06.07.2020
256 Clouds 22 1017 69 10000 4.6 320 11:23 06.07.2020
257 Clouds 21 1017 73 10000 5.7 320 10:59 06.07.2020
258 Clouds 21 1017 73 10000 5.7 320 10:40 06.07.2020
259 Clouds 21 1017 77 10000 5.1 310 10:19 06.07.2020
260 Clouds 20 1016 77 10000 5.1 320 09:54 06.07.2020
261 Clouds 20 1016 77 10000 5.1 320 09:36 06.07.2020
262 Clouds 19 1016 77 10000 5.7 310 09:18 06.07.2020
263 Clear 19 1016 77 10000 6.7 310 08:40 06.07.2020
264 Clear 19 1016 77 10000 5.7 310 08:22 06.07.2020
265 Clear 19 1016 77 10000 6.2 310 07:50 06.07.2020
266 Clear 19 1016 77 10000 5.7 320 07:30 06.07.2020
267 Clear 19 1016 77 10000 5.7 320 06:55 06.07.2020
268 Clear 19 1016 77 10000 5.7 320 06:37 06.07.2020
269 Clear 20 1016 72 10000 4.6 310 05:55 06.07.2020
270 Clear 20 1016 72 10000 6.2 310 05:28 06.07.2020
271 Clear 20 1017 68 10000 5.1 310 03:58 06.07.2020
272 Clear 21 1017 64 10000 3.6 330 02:41 06.07.2020
273 Clear 22 1018 60 10000 3.6 330 01:55 06.07.2020
274 Clear 23 1018 60 10000 3.6 340 00:49 06.07.2020
275 Clear 24 1017 56 10000 5.7 310 00:24 06.07.2020
276 Clear 24 1017 53 10000 5.7 310 23:57 05.07.2020
277 Clear 25 1017 53 10000 5.7 310 23:38 05.07.2020
278 Clear 25 1017 50 10000 5.7 310 23:20 05.07.2020
279 Clear 26 1016 47 10000 7.2 300 22:42 05.07.2020
280 Clear 27 1016 44 10000 7.2 310 22:21 05.07.2020
281 Clear 27 1016 45 10000 7.2 320 21:59 05.07.2020
282 Clear 27 1016 45 10000 7.2 320 21:41 05.07.2020
283 Clear 27 1016 42 10000 7.7 330 21:19 05.07.2020
284 Clear 29 1016 38 10000 6.7 320 20:59 05.07.2020
285 Clear 29 1016 38 10000 6.7 320 20:41 05.07.2020
286 Clear 31 1016 38 10000 7.2 320 20:22 05.07.2020
287 Clear 31 1016 38 10000 7.2 320 19:57 05.07.2020
288 Clear 31 1016 38 10000 7.2 320 19:39 05.07.2020
289 Clear 32 1017 31 10000 5.7 310 19:19 05.07.2020
290 Clear 33 1017 34 10000 5.7 320 18:42 05.07.2020
291 Clear 33 1017 34 10000 5.7 310 18:23 05.07.2020
292 Clear 33 1017 32 10000 5.7 310 17:58 05.07.2020
293 Clear 33 1017 32 10000 5.7 310 17:39 05.07.2020
294 Clear 34 1017 30 10000 5.7 320 17:19 05.07.2020
295 Clear 34 1017 28 10000 4.6 320 16:44 05.07.2020
296 Clear 34 1017 23 10000 3.6 0 16:25 05.07.2020
297 Clear 34 1017 25 10000 3.1 90 15:58 05.07.2020
298 Clear 34 1017 25 10000 3.1 90 15:38 05.07.2020
299 Clear 34 1017 26 10000 3.1 100 15:19 05.07.2020
300 Clear 33 1018 31 10000 3.1 80 14:42 05.07.2020
301 Clear 32 1018 29 10000 3.6 70 14:23 05.07.2020
302 Clear 31 1018 33 10000 2.6 80 13:55 05.07.2020
303 Clear 31 1018 33 10000 2.6 80 13:37 05.07.2020
304 Clear 29 1018 38 10000 2.6 40 13:19 05.07.2020
305 Clear 29 1018 38 10000 2.6 40 13:19 05.07.2020
306 Clear 27 1018 40 10000 2.1 30 12:39 05.07.2020
307 Clear 26 1018 48 10000 2.1 20 12:20 05.07.2020
308 Clear 26 1018 57 10000 1.5 50 11:55 05.07.2020
309 Clear 25 1018 57 10000 1.5 50 11:36 05.07.2020
310 Clear 25 1018 57 10000 1.5 50 11:36 05.07.2020
311 Clear 23 1018 64 10000 2.1 60 11:18 05.07.2020
312 Clear 22 1018 60 10000 1.5 60 10:42 05.07.2020
313 Clear 21 1018 68 10000 3.6 350 10:20 05.07.2020
314 Clouds 20 1018 68 10000 5.1 320 09:59 05.07.2020
315 Clouds 20 1018 68 10000 5.1 320 09:41 05.07.2020
316 Clouds 19 1018 72 10000 5.7 320 09:20 05.07.2020
317 Clouds 19 1017 72 10000 5.7 320 08:53 05.07.2020
318 Clouds 19 1017 72 10000 5.7 320 08:34 05.07.2020
319 Clouds 18 1017 77 10000 5.7 320 07:51 05.07.2020
320 Clear 19 1017 77 10000 5.1 310 07:30 05.07.2020
321 Clear 19 1017 77 10000 5.7 320 06:54 05.07.2020
322 Clear 19 1017 77 10000 5.7 320 06:20 05.07.2020
323 Clear 19 1019 77 10000 5.7 320 03:55 05.07.2020
324 Clear 20 1019 68 10000 5.1 320 02:57 05.07.2020
325 Clear 20 1019 68 10000 5.1 320 02:33 05.07.2020
326 Clear 20 1019 68 10000 6.7 310 01:43 05.07.2020
327 Clear 20 1019 68 10000 6.7 310 01:20 05.07.2020
328 Clear 20 1019 68 10000 6.2 310 00:45 05.07.2020
329 Clear 20 1019 68 10000 6.2 320 00:26 05.07.2020
330 Clear 21 1019 64 10000 6.7 320 23:54 04.07.2020
331 Clear 21 1019 60 10000 6.7 320 23:31 04.07.2020
332 Clear 21 1019 53 10000 7.2 320 22:59 04.07.2020
333 Clear 22 1019 53 10000 7.2 320 22:40 04.07.2020
334 Clear 23 1019 49 10000 7.7 320 22:22 04.07.2020
335 Clear 24 1019 38 10000 7.2 320 21:58 04.07.2020
336 Clear 24 1019 38 10000 7.2 320 21:39 04.07.2020
337 Clear 26 1018 36 10000 6.7 320 21:20 04.07.2020
338 Clear 26 1018 32 10000 7.2 320 20:42 04.07.2020
339 Clear 28 1019 32 10000 6.7 310 20:21 04.07.2020
340 Clear 27 1019 32 10000 6.7 310 19:56 04.07.2020
341 Clear 27 1019 32 10000 6.7 310 19:38 04.07.2020
342 Clear 28 1019 35 10000 6.2 320 19:20 04.07.2020
343 Clear 29 1019 33 10000 6.2 320 18:43 04.07.2020
344 Clear 30 1019 31 10000 5.7 310 18:22 04.07.2020
345 Clear 30 1019 31 10000 5.7 310 17:46 04.07.2020
346 Clear 31 1019 33 10000 5.1 310 17:28 04.07.2020
347 Clear 31 1020 29 10000 5.7 330 16:59 04.07.2020
348 Clear 31 1020 29 10000 5.7 330 16:40 04.07.2020
349 Clear 31 1020 29 10000 5.7 330 16:40 04.07.2020
350 Clear 31 1020 33 10000 5.7 340 16:21 04.07.2020
351 Clear 31 1020 33 10000 4.6 350 15:58 04.07.2020
352 Clear 31 1020 33 10000 4.6 350 15:40 04.07.2020
353 Clear 30 1020 35 10000 5.1 330 15:21 04.07.2020
354 Clear 28 1021 37 10000 4.6 330 14:57 04.07.2020
355 Clear 28 1021 37 10000 4.6 330 14:37 04.07.2020
356 Clear 28 1021 37 10000 4.1 340 14:18 04.07.2020
357 Clear 26 1021 42 10000 5.1 340 13:41 04.07.2020
358 Clear 25 1021 42 10000 5.1 340 13:19 04.07.2020
359 Clear 25 1021 50 10000 6.2 350 12:56 04.07.2020
360 Clear 25 1021 50 10000 6.2 350 12:38 04.07.2020
361 Clear 24 1021 53 10000 6.2 350 12:19 04.07.2020
362 Clear 23 1021 60 10000 5.1 340 11:44 04.07.2020
363 Clear 21 1021 64 10000 6.7 330 11:23 04.07.2020
364 Clear 21 1021 68 10000 6.7 330 10:56 04.07.2020
365 Clear 20 1021 68 10000 6.7 330 10:38 04.07.2020
366 Clear 19 1021 77 10000 6.2 330 10:19 04.07.2020
367 Clear 18 1021 72 10000 5.7 330 09:41 04.07.2020
368 Clear 18 1020 77 10000 5.1 330 09:22 04.07.2020
369 Clear 17 1020 82 10000 5.1 330 08:58 04.07.2020
370 Clear 17 1020 82 10000 5.1 330 08:39 04.07.2020
371 Clear 17 1020 82 10000 5.1 330 08:21 04.07.2020
372 Clear 16 1020 82 10000 5.1 330 07:41 04.07.2020
373 Clear 16 1020 82 10000 6.7 330 07:20 04.07.2020
374 Clear 16 1020 82 10000 4.6 320 06:40 04.07.2020
375 Clear 16 1020 82 10000 4.1 330 06:20 04.07.2020
376 Clear 17 1020 77 10000 4.6 340 05:31 04.07.2020
377 Clear 17 1021 77 10000 3.6 330 04:22 04.07.2020
378 Clear 17 1022 77 10000 5.1 340 02:45 04.07.2020
379 Clear 17 1022 77 10000 5.7 320 01:42 04.07.2020
380 Clear 17 1021 72 10000 8.2 330 00:59 04.07.2020
381 Clear 17 1021 72 10000 8.2 330 00:40 04.07.2020
382 Clear 17 1021 72 10000 8.2 330 00:21 04.07.2020
383 Clouds 17 1021 72 10000 7.2 320 23:39 03.07.2020
384 Clouds 17 1021 72 10000 7.2 320 23:18 03.07.2020
385 Clouds 18 1021 63 10000 7.2 330 22:42 03.07.2020
386 Clouds 18 1021 59 10000 7.7 330 22:24 03.07.2020
387 Clear 19 1020 60 10000 6.2 330 21:59 03.07.2020
388 Clear 19 1020 60 10000 6.2 330 21:38 03.07.2020
389 Clear 19 1020 52 10000 8.2 330 21:19 03.07.2020
390 Clouds 20 1020 52 10000 7.2 320 20:43 03.07.2020
391 Clouds 21 1020 49 10000 7.7 320 20:25 03.07.2020
392 Clouds 21 1020 49 10000 7.7 320 19:59 03.07.2020
393 Clouds 22 1020 49 10000 7.7 320 19:39 03.07.2020
394 Clouds 22 1020 46 10000 7.7 330 19:18 03.07.2020
395 Clouds 22 1020 46 10000 7.7 330 19:18 03.07.2020
396 Clouds 22 1020 46 10000 6.7 320 18:45 03.07.2020
397 Clouds 22 1020 46 10000 6.7 320 18:23 03.07.2020
398 Clear 23 1021 46 10000 6.7 320 17:56 03.07.2020
399 Clear 22 1021 46 10000 6.7 320 17:38 03.07.2020
400 Clear 23 1021 43 10000 7.7 330 17:20 03.07.2020
401 Clear 23 1021 43 10000 7.7 340 16:40 03.07.2020
402 Clouds 23 1021 43 10000 7.2 330 16:21 03.07.2020
403 Clouds 23 1021 44 10000 6.7 340 15:45 03.07.2020
404 Clouds 23 1021 46 10000 7.7 360 15:24 03.07.2020
405 Clouds 22 1021 49 10000 7.2 350 14:57 03.07.2020
406 Clouds 22 1021 49 10000 7.2 350 14:39 03.07.2020
407 Clouds 22 1022 46 10000 7.7 360 14:19 03.07.2020
408 Clouds 22 1022 49 10000 7.2 350 13:47 03.07.2020
409 Clouds 21 1022 52 10000 7.7 330 13:28 03.07.2020
410 Clouds 21 1021 56 10000 6.7 330 12:45 03.07.2020
411 Clouds 20 1021 60 10000 7.2 350 12:24 03.07.2020
412 Clouds 20 1021 60 10000 7.2 330 11:58 03.07.2020
413 Clouds 20 1021 60 10000 7.2 330 11:40 03.07.2020
414 Clouds 19 1021 63 10000 6.2 330 11:21 03.07.2020
415 Clouds 19 1021 68 10000 8.2 330 10:55 03.07.2020
416 Clouds 18 1021 68 10000 8.2 330 10:37 03.07.2020
417 Clouds 18 1021 67 10000 8.2 340 10:18 03.07.2020
418 Clouds 17 1021 77 10000 6.7 330 09:54 03.07.2020
419 Clouds 17 1021 77 10000 6.7 330 09:36 03.07.2020
420 Clouds 17 1021 72 10000 6.7 340 09:18 03.07.2020
421 Clouds 16 1021 77 10000 7.7 340 08:39 03.07.2020
422 Clouds 16 1021 77 10000 6.7 350 08:18 03.07.2020
423 Clouds 16 1021 77 10000 6.7 340 07:47 03.07.2020
424 Clear 16 1021 77 10000 6.2 330 07:26 03.07.2020
425 Clear 16 1021 77 10000 6.2 330 06:47 03.07.2020
426 Clouds 16 1021 82 10000 7.7 340 05:57 03.07.2020
427 Clouds 16 1021 82 10000 6.7 350 04:40 03.07.2020
428 Clouds 17 1022 77 10000 5.7 350 02:58 03.07.2020
429 Clouds 17 1022 77 10000 5.7 350 02:39 03.07.2020
430 Clear 17 1022 77 10000 4.6 350 02:18 03.07.2020
431 Clouds 17 1022 77 10000 6.2 350 01:27 03.07.2020
432 Clouds 17 1022 77 10000 5.7 350 00:44 03.07.2020
433 Clouds 17 1022 72 10000 5.7 350 00:21 03.07.2020
434 Clouds 18 1022 72 10000 5.7 350 23:43 02.07.2020
435 Clouds 18 1021 72 10000 7.2 350 23:20 02.07.2020
436 Clouds 18 1021 63 10000 7.2 350 22:57 02.07.2020
437 Clouds 18 1021 63 10000 7.2 350 22:39 02.07.2020
438 Clouds 19 1021 55 10000 8.2 350 22:20 02.07.2020
439 Clouds 19 1021 55 10000 8.2 350 22:20 02.07.2020
440 Clouds 19 1021 52 10000 8.2 330 21:54 02.07.2020
441 Clouds 20 1021 52 10000 8.2 330 21:36 02.07.2020
442 Clouds 20 1021 52 10000 7.7 330 21:18 02.07.2020
443 Clouds 20 1021 52 10000 8.2 340 20:42 02.07.2020
444 Clouds 21 1020 49 10000 8.7 340 20:21 02.07.2020
445 Clouds 21 1020 49 10000 8.7 340 19:59 02.07.2020
446 Clouds 21 1020 49 10000 8.7 340 19:38 02.07.2020
447 Clear 22 1021 40 0 6.2 310 19:20 02.07.2020
448 Clear 23 1021 40 10000 7.2 340 18:57 02.07.2020
449 Clear 22 1021 40 10000 7.2 340 18:38 02.07.2020
450 Clear 23 1021 40 10000 7.7 340 18:20 02.07.2020
451 Clear 23 1020 43 10000 8.2 350 17:40 02.07.2020
452 Clear 23 1020 41 10000 7.7 330 17:20 02.07.2020
453 Clear 23 1021 41 10000 7.7 350 16:56 02.07.2020
454 Clear 23 1021 41 10000 7.7 350 16:38 02.07.2020
455 Clear 24 1020 44 10000 7.2 350 16:19 02.07.2020
456 Clouds 24 1021 47 10000 7.2 360 15:55 02.07.2020
457 Clouds 24 1021 47 10000 7.2 360 15:36 02.07.2020
458 Clouds 24 1021 47 10000 7.2 360 15:36 02.07.2020
459 Clouds 24 1021 44 10000 6.2 360 15:18 02.07.2020
460 Clouds 24 1021 50 10000 5.1 330 14:42 02.07.2020
461 Clouds 24 1021 50 10000 7.2 350 14:19 02.07.2020
462 Clouds 23 1021 53 10000 6.2 350 13:55 02.07.2020
463 Clouds 23 1021 53 10000 6.2 350 13:36 02.07.2020
464 Clouds 23 1020 56 10000 6.7 360 13:18 02.07.2020
465 Clouds 23 1020 60 10000 5.7 350 12:40 02.07.2020
466 Clouds 22 1020 60 10000 5.7 360 12:21 02.07.2020
467 Clouds 22 1020 60 10000 5.1 330 11:45 02.07.2020
468 Clouds 21 1020 68 10000 4.6 340 11:27 02.07.2020
469 Clouds 20 1020 72 10000 3.6 340 10:58 02.07.2020
470 Clouds 20 1020 72 10000 3.6 340 10:39 02.07.2020
471 Clouds 19 1019 72 10000 4.6 330 10:21 02.07.2020
472 Clouds 19 1019 77 10000 4.6 340 09:43 02.07.2020
473 Clouds 18 1019 88 10000 3.1 320 09:22 02.07.2020
474 Clouds 17 1019 93 10000 2.1 320 08:58 02.07.2020
475 Clouds 17 1019 93 10000 2.1 320 08:39 02.07.2020
476 Clouds 17 1019 93 10000 2.6 330 08:19 02.07.2020
477 Clouds 17 1018 87 10000 1.5 330 07:42 02.07.2020
478 Clouds 17 1018 93 10000 3.1 330 07:21 02.07.2020
479 Clouds 17 1018 93 10000 2.6 330 06:45 02.07.2020
480 Clouds 17 1018 88 10000 3.6 330 06:26 02.07.2020
481 Clouds 17 1018 88 10000 3.6 330 05:48 02.07.2020
482 Clouds 18 1018 88 10000 4.6 330 04:50 02.07.2020
483 Clouds 18 1018 82 10000 5.7 320 03:34 02.07.2020
484 Clouds 19 1018 88 10000 5.7 310 01:51 02.07.2020
485 Clouds 19 1018 82 10000 5.1 330 00:44 02.07.2020
486 Clear 19 1017 77 10000 6.7 320 00:18 02.07.2020
487 Clouds 20 1017 82 10000 5.1 330 23:43 01.07.2020
488 Clouds 20 1017 72 10000 5.7 310 23:22 01.07.2020
489 Clouds 20 1016 72 10000 6.2 310 22:55 01.07.2020
490 Clouds 20 1016 72 10000 6.2 310 22:37 01.07.2020
491 Clouds 20 1016 73 10000 5.7 310 22:18 01.07.2020
492 Clouds 21 1016 64 10000 6.7 320 21:56 01.07.2020
493 Clouds 22 1016 64 10000 6.7 320 21:38 01.07.2020
494 Clouds 22 1016 60 10000 6.7 310 21:19 01.07.2020
495 Clouds 23 1016 60 10000 6.2 330 20:46 01.07.2020
496 Clouds 24 1016 57 10000 7.2 330 20:26 01.07.2020
497 Clouds 24 1016 57 10000 6.2 310 19:57 01.07.2020
498 Clouds 24 1016 57 10000 6.2 310 19:39 01.07.2020
499 Clouds 24 1016 57 10000 6.2 320 19:20 01.07.2020
500 Clouds 25 1016 54 10000 5.7 310 18:55 01.07.2020
501 Clouds 25 1016 54 10000 5.7 310 18:37 01.07.2020
502 Clouds 25 1016 54 10000 5.7 310 18:19 01.07.2020
503 Clouds 25 1016 54 10000 5.7 320 17:41 01.07.2020
504 Clouds 25 1016 54 10000 6.7 340 17:20 01.07.2020
505 Clouds 25 1017 57 10000 6.2 350 16:56 01.07.2020
506 Clouds 25 1017 57 10000 6.2 350 16:38 01.07.2020
507 Clouds 25 1017 61 10000 5.1 320 16:20 01.07.2020
508 Clouds 25 1017 57 10000 4.6 300 15:41 01.07.2020
509 Clouds 24 1017 64 10000 5.7 330 15:22 01.07.2020
510 Clouds 24 1017 64 10000 5.1 330 14:58 01.07.2020
511 Clouds 24 1017 64 10000 4.1 310 14:38 01.07.2020
512 Clouds 24 1017 64 10000 4.1 310 14:19 01.07.2020
513 Clouds 23 1017 64 10000 5.1 330 13:40 01.07.2020
514 Clouds 23 1017 64 10000 5.1 330 13:22 01.07.2020
515 Clouds 23 1017 69 10000 5.7 310 12:59 01.07.2020
516 Clouds 22 1017 69 10000 5.7 310 12:41 01.07.2020
517 Clouds 22 1017 73 10000 7.2 350 12:22 01.07.2020
518 Clouds 22 1017 77 10000 6.2 320 11:58 01.07.2020
519 Clouds 21 1017 77 10000 6.2 320 11:40 01.07.2020
520 Clouds 21 1016 73 10000 5.1 330 11:21 01.07.2020
521 Clouds 20 1016 82 10000 8.2 340 10:43 01.07.2020
522 Clouds 20 1016 77 10000 6.7 340 10:24 01.07.2020
523 Clouds 20 1016 77 10000 6.7 340 09:59 01.07.2020
524 Clouds 19 1016 82 10000 6.2 340 09:38 01.07.2020
525 Clouds 19 1016 82 10000 5.7 330 09:20 01.07.2020
526 Clouds 19 1016 82 10000 5.7 330 09:20 01.07.2020
527 Clouds 19 1016 82 10000 6.7 340 08:57 01.07.2020
528 Clouds 19 1016 82 10000 6.7 340 08:38 01.07.2020
529 Clouds 19 1015 82 10000 4.6 340 08:19 01.07.2020
530 Clouds 19 1015 88 10000 5.7 340 07:41 01.07.2020
531 Clouds 19 1015 88 10000 6.7 340 07:22 01.07.2020
532 Clouds 19 1015 88 10000 6.2 330 06:54 01.07.2020
533 Clouds 19 1015 88 10000 6.2 330 06:32 01.07.2020
534 Clouds 19 1015 82 10000 8.2 350 05:44 01.07.2020
535 Clouds 19 1015 88 10000 3.1 350 04:26 01.07.2020
536 Clouds 19 1015 82 10000 5.1 350 03:40 01.07.2020
537 Clouds 19 1015 82 10000 2.6 330 03:20 01.07.2020
538 Clouds 19 1015 88 10000 6.2 350 01:56 01.07.2020
539 Clouds 19 1015 82 10000 8.2 340 00:48 01.07.2020
540 Clouds 20 1014 82 10000 9.3 330 00:28 01.07.2020
541 Clouds 20 1014 82 10000 9.3 330 23:59 30.06.2020
542 Clouds 20 1014 82 10000 9.3 330 23:39 30.06.2020
543 Clouds 20 1014 77 10000 9.3 330 23:19 30.06.2020
544 Clouds 20 1014 82 10000 8.2 320 22:42 30.06.2020
545 Clouds 20 1013 77 10000 7.2 320 22:19 30.06.2020
546 Clouds 21 1013 77 10000 7.2 330 21:43 30.06.2020
547 Clouds 21 1013 73 10000 7.2 320 21:20 30.06.2020
548 Clouds 22 1013 69 10000 6.7 320 20:59 30.06.2020
549 Clouds 22 1013 69 10000 6.7 320 20:41 30.06.2020
550 Clouds 22 1013 69 10000 6.7 320 20:20 30.06.2020
551 Clouds 23 1013 69 10000 6.7 310 19:44 30.06.2020
552 Clouds 23 1013 69 10000 6.7 310 19:21 30.06.2020
553 Clouds 23 1013 69 10000 6.7 310 19:21 30.06.2020
554 Clouds 23 1013 69 10000 6.7 310 19:21 30.06.2020
555 Clouds 23 1013 64 10000 5.7 300 18:58 30.06.2020
556 Clouds 23 1013 64 10000 5.7 300 18:40 30.06.2020
557 Clouds 24 1013 61 10000 5.1 300 18:20 30.06.2020
558 Clouds 24 1013 61 10000 5.1 310 17:39 30.06.2020
559 Clouds 24 1013 57 10000 5.1 310 17:20 30.06.2020
560 Clouds 25 1013 57 10000 5.1 320 16:57 30.06.2020
561 Clouds 25 1013 57 10000 5.1 320 16:39 30.06.2020
562 Clouds 25 1013 57 10000 4.6 310 16:19 30.06.2020
563 Clouds 25 1013 57 10000 4.1 310 15:56 30.06.2020
564 Clouds 25 1013 57 10000 4.1 310 15:37 30.06.2020
565 Clouds 25 1014 57 10000 4.6 320 15:19 30.06.2020
566 Clouds 24 1014 64 10000 4.6 310 14:43 30.06.2020
567 Clouds 24 1014 64 10000 4.6 310 14:21 30.06.2020
568 Clouds 24 1014 64 10000 4.1 310 13:54 30.06.2020
569 Clouds 23 1014 64 10000 4.1 310 13:36 30.06.2020
570 Clouds 23 1013 69 10000 4.1 310 13:18 30.06.2020
571 Clouds 22 1013 73 10000 5.7 330 12:54 30.06.2020
572 Clouds 22 1013 73 10000 5.7 330 12:36 30.06.2020
573 Clouds 22 1013 73 10000 4.6 320 12:18 30.06.2020
574 Clouds 21 1013 77 10000 5.1 310 11:39 30.06.2020
575 Clouds 21 1013 77 10000 5.1 310 11:20 30.06.2020
576 Clouds 21 1013 77 10000 5.1 310 11:20 30.06.2020
577 Clouds 20 1013 77 10000 4.1 310 11:00 30.06.2020
578 Clouds 27 1019 48 10000 8.2 340 16:45 28.06.2020
579 Clouds 27 1019 48 10000 7.7 340 16:27 28.06.2020
580 Clouds 26 1019 51 10000 7.2 330 15:59 28.06.2020
581 Clouds 26 1019 51 10000 7.2 330 15:39 28.06.2020
582 Clouds 26 1019 51 10000 7.2 340 15:20 28.06.2020
583 Clouds 26 1020 54 10000 7.2 330 14:55 28.06.2020
584 Clouds 26 1020 54 10000 7.2 330 14:37 28.06.2020
585 Clouds 26 1020 54 10000 8.2 350 14:19 28.06.2020
586 Clouds 25 1020 57 10000 9.3 340 13:39 28.06.2020
587 Clouds 24 1020 60 10000 7.7 350 13:21 28.06.2020
588 Clouds 24 1020 60 10000 6.7 340 12:57 28.06.2020
589 Clouds 24 1020 60 10000 6.7 340 12:38 28.06.2020
590 Clouds 23 1020 64 10000 7.2 350 12:19 28.06.2020
591 Clouds 22 1020 68 10000 6.7 350 11:58 28.06.2020
592 Clouds 22 1020 68 10000 6.7 350 11:39 28.06.2020
593 Clouds 22 1020 68 10000 6.7 350 11:39 28.06.2020
594 Clouds 21 1020 73 10000 5.1 350 11:20 28.06.2020
595 Clouds 21 1020 73 10000 5.1 340 10:57 28.06.2020
596 Clouds 21 1020 73 10000 5.1 340 10:39 28.06.2020
597 Clouds 20 1020 77 10000 3.6 340 10:21 28.06.2020
598 Clouds 20 1020 77 10000 4.1 340 09:40 28.06.2020
599 Clouds 19 1020 82 10000 5.7 330 09:21 28.06.2020
600 Clouds 19 1019 82 10000 5.7 330 08:53 28.06.2020
601 Clouds 19 1019 82 10000 5.7 330 08:34 28.06.2020
602 Clouds 19 1019 82 10000 3.6 340 07:55 28.06.2020
603 Clouds 19 1019 82 10000 2.6 330 07:31 28.06.2020
604 Clouds 20 1019 88 10000 2.6 360 06:55 28.06.2020
605 Clouds 19 1019 88 10000 2.1 0 06:32 28.06.2020
606 Clouds 19 1019 88 10000 4.6 330 05:45 28.06.2020
607 Clouds 19 1019 88 10000 5.1 330 04:24 28.06.2020
608 Clouds 20 1020 93 10000 5.1 330 02:56 28.06.2020
609 Clouds 20 1020 88 10000 5.7 330 02:19 28.06.2020
610 Clouds 20 1020 88 10000 6.2 320 01:27 28.06.2020
611 Clouds 20 1020 93 10000 5.1 310 00:55 28.06.2020
612 Clouds 20 1020 93 10000 5.1 310 00:29 28.06.2020
613 Clouds 20 1020 88 10000 4.6 310 23:58 27.06.2020
614 Clouds 20 1020 88 10000 4.6 310 23:39 27.06.2020
615 Clouds 20 1019 88 10000 6.2 310 23:19 27.06.2020
616 Clouds 20 1019 88 10000 6.7 310 22:42 27.06.2020
617 Clouds 20 1019 83 10000 5.1 310 22:23 27.06.2020
618 Clouds 20 1019 83 10000 5.1 310 22:23 27.06.2020
619 Clouds 21 1019 78 10000 6.2 310 21:59 27.06.2020
620 Clouds 21 1019 78 10000 6.2 310 21:40 27.06.2020
621 Clouds 22 1019 73 10000 5.7 300 21:20 27.06.2020
622 Clouds 22 1019 73 10000 5.7 300 21:20 27.06.2020
623 Clouds 22 1019 69 10000 5.1 310 20:55 27.06.2020
624 Clouds 22 1019 69 10000 5.1 310 20:37 27.06.2020
625 Clouds 22 1019 69 10000 5.7 310 20:18 27.06.2020
626 Clouds 24 1019 61 10000 5.1 310 19:37 27.06.2020
627 Clouds 24 1019 61 10000 5.1 310 19:19 27.06.2020
628 Clouds 24 1019 61 10000 5.1 310 18:48 27.06.2020
629 Clouds 25 1019 61 10000 5.7 310 18:29 27.06.2020
630 Clouds 25 1019 57 10000 5.1 320 17:59 27.06.2020
631 Clouds 25 1019 57 10000 5.1 320 17:40 27.06.2020
632 Clouds 25 1019 51 10000 4.1 300 17:20 27.06.2020
633 Clouds 25 1019 54 10000 4.1 350 16:57 27.06.2020
634 Clouds 26 1019 54 10000 4.1 350 16:38 27.06.2020
635 Clouds 25 1019 57 10000 4.1 20 16:19 27.06.2020
636 Clouds 25 1020 61 10000 3.6 320 15:42 27.06.2020
637 Clouds 25 1020 61 10000 3.6 320 15:24 27.06.2020
638 Clouds 24 1020 69 10000 3.6 320 14:57 27.06.2020
639 Clouds 24 1020 69 10000 3.6 320 14:38 27.06.2020
640 Clouds 23 1020 69 10000 3.1 340 14:19 27.06.2020
641 Clouds 23 1020 69 10000 3.1 340 13:42 27.06.2020
642 Clouds 22 1020 77 10000 3.1 300 13:20 27.06.2020
643 Clouds 22 1020 77 10000 3.1 320 12:58 27.06.2020
644 Clouds 22 1020 77 10000 3.1 320 12:40 27.06.2020
645 Clouds 21 1020 82 10000 3.1 300 12:22 27.06.2020
646 Clouds 21 1020 82 10000 2.6 290 11:58 27.06.2020
647 Clouds 21 1020 82 10000 2.6 290 11:38 27.06.2020
648 Clouds 21 1020 82 10000 2.6 330 11:19 27.06.2020
649 Clouds 20 1020 88 10000 2.1 330 10:41 27.06.2020
650 Clouds 19 1019 93 10000 1.5 320 10:19 27.06.2020
651 Clouds 19 1019 100 10000 2.6 360 09:58 27.06.2020
652 Clouds 19 1019 100 10000 2.6 360 09:39 27.06.2020
653 Clouds 19 1019 100 10000 2.6 350 09:20 27.06.2020
654 Drizzle 19 1019 100 2500 1.97 328 08:44 27.06.2020
655 Drizzle 19 1019 93 3500 1 0 08:23 27.06.2020
656 Drizzle 18 1019 93 3500 1 0 07:48 27.06.2020
657 Drizzle 19 1019 93 4000 1.5 260 07:25 27.06.2020
658 Clouds 19 1018 93 10000 1.5 320 06:52 27.06.2020
659 Clouds 19 1018 88 10000 2.1 330 06:33 27.06.2020
660 Clouds 19 1018 88 10000 3.1 310 04:52 27.06.2020
661 Clouds 19 1018 88 10000 2.6 310 04:18 27.06.2020
662 Clouds 19 1019 88 10000 2.6 300 03:46 27.06.2020
663 Clouds 19 1019 88 10000 4.1 300 02:43 27.06.2020
664 Clouds 19 1019 88 10000 3.6 300 02:24 27.06.2020
665 Clouds 19 1019 88 10000 2.6 290 01:34 27.06.2020
666 Clouds 19 1019 88 10000 3.6 280 00:47 27.06.2020
667 Clouds 19 1019 82 10000 3.6 290 23:56 26.06.2020
668 Clouds 19 1019 82 10000 3.6 290 23:37 26.06.2020
669 Clouds 20 1018 82 10000 3.1 300 23:19 26.06.2020
670 Clouds 20 1018 82 10000 4.1 310 22:42 26.06.2020
671 Clouds 20 1018 77 10000 5.1 300 22:24 26.06.2020
672 Clouds 20 1018 68 10000 5.1 300 21:58 26.06.2020
673 Clouds 20 1018 68 10000 5.1 300 21:39 26.06.2020
674 Clouds 21 1018 68 10000 5.7 290 21:21 26.06.2020
675 Clouds 21 1018 68 10000 6.2 300 20:58 26.06.2020
676 Clouds 21 1018 68 10000 6.2 300 20:38 26.06.2020
677 Clouds 21 1018 64 10000 5.1 290 20:18 26.06.2020
678 Clouds 21 1018 64 10000 5.1 290 19:40 26.06.2020
679 Clouds 22 1018 57 10000 5.7 330 19:20 26.06.2020
680 Clouds 22 1018 56 10000 4.6 310 18:43 26.06.2020
681 Clouds 22 1018 49 10000 5.1 300 18:25 26.06.2020
682 Clouds 23 1018 47 10000 4.6 0 17:54 26.06.2020
683 Clouds 23 1018 47 10000 4.6 0 17:36 26.06.2020
684 Clear 22 1018 46 10000 4.1 310 17:18 26.06.2020
685 Clear 22 1018 46 10000 4.6 320 16:42 26.06.2020
686 Clouds 22 1019 43 10000 4.1 300 16:23 26.06.2020
687 Clouds 22 1019 46 10000 4.1 330 15:41 26.06.2020
688 Clouds 22 1019 49 10000 3.1 310 15:22 26.06.2020
689 Clouds 22 1019 53 10000 4.1 340 14:58 26.06.2020
690 Clouds 22 1019 53 10000 4.1 340 14:40 26.06.2020
691 Clouds 22 1019 53 10000 3.6 300 14:21 26.06.2020
692 Clouds 21 1019 60 10000 3.6 310 13:47 26.06.2020
693 Clouds 20 1018 56 10000 4.1 320 13:25 26.06.2020
694 Clouds 20 1018 56 10000 4.1 320 12:59 26.06.2020
695 Clouds 20 1018 56 10000 4.1 320 12:41 26.06.2020
696 Clouds 20 1018 68 10000 4.1 310 12:22 26.06.2020
697 Clouds 20 1018 68 10000 4.1 320 11:57 26.06.2020
698 Clouds 19 1018 68 10000 4.1 320 11:39 26.06.2020
699 Clouds 19 1018 64 10000 4.6 340 11:20 26.06.2020
700 Clouds 19 1018 68 10000 3.1 300 10:57 26.06.2020
701 Clouds 19 1018 68 10000 3.1 300 10:38 26.06.2020
702 Clouds 18 1018 77 10000 4.1 340 10:18 26.06.2020
703 Clouds 18 1018 77 10000 3.1 330 09:43 26.06.2020
704 Clouds 18 1018 82 10000 3.1 330 09:24 26.06.2020
705 Clouds 18 1018 82 10000 3.6 320 08:55 26.06.2020
706 Clouds 17 1018 88 10000 3.1 330 08:28 26.06.2020
707 Clouds 17 1018 93 10000 3.1 320 07:53 26.06.2020
708 Clouds 17 1017 88 10000 3.1 330 07:24 26.06.2020
709 Clouds 17 1017 88 10000 3.1 330 06:58 26.06.2020
710 Clouds 17 1017 88 10000 3.1 330 06:36 26.06.2020
711 Clouds 17 1017 88 10000 3.1 330 06:18 26.06.2020
712 Clouds 17 1017 88 10000 4.6 330 05:41 26.06.2020
713 Clouds 17 1018 88 10000 5.1 340 03:52 26.06.2020
714 Clouds 18 1018 82 10000 5.1 340 02:22 26.06.2020
715 Clouds 18 1018 82 10000 5.7 330 01:20 26.06.2020
716 Clouds 18 1018 82 10000 8.2 340 00:41 26.06.2020
717 Clouds 18 1018 82 10000 7.2 340 00:19 26.06.2020
718 Clouds 19 1017 77 10000 5.1 330 23:42 25.06.2020
719 Clouds 18 1017 77 10000 7.2 320 23:18 25.06.2020
720 Clouds 18 1017 77 10000 8.7 310 22:56 25.06.2020
721 Clouds 18 1017 77 10000 8.7 310 22:37 25.06.2020
722 Clouds 18 1016 72 10000 8.7 310 22:18 25.06.2020
723 Clouds 19 1016 72 10000 7.2 300 21:56 25.06.2020
724 Clouds 19 1016 72 10000 7.2 300 21:56 25.06.2020
725 Clouds 19 1016 72 10000 7.2 300 21:38 25.06.2020
726 Clouds 20 1016 68 10000 7.7 310 21:19 25.06.2020
727 Clouds 20 1016 68 10000 7.7 310 20:45 25.06.2020
728 Clouds 21 1016 64 10000 8.2 310 20:24 25.06.2020
729 Clouds 21 1016 64 10000 8.2 310 19:58 25.06.2020
730 Clouds 21 1016 64 10000 8.2 310 19:40 25.06.2020
731 Clouds 21 1016 64 10000 8.2 310 19:40 25.06.2020
732 Clouds 23 1016 53 10000 5.1 310 19:19 25.06.2020
733 Clouds 22 1016 53 10000 5.1 310 18:57 25.06.2020
734 Clouds 23 1016 53 10000 5.1 310 18:37 25.06.2020
735 Clouds 23 1016 50 10000 5.7 310 18:19 25.06.2020
736 Clouds 23 1016 53 10000 5.7 310 17:41 25.06.2020
737 Clouds 23 1016 56 10000 5.1 320 17:19 25.06.2020
738 Clouds 23 1017 56 10000 6.2 320 16:57 25.06.2020
739 Clouds 23 1017 56 10000 6.2 320 16:37 25.06.2020
740 Clouds 23 1016 60 10000 6.2 310 16:18 25.06.2020
741 Clouds 23 1017 56 10000 5.7 320 15:41 25.06.2020
742 Clouds 23 1017 60 10000 5.1 320 15:21 25.06.2020
743 Clouds 22 1017 64 10000 6.7 350 14:44 25.06.2020
744 Clouds 22 1017 60 10000 5.1 330 14:25 25.06.2020
745 Clouds 22 1017 60 0 5.7 320 13:57 25.06.2020
746 Clouds 22 1017 60 0 5.7 320 13:38 25.06.2020
747 Clouds 21 1017 64 0 5.7 330 13:19 25.06.2020
748 Clouds 21 1017 64 0 5.7 330 12:46 25.06.2020
749 Clouds 20 1017 64 10000 5.1 340 12:21 25.06.2020
750 Clouds 20 1017 72 10000 7.7 340 11:58 25.06.2020
751 Clouds 20 1017 72 10000 7.7 340 11:40 25.06.2020
752 Clouds 19 1017 72 10000 5.7 340 11:21 25.06.2020
753 Clouds 19 1017 77 10000 6.2 340 10:42 25.06.2020
754 Clouds 19 1016 77 10000 5.7 330 10:24 25.06.2020
755 Clouds 18 1016 82 10000 6.2 330 09:42 25.06.2020
756 Clouds 18 1016 82 10000 5.1 340 09:23 25.06.2020
757 Clouds 18 1016 82 10000 5.1 340 09:23 25.06.2020
758 Clouds 18 1016 82 10000 4.1 330 08:59 25.06.2020
759 Clouds 17 1016 82 10000 4.1 330 08:40 25.06.2020
760 Clouds 17 1016 87 10000 4.6 330 08:18 25.06.2020
761 Clouds 17 1016 87 10000 4.6 330 07:42 25.06.2020
762 Clouds 17 1015 87 10000 5.7 330 07:24 25.06.2020
763 Clouds 17 1015 87 10000 6.2 330 06:37 25.06.2020
764 Clouds 17 1015 87 10000 6.2 330 06:18 25.06.2020
765 Clouds 17 1015 87 10000 6.2 320 05:32 25.06.2020
766 Clouds 17 1016 82 10000 4.6 320 03:42 25.06.2020
767 Clouds 17 1016 82 10000 4.1 330 02:56 25.06.2020
768 Clouds 17 1016 82 10000 4.1 330 02:37 25.06.2020
769 Clouds 18 1016 82 10000 3.1 320 01:42 25.06.2020
770 Clouds 18 1016 82 10000 6.2 330 00:51 25.06.2020
771 Clouds 18 1016 82 10000 6.7 330 00:25 25.06.2020
772 Clouds 18 1015 77 10000 7.7 320 23:59 24.06.2020
773 Clouds 18 1015 77 10000 7.7 320 23:38 24.06.2020
774 Clouds 18 1015 77 10000 8.2 310 23:20 24.06.2020
775 Clouds 18 1015 72 10000 7.2 320 22:43 24.06.2020
776 Clouds 18 1015 72 10000 7.2 320 22:22 24.06.2020
777 Clouds 19 1014 72 10000 11.3 360 21:57 24.06.2020
778 Clouds 19 1015 64 10000 7.7 330 21:38 24.06.2020
779 Clear 20 1015 64 10000 7.2 330 21:20 24.06.2020
780 Clear 21 1014 60 10000 7.2 330 20:59 24.06.2020
781 Clear 21 1014 60 10000 7.2 330 20:59 24.06.2020
782 Clear 21 1014 60 10000 7.2 330 20:41 24.06.2020
783 Clear 22 1014 57 10000 5.7 320 20:22 24.06.2020
784 Clear 23 1015 57 10000 6.7 330 19:59 24.06.2020
785 Clear 23 1015 57 10000 6.7 330 19:39 24.06.2020
786 Clear 24 1015 57 10000 5.1 320 19:21 24.06.2020
787 Clear 24 1015 53 10000 5.7 320 18:58 24.06.2020
788 Clear 24 1015 53 10000 5.7 320 18:58 24.06.2020
789 Clear 24 1015 53 10000 5.7 320 18:40 24.06.2020
790 Clear 24 1015 53 10000 5.7 320 18:21 24.06.2020
791 Clouds 24 1015 53 10000 5.7 340 17:56 24.06.2020
792 Clouds 24 1015 53 10000 5.7 340 17:56 24.06.2020
793 Clouds 24 1015 53 10000 5.7 340 17:38 24.06.2020
794 Clouds 24 1016 53 10000 5.1 320 17:19 24.06.2020
795 Clouds 24 1016 57 10000 5.1 330 16:56 24.06.2020
796 Clouds 24 1016 57 10000 5.1 330 16:37 24.06.2020
797 Clouds 24 1016 57 10000 5.1 330 16:37 24.06.2020
798 Clouds 25 1016 57 10000 5.1 330 16:19 24.06.2020
799 Clouds 25 1016 50 10000 4.6 330 15:56 24.06.2020
800 Clouds 25 1016 50 10000 4.6 330 15:37 24.06.2020
801 Clouds 24 1016 60 10000 4.6 320 15:19 24.06.2020
802 Clouds 23 1016 64 10000 5.1 330 14:42 24.06.2020
803 Clouds 23 1016 64 10000 5.1 350 14:24 24.06.2020
804 Clouds 23 1016 64 10000 4.1 330 13:43 24.06.2020
805 Clouds 23 1016 64 10000 4.1 330 13:22 24.06.2020
806 Clouds 22 1016 64 10000 4.6 320 12:56 24.06.2020
807 Clouds 22 1016 68 10000 3.6 330 12:37 24.06.2020
808 Clouds 21 1016 68 10000 3.6 330 12:18 24.06.2020
809 Clouds 21 1016 77 10000 3.6 340 11:54 24.06.2020
810 Clouds 21 1016 77 10000 3.6 340 11:36 24.06.2020
811 Clouds 21 1016 77 10000 3.6 340 11:36 24.06.2020
812 Clouds 20 1016 77 10000 4.6 350 11:18 24.06.2020
813 Clouds 19 1016 82 10000 5.7 340 10:41 24.06.2020
814 Clouds 18 1016 82 10000 5.7 330 10:18 24.06.2020
815 Clouds 18 1016 82 10000 5.7 340 09:42 24.06.2020
816 Clouds 17 1016 88 8000 5.1 330 09:21 24.06.2020
817 Clouds 17 1015 88 8000 5.1 330 08:42 24.06.2020
818 Clouds 17 1015 93 9000 6.2 320 08:21 24.06.2020
819 Clouds 17 1015 93 9000 6.2 320 07:51 24.06.2020
820 Clouds 17 1015 93 9000 5.7 310 07:31 24.06.2020
821 Clouds 17 1015 88 10000 5.7 330 06:51 24.06.2020
822 Clouds 17 1015 88 10000 3.6 320 06:25 24.06.2020
823 Clouds 17 1015 88 10000 2.6 320 05:57 24.06.2020
824 Clouds 17 1015 88 10000 3.6 330 04:46 24.06.2020
825 Clouds 17 1015 88 10000 3.1 320 04:28 24.06.2020
826 Clouds 18 1016 88 10000 3.6 310 03:34 24.06.2020
827 Clouds 18 1015 88 10000 4.1 300 02:50 24.06.2020
828 Clouds 18 1015 88 10000 7.2 330 01:45 24.06.2020
829 Clouds 18 1015 88 10000 2.6 0 00:47 24.06.2020
830 Clouds 18 1014 82 10000 3.6 340 00:27 24.06.2020
831 Clouds 19 1014 82 10000 3.1 360 23:46 23.06.2020
832 Clouds 19 1014 77 10000 4.1 0 23:20 23.06.2020
833 Clouds 19 1014 82 10000 6.2 310 22:57 23.06.2020
834 Clouds 19 1014 82 10000 6.2 310 22:36 23.06.2020
835 Clouds 19 1013 77 10000 7.7 310 22:18 23.06.2020
836 Clouds 20 1013 77 10000 7.7 310 21:41 23.06.2020
837 Clouds 20 1013 77 10000 6.7 310 21:20 23.06.2020
838 Clouds 20 1013 77 10000 6.7 310 21:20 23.06.2020
839 Clouds 21 1013 77 10000 6.7 310 20:56 23.06.2020
840 Clouds 22 1013 77 10000 6.7 310 20:37 23.06.2020
841 Clouds 22 1013 73 10000 7.7 310 20:19 23.06.2020
842 Clouds 22 1013 69 10000 8.7 310 19:49 23.06.2020
843 Clouds 24 1013 69 10000 7.2 300 19:28 23.06.2020
844 Clouds 24 1013 65 10000 6.7 310 18:55 23.06.2020
845 Clouds 24 1013 65 10000 7.2 300 18:37 23.06.2020
846 Clouds 24 1013 65 10000 7.2 300 18:18 23.06.2020
847 Clouds 26 1013 57 10000 6.7 310 17:39 23.06.2020
848 Clouds 26 1014 57 10000 5.7 300 17:21 23.06.2020
849 Clouds 27 1014 58 10000 5.1 300 16:56 23.06.2020
850 Clouds 27 1014 58 10000 5.1 300 16:38 23.06.2020
851 Clouds 27 1014 58 10000 5.1 300 16:38 23.06.2020
852 Clear 27 1014 57 10000 5.7 310 16:20 23.06.2020
853 Clouds 27 1014 57 10000 5.7 310 15:55 23.06.2020
854 Clouds 27 1014 57 10000 5.7 310 15:37 23.06.2020
855 Clouds 27 1014 61 10000 5.7 310 15:18 23.06.2020
856 Clouds 26 1014 61 10000 5.7 310 14:42 23.06.2020
857 Clouds 26 1014 57 10000 4.6 320 14:19 23.06.2020
858 Clouds 26 1015 61 10000 4.6 320 13:56 23.06.2020
859 Clouds 25 1015 65 10000 4.1 310 13:38 23.06.2020
860 Clouds 25 1015 65 10000 4.1 310 13:20 23.06.2020
861 Clouds 25 1015 65 10000 4.1 330 12:41 23.06.2020
862 Clouds 23 1015 69 10000 4.6 340 12:22 23.06.2020
863 Clouds 23 1015 73 10000 4.6 340 11:58 23.06.2020
864 Clouds 22 1015 73 10000 4.6 340 11:39 23.06.2020
865 Clouds 21 1014 77 10000 3.6 330 11:19 23.06.2020
866 Clouds 20 1014 77 10000 5.7 310 10:55 23.06.2020
867 Clouds 20 1014 77 10000 5.7 310 10:37 23.06.2020
868 Clouds 20 1014 82 10000 6.2 310 10:19 23.06.2020
869 Clouds 19 1014 82 10000 5.7 320 09:41 23.06.2020
870 Clouds 19 1014 88 10000 5.7 310 09:20 23.06.2020
871 Clouds 19 1014 88 10000 5.1 310 08:48 23.06.2020
872 -273 0 0 0 0 0 08:29 23.06.2020
873 Clouds 18 1014 88 10000 5.1 310 07:59 23.06.2020
874 Clouds 18 1014 88 10000 4.1 320 07:39 23.06.2020
875 Clouds 18 1014 88 10000 4.1 320 07:21 23.06.2020
876 Clear 18 1014 88 10000 4.1 310 06:48 23.06.2020
877 Clear 18 1014 88 10000 4.6 320 06:30 23.06.2020
878 Clear 19 1014 88 10000 5.7 320 05:39 23.06.2020
879 Clear 19 1015 77 10000 4.6 320 03:39 23.06.2020
880 Clear 20 1015 72 10000 4.1 330 02:56 23.06.2020
881 Clear 20 1015 72 10000 4.1 330 02:36 23.06.2020
882 Clear 20 1015 72 10000 3.6 350 01:51 23.06.2020
883 Clear 21 1016 68 10000 4.1 350 01:32 23.06.2020
884 Clear 21 1015 64 10000 3.6 340 00:56 23.06.2020
885 Clear 22 1016 64 10000 5.7 320 00:24 23.06.2020
886 Clear 22 1015 64 10000 5.7 310 23:56 22.06.2020
887 Clear 22 1015 64 10000 5.7 310 23:38 22.06.2020
888 Clear 23 1015 57 10000 6.2 310 23:19 22.06.2020
889 Clear 24 1015 53 10000 6.2 310 22:56 22.06.2020
890 Clear 23 1015 53 10000 6.2 310 22:37 22.06.2020
891 Clear 25 1015 50 10000 6.2 320 22:19 22.06.2020
892 Clear 25 1015 51 10000 7.2 320 21:57 22.06.2020
893 Clear 26 1015 51 10000 7.2 320 21:38 22.06.2020
894 Clear 26 1015 48 10000 8.2 330 21:20 22.06.2020
895 Clear 28 1015 45 10000 7.2 320 20:41 22.06.2020
896 Clear 28 1015 42 10000 6.7 330 20:23 22.06.2020
897 Clear 28 1015 42 10000 6.7 330 19:56 22.06.2020
898 Clear 29 1016 40 10000 5.7 330 19:37 22.06.2020
899 Clear 29 1016 40 10000 5.7 330 19:18 22.06.2020
900 Clear 30 1016 40 10000 5.7 330 18:40 22.06.2020
901 Clear 30 1016 40 10000 5.7 330 18:22 22.06.2020
902 Clear 31 1016 40 10000 4.1 310 17:57 22.06.2020
903 Clear 31 1016 38 10000 4.6 350 17:38 22.06.2020
904 Clear 31 1016 38 10000 4.6 350 17:20 22.06.2020
905 Clear 31 1016 40 10000 3.6 0 16:56 22.06.2020
906 Clear 31 1017 38 10000 3.1 340 16:38 22.06.2020
907 Clear 32 1017 38 10000 3.1 340 16:18 22.06.2020
908 Clear 31 1018 43 10000 3.6 350 15:44 22.06.2020
909 Clear 31 1018 43 10000 3.6 350 15:25 22.06.2020
910 Clear 29 1018 48 10000 3.6 360 14:57 22.06.2020
911 Clear 29 1018 45 10000 3.1 0 14:37 22.06.2020
912 Clear 29 1018 45 10000 3.1 0 14:19 22.06.2020
913 Clouds 28 1019 51 10000 3.6 350 13:54 22.06.2020
914 Clouds 27 1019 54 10000 4.1 360 13:36 22.06.2020
915 Clouds 25 1019 54 10000 3.6 350 13:18 22.06.2020
916 Clouds 25 1019 61 10000 3.6 340 12:41 22.06.2020
917 Clouds 25 1019 61 10000 3.6 340 12:22 22.06.2020
918 Clouds 22 1019 73 10000 4.1 330 11:38 22.06.2020
919 Clouds 22 1019 73 10000 4.1 330 11:19 22.06.2020
920 Clouds 21 1020 77 10000 4.1 330 10:57 22.06.2020
921 Clouds 20 1020 77 10000 5.1 340 10:39 22.06.2020
922 Clouds 20 1020 77 10000 4.1 320 10:19 22.06.2020
923 Clouds 19 1020 77 10000 4.1 320 09:58 22.06.2020
924 Clouds 19 1020 88 10000 4.1 320 09:39 22.06.2020
925 Clouds 19 1020 88 10000 4.1 320 09:19 22.06.2020
926 Clouds 18 1020 88 10000 5.7 320 08:57 22.06.2020
927 Clouds 18 1020 93 10000 5.1 320 08:38 22.06.2020
928 Clouds 18 1020 93 10000 5.1 320 08:19 22.06.2020
929 Clouds 18 1020 93 10000 4.6 320 07:49 22.06.2020
930 Clouds 18 1020 88 10000 4.6 320 07:30 22.06.2020
931 Clouds 18 1020 88 10000 4.1 330 06:43 22.06.2020
932 Clouds 18 1020 88 10000 4.1 330 06:24 22.06.2020
933 Clouds 18 1021 88 10000 3.6 330 05:43 22.06.2020
934 Clear 18 1022 88 10000 6.2 330 03:48 22.06.2020
935 Clouds 19 1023 82 10000 7.2 320 02:28 22.06.2020
936 Clouds 19 1023 82 10000 7.7 330 01:18 22.06.2020
937 Clouds 19 1023 82 10000 8.2 330 00:39 22.06.2020
938 Clouds 19 1023 82 10000 8.2 330 23:58 21.06.2020
939 Clouds 19 1023 77 10000 8.7 320 23:39 21.06.2020
940 Clouds 19 1023 77 10000 10.3 330 23:20 21.06.2020
941 Clouds 20 1023 77 10000 10.3 330 22:57 21.06.2020
942 Clouds 20 1023 72 10000 9.3 330 22:37 21.06.2020
943 Clouds 20 1023 72 10000 9.3 330 22:19 21.06.2020
944 Clouds 20 1023 68 10000 8.7 330 21:56 21.06.2020
945 Clouds 21 1022 64 10000 8.7 320 21:38 21.06.2020
946 Clouds 21 1022 64 10000 8.7 320 21:20 21.06.2020
947 Clouds 22 1022 60 10000 8.7 330 20:57 21.06.2020
948 Clouds 23 1023 60 10000 9.8 330 20:37 21.06.2020
949 Clouds 23 1023 60 10000 9.8 330 20:18 21.06.2020
950 Clouds 24 1023 57 10000 8.2 330 19:55 21.06.2020
951 Clouds 24 1023 53 10000 7.2 340 19:37 21.06.2020
952 Clouds 24 1023 53 10000 7.2 340 19:18 21.06.2020
953 Clouds 25 1024 50 10000 7.2 350 18:40 21.06.2020
954 Clouds 25 1024 50 10000 7.2 350 18:22 21.06.2020
955 Clouds 25 1024 47 10000 7.2 340 17:59 21.06.2020
956 Clouds 25 1024 47 10000 8.2 350 17:38 21.06.2020
957 Clouds 25 1024 47 10000 8.2 350 17:19 21.06.2020
958 Clear 25 1024 47 10000 8.7 350 16:41 21.06.2020
959 Clear 25 1024 47 10000 8.7 350 16:23 21.06.2020
960 Clear 25 1025 47 10000 7.7 340 15:57 21.06.2020
961 Clear 25 1025 47 10000 7.2 350 15:37 21.06.2020
962 Clear 25 1025 47 10000 7.2 350 15:19 21.06.2020
963 Clouds 25 1025 57 10000 6.2 360 14:39 21.06.2020
964 Clouds 24 1025 57 10000 6.2 360 14:20 21.06.2020
965 Clouds 24 1025 57 10000 6.2 360 14:20 21.06.2020
966 Clouds 24 1026 57 10000 7.2 350 13:58 21.06.2020
967 Clouds 24 1026 64 10000 6.7 340 13:40 21.06.2020
968 Clouds 24 1026 64 10000 6.7 340 13:21 21.06.2020
969 Clouds 23 1026 64 10000 7.7 350 12:45 21.06.2020
970 Clouds 22 1026 64 10000 7.7 350 12:26 21.06.2020
971 Clouds 22 1026 68 10000 7.2 350 11:59 21.06.2020
972 Clouds 21 1026 68 10000 8.7 340 11:41 21.06.2020
973 Clouds 21 1026 68 10000 8.7 340 11:41 21.06.2020
974 Clouds 21 1026 68 10000 8.7 340 11:23 21.06.2020
975 Clouds 21 1026 72 10000 7.7 350 10:58 21.06.2020
976 Clouds 20 1026 77 10000 7.2 350 10:39 21.06.2020
977 Clouds 20 1026 77 10000 7.2 350 10:20 21.06.2020
978 Clouds 19 1026 77 10000 6.7 350 09:44 21.06.2020
979 Clouds 19 1026 77 10000 6.7 350 09:22 21.06.2020
980 Clouds 19 1025 82 10000 7.2 340 08:57 21.06.2020
981 Clouds 18 1025 82 10000 5.7 350 08:39 21.06.2020
982 Clouds 18 1025 82 10000 5.7 350 08:19 21.06.2020
983 Clouds 18 1025 88 10000 5.7 350 07:41 21.06.2020
984 Clouds 18 1025 88 10000 5.7 350 07:23 21.06.2020
985 Clouds 18 1025 88 10000 5.7 340 06:50 21.06.2020
986 Clouds 18 1025 88 10000 7.7 340 06:28 21.06.2020
987 Clouds 18 1025 88 10000 8.2 330 05:57 21.06.2020
988 Clouds 18 1025 88 10000 4.1 340 04:36 21.06.2020
989 Clouds 18 1025 88 10000 4.1 340 03:19 21.06.2020
990 Clouds 18 1026 88 10000 2.6 330 02:36 21.06.2020
991 Clouds 18 1025 82 10000 2.6 340 01:39 21.06.2020
992 Clouds 18 1025 82 10000 2.6 340 01:19 21.06.2020
993 Clouds 18 1025 82 10000 4.6 330 00:45 21.06.2020
994 Clouds 18 1025 82 10000 4.6 330 00:25 21.06.2020
995 Clouds 18 1025 82 10000 4.1 320 23:45 20.06.2020
996 Clouds 19 1025 82 10000 4.1 320 23:22 20.06.2020
997 Clouds 19 1024 77 10000 4.1 330 22:57 20.06.2020
998 Clouds 19 1024 77 10000 6.2 330 22:39 20.06.2020
999 Clouds 19 1024 77 10000 6.2 330 22:20 20.06.2020
1000 Clouds 19 1024 72 10000 6.7 330 21:58 20.06.2020
1001 Clouds 20 1024 72 10000 6.2 330 21:40 20.06.2020
1002 Clouds 21 1024 72 10000 6.2 330 21:21 20.06.2020
1003 Clouds 21 1024 64 10000 6.2 310 20:58 20.06.2020
1004 Clouds 21 1023 60 10000 6.7 310 20:40 20.06.2020
1005 Clouds 22 1023 60 10000 6.7 310 20:20 20.06.2020
1006 Clouds 22 1024 56 10000 9.3 340 19:57 20.06.2020
1007 Clouds 22 1024 56 10000 7.7 330 19:38 20.06.2020
1008 Clouds 22 1024 56 10000 7.7 330 19:19 20.06.2020
1009 Clouds 23 1023 50 0 7.7 330 18:42 20.06.2020
1010 Clouds 23 1023 50 0 7.7 330 18:20 20.06.2020
1011 Clouds 24 1023 53 10000 6.7 320 17:57 20.06.2020
1012 Clouds 24 1023 47 10000 6.7 320 17:39 20.06.2020
1013 Clouds 24 1023 47 10000 6.7 320 17:20 20.06.2020
1014 Clouds 24 1023 47 10000 5.7 310 16:42 20.06.2020
1015 Clouds 25 1023 47 10000 5.7 310 16:19 20.06.2020
1016 Clear 25 1024 47 10000 5.7 320 15:58 20.06.2020
1017 Clear 25 1024 50 10000 5.7 320 15:40 20.06.2020
1018 Clear 24 1024 50 10000 5.7 320 15:18 20.06.2020
1019 Clouds 24 1024 53 10000 5.1 340 14:43 20.06.2020
1020 Clouds 24 1024 53 10000 5.1 340 14:21 20.06.2020
1021 Clouds 24 1024 57 10000 4.1 330 13:46 20.06.2020
1022 Clouds 24 1024 57 10000 4.1 330 13:27 20.06.2020
1023 Clouds 23 1024 56 10000 4.6 350 12:59 20.06.2020
1024 Clouds 23 1024 64 10000 5.7 360 12:40 20.06.2020
1025 Clouds 22 1024 64 10000 5.7 360 12:20 20.06.2020
1026 Clouds 21 1023 64 10000 4.6 320 11:57 20.06.2020
1027 Clouds 21 1023 68 10000 6.2 350 11:37 20.06.2020
1028 Clouds 21 1023 68 10000 6.2 350 11:19 20.06.2020
1029 Clouds 20 1023 72 10000 5.7 360 10:47 20.06.2020
1030 Clouds 20 1023 72 10000 5.7 340 10:22 20.06.2020
1031 Clouds 19 1023 77 10000 5.1 340 09:55 20.06.2020
1032 Clouds 19 1023 82 10000 4.6 330 09:37 20.06.2020
1033 Clouds 19 1023 82 10000 4.6 330 09:19 20.06.2020
1034 Clouds 18 1022 88 10000 4.6 360 08:46 20.06.2020
1035 Clouds 18 1022 88 10000 4.6 360 08:27 20.06.2020
1036 Clouds 17 1022 82 10000 4.1 360 07:51 20.06.2020
1037 Clouds 17 1022 87 10000 6.2 340 07:28 20.06.2020
1038 Clouds 17 1022 87 10000 7.2 330 06:56 20.06.2020
1039 Clouds 17 1022 87 10000 7.2 330 06:23 20.06.2020
1040 Clouds 17 1022 87 10000 5.1 330 05:52 20.06.2020
1041 Clouds 17 1022 87 10000 6.2 340 04:58 20.06.2020
1042 Clouds 17 1022 87 10000 3.6 340 02:50 20.06.2020
1043 Clouds 17 1023 82 10000 4.6 340 01:48 20.06.2020
1044 Clouds 17 1023 82 10000 6.2 340 00:57 20.06.2020
1045 Clouds 17 1023 82 10000 5.7 340 00:21 20.06.2020
1046 Clouds 17 1022 77 10000 6.7 340 23:56 19.06.2020
1047 Clouds 17 1022 77 10000 6.7 340 23:56 19.06.2020
1048 Clouds 17 1022 77 10000 6.7 340 23:37 19.06.2020
1049 Clouds 17 1022 77 10000 6.2 330 23:18 19.06.2020
1050 Clear 18 1021 68 10000 6.7 330 22:41 19.06.2020
1051 Clear 18 1021 68 10000 6.7 330 22:22 19.06.2020
1052 Clear 18 1021 63 10000 8.2 330 21:59 19.06.2020
1053 Clear 19 1021 63 10000 7.7 330 21:38 19.06.2020
1054 Clear 19 1021 63 10000 7.7 330 21:18 19.06.2020
1055 Clear 19 1021 56 10000 7.7 320 20:58 19.06.2020
1056 Clear 20 1021 60 10000 7.7 330 20:40 19.06.2020
1057 Clear 20 1021 60 10000 7.7 330 20:21 19.06.2020
1058 Clear 21 1021 56 10000 6.2 320 19:57 19.06.2020
1059 Clear 21 1021 52 10000 8.2 330 19:39 19.06.2020
1060 Clear 21 1021 52 10000 8.2 330 19:21 19.06.2020
1061 Clear 21 1021 46 10000 7.2 320 18:55 19.06.2020
1062 Clear 21 1021 49 10000 8.2 330 18:37 19.06.2020
1063 Clear 21 1021 49 10000 8.2 330 18:37 19.06.2020
1064 Clear 21 1021 49 10000 8.2 330 18:37 19.06.2020
1065 Clear 21 1021 49 10000 8.2 330 18:19 19.06.2020
1066 Clear 22 1021 46 10000 6.7 320 17:40 19.06.2020
1067 Clear 22 1021 46 10000 6.7 320 17:22 19.06.2020
1068 Clear 22 1021 49 10000 6.2 320 16:57 19.06.2020
1069 Clear 22 1021 49 10000 6.2 340 16:37 19.06.2020
1070 Clear 22 1021 49 10000 6.2 340 16:19 19.06.2020
1071 Clear 22 1021 49 10000 4.6 320 15:43 19.06.2020
1072 Clear 22 1021 49 10000 4.6 320 15:25 19.06.2020
1073 Clear 22 1021 49 10000 5.1 330 14:56 19.06.2020
1074 Clear 22 1021 49 10000 6.2 340 14:38 19.06.2020
1075 Clear 22 1021 49 10000 6.2 340 14:20 19.06.2020
1076 Clear 21 1021 56 10000 4.6 300 13:55 19.06.2020
1077 Clouds 21 1021 56 10000 5.7 350 13:37 19.06.2020
1078 Clouds 21 1021 56 10000 5.7 320 13:18 19.06.2020
1079 Clouds 20 1021 60 10000 6.2 340 12:40 19.06.2020
1080 Clouds 20 1021 60 10000 6.2 340 12:18 19.06.2020
1081 Clouds 19 1020 59 10000 7.2 350 11:40 19.06.2020
1082 Clouds 19 1020 59 10000 7.2 350 11:19 19.06.2020
1083 Clouds 19 1020 63 10000 5.7 340 10:59 19.06.2020
1084 Clouds 18 1020 77 10000 6.2 350 10:41 19.06.2020
1085 Clouds 18 1020 77 10000 6.2 350 10:41 19.06.2020
1086 Clouds 18 1020 82 10000 4.6 330 10:19 19.06.2020
1087 Clouds 18 1020 77 10000 5.1 360 09:44 19.06.2020
1088 Clouds 17 1020 82 10000 4.1 340 09:25 19.06.2020
1089 Clouds 17 1020 82 10000 4.1 340 08:58 19.06.2020
1090 Clouds 16 1020 87 10000 2.6 330 08:38 19.06.2020
1091 Clouds 16 1020 87 10000 2.6 330 08:20 19.06.2020
1092 Clouds 15 1019 87 10000 1.5 330 07:41 19.06.2020
1093 Clouds 16 1019 87 10000 1.5 330 07:21 19.06.2020
1094 Clouds 16 1019 87 10000 4.6 340 06:45 19.06.2020
1095 Clouds 16 1019 87 10000 4.6 340 06:21 19.06.2020
1096 Clouds 16 1019 82 10000 4.1 330 04:59 19.06.2020
1097 Clouds 17 1019 87 10000 4.6 330 03:37 19.06.2020
1098 Clouds 17 1019 87 10000 4.6 330 02:19 19.06.2020
1099 Clouds 17 1019 82 10000 4.6 340 00:44 19.06.2020
1100 Clouds 17 1019 82 10000 4.6 340 00:22 19.06.2020
1101 Clouds 17 1019 82 10000 5.7 340 23:57 18.06.2020
1102 Clouds 17 1019 77 10000 7.2 340 23:38 18.06.2020
1103 Clouds 17 1019 77 10000 7.2 340 23:20 18.06.2020
1104 Clouds 17 1018 77 10000 7.7 330 22:41 18.06.2020
1105 Clouds 17 1018 77 10000 7.7 330 22:20 18.06.2020
1106 Clouds 18 1018 72 10000 7.7 330 21:56 18.06.2020
1107 Clouds 19 1018 63 10000 8.2 330 21:37 18.06.2020
1108 Clouds 19 1018 63 10000 8.2 330 21:19 18.06.2020
1109 Clouds 19 1017 60 10000 8.2 330 20:41 18.06.2020
1110 Clouds 19 1017 60 10000 8.2 330 20:21 18.06.2020
1111 Clouds 20 1017 56 10000 8.2 320 19:57 18.06.2020
1112 Clouds 20 1017 52 10000 8.2 320 19:39 18.06.2020
1113 Clouds 20 1017 52 10000 8.2 320 19:19 18.06.2020
1114 Clouds 20 1017 52 10000 8.2 320 19:19 18.06.2020
1115 Clouds 21 1017 52 10000 9.3 340 18:41 18.06.2020
1116 Clouds 21 1017 52 10000 9.3 340 18:22 18.06.2020
1117 Clouds 21 1017 49 10000 7.2 310 17:55 18.06.2020
1118 Clouds 21 1017 46 10000 7.2 320 17:37 18.06.2020
1119 Clouds 21 1017 46 10000 7.2 320 17:18 18.06.2020
1120 Clouds 21 1017 49 10000 7.7 320 16:43 18.06.2020
1121 Clouds 21 1017 49 10000 7.7 320 16:25 18.06.2020
1122 Clouds 21 1017 46 10000 6.7 310 15:58 18.06.2020
1123 Clouds 21 1017 49 10000 7.7 340 15:39 18.06.2020
1124 Clouds 21 1017 49 10000 7.7 340 15:20 18.06.2020
1125 Clouds 21 1017 52 10000 6.7 320 14:57 18.06.2020
1126 Clouds 21 1017 49 10000 7.2 340 14:38 18.06.2020
1127 Clouds 21 1017 49 10000 7.2 340 14:20 18.06.2020
1128 Clouds 21 1017 49 10000 6.7 350 13:48 18.06.2020
1129 Clouds 21 1017 52 10000 7.2 330 13:29 18.06.2020
1130 Clouds 20 1017 52 10000 8.2 340 12:57 18.06.2020
1131 Clouds 20 1017 56 10000 7.2 320 12:39 18.06.2020
1132 Clouds 20 1017 56 10000 7.2 320 12:20 18.06.2020
1133 Clouds 20 1017 59 10000 6.7 320 11:57 18.06.2020
1134 Clouds 19 1017 63 10000 7.2 340 11:38 18.06.2020
1135 Clouds 19 1017 63 10000 7.2 340 11:19 18.06.2020
1136 Clouds 18 1017 72 10000 5.7 340 10:40 18.06.2020
1137 Clouds 18 1016 72 10000 5.1 350 10:19 18.06.2020
1138 Clouds 17 1016 72 10000 3.6 340 09:47 18.06.2020
1139 Clouds 17 1016 72 10000 3.6 340 09:27 18.06.2020
1140 Clouds 16 1016 87 10000 4.1 340 08:58 18.06.2020
1141 Clouds 16 1016 82 10000 4.1 340 08:38 18.06.2020
1142 Clouds 16 1016 82 10000 4.1 340 08:20 18.06.2020
1143 Clouds 15 1016 82 10000 2.6 330 07:45 18.06.2020
1144 Clouds 15 1016 82 10000 2.6 330 07:26 18.06.2020
1145 Clouds 15 1016 82 10000 1.5 320 06:42 18.06.2020
1146 Clouds 16 1016 82 10000 2.6 320 05:40 18.06.2020
1147 Clouds 16 1016 82 10000 2.1 320 04:21 18.06.2020
1148 Clouds 16 1017 82 10000 2.6 330 02:37 18.06.2020
1149 Clouds 16 1017 82 10000 3.1 330 01:27 18.06.2020
1150 Clouds 16 1018 77 10000 2.6 330 00:54 18.06.2020
1151 Clouds 16 1018 77 10000 2.1 320 00:32 18.06.2020
1152 Clouds 17 1018 77 10000 2.6 310 23:57 17.06.2020
1153 Clouds 17 1018 72 10000 2.6 310 23:38 17.06.2020
1154 Clouds 17 1018 72 10000 2.6 310 23:20 17.06.2020
1155 Clouds 17 1017 72 10000 5.1 330 22:57 17.06.2020
1156 Clouds 18 1017 63 10000 3.6 330 22:37 17.06.2020
1157 Clouds 18 1017 63 10000 3.6 330 22:19 17.06.2020
1158 Clouds 19 1017 59 10000 5.1 330 21:42 17.06.2020
1159 Clouds 19 1017 59 10000 5.1 330 21:23 17.06.2020
1160 Clouds 19 1017 56 10000 5.1 330 20:59 17.06.2020
1161 Clouds 19 1017 56 10000 5.1 310 20:38 17.06.2020
1162 Clouds 20 1017 56 10000 5.1 310 20:19 17.06.2020
1163 Clouds 20 1017 52 10000 6.2 330 19:46 17.06.2020
1164 Clouds 20 1017 52 10000 6.2 330 19:46 17.06.2020
1165 Clouds 21 1017 52 10000 6.2 330 19:23 17.06.2020
1166 Clouds 21 1017 49 10000 6.7 340 18:58 17.06.2020
1167 Clouds 21 1018 46 10000 6.7 340 18:40 17.06.2020
1168 Clouds 21 1018 46 10000 6.7 340 18:22 17.06.2020
1169 Clouds 22 1018 40 10000 5.7 330 17:44 17.06.2020
1170 Clouds 22 1018 40 10000 5.7 330 17:22 17.06.2020
1171 Clouds 22 1018 40 10000 4.1 310 16:57 17.06.2020
1172 Clouds 22 1018 43 10000 4.6 310 16:38 17.06.2020
1173 Clouds 22 1018 43 10000 4.6 310 16:20 17.06.2020
1174 Clouds 22 1018 46 10000 5.1 310 15:56 17.06.2020
1175 Clouds 21 1019 49 10000 4.6 300 15:38 17.06.2020
1176 Clouds 21 1019 49 10000 4.6 300 15:18 17.06.2020
1177 Clouds 21 1019 56 10000 5.1 290 14:57 17.06.2020
1178 Clouds 21 1019 56 10000 5.1 300 14:38 17.06.2020
1179 Clouds 21 1019 56 10000 5.1 300 14:19 17.06.2020
1180 Clouds 21 1020 56 10000 4.1 290 13:42 17.06.2020
1181 Clouds 21 1020 56 10000 4.1 290 13:22 17.06.2020
1182 Clouds 20 1020 60 10000 3.6 290 12:59 17.06.2020
1183 Clouds 20 1020 60 10000 3.1 280 12:40 17.06.2020
1184 Clouds 19 1020 60 10000 3.1 280 12:21 17.06.2020
1185 Clouds 19 1020 68 10000 3.1 10 11:44 17.06.2020
1186 Clouds 18 1020 68 10000 3.1 10 11:26 17.06.2020
1187 Clouds 18 1020 68 10000 2.6 350 10:58 17.06.2020
1188 Clouds 18 1020 77 10000 1.5 310 10:38 17.06.2020
1189 Clouds 17 1020 77 10000 1.5 310 10:19 17.06.2020
1190 Clouds 17 1020 77 10000 1.5 310 10:19 17.06.2020
1191 Clouds 17 1020 82 10000 1.5 290 09:55 17.06.2020
1192 Clouds 17 1020 82 10000 1.5 320 09:37 17.06.2020
1193 Clouds 17 1020 87 10000 1.5 270 09:18 17.06.2020
1194 Clouds 17 1020 87 10000 1 0 08:44 17.06.2020
1195 Clouds 17 1020 87 10000 1 0 08:20 17.06.2020
1196 Clouds 17 1020 87 10000 1.5 230 07:55 17.06.2020
1197 Clouds 17 1020 82 10000 1.5 240 07:37 17.06.2020
1198 Clouds 17 1020 82 10000 1.5 240 07:18 17.06.2020
1199 Clouds 16 1020 93 10000 1.5 270 06:41 17.06.2020
1200 Clouds 16 1020 93 10000 1.5 270 06:22 17.06.2020
1201 Clouds 16 1020 87 10000 1.5 270 05:56 17.06.2020
1202 Clear 16 1021 87 10000 1 300 04:39 17.06.2020
1203 Clear 17 1022 77 10000 3.1 330 02:44 17.06.2020
1204 Clear 17 1022 72 10000 3.6 330 01:20 17.06.2020
1205 Clear 18 1023 72 10000 3.6 330 00:37 17.06.2020
1206 Clear 18 1023 68 10000 3.6 330 00:18 17.06.2020
1207 Clear 18 1022 72 10000 3.6 330 23:41 16.06.2020
1208 Clear 18 1022 72 10000 3.6 330 23:23 16.06.2020
1209 Clear 19 1022 68 10000 5.1 330 22:58 16.06.2020
1210 Clouds 19 1022 72 10000 3.6 320 22:39 16.06.2020
1211 Clouds 19 1022 72 10000 3.6 320 22:19 16.06.2020
1212 Clouds 20 1022 68 10000 5.7 330 21:58 16.06.2020
1213 Clouds 20 1022 64 10000 5.1 320 21:40 16.06.2020
1214 Clouds 21 1022 64 10000 5.1 320 21:22 16.06.2020
1215 Clouds 21 1022 68 10000 5.1 320 20:55 16.06.2020
1216 Clouds 21 1022 60 10000 4.1 320 20:36 16.06.2020
1217 Clouds 22 1022 60 10000 6.2 340 20:18 16.06.2020
1218 Clouds 22 1022 60 10000 6.2 340 19:56 16.06.2020
1219 Clouds 22 1022 56 10000 6.2 340 19:37 16.06.2020
1220 Clouds 22 1022 56 10000 5.7 330 19:18 16.06.2020
1221 Clouds 23 1022 53 10000 6.2 330 18:41 16.06.2020
1222 Clouds 23 1022 53 10000 6.2 330 18:41 16.06.2020
1223 Clouds 23 1022 53 10000 6.2 330 18:21 16.06.2020
1224 Clouds 23 1022 50 10000 6.2 330 17:58 16.06.2020
1225 Clouds 23 1022 53 10000 6.2 340 17:38 16.06.2020
1226 Clouds 23 1022 53 10000 6.2 340 17:20 16.06.2020
1227 Clouds 23 1022 53 10000 4.6 320 16:58 16.06.2020
1228 Clouds 23 1022 57 10000 4.6 290 16:39 16.06.2020
1229 Clouds 24 1022 57 10000 4.6 290 16:19 16.06.2020
1230 Clouds 24 1022 57 10000 4.6 290 16:19 16.06.2020
1231 Clouds 23 1022 64 10000 4.6 300 15:56 16.06.2020
1232 Clouds 23 1022 64 10000 4.6 300 15:56 16.06.2020
1233 Clouds 23 1022 64 10000 4.6 300 15:56 16.06.2020
1234 Clouds 23 1022 60 10000 4.1 300 15:38 16.06.2020
1235 Clouds 23 1022 60 10000 4.1 300 15:20 16.06.2020
1236 Clouds 23 1022 60 10000 4.6 280 14:55 16.06.2020
1237 Clouds 23 1022 64 10000 3.6 290 14:36 16.06.2020
1238 Clouds 23 1022 64 10000 3.6 290 14:18 16.06.2020
1239 Clouds 22 1023 73 10000 4.1 290 13:44 16.06.2020
1240 Clouds 21 1023 73 10000 4.1 290 13:24 16.06.2020
1241 Clouds 21 1023 73 10000 4.1 290 13:24 16.06.2020
1242 Clouds 20 1023 82 10000 4.1 280 12:42 16.06.2020
1243 Clouds 20 1023 82 10000 4.1 280 12:22 16.06.2020
1244 Clouds 20 1023 82 10000 5.1 260 11:57 16.06.2020
1245 Clouds 20 1023 93 10000 2.6 250 11:39 16.06.2020
1246 Clouds 20 1023 93 10000 2.6 250 11:21 16.06.2020
1247 Clouds 19 1023 100 10000 0.5 0 10:58 16.06.2020
1248 Clouds 19 1022 82 10000 1.5 210 10:38 16.06.2020
1249 Drizzle 19 1023 100 9000 1.5 30 10:20 16.06.2020
1250 Rain 18 1022 93 10000 1.5 90 09:44 16.06.2020
1251 Rain 18 1022 93 10000 1.5 90 09:22 16.06.2020
1252 Clouds 18 1022 93 10000 2.1 80 08:53 16.06.2020
1253 Clouds 17 1022 93 10000 0.5 0 08:32 16.06.2020
1254 Drizzle 17 1022 93 9000 1.5 220 07:52 16.06.2020
1255 Clouds 17 1022 93 10000 3.1 200 07:29 16.06.2020
1256 Rain 17 1022 88 10000 3.1 200 06:57 16.06.2020
1257 Clouds 17 1022 88 10000 1.5 200 06:34 16.06.2020
1258 Clouds 17 1022 88 10000 1.5 220 05:50 16.06.2020
1259 Clouds 17 1022 87 10000 1 240 04:55 16.06.2020
1260 Clear 17 1023 82 10000 1.5 330 03:56 16.06.2020
1261 Clear 17 1024 87 10000 1 290 02:35 16.06.2020
1262 Clouds 18 1024 82 10000 2.6 310 01:34 16.06.2020
1263 Clouds 18 1024 82 10000 2.1 290 00:57 16.06.2020
1264 Clouds 18 1024 82 10000 2.1 280 00:25 16.06.2020
1265 Clouds 18 1024 82 10000 2.6 290 23:56 15.06.2020
1266 Clouds 18 1024 72 10000 3.1 290 23:38 15.06.2020
1267 Clouds 18 1024 72 10000 3.1 300 23:19 15.06.2020
1268 Clouds 19 1023 68 10000 3.1 300 22:42 15.06.2020
1269 Clouds 19 1023 68 10000 3.1 300 22:22 15.06.2020
1270 Clouds 19 1024 63 10000 4.6 310 21:58 15.06.2020
1271 Clouds 20 1024 56 10000 4.1 300 21:38 15.06.2020
1272 Clouds 20 1024 56 10000 4.1 300 21:20 15.06.2020
1273 Clouds 20 1024 56 10000 4.6 310 20:58 15.06.2020
1274 Clouds 20 1024 60 10000 5.1 300 20:39 15.06.2020
1275 Clouds 20 1024 60 10000 5.1 300 20:19 15.06.2020
1276 Clouds 21 1024 56 10000 4.6 300 19:57 15.06.2020
1277 Clouds 21 1024 52 10000 5.1 300 19:39 15.06.2020
1278 Clouds 21 1024 49 10000 4.6 300 19:21 15.06.2020
1279 Clouds 21 1024 49 10000 4.6 300 18:57 15.06.2020
1280 Clouds 21 1024 49 10000 5.7 290 18:39 15.06.2020
1281 Clouds 22 1024 49 10000 5.7 290 18:19 15.06.2020
1282 Clouds 22 1024 46 10000 5.1 290 17:56 15.06.2020
1283 Clouds 22 1024 46 10000 5.1 290 17:56 15.06.2020
1284 Clouds 22 1024 46 10000 5.1 280 17:37 15.06.2020
1285 Clouds 22 1024 46 10000 5.1 280 17:18 15.06.2020
1286 Clear 23 1024 43 10000 3.6 300 16:41 15.06.2020
1287 Clear 23 1024 43 10000 3.6 300 16:19 15.06.2020
1288 Clouds 23 1024 46 10000 4.1 320 15:57 15.06.2020
1289 Clouds 23 1024 49 10000 3.6 320 15:39 15.06.2020
1290 Clouds 22 1024 49 10000 3.6 320 15:19 15.06.2020
1291 Clouds 22 1025 46 10000 3.1 290 14:55 15.06.2020
1292 Clouds 22 1025 46 10000 1.5 0 14:36 15.06.2020
1293 Clouds 22 1025 49 10000 2.1 0 14:18 15.06.2020
1294 Clouds 22 1025 52 10000 3.1 10 13:42 15.06.2020
1295 Clouds 22 1025 52 10000 3.1 10 13:23 15.06.2020
1296 Clouds 21 1025 52 10000 3.1 320 12:58 15.06.2020
1297 Clouds 21 1025 52 10000 3.1 360 12:39 15.06.2020
1298 Clouds 20 1025 52 10000 3.1 360 12:21 15.06.2020
1299 Clouds 19 1025 68 10000 2.1 300 11:45 15.06.2020
1300 Clouds 19 1025 68 10000 2.1 300 11:26 15.06.2020
1301 Clouds 19 1025 68 10000 2.1 300 11:26 15.06.2020
1302 Clouds 19 1025 68 10000 3.1 340 10:57 15.06.2020
1303 Clouds 19 1024 72 10000 2.1 290 10:38 15.06.2020
1304 Clouds 18 1024 72 10000 2.1 290 10:19 15.06.2020
1305 Clouds 17 1024 77 10000 0.5 0 09:42 15.06.2020
1306 Clouds 17 1024 77 10000 0.5 0 09:22 15.06.2020
1307 Clouds 16 1024 93 10000 1.21 332 08:43 15.06.2020
1308 Clouds 15 1024 93 10000 1.19 346 08:25 15.06.2020
1309 Clouds 15 1024 87 10000 1.19 346 07:51 15.06.2020
1310 Clouds 15 1023 82 10000 1 0 07:33 15.06.2020
1311 Clouds 15 1023 87 10000 2.1 290 06:57 15.06.2020
1312 Clouds 15 1023 87 10000 2.6 300 06:27 15.06.2020
1313 Clear 15 1023 87 10000 2.1 310 05:50 15.06.2020
1314 Clear 16 1024 87 10000 1.5 290 05:28 15.06.2020
1315 Clear 16 1024 87 10000 2.1 280 04:22 15.06.2020
1316 Clouds 16 1024 82 10000 2.6 290 03:48 15.06.2020
1317 Clouds 16 1024 82 10000 2.6 290 03:48 15.06.2020
1318 Clouds 16 1024 82 10000 2.6 290 02:56 15.06.2020
1319 Clouds 16 1024 82 10000 1.5 290 02:20 15.06.2020
1320 Clouds 17 1024 82 10000 2.1 310 01:41 15.06.2020
1321 Clouds 17 1024 82 10000 2.1 310 01:23 15.06.2020
1322 Clouds 17 1024 77 10000 3.1 300 00:43 15.06.2020
1323 Clouds 17 1024 77 10000 3.1 300 00:23 15.06.2020
1324 Clouds 17 1024 77 10000 2.1 290 23:56 14.06.2020
1325 Clouds 18 1023 72 10000 2.6 300 23:38 14.06.2020
1326 Clouds 18 1023 72 10000 2.6 300 23:20 14.06.2020
1327 Clear 18 1023 68 10000 3.1 300 22:56 14.06.2020
1328 Clouds 18 1023 63 10000 3.1 300 22:37 14.06.2020
1329 Clear 18 1023 59 10000 4.1 310 22:18 14.06.2020
1330 Clear 19 1023 59 10000 4.1 310 21:55 14.06.2020
1331 Clouds 19 1023 59 10000 4.1 310 21:37 14.06.2020
1332 Clouds 20 1023 59 10000 4.1 310 21:18 14.06.2020
1333 Clouds 20 1023 49 0 4.6 300 20:55 14.06.2020
1334 Clouds 20 1023 52 0 4.6 300 20:36 14.06.2020
1335 Clouds 20 1023 52 0 4.6 300 20:18 14.06.2020
1336 Clouds 20 1022 49 10000 4.6 310 19:55 14.06.2020
1337 Clouds 21 1022 46 10000 5.1 310 19:36 14.06.2020
1338 Clouds 21 1022 46 10000 5.1 310 19:18 14.06.2020
1339 Clouds 21 1022 46 10000 4.6 310 18:55 14.06.2020
1340 Clouds 21 1022 46 10000 4.1 300 18:37 14.06.2020
1341 Clouds 22 1022 46 10000 4.1 300 18:18 14.06.2020
1342 Clouds 21 1023 43 10000 3.6 280 17:40 14.06.2020
1343 Clouds 22 1023 43 10000 3.6 280 17:20 14.06.2020
1344 Clouds 22 1023 46 10000 4.1 290 16:59 14.06.2020
1345 Clouds 22 1023 46 10000 3.1 300 16:40 14.06.2020
1346 Clouds 21 1023 46 10000 3.1 300 16:20 14.06.2020
1347 Clouds 22 1023 46 10000 3.6 300 15:57 14.06.2020
1348 Clouds 22 1023 49 10000 3.6 280 15:37 14.06.2020
1349 Clouds 21 1023 49 10000 3.6 280 15:18 14.06.2020
1350 Clouds 21 1023 60 10000 5.7 230 14:41 14.06.2020
1351 Clouds 21 1023 60 10000 5.7 230 14:23 14.06.2020
1352 Clouds 21 1023 60 10000 4.6 240 13:59 14.06.2020
1353 Clouds 21 1023 46 10000 2.1 0 13:41 14.06.2020
1354 Clouds 20 1023 46 10000 2.1 0 13:22 14.06.2020
1355 Clouds 20 1023 43 10000 2.1 0 12:57 14.06.2020
1356 Clouds 20 1023 52 10000 2.6 240 12:39 14.06.2020
1357 Clouds 20 1023 52 10000 2.6 240 12:39 14.06.2020
1358 Clouds 20 1023 52 10000 2.6 240 12:21 14.06.2020
1359 Clouds 20 1023 60 10000 2.1 0 11:58 14.06.2020
1360 Clouds 19 1022 68 10000 2.1 0 11:38 14.06.2020
1361 Clouds 19 1022 68 10000 2.1 0 11:20 14.06.2020
1362 Clouds 19 1022 72 10000 2.1 300 10:42 14.06.2020
1363 Clouds 18 1022 72 10000 2.1 300 10:20 14.06.2020
1364 Clouds 18 1022 72 10000 1 0 09:57 14.06.2020
1365 Clouds 17 1022 82 10000 1.38 263 09:39 14.06.2020
1366 Clouds 17 1022 82 10000 0.82 242 09:20 14.06.2020
1367 Clouds 15 1021 87 10000 1 0 08:42 14.06.2020
1368 Clouds 14 1021 87 10000 1 0 08:21 14.06.2020
1369 Clouds 14 1021 87 10000 1 260 07:52 14.06.2020
1370 Clouds 14 1021 87 10000 1 0 07:34 14.06.2020
1371 Clouds 13 1020 93 10000 0.5 270 06:40 14.06.2020
1372 Clouds 14 1020 93 10000 0.62 347 05:49 14.06.2020
1373 Clouds 14 1020 87 10000 1.35 345 05:21 14.06.2020
1374 Clouds 15 1020 87 10000 1.35 345 04:36 14.06.2020
1375 Clouds 15 1020 87 10000 1.97 346 03:45 14.06.2020
1376 Clear 16 1021 82 10000 1.5 260 02:35 14.06.2020
1377 Clear 16 1021 77 10000 1.5 280 01:54 14.06.2020
1378 Clear 17 1021 82 10000 1 280 01:26 14.06.2020
1379 Clear 17 1021 82 10000 2.1 270 00:47 14.06.2020
1380 Clear 17 1020 82 10000 2.1 290 00:20 14.06.2020
1381 Clouds 17 1020 72 10000 3.1 300 23:46 13.06.2020
1382 Clouds 17 1020 72 10000 3.1 300 23:26 13.06.2020
1383 Clouds 17 1019 72 10000 2.6 300 22:58 13.06.2020
1384 Clouds 18 1019 68 10000 3.1 300 22:38 13.06.2020
1385 Clouds 18 1019 68 10000 3.1 300 22:19 13.06.2020
1386 Clouds 18 1019 68 10000 3.1 310 21:57 13.06.2020
1387 Clouds 19 1019 59 10000 4.1 310 21:39 13.06.2020
1388 Clouds 19 1019 59 10000 4.1 310 21:21 13.06.2020
1389 Clouds 20 1018 56 10000 3.1 300 20:44 13.06.2020
1390 Clouds 20 1018 56 10000 3.1 300 20:20 13.06.2020
1391 Clouds 20 1018 52 10000 4.1 240 19:58 13.06.2020
1392 Clouds 21 1018 56 10000 5.1 250 19:37 13.06.2020
1393 Clouds 21 1018 56 10000 5.1 250 19:19 13.06.2020
1394 Clouds 20 1019 52 10000 6.7 240 18:57 13.06.2020
1395 Clouds 20 1019 52 10000 6.2 220 18:38 13.06.2020
1396 Clouds 20 1019 49 10000 6.7 220 18:19 13.06.2020
1397 Clouds 20 1019 49 10000 6.7 220 17:55 13.06.2020
1398 Clouds 20 1018 49 10000 5.1 230 17:37 13.06.2020
1399 Clouds 19 1018 56 10000 5.7 230 17:19 13.06.2020
1400 Clouds 20 1018 60 10000 5.7 220 16:41 13.06.2020
1401 Clouds 20 1018 60 10000 5.7 220 16:20 13.06.2020
1402 Clouds 20 1018 56 10000 5.1 220 15:59 13.06.2020
1403 Clouds 20 1018 56 10000 6.2 220 15:41 13.06.2020
1404 Clouds 20 1018 56 10000 6.2 220 15:21 13.06.2020
1405 Clouds 20 1019 56 10000 3.1 220 14:44 13.06.2020
1406 Clouds 20 1019 56 10000 3.1 220 14:23 13.06.2020
1407 Clouds 20 1019 59 10000 4.6 230 13:57 13.06.2020
1408 Clouds 19 1018 68 10000 4.6 210 13:37 13.06.2020
1409 Clouds 19 1018 68 10000 4.6 210 13:18 13.06.2020
1410 Clouds 19 1018 59 10000 2.1 0 12:43 13.06.2020
1411 Clouds 19 1018 59 10000 2.1 0 12:25 13.06.2020
1412 Clouds 19 1018 59 10000 1.5 0 11:57 13.06.2020
1413 Clouds 19 1017 68 10000 2.1 10 11:37 13.06.2020
1414 Clouds 19 1017 68 10000 2.1 10 11:19 13.06.2020
1415 Clouds 18 1017 63 10000 2.6 310 10:54 13.06.2020
1416 Clouds 18 1017 72 10000 2.1 250 10:36 13.06.2020
1417 Clouds 18 1017 72 10000 2.1 250 10:18 13.06.2020
1418 Clouds 17 1017 82 10000 2.6 240 09:42 13.06.2020
1419 Clouds 16 1017 82 10000 2.6 240 09:20 13.06.2020
1420 Clouds 15 1016 87 10000 1.5 260 08:46 13.06.2020
1421 Clouds 14 1016 87 10000 1.5 260 08:27 13.06.2020
1422 Clouds 13 1015 87 10000 1 300 07:45 13.06.2020
1423 Clouds 13 1015 87 10000 1 300 07:27 13.06.2020
1424 Clear 14 1015 87 10000 2.1 270 06:47 13.06.2020
1425 Clear 14 1015 87 10000 2.1 270 06:27 13.06.2020
1426 Clear 14 1015 87 10000 2.1 250 05:36 13.06.2020
1427 Clear 14 1015 87 10000 2.1 260 04:59 13.06.2020
1428 Clouds 15 1015 87 10000 3.1 250 03:46 13.06.2020
1429 Clouds 15 1015 87 10000 2.1 270 02:53 13.06.2020
1430 Clear 15 1015 87 10000 2.6 260 02:29 13.06.2020
1431 Clouds 15 1015 87 10000 2.1 240 01:37 13.06.2020
1432 Clouds 15 1015 82 10000 2.1 240 01:18 13.06.2020
1433 Clouds 15 1015 82 10000 2.1 280 00:39 13.06.2020
1434 Clouds 15 1015 82 10000 2.1 280 00:21 13.06.2020
1435 Clouds 16 1014 77 10000 2.1 270 23:41 12.06.2020
1436 Clouds 16 1014 77 10000 2.1 270 23:19 12.06.2020
1437 Clouds 16 1014 77 10000 2.6 270 22:56 12.06.2020
1438 Clouds 16 1014 77 10000 2.1 280 22:38 12.06.2020
1439 Clouds 17 1014 77 10000 2.1 280 22:18 12.06.2020
1440 Clouds 17 1013 72 10000 3.6 290 21:44 12.06.2020
1441 Clouds 17 1013 72 10000 3.6 290 21:24 12.06.2020
1442 Clouds 17 1013 68 10000 4.1 280 20:58 12.06.2020
1443 Rain 18 1012 72 10000 4.1 290 20:39 12.06.2020
1444 Rain 18 1012 72 10000 4.1 290 20:21 12.06.2020
1445 Rain 18 1012 68 10000 5.7 260 19:47 12.06.2020
1446 Rain 18 1012 68 10000 5.7 260 19:22 12.06.2020
1447 -273 0 0 0 0 0 18:59 12.06.2020
1448 Rain 18 1012 68 10000 5.7 250 18:37 12.06.2020
1449 Rain 18 1012 68 10000 5.7 250 18:37 12.06.2020
1450 Rain 18 1012 63 10000 5.1 280 18:18 12.06.2020
1451 Clouds 18 1012 59 10000 5.1 290 17:45 12.06.2020
1452 Clouds 19 1012 59 10000 5.1 290 17:26 12.06.2020
1453 Clouds 19 1012 55 10000 4.6 280 16:58 12.06.2020
1454 Clouds 19 1012 55 10000 4.1 290 16:40 12.06.2020
1455 Clouds 19 1012 55 10000 4.1 290 16:19 12.06.2020
1456 Clouds 19 1012 63 10000 4.1 270 15:43 12.06.2020
1457 Clouds 19 1012 63 10000 4.1 270 15:19 12.06.2020
1458 Clouds 17 1012 72 10000 5.7 260 14:43 12.06.2020
1459 Clouds 17 1012 72 10000 5.7 260 14:23 12.06.2020
1460 Clouds 18 1012 82 10000 4.6 240 13:58 12.06.2020
1461 Clouds 17 1012 87 10000 4.1 220 13:40 12.06.2020
1462 Clouds 17 1012 87 10000 4.1 220 13:19 12.06.2020
1463 Rain 16 1012 82 10000 3.6 290 12:40 12.06.2020
1464 Rain 16 1012 82 10000 3.6 290 12:19 12.06.2020
1465 Clouds 17 1011 67 10000 3.6 280 11:56 12.06.2020
1466 Clouds 17 1011 67 10000 4.6 260 11:37 12.06.2020
1467 Clouds 17 1011 67 10000 4.6 260 11:19 12.06.2020
1468 Clouds 16 1011 82 10000 3.6 280 10:43 12.06.2020
1469 Clouds 16 1011 82 10000 3.6 280 10:23 12.06.2020
1470 Clouds 16 1011 72 10000 3.6 260 09:44 12.06.2020
1471 Clouds 16 1011 72 10000 3.6 260 09:21 12.06.2020
1472 Clouds 16 1011 77 10000 3.1 260 08:44 12.06.2020
1473 Clouds 16 1011 77 10000 3.1 260 08:24 12.06.2020
1474 Clouds 16 1011 77 10000 3.1 250 07:44 12.06.2020
1475 Clouds 16 1011 77 10000 3.1 250 07:25 12.06.2020
1476 Clouds 16 1011 77 10000 2.6 260 06:55 12.06.2020
1477 Clouds 15 1011 82 10000 3.1 250 06:26 12.06.2020
1478 Clouds 16 1011 77 10000 2.1 270 05:50 12.06.2020
1479 Clouds 16 1011 77 10000 2.1 280 05:29 12.06.2020
1480 Clouds 16 1012 62 10000 2.1 280 04:50 12.06.2020
1481 Clouds 16 1012 67 10000 1.5 280 03:20 12.06.2020
1482 Clouds 16 1013 77 10000 1.5 280 01:53 12.06.2020
1483 Clouds 16 1013 82 10000 1.5 280 01:26 12.06.2020
1484 Clouds 16 1013 77 10000 2.6 300 00:43 12.06.2020
1485 Clouds 16 1013 77 10000 2.6 300 00:24 12.06.2020
1486 Clouds 16 1013 82 10000 2.1 310 23:59 11.06.2020
1487 Clouds 16 1013 77 10000 3.1 300 23:40 11.06.2020
1488 Clouds 16 1013 77 10000 3.1 300 23:21 11.06.2020
1489 Clouds 16 1013 77 10000 4.1 310 22:57 11.06.2020
1490 Rain 16 1013 82 10000 4.6 310 22:38 11.06.2020
1491 Rain 16 1013 82 10000 4.6 310 22:20 11.06.2020
1492 Clouds 17 1013 67 10000 3.6 310 21:55 11.06.2020
1493 Clouds 17 1012 67 10000 4.1 310 21:37 11.06.2020
1494 Clouds 17 1012 67 10000 4.1 310 21:19 11.06.2020
1495 Clouds 18 1012 68 10000 4.6 300 20:43 11.06.2020
1496 Clouds 18 1012 68 10000 4.6 300 20:21 11.06.2020
1497 Clouds 19 1012 63 10000 5.1 310 19:55 11.06.2020
1498 Clouds 19 1013 63 10000 5.1 300 19:36 11.06.2020
1499 Clouds 19 1013 63 10000 5.1 300 19:18 11.06.2020
1500 Clouds 19 1013 63 10000 5.1 290 18:41 11.06.2020
1501 Clouds 19 1013 68 10000 4.6 300 18:20 11.06.2020
1502 Clouds 18 1013 77 10000 5.1 300 17:56 11.06.2020
1503 Clouds 19 1013 77 10000 5.1 300 17:38 11.06.2020
1504 Drizzle 18 1014 82 8000 5.1 310 17:19 11.06.2020
1505 Clouds 18 1014 88 10000 4.1 300 16:56 11.06.2020
1506 Clouds 18 1014 88 10000 4.1 300 16:37 11.06.2020
1507 Clouds 18 1014 88 10000 4.1 300 16:37 11.06.2020
1508 Drizzle 19 1014 82 10000 5.1 280 16:19 11.06.2020
1509 Clouds 19 1014 77 10000 6.2 270 15:42 11.06.2020
1510 Clouds 19 1014 82 10000 6.7 270 15:23 11.06.2020
1511 Clouds 19 1014 88 10000 3.6 280 14:56 11.06.2020
1512 Clouds 19 1014 88 10000 3.6 280 14:38 11.06.2020
1513 Clouds 19 1015 82 10000 4.1 280 14:20 11.06.2020
1514 Clouds 19 1015 82 10000 4.1 280 13:54 11.06.2020
1515 Clouds 18 1015 82 10000 3.6 290 13:36 11.06.2020
1516 Clouds 18 1015 82 10000 3.6 290 13:18 11.06.2020
1517 Rain 18 1015 82 7000 4.6 270 12:54 11.06.2020
1518 Clouds 18 1015 82 10000 2.6 280 12:36 11.06.2020
1519 Clouds 18 1015 82 10000 2.6 280 12:18 11.06.2020
1520 Drizzle 17 1015 93 5000 4.6 260 11:41 11.06.2020
1521 Clouds 17 1015 93 9000 3.1 270 11:23 11.06.2020
1522 Clouds 17 1015 87 10000 4.1 300 10:59 11.06.2020
1523 Clouds 17 1015 87 10000 4.1 300 10:41 11.06.2020
1524 Clouds 16 1015 87 10000 3.6 300 10:19 11.06.2020
1525 Clouds 17 1015 82 10000 1.5 280 09:44 11.06.2020
1526 Clouds 16 1015 82 10000 1.5 250 09:26 11.06.2020
1527 Clouds 16 1015 87 10000 2.1 270 08:55 11.06.2020
1528 Clouds 16 1015 87 10000 2.1 270 08:36 11.06.2020
1529 Clouds 16 1016 82 10000 1.5 270 08:18 11.06.2020
1530 Clouds 15 1016 82 10000 1.5 270 07:41 11.06.2020
1531 Clouds 15 1016 82 10000 0.5 0 07:23 11.06.2020
1532 Clouds 15 1016 82 10000 1 0 06:33 11.06.2020
1533 Clouds 15 1016 77 10000 2.1 310 05:57 11.06.2020
1534 Clouds 15 1017 77 10000 2.6 310 04:48 11.06.2020
1535 Clouds 15 1018 77 10000 2.6 300 03:25 11.06.2020
1536 Clouds 15 1018 77 10000 3.6 320 02:49 11.06.2020
1537 Clouds 15 1018 82 10000 3.1 320 01:57 11.06.2020
1538 Clouds 16 1018 82 10000 2.6 340 01:35 11.06.2020
1539 Clouds 16 1018 82 10000 4.1 330 00:57 11.06.2020
1540 Clouds 16 1018 72 10000 4.1 330 00:39 11.06.2020
1541 Clouds 16 1018 72 10000 4.1 330 00:19 11.06.2020
1542 Clouds 16 1018 72 10000 6.2 330 23:41 10.06.2020
1543 Clouds 16 1018 72 10000 6.2 330 23:22 10.06.2020
1544 Clouds 16 1018 72 10000 4.1 320 22:54 10.06.2020
1545 Clouds 17 1018 72 10000 4.1 320 22:36 10.06.2020
1546 Clouds 17 1018 67 10000 5.1 320 22:18 10.06.2020
1547 Clouds 17 1017 63 10000 6.2 310 21:55 10.06.2020
1548 Clouds 17 1017 63 10000 6.2 310 21:37 10.06.2020
1549 Clouds 18 1017 63 10000 6.7 310 21:18 10.06.2020
1550 Clouds 18 1017 63 10000 6.7 310 20:54 10.06.2020
1551 Clouds 18 1017 63 10000 6.2 310 20:36 10.06.2020
1552 Clouds 19 1017 63 10000 6.2 310 20:18 10.06.2020
1553 Clouds 20 1017 56 10000 7.2 330 19:38 10.06.2020
1554 Clouds 20 1017 56 10000 7.2 330 19:18 10.06.2020
1555 Clouds 20 1017 56 10000 6.7 330 18:56 10.06.2020
1556 Clouds 21 1017 56 10000 6.2 310 18:37 10.06.2020
1557 Clouds 21 1017 56 10000 6.2 310 18:19 10.06.2020
1558 Clouds 21 1018 56 10000 5.1 300 17:54 10.06.2020
1559 Clouds 21 1018 56 10000 5.1 310 17:36 10.06.2020
1560 Clouds 20 1018 56 10000 5.1 310 17:18 10.06.2020
1561 Clouds 21 1018 56 10000 5.1 320 16:41 10.06.2020
1562 Clouds 21 1018 52 10000 6.7 340 16:22 10.06.2020
1563 Clouds 21 1018 56 10000 5.7 330 15:59 10.06.2020
1564 Clouds 21 1018 56 10000 5.7 330 15:38 10.06.2020
1565 Clouds 21 1018 56 10000 4.6 310 15:20 10.06.2020
1566 Clouds 21 1018 56 10000 3.6 310 14:41 10.06.2020
1567 Clouds 21 1018 52 10000 2.6 300 14:22 10.06.2020
1568 Clouds 21 1018 52 10000 2.6 300 13:58 10.06.2020
1569 Clouds 21 1018 52 10000 2.6 300 13:39 10.06.2020
1570 Clouds 21 1018 52 10000 4.1 340 13:21 10.06.2020
1571 Clouds 20 1018 56 10000 3.6 340 12:43 10.06.2020
1572 Clouds 20 1018 59 10000 3.6 310 12:20 10.06.2020
1573 Clouds 19 1018 60 10000 4.1 310 11:56 10.06.2020
1574 Clouds 19 1018 60 10000 4.1 310 11:38 10.06.2020
1575 Clouds 19 1018 63 10000 4.1 300 11:19 10.06.2020
1576 Clouds 18 1018 63 10000 5.7 320 10:55 10.06.2020
1577 Clouds 18 1018 72 10000 5.7 330 10:36 10.06.2020
1578 Clouds 18 1018 72 10000 5.7 330 10:18 10.06.2020
1579 Clouds 17 1018 77 10000 4.6 320 09:40 10.06.2020
1580 Clouds 16 1018 82 10000 5.1 330 09:22 10.06.2020
1581 Clouds 16 1018 82 10000 5.1 330 08:44 10.06.2020
1582 Clouds 15 1018 82 10000 4.6 320 08:23 10.06.2020
1583 Clouds 15 1018 82 10000 4.6 320 07:54 10.06.2020
1584 Clouds 15 1018 82 10000 4.6 320 07:36 10.06.2020
1585 Clouds 15 1018 87 10000 5.1 330 07:18 10.06.2020
1586 Clouds 15 1018 82 10000 4.6 320 06:44 10.06.2020
1587 Clouds 15 1018 82 10000 4.6 310 06:19 10.06.2020
1588 Clouds 15 1018 82 10000 4.6 320 05:55 10.06.2020
1589 Clouds 15 1018 77 10000 5.1 320 05:23 10.06.2020
1590 Clouds 15 1018 82 10000 4.6 320 04:32 10.06.2020
1591 Clouds 15 1019 77 10000 6.7 330 02:50 10.06.2020
1592 Clouds 15 1019 82 10000 6.2 330 01:59 10.06.2020
1593 Clouds 16 1019 82 10000 6.2 330 01:35 10.06.2020
1594 Clouds 16 1019 77 10000 6.7 330 00:39 10.06.2020
1595 Clouds 16 1019 77 10000 6.7 330 00:21 10.06.2020
1596 Clouds 16 1019 72 10000 7.7 330 23:55 09.06.2020
1597 Clouds 16 1019 72 10000 7.7 330 23:37 09.06.2020
1598 Clouds 16 1019 67 10000 8.2 330 23:18 09.06.2020
1599 Clouds 16 1019 67 10000 8.2 330 22:55 09.06.2020
1600 Clouds 16 1019 67 10000 8.2 330 22:36 09.06.2020
1601 Clouds 17 1019 59 10000 9.3 330 22:18 09.06.2020
1602 Clouds 18 1018 55 10000 7.7 320 21:55 09.06.2020
1603 Clouds 18 1018 55 10000 7.7 320 21:36 09.06.2020
1604 Clouds 18 1018 52 10000 9.3 330 21:18 09.06.2020
1605 Clouds 19 1018 55 10000 7.2 320 20:56 09.06.2020
1606 Clouds 19 1018 55 10000 7.2 320 20:37 09.06.2020
1607 Clouds 20 1018 55 10000 7.2 320 20:18 09.06.2020
1608 Clouds 20 1018 52 10000 7.2 320 19:55 09.06.2020
1609 Clouds 20 1018 46 10000 7.2 320 19:36 09.06.2020
1610 Clouds 21 1018 46 10000 7.2 320 19:18 09.06.2020
1611 Clouds 21 1018 49 10000 6.2 320 18:44 09.06.2020
1612 Clouds 22 1018 49 10000 6.2 320 18:25 09.06.2020
1613 Clouds 22 1019 49 10000 6.7 330 17:57 09.06.2020
1614 Clouds 22 1019 49 10000 6.7 330 17:39 09.06.2020
1615 Clouds 21 1019 49 10000 5.7 320 17:21 09.06.2020
1616 Clouds 22 1019 49 10000 6.7 330 16:56 09.06.2020
1617 Clouds 21 1019 49 10000 6.7 330 16:37 09.06.2020
1618 Clouds 21 1019 53 10000 5.7 300 16:19 09.06.2020
1619 Clouds 22 1019 49 10000 6.2 330 15:40 09.06.2020
1620 Clouds 21 1019 53 10000 5.1 320 15:21 09.06.2020
1621 Clouds 21 1019 49 10000 4.6 330 14:57 09.06.2020
1622 Clouds 22 1019 49 10000 4.6 330 14:39 09.06.2020
1623 Clouds 22 1019 49 10000 4.1 320 14:19 09.06.2020
1624 Clouds 22 1020 56 10000 4.6 320 13:54 09.06.2020
1625 Clouds 21 1020 56 10000 4.6 320 13:36 09.06.2020
1626 Clouds 21 1020 56 10000 4.6 320 13:18 09.06.2020
1627 Clouds 20 1019 60 10000 5.7 320 12:42 09.06.2020
1628 Clouds 20 1019 60 10000 5.7 320 12:20 09.06.2020
1629 Clouds 19 1019 68 10000 7.2 340 11:57 09.06.2020
1630 Clouds 19 1019 68 10000 7.2 340 11:38 09.06.2020
1631 Clouds 18 1019 72 10000 5.7 310 11:20 09.06.2020
1632 Clouds 18 1019 77 10000 6.2 320 10:55 09.06.2020
1633 Clouds 18 1019 77 10000 6.2 320 10:36 09.06.2020
1634 Clouds 18 1019 77 10000 6.7 320 10:18 09.06.2020
1635 Clouds 18 1019 77 10000 6.7 320 10:18 09.06.2020
1636 Clouds 17 1019 82 10000 6.2 320 09:41 09.06.2020
1637 Clouds 16 1019 82 10000 6.2 320 09:19 09.06.2020
1638 Clouds 16 1018 87 10000 6.7 320 08:55 09.06.2020
1639 Clouds 16 1018 87 10000 6.7 320 08:36 09.06.2020
1640 Clouds 16 1018 87 10000 6.7 320 08:18 09.06.2020
1641 Clouds 16 1018 87 10000 6.2 320 07:37 09.06.2020
1642 Clouds 15 1018 87 10000 6.2 320 07:18 09.06.2020
1643 Clouds 15 1018 87 10000 6.2 320 06:52 09.06.2020
1644 Clouds 15 1018 87 10000 5.7 320 06:28 09.06.2020
1645 Clear 16 1018 77 10000 5.7 320 04:39 09.06.2020
1646 Clear 16 1019 72 10000 9.3 330 02:52 09.06.2020
1647 Clear 16 1019 72 10000 8.7 340 01:41 09.06.2020
1648 Clear 16 1019 77 10000 8.2 330 01:19 09.06.2020
1649 Clouds 16 1019 77 10000 9.8 330 00:45 09.06.2020
1650 Clouds 16 1019 77 10000 9.8 330 00:20 09.06.2020
1651 Clouds 16 1018 72 10000 8.7 330 23:55 08.06.2020
1652 Clouds 16 1018 72 10000 8.7 330 23:37 08.06.2020
1653 Clouds 17 1018 67 10000 8.2 330 23:19 08.06.2020
1654 Clouds 17 1018 67 10000 8.2 330 22:41 08.06.2020
1655 Clouds 17 1018 63 10000 7.7 330 22:22 08.06.2020
1656 Clouds 18 1018 63 10000 7.7 330 21:58 08.06.2020
1657 Clouds 18 1018 63 10000 7.7 330 21:39 08.06.2020
1658 Clouds 18 1017 55 10000 8.2 330 21:21 08.06.2020
1659 Clouds 20 1017 49 10000 7.7 330 20:57 08.06.2020
1660 Clouds 20 1017 49 10000 7.7 330 20:39 08.06.2020
1661 Clouds 20 1017 49 10000 8.2 340 20:20 08.06.2020
1662 Clouds 20 1017 49 10000 8.2 340 20:20 08.06.2020
1663 Clouds 21 1017 49 10000 8.2 340 19:55 08.06.2020
1664 Clouds 21 1017 49 10000 7.7 340 19:37 08.06.2020
1665 Clouds 21 1017 49 10000 7.7 340 19:18 08.06.2020
1666 Clouds 21 1017 49 10000 7.7 330 18:40 08.06.2020
1667 Clouds 21 1017 49 10000 7.7 330 18:18 08.06.2020
1668 Clouds 21 1017 52 10000 7.2 320 17:55 08.06.2020
1669 Clouds 21 1017 52 10000 7.2 320 17:37 08.06.2020
1670 Clouds 21 1018 49 10000 6.2 320 17:19 08.06.2020
1671 Clouds 20 1017 52 10000 6.7 310 16:45 08.06.2020
1672 Clouds 20 1018 49 10000 6.2 300 16:25 08.06.2020
1673 Clouds 20 1018 45 10000 6.7 330 15:57 08.06.2020
1674 Clouds 20 1018 45 10000 6.7 330 15:39 08.06.2020
1675 Clouds 20 1018 52 10000 5.7 290 15:19 08.06.2020
1676 Clouds 19 1018 55 10000 6.2 330 14:42 08.06.2020
1677 Clouds 19 1018 52 10000 6.7 330 14:23 08.06.2020
1678 Clouds 19 1018 52 10000 6.7 330 13:57 08.06.2020
1679 Clouds 19 1018 52 10000 6.2 320 13:38 08.06.2020
1680 Clouds 19 1018 52 10000 6.2 320 13:19 08.06.2020
1681 Clouds 19 1018 52 10000 6.7 320 12:40 08.06.2020
1682 Clouds 19 1018 52 10000 6.7 320 12:19 08.06.2020
1683 Clouds 18 1018 52 10000 6.7 340 11:54 08.06.2020
1684 Clouds 18 1018 52 10000 6.7 340 11:36 08.06.2020
1685 Clouds 18 1018 52 10000 5.7 340 11:18 08.06.2020
1686 Clouds 17 1018 55 10000 5.1 340 10:55 08.06.2020
1687 Clouds 17 1018 55 10000 5.1 340 10:37 08.06.2020
1688 Clouds 17 1018 67 10000 5.1 350 10:18 08.06.2020
1689 Clouds 16 1017 72 10000 3.6 330 09:43 08.06.2020
1690 Clouds 16 1017 72 10000 3.6 330 09:23 08.06.2020
1691 Clouds 16 1017 72 10000 1.5 320 08:49 08.06.2020
1692 Clouds 16 1017 72 10000 1.5 320 08:49 08.06.2020
1693 Clouds 15 1017 76 10000 2.6 310 08:23 08.06.2020
1694 Clouds 14 1017 76 10000 2.6 310 07:48 08.06.2020
1695 Clouds 14 1017 76 10000 2.1 310 07:28 08.06.2020
1696 Clouds 15 1017 76 10000 2.6 0 06:58 08.06.2020
1697 Clouds 15 1016 71 10000 3.6 320 06:36 08.06.2020
1698 Clouds 15 1016 71 10000 3.6 310 05:54 08.06.2020
1699 Clouds 15 1017 71 10000 4.6 330 04:36 08.06.2020
1700 Clouds 15 1017 62 10000 3.1 310 03:22 08.06.2020
1701 Clouds 15 1017 71 10000 3.6 330 02:26 08.06.2020
1702 Clouds 15 1017 62 10000 2.6 310 01:42 08.06.2020
1703 Clouds 15 1017 62 10000 3.1 310 00:45 08.06.2020
1704 Clouds 15 1018 62 10000 3.1 320 00:23 08.06.2020
1705 Clouds 16 1017 63 10000 4.6 330 23:38 07.06.2020
1706 Clouds 16 1017 63 10000 6.7 330 23:18 07.06.2020
1707 Clouds 16 1017 63 10000 5.1 330 22:56 07.06.2020
1708 Clouds 16 1017 63 10000 5.1 330 22:36 07.06.2020
1709 Clouds 16 1017 55 10000 6.2 330 22:18 07.06.2020
1710 Clouds 17 1017 55 10000 8.2 330 21:57 07.06.2020
1711 Clouds 17 1017 55 10000 8.2 330 21:36 07.06.2020
1712 Clouds 18 1016 55 10000 6.7 340 21:18 07.06.2020
1713 Clouds 18 1016 52 10000 5.7 320 20:39 07.06.2020
1714 Clouds 18 1016 52 10000 6.2 310 20:20 07.06.2020
1715 Clouds 19 1016 52 10000 6.2 310 19:57 07.06.2020
1716 Clouds 19 1016 52 10000 6.2 310 19:38 07.06.2020
1717 Clouds 19 1016 52 10000 6.2 300 19:20 07.06.2020
1718 Clouds 20 1016 49 10000 5.7 310 18:59 07.06.2020
1719 Clouds 20 1016 49 10000 5.7 310 18:38 07.06.2020
1720 Clouds 21 1016 49 10000 7.7 330 18:19 07.06.2020
1721 Clouds 21 1015 46 10000 6.2 320 17:57 07.06.2020
1722 Clouds 21 1015 46 10000 6.2 320 17:38 07.06.2020
1723 Clouds 21 1015 52 10000 5.7 350 17:20 07.06.2020
1724 Clouds 21 1015 56 10000 5.7 350 16:43 07.06.2020
1725 Clouds 21 1015 56 10000 5.7 350 16:43 07.06.2020
1726 Clouds 20 1015 68 10000 6.2 340 16:21 07.06.2020
1727 Clouds 21 1015 72 10000 4.6 320 15:44 07.06.2020
1728 Clouds 21 1015 72 10000 4.6 320 15:44 07.06.2020
1729 Clouds 20 1015 72 10000 4.6 320 15:44 07.06.2020
1730 Clouds 20 1015 72 10000 4.6 320 15:44 07.06.2020
1731 Clouds 20 1015 68 0 5.1 310 15:22 07.06.2020
1732 Clouds 20 1016 77 10000 4.6 310 14:41 07.06.2020
1733 Clouds 20 1016 77 10000 4.6 310 14:41 07.06.2020
1734 Clouds 20 1015 68 10000 4.1 290 14:22 07.06.2020
1735 Clouds 20 1015 68 10000 3.1 320 13:55 07.06.2020
1736 Clouds 20 1015 68 10000 3.1 320 13:23 07.06.2020
1737 Clouds 20 1015 64 10000 4.6 320 12:59 07.06.2020
1738 Clouds 20 1015 68 10000 5.1 320 12:40 07.06.2020
1739 Clouds 20 1015 68 10000 5.1 320 12:22 07.06.2020
1740 Clouds 19 1014 77 10000 3.1 290 11:55 07.06.2020
1741 Clouds 19 1014 77 10000 3.1 290 11:37 07.06.2020
1742 Clouds 18 1014 72 10000 2.6 300 11:19 07.06.2020
1743 Clouds 18 1014 72 10000 2.6 300 11:19 07.06.2020
1744 Clouds 18 1014 72 10000 2.6 280 10:45 07.06.2020
1745 Clouds 18 1014 77 10000 2.6 300 10:22 07.06.2020
1746 Clouds 17 1013 77 10000 3.6 300 09:59 07.06.2020
1747 Clouds 17 1013 77 10000 3.6 300 09:40 07.06.2020
1748 Clouds 17 1013 77 10000 2.6 290 09:21 07.06.2020
1749 Clouds 17 1013 82 10000 3.1 320 08:58 07.06.2020
1750 Clouds 17 1013 82 10000 3.1 320 08:40 07.06.2020
1751 Clouds 17 1013 77 10000 2.6 320 08:21 07.06.2020
1752 Clouds 17 1013 77 10000 2.6 320 07:41 07.06.2020
1753 Clouds 17 1013 77 10000 2.6 320 07:41 07.06.2020
1754 Clouds 17 1013 77 10000 2.6 320 07:41 07.06.2020
1755 Clouds 17 1012 77 10000 2.1 310 06:56 07.06.2020
1756 Clouds 17 1012 82 10000 2.6 300 05:57 07.06.2020
1757 Clouds 17 1012 82 10000 2.6 290 04:22 07.06.2020
1758 Clouds 17 1012 77 10000 2.1 290 03:48 07.06.2020
1759 Clouds 17 1012 77 10000 2.1 290 03:48 07.06.2020
1760 Clouds 17 1012 82 10000 3.6 340 02:19 07.06.2020
1761 Clouds 17 1012 82 10000 2.6 310 01:26 07.06.2020
1762 Clouds 17 1012 82 10000 3.1 310 00:59 07.06.2020
1763 Clouds 17 1012 82 10000 3.1 310 00:39 07.06.2020
1764 Clouds 17 1012 77 10000 2.1 300 00:18 07.06.2020
1765 Clouds 17 1012 77 10000 3.1 310 23:38 06.06.2020
1766 Clouds 17 1011 77 10000 4.1 310 23:20 06.06.2020
1767 Clouds 17 1011 77 10000 4.1 320 22:58 06.06.2020
1768 Clouds 17 1011 77 10000 4.1 320 22:40 06.06.2020
1769 Clouds 17 1011 77 10000 4.6 330 22:20 06.06.2020
1770 Clouds 17 1011 72 10000 5.7 330 21:58 06.06.2020
1771 Clouds 17 1011 72 10000 5.7 330 21:39 06.06.2020
1772 Clouds 18 1011 72 10000 4.6 310 21:20 06.06.2020
1773 Clouds 19 1011 68 10000 4.6 310 20:40 06.06.2020
1774 Clouds 19 1011 68 10000 4.6 310 20:21 06.06.2020
1775 Clouds 19 1011 63 10000 4.6 290 19:58 06.06.2020
1776 Clouds 19 1011 63 10000 4.6 290 19:40 06.06.2020
1777 Clouds 20 1011 64 10000 5.7 310 19:22 06.06.2020
1778 Clouds 20 1012 60 10000 5.1 310 18:56 06.06.2020
1779 Clouds 20 1012 60 10000 5.1 310 18:38 06.06.2020
1780 Clouds 21 1012 60 10000 5.1 300 18:20 06.06.2020
1781 Clouds 21 1012 60 10000 4.6 300 17:43 06.06.2020
1782 Clouds 21 1012 53 10000 4.6 290 17:21 06.06.2020
1783 Clouds 22 1012 49 10000 3.6 320 16:57 06.06.2020
1784 Clouds 22 1012 49 10000 3.6 320 16:39 06.06.2020
1785 Clouds 22 1012 53 10000 3.1 320 16:20 06.06.2020
1786 Clouds 23 1012 49 10000 2.6 0 15:45 06.06.2020
1787 Clouds 22 1012 46 10000 3.1 0 15:21 06.06.2020
1788 Clouds 22 1012 49 10000 2.1 200 14:59 06.06.2020
1789 Clouds 22 1012 49 10000 2.1 200 14:38 06.06.2020
1790 Clouds 22 1013 49 10000 2.6 0 14:20 06.06.2020
1791 Clouds 22 1013 49 10000 2.6 0 13:49 06.06.2020
1792 Clouds 21 1013 49 10000 2.6 330 13:20 06.06.2020
1793 Clouds 21 1012 56 10000 3.1 340 12:59 06.06.2020
1794 Clouds 20 1012 56 10000 3.1 340 12:40 06.06.2020
1795 Clouds 20 1013 52 10000 2.6 0 12:21 06.06.2020
1796 Clouds 20 1013 59 10000 3.1 10 11:57 06.06.2020
1797 Clouds 19 1013 59 10000 3.1 10 11:38 06.06.2020
1798 Clouds 19 1013 63 10000 2.1 10 11:19 06.06.2020
1799 Clouds 18 1013 59 10000 2.6 330 10:57 06.06.2020
1800 Clouds 18 1013 59 10000 2.6 330 10:38 06.06.2020
1801 Clouds 18 1014 63 10000 2.6 340 10:20 06.06.2020
1802 Clouds 17 1014 63 10000 1.5 300 09:45 06.06.2020
1803 Clouds 16 1013 67 10000 2.1 320 09:27 06.06.2020
1804 Clouds 16 1014 72 10000 1 0 08:49 06.06.2020
1805 Clouds 15 1014 82 10000 1.5 260 08:25 06.06.2020
1806 Clouds 14 1014 82 10000 1.5 260 07:59 06.06.2020
1807 Clouds 15 1014 82 10000 1.5 250 07:40 06.06.2020
1808 Clear 15 1014 82 10000 1 0 07:20 06.06.2020
1809 Clear 14 1014 82 10000 1 0 06:46 06.06.2020
1810 Clear 15 1014 82 10000 1 0 06:26 06.06.2020
1811 Clear 15 1014 77 10000 2.1 300 05:44 06.06.2020
1812 Clouds 15 1014 77 10000 2.6 300 05:24 06.06.2020
1813 Clouds 16 1015 72 10000 2.6 300 04:24 06.06.2020
1814 Clear 16 1015 77 10000 2.1 320 02:36 06.06.2020
1815 Clear 16 1016 77 10000 3.1 320 01:41 06.06.2020
1816 Clear 16 1016 77 10000 3.6 320 01:18 06.06.2020
1817 Clear 16 1016 77 10000 3.1 320 00:41 06.06.2020
1818 Clear 16 1016 77 10000 3.6 320 00:22 06.06.2020
1819 Clouds 17 1015 77 10000 5.1 320 23:40 05.06.2020
1820 Clouds 17 1015 72 10000 5.7 320 23:21 05.06.2020
1821 Clouds 17 1014 77 10000 4.6 310 22:58 05.06.2020
1822 Clouds 17 1014 77 10000 4.6 310 22:40 05.06.2020
1823 Clouds 17 1014 68 10000 5.7 310 22:22 05.06.2020
1824 Clouds 18 1014 63 10000 6.2 310 21:55 05.06.2020
1825 Clouds 18 1014 63 10000 6.2 310 21:37 05.06.2020
1826 Clouds 19 1014 56 10000 5.7 320 21:18 05.06.2020
1827 Clouds 20 1014 60 10000 5.7 300 20:45 05.06.2020
1828 Clouds 20 1014 60 10000 5.7 300 20:23 05.06.2020
1829 Clouds 21 1014 56 10000 5.7 310 19:59 05.06.2020
1830 Clouds 21 1014 56 10000 5.7 310 19:39 05.06.2020
1831 Clouds 21 1014 53 10000 5.1 300 19:21 05.06.2020
1832 Clouds 21 1014 56 10000 5.7 310 18:40 05.06.2020
1833 Clouds 22 1014 53 10000 5.1 310 18:21 05.06.2020
1834 Clouds 22 1014 53 10000 5.1 310 18:21 05.06.2020
1835 Clouds 22 1014 56 10000 4.6 310 17:59 05.06.2020
1836 Clouds 22 1014 56 10000 4.6 310 17:41 05.06.2020
1837 Clouds 22 1015 53 10000 3.6 300 17:20 05.06.2020
1838 Clouds 22 1015 56 10000 3.6 300 16:57 05.06.2020
1839 Clouds 22 1015 56 10000 3.6 300 16:37 05.06.2020
1840 Clouds 22 1015 56 10000 3.6 300 16:19 05.06.2020
1841 Clouds 22 1015 56 10000 3.6 300 16:19 05.06.2020
1842 Clouds 23 1015 53 10000 3.6 300 15:39 05.06.2020
1843 Clouds 22 1015 53 10000 4.1 320 15:20 05.06.2020
1844 Clouds 22 1015 53 10000 4.1 320 14:57 05.06.2020
1845 Clouds 22 1015 53 10000 4.1 320 14:39 05.06.2020
1846 Clouds 22 1015 56 10000 3.1 310 14:21 05.06.2020
1847 Clouds 22 1015 56 10000 2.6 0 13:46 05.06.2020
1848 Clouds 21 1015 60 10000 2.6 320 13:27 05.06.2020
1849 Clouds 21 1015 60 10000 2.6 320 12:57 05.06.2020
1850 Clouds 21 1015 60 10000 2.6 320 12:38 05.06.2020
1851 Clouds 21 1015 64 10000 3.6 310 12:19 05.06.2020
1852 Clouds 20 1015 64 10000 5.7 330 11:43 05.06.2020
1853 Clouds 20 1015 68 10000 4.6 310 11:24 05.06.2020
1854 Clouds 19 1015 72 10000 5.1 330 10:58 05.06.2020
1855 Clouds 19 1015 72 10000 5.1 330 10:39 05.06.2020
1856 Clouds 19 1015 72 10000 5.1 330 10:39 05.06.2020
1857 Clouds 18 1015 77 10000 4.6 310 10:19 05.06.2020
1858 Clouds 18 1015 82 10000 5.1 310 09:57 05.06.2020
1859 Clouds 18 1015 82 10000 5.1 310 09:37 05.06.2020
1860 Clouds 17 1015 77 10000 4.6 300 09:19 05.06.2020
1861 Clouds 17 1014 82 10000 5.1 310 08:57 05.06.2020
1862 Clouds 17 1014 82 10000 5.1 310 08:38 05.06.2020
1863 Clouds 17 1014 82 10000 4.6 310 08:18 05.06.2020
1864 Clouds 16 1014 82 10000 4.6 310 07:49 05.06.2020
1865 Clouds 16 1014 82 10000 5.1 310 07:31 05.06.2020
1866 Clouds 16 1014 82 10000 5.1 310 06:45 05.06.2020
1867 Clouds 16 1015 82 10000 2.6 280 05:23 05.06.2020
1868 Clouds 16 1015 82 10000 1.5 280 04:27 05.06.2020
1869 Clouds 16 1015 82 10000 1.5 280 03:29 05.06.2020
1870 Clouds 16 1015 82 10000 1 0 02:29 05.06.2020
1871 Clouds 16 1015 82 10000 1 0 01:58 05.06.2020
1872 Clouds 17 1015 82 10000 3.1 340 01:30 05.06.2020
1873 Clear 17 1015 77 10000 2.6 330 00:43 05.06.2020
1874 Clear 17 1015 72 10000 3.6 330 00:21 05.06.2020
1875 Clouds 17 1015 77 10000 6.7 340 23:47 04.06.2020
1876 Clouds 18 1015 77 10000 6.7 340 23:29 04.06.2020
1877 Clouds 18 1014 72 10000 4.1 330 22:57 04.06.2020
1878 Clouds 18 1014 72 10000 4.1 330 22:38 04.06.2020
1879 Clouds 19 1013 68 10000 5.1 320 22:20 04.06.2020
1880 Clouds 19 1013 64 10000 5.1 330 21:58 04.06.2020
1881 Clouds 19 1013 64 10000 5.1 330 21:38 04.06.2020
1882 Clouds 20 1013 60 10000 5.7 330 21:20 04.06.2020
1883 Clouds 21 1013 60 10000 5.7 330 20:55 04.06.2020
1884 Clouds 21 1013 60 10000 5.7 330 20:55 04.06.2020
1885 Clouds 21 1013 60 10000 5.7 330 20:37 04.06.2020
1886 Clouds 22 1012 56 10000 5.1 330 20:19 04.06.2020
1887 Clouds 23 1012 53 10000 5.1 320 19:41 04.06.2020
1888 Clouds 23 1012 53 10000 5.1 320 19:21 04.06.2020
1889 Clouds 23 1012 53 10000 6.7 330 18:58 04.06.2020
1890 Clouds 23 1012 60 10000 4.6 300 18:38 04.06.2020
1891 Clouds 23 1012 60 10000 4.6 300 18:20 04.06.2020
1892 Clouds 24 1012 53 10000 5.1 310 17:44 04.06.2020
1893 Clouds 23 1012 60 10000 4.6 320 17:23 04.06.2020
1894 Clouds 23 1012 60 10000 4.1 300 16:59 04.06.2020
1895 Clouds 23 1012 60 10000 4.1 300 16:40 04.06.2020
1896 Clouds 23 1012 64 10000 6.7 330 16:20 04.06.2020
1897 Clouds 23 1012 64 10000 4.6 320 15:44 04.06.2020
1898 Clouds 23 1012 64 10000 4.6 320 15:26 04.06.2020
1899 Clouds 23 1012 68 10000 5.7 330 14:42 04.06.2020
1900 Clouds 23 1012 68 10000 5.7 330 14:23 04.06.2020
1901 Clouds 23 1012 64 10000 2.6 300 13:59 04.06.2020
1902 Clouds 23 1012 64 10000 2.6 300 13:40 04.06.2020
1903 Clouds 23 1012 68 10000 3.1 320 13:21 04.06.2020
1904 Clouds 22 1012 64 10000 3.6 320 12:59 04.06.2020
1905 Clouds 22 1012 64 10000 3.6 320 12:40 04.06.2020
1906 Clouds 22 1011 60 10000 2.6 0 12:22 04.06.2020
1907 Clouds 22 1011 64 10000 3.1 330 11:55 04.06.2020
1908 Clouds 22 1011 64 10000 3.1 330 11:37 04.06.2020
1909 Clouds 21 1011 68 10000 2.6 270 11:19 04.06.2020
1910 Clouds 21 1011 73 10000 1 0 10:41 04.06.2020
1911 Clouds 20 1011 72 10000 1.5 300 10:23 04.06.2020
1912 Clouds 20 1011 77 10000 2.6 300 09:58 04.06.2020
1913 Clouds 20 1011 77 10000 2.6 300 09:40 04.06.2020
1914 Clouds 19 1011 88 10000 2.1 290 09:21 04.06.2020
1915 Clouds 18 1011 88 10000 2.1 290 08:44 04.06.2020
1916 Clouds 18 1010 82 10000 1.5 270 08:25 04.06.2020
1917 Clouds 18 1010 82 10000 1 0 07:47 04.06.2020
1918 Clouds 18 1010 88 10000 2.1 240 07:23 04.06.2020
1919 Clouds 18 1010 88 10000 2.1 320 06:42 04.06.2020
1920 Clouds 18 1010 88 10000 2.1 320 06:24 04.06.2020
1921 Clouds 18 1010 82 10000 2.1 300 05:34 04.06.2020
1922 Clouds 18 1011 88 10000 2.1 320 03:55 04.06.2020
1923 Clouds 18 1012 88 10000 3.1 310 02:56 04.06.2020
1924 Clear 18 1012 88 10000 2.1 300 01:48 04.06.2020
1925 Clouds 19 1012 88 10000 2.1 270 01:19 04.06.2020
1926 Clouds 19 1012 88 10000 2.1 280 00:36 04.06.2020
1927 Clouds 19 1012 82 10000 2.1 290 23:41 03.06.2020
1928 Clouds 19 1012 82 10000 3.6 290 23:20 03.06.2020
1929 Clouds 19 1012 82 10000 4.1 300 22:58 03.06.2020
1930 Clouds 19 1012 82 10000 4.1 300 22:39 03.06.2020
1931 Clouds 19 1012 82 10000 4.1 300 22:18 03.06.2020
1932 Clouds 20 1011 68 10000 4.1 300 21:57 03.06.2020
1933 Clouds 20 1011 68 10000 4.1 300 21:38 03.06.2020
1934 Clouds 21 1011 68 10000 4.1 300 21:20 03.06.2020
1935 Clouds 21 1011 64 10000 4.1 290 20:54 03.06.2020
1936 Clouds 21 1011 64 10000 4.1 290 20:36 03.06.2020
1937 Clouds 22 1011 60 10000 4.1 270 20:18 03.06.2020
1938 Clouds 22 1011 64 10000 5.7 240 19:54 03.06.2020
1939 Clouds 22 1011 60 10000 5.7 240 19:36 03.06.2020
1940 Clouds 22 1011 60 10000 5.7 240 19:18 03.06.2020
1941 Clouds 23 1011 57 10000 6.2 230 18:41 03.06.2020
1942 Clouds 22 1012 60 10000 6.2 230 18:21 03.06.2020
1943 Clouds 23 1012 57 10000 6.2 220 17:55 03.06.2020
1944 Clouds 23 1012 57 10000 6.2 220 17:37 03.06.2020
1945 Clouds 23 1012 57 10000 5.7 230 17:18 03.06.2020
1946 Clouds 23 1013 57 10000 6.2 230 16:41 03.06.2020
1947 Clouds 23 1013 57 10000 6.2 220 16:20 03.06.2020
1948 Clouds 23 1013 60 10000 5.7 220 15:57 03.06.2020
1949 Clouds 23 1013 60 10000 5.7 220 15:38 03.06.2020
1950 Clouds 23 1014 60 10000 5.7 230 15:20 03.06.2020
1951 Clouds 22 1014 60 10000 6.2 210 14:46 03.06.2020
1952 Clouds 22 1014 60 10000 6.2 210 14:24 03.06.2020
1953 Clouds 22 1014 60 10000 6.2 210 13:56 03.06.2020
1954 Clouds 22 1014 60 10000 6.2 210 13:38 03.06.2020
1955 Clouds 22 1014 60 10000 5.1 210 13:18 03.06.2020
1956 Clouds 22 1014 64 10000 5.1 210 12:42 03.06.2020
1957 Clouds 21 1014 64 10000 3.6 230 12:21 03.06.2020
1958 Clouds 21 1013 64 10000 1.5 0 11:45 03.06.2020
1959 Clouds 21 1013 68 10000 1 0 11:26 03.06.2020
1960 Clouds 20 1013 68 10000 1.5 0 10:56 03.06.2020
1961 Clouds 20 1013 68 10000 1.5 0 10:38 03.06.2020
1962 Clouds 20 1013 68 10000 1.5 220 10:20 03.06.2020
1963 Clouds 20 1013 77 10000 1 0 09:42 03.06.2020
1964 Clouds 19 1013 77 10000 2.1 280 09:20 03.06.2020
1965 Clouds 18 1013 82 10000 1.5 270 08:48 03.06.2020
1966 Clouds 18 1013 82 10000 1.5 270 08:25 03.06.2020
1967 Clouds 17 1013 87 10000 1 0 07:58 03.06.2020
1968 Clouds 17 1013 82 10000 1 0 07:40 03.06.2020
1969 Clouds 17 1013 82 10000 1 0 07:19 03.06.2020
1970 Clouds 17 1013 82 10000 1 0 06:48 03.06.2020
1971 Clouds 17 1013 87 10000 1 0 06:29 03.06.2020
1972 Clouds 18 1013 82 10000 2.1 300 05:46 03.06.2020
1973 Clouds 18 1014 82 10000 2.1 310 04:33 03.06.2020
1974 Clouds 18 1014 82 10000 1 290 03:42 03.06.2020
1975 Clouds 18 1015 82 10000 2.6 300 02:46 03.06.2020
1976 Clouds 18 1015 82 10000 2.6 330 01:48 03.06.2020
1977 Clouds 18 1015 82 10000 2.6 320 00:41 03.06.2020
1978 Clear 18 1015 82 10000 2.6 330 00:23 03.06.2020
1979 Clear 19 1015 77 10000 1.5 320 23:51 02.06.2020
1980 Clouds 19 1015 72 10000 2.6 290 23:27 02.06.2020
1981 Clouds 20 1014 72 10000 3.6 310 22:56 02.06.2020
1982 Clouds 20 1014 72 10000 3.6 310 22:37 02.06.2020
1983 Clouds 20 1014 68 10000 3.6 320 22:18 02.06.2020
1984 Clouds 21 1014 64 10000 3.1 280 21:56 02.06.2020
1985 Clouds 21 1014 64 10000 3.1 280 21:37 02.06.2020
1986 Clouds 22 1014 56 10000 3.6 250 21:19 02.06.2020
1987 Clouds 22 1014 53 10000 3.1 240 20:55 02.06.2020
1988 Clouds 22 1014 53 10000 3.1 240 20:36 02.06.2020
1989 Clouds 23 1014 53 10000 4.1 230 20:18 02.06.2020
1990 Clouds 23 1014 53 10000 4.1 230 19:41 02.06.2020
1991 Clouds 23 1014 53 10000 4.1 230 19:41 02.06.2020
1992 Clouds 23 1014 56 10000 4.1 240 19:23 02.06.2020
1993 Clouds 23 1014 60 10000 4.1 230 18:56 02.06.2020
1994 Clouds 23 1014 60 10000 4.1 230 18:38 02.06.2020
1995 Clouds 23 1015 57 10000 4.6 230 18:19 02.06.2020
1996 Clouds 23 1015 57 10000 4.1 230 17:42 02.06.2020
1997 Clouds 23 1015 56 10000 5.7 210 17:23 02.06.2020
1998 Clouds 23 1015 56 10000 4.6 230 16:57 02.06.2020
1999 Clouds 23 1015 56 10000 4.6 230 16:39 02.06.2020
2000 Clouds 23 1015 56 10000 5.1 220 16:20 02.06.2020
2001 Clouds 23 1015 64 10000 5.1 210 15:54 02.06.2020
2002 Clouds 23 1015 64 10000 5.1 210 15:36 02.06.2020
2003 Clouds 22 1015 68 10000 5.7 220 15:18 02.06.2020
2004 Clouds 22 1015 64 10000 4.6 220 14:42 02.06.2020
2005 Clouds 22 1015 68 10000 4.6 210 14:22 02.06.2020
2006 Clouds 22 1015 64 10000 4.6 210 13:40 02.06.2020
2007 Clouds 22 1015 64 10000 4.6 210 13:19 02.06.2020
2008 Clouds 22 1015 64 10000 3.1 220 12:59 02.06.2020
2009 Clouds 21 1015 64 10000 3.1 220 12:40 02.06.2020
2010 Clouds 21 1015 68 10000 4.1 210 12:21 02.06.2020
2011 Clouds 20 1015 72 10000 4.1 250 11:59 02.06.2020
2012 Clouds 20 1015 72 10000 4.1 250 11:39 02.06.2020
2013 Clouds 20 1015 77 10000 4.6 210 11:20 02.06.2020
2014 Clouds 20 1015 77 10000 4.6 210 10:48 02.06.2020
2015 Clouds 20 1014 77 10000 4.1 240 10:28 02.06.2020
2016 Clouds 19 1014 77 10000 4.1 220 09:58 02.06.2020
2017 Clouds 19 1014 77 10000 4.1 220 09:39 02.06.2020
2018 Clouds 19 1014 72 10000 2.6 220 09:20 02.06.2020
2019 Clouds 19 1013 77 10000 2.6 260 08:48 02.06.2020
2020 Clouds 19 1013 77 10000 2.6 260 08:22 02.06.2020
2021 Clouds 19 1013 82 10000 3.1 260 07:52 02.06.2020
2022 Clouds 19 1013 82 10000 4.1 250 07:26 02.06.2020
2023 Clouds 19 1013 82 10000 3.6 240 06:47 02.06.2020
2024 Clouds 19 1013 77 10000 3.6 230 06:24 02.06.2020
2025 Clouds 20 1013 72 10000 1.84 220 05:21 02.06.2020
2026 Clouds 20 1014 77 10000 1 260 03:25 02.06.2020
2027 Clouds 20 1014 77 10000 1.5 240 02:30 02.06.2020
2028 Clouds 20 1014 77 10000 2.1 280 01:33 02.06.2020
2029 Clouds 20 1014 77 10000 3.1 310 00:26 02.06.2020
2030 Clouds 21 1014 73 10000 2.6 310 23:58 01.06.2020
2031 Clouds 21 1014 73 10000 2.6 310 23:37 01.06.2020
2032 Clouds 21 1013 73 10000 2.6 300 23:18 01.06.2020
2033 Clouds 21 1013 68 10000 2.6 300 22:54 01.06.2020
2034 Clouds 21 1013 68 10000 2.6 300 22:36 01.06.2020
2035 Clouds 22 1013 68 10000 2.6 320 22:18 01.06.2020
2036 Clouds 22 1013 60 10000 2.1 270 21:41 01.06.2020
2037 Clouds 23 1013 57 10000 3.1 230 21:20 01.06.2020
2038 Clouds 24 1013 53 10000 2.1 240 20:58 01.06.2020
2039 Clouds 24 1013 53 10000 2.1 240 20:39 01.06.2020
2040 Clouds 24 1013 53 10000 3.1 230 20:19 01.06.2020
2041 Clouds 24 1013 53 10000 3.1 230 19:56 01.06.2020
2042 Clouds 24 1013 53 10000 3.1 230 19:38 01.06.2020
2043 Clouds 24 1013 53 10000 3.1 250 19:19 01.06.2020
2044 Clouds 24 1013 57 10000 3.6 240 18:55 01.06.2020
2045 Clouds 24 1013 57 10000 4.1 220 18:37 01.06.2020
2046 Clouds 24 1013 57 10000 4.1 220 18:18 01.06.2020
2047 Clouds 25 1013 57 10000 4.1 210 17:40 01.06.2020
2048 Clouds 25 1013 57 10000 2.6 0 17:20 01.06.2020
2049 Clouds 25 1013 57 10000 2.6 0 16:42 01.06.2020
2050 Clouds 25 1013 57 10000 2.6 0 16:42 01.06.2020
2051 Clouds 24 1013 57 10000 2.1 0 16:24 01.06.2020
2052 Clouds 24 1013 60 10000 3.1 160 15:59 01.06.2020
2053 Clouds 24 1013 60 10000 3.1 160 15:40 01.06.2020
2054 Clouds 23 1013 64 10000 2.1 190 15:20 01.06.2020
2055 Clouds 23 1013 64 10000 2.6 150 14:58 01.06.2020
2056 Clouds 23 1013 64 10000 2.6 150 14:40 01.06.2020
2057 Clouds 23 1013 64 10000 3.1 180 14:21 01.06.2020
2058 Clouds 23 1013 64 10000 3.6 120 13:55 01.06.2020
2059 Clouds 23 1013 64 10000 3.6 120 13:55 01.06.2020
2060 Clouds 23 1013 64 10000 3.6 120 13:37 01.06.2020
2061 Clouds 23 1013 64 10000 3.6 120 13:19 01.06.2020
2062 Clouds 22 1013 68 10000 3.1 120 12:55 01.06.2020
2063 Clouds 22 1013 64 10000 2.6 0 12:37 01.06.2020
2064 Clouds 22 1013 64 10000 2.6 0 12:37 01.06.2020
2065 Clouds 21 1013 64 10000 2.6 0 12:18 01.06.2020
2066 Clouds 21 1013 73 10000 2.1 80 11:40 01.06.2020
2067 Clouds 21 1013 73 10000 2.1 80 11:22 01.06.2020
2068 Clouds 21 1013 77 10000 2.6 70 10:57 01.06.2020
2069 Clouds 20 1013 77 10000 3.1 70 10:37 01.06.2020
2070 Clouds 20 1013 77 10000 3.1 70 10:19 01.06.2020
2071 Clouds 20 1012 77 10000 3.1 70 09:55 01.06.2020
2072 Clouds 19 1012 82 10000 3.1 60 09:37 01.06.2020
2073 Clouds 19 1012 82 10000 3.1 60 09:37 01.06.2020
2074 Clouds 19 1012 82 10000 3.1 60 09:19 01.06.2020
2075 Clouds 19 1012 82 10000 1 20 08:42 01.06.2020
2076 Clouds 19 1012 82 10000 1 20 08:23 01.06.2020
2077 Clouds 19 1012 82 10000 1.5 10 07:44 01.06.2020
2078 Clouds 19 1011 82 10000 1.5 340 07:26 01.06.2020
2079 Clouds 19 1011 82 10000 1.5 330 06:52 01.06.2020
2080 Clouds 19 1011 82 10000 0.5 340 06:20 01.06.2020
2081 Clouds 19 1011 77 10000 1 50 05:49 01.06.2020
2082 Clouds 18 1012 88 10000 2.1 330 04:23 01.06.2020
2083 Clouds 18 1012 82 10000 3.6 320 03:45 01.06.2020
2084 Clouds 18 1012 88 10000 3.6 320 02:59 01.06.2020
2085 Clouds 18 1012 88 10000 3.6 310 01:47 01.06.2020
2086 Clouds 18 1012 82 10000 4.1 310 01:28 01.06.2020
2087 Clouds 18 1012 82 10000 2.1 310 00:57 01.06.2020
2088 Clouds 18 1012 82 10000 2.6 310 00:39 01.06.2020
2089 Clouds 19 1012 82 10000 2.6 310 00:20 01.06.2020
2090 Clouds 19 1012 82 10000 2.6 310 23:55 31.05.2020
2091 Clouds 19 1012 82 10000 2.6 310 23:55 31.05.2020
2092 Clouds 19 1012 82 10000 3.1 310 23:36 31.05.2020
2093 Clouds 19 1012 82 10000 3.1 310 23:18 31.05.2020
2094 Clouds 19 1011 77 10000 4.1 310 22:42 31.05.2020
2095 Clouds 19 1011 77 10000 4.1 310 22:24 31.05.2020
2096 Clouds 19 1011 72 10000 4.1 300 21:58 31.05.2020
2097 Clouds 20 1010 72 10000 5.7 310 21:39 31.05.2020
2098 Clouds 20 1010 72 10000 5.7 310 21:21 31.05.2020
2099 Clouds 20 1010 72 10000 5.7 310 21:21 31.05.2020
2100 Clouds 20 1010 68 10000 5.1 300 20:48 31.05.2020
2101 Clouds 22 1010 64 10000 5.1 310 20:26 31.05.2020
2102 Clouds 23 1009 53 10000 5.7 270 19:59 31.05.2020
2103 Clouds 24 1009 50 10000 5.1 260 19:40 31.05.2020
2104 Clouds 25 1009 50 10000 5.1 260 19:22 31.05.2020
2105 Clouds 26 1008 32 10000 4.6 260 18:59 31.05.2020
2106 Clouds 26 1009 32 10000 3.1 250 18:41 31.05.2020
2107 Clouds 26 1009 32 10000 3.1 250 18:21 31.05.2020
2108 Clouds 26 1010 44 10000 5.7 240 17:43 31.05.2020
2109 Clouds 26 1010 44 10000 5.7 240 17:24 31.05.2020
2110 Clouds 26 1010 50 10000 5.1 250 16:55 31.05.2020
2111 Clouds 26 1010 51 10000 5.7 210 16:37 31.05.2020
2112 Rain 26 1010 54 10000 3.1 210 16:18 31.05.2020
2113 Clouds 26 1010 54 10000 3.1 170 15:39 31.05.2020
2114 Clouds 26 1010 54 10000 3.1 170 15:21 31.05.2020
2115 Clouds 26 1010 61 10000 2.1 80 14:47 31.05.2020
2116 Clouds 26 1010 61 10000 2.1 80 14:20 31.05.2020
2117 Clouds 25 1010 64 10000 3.6 110 13:56 31.05.2020
2118 Clouds 25 1010 61 10000 1.5 0 13:38 31.05.2020
2119 Clouds 25 1010 61 10000 1.5 0 13:20 31.05.2020
2120 Clouds 25 1010 61 10000 1.5 0 13:20 31.05.2020
2121 Clouds 24 1011 64 10000 1.5 0 12:56 31.05.2020
2122 Clouds 23 1010 73 10000 2.1 100 12:37 31.05.2020
2123 Rain 23 1010 73 10000 2.1 100 12:19 31.05.2020
2124 Clouds 22 1011 73 10000 1.5 0 11:47 31.05.2020
2125 Clouds 21 1011 73 10000 2.1 20 11:23 31.05.2020
2126 Clouds 20 1011 77 10000 3.1 350 10:56 31.05.2020
2127 Clouds 19 1011 82 10000 3.1 330 10:38 31.05.2020
2128 Clouds 20 1011 82 10000 3.1 330 10:18 31.05.2020
2129 Clouds 18 1010 88 10000 3.6 310 09:42 31.05.2020
2130 Clouds 18 1010 88 10000 3.6 310 09:22 31.05.2020
2131 Clouds 18 1010 88 10000 4.1 310 08:58 31.05.2020
2132 Clouds 17 1010 93 10000 4.6 320 08:37 31.05.2020
2133 Clouds 17 1010 93 10000 4.6 320 08:19 31.05.2020
2134 Rain 17 1010 93 10000 3.6 320 07:43 31.05.2020
2135 Rain 17 1010 93 10000 3.6 320 07:21 31.05.2020
2136 Rain 17 1010 88 10000 2.1 310 06:54 31.05.2020
2137 Rain 17 1010 88 10000 2.6 320 06:31 31.05.2020
2138 Rain 17 1010 88 10000 3.6 320 05:44 31.05.2020
2139 Clouds 17 1010 88 10000 4.6 310 04:29 31.05.2020
2140 Clouds 17 1010 88 10000 4.1 320 03:48 31.05.2020
2141 Clouds 18 1011 88 10000 3.6 310 02:59 31.05.2020
2142 Clouds 19 1011 82 10000 5.1 320 01:49 31.05.2020
2143 Clouds 19 1011 77 10000 5.1 310 01:27 31.05.2020
2144 Clouds 19 1011 77 10000 4.1 320 00:31 31.05.2020
2145 Clouds 19 1011 82 10000 4.1 320 23:57 30.05.2020
2146 Clouds 20 1011 82 10000 4.1 310 23:39 30.05.2020
2147 Clouds 20 1011 82 10000 4.1 310 23:19 30.05.2020
2148 Clouds 20 1011 77 10000 4.1 340 22:41 30.05.2020
2149 Clouds 20 1011 77 10000 4.1 340 22:41 30.05.2020
2150 Rain 20 1011 77 10000 4.1 340 22:23 30.05.2020
2151 Rain 20 1010 77 10000 3.6 310 21:56 30.05.2020
2152 Rain 20 1011 77 10000 4.6 310 21:37 30.05.2020
2153 Clouds 20 1011 77 10000 4.6 310 21:19 30.05.2020
2154 Clouds 20 1010 82 10000 6.2 320 20:56 30.05.2020
2155 Clouds 20 1010 77 10000 2.6 310 20:38 30.05.2020
2156 Clouds 20 1010 77 10000 2.6 310 20:20 30.05.2020
2157 Clouds 21 1011 73 10000 4.6 300 19:42 30.05.2020
2158 Clouds 23 1011 73 10000 4.6 300 19:22 30.05.2020
2159 Clouds 24 1011 65 10000 4.1 290 18:46 30.05.2020
2160 Clouds 25 1011 65 10000 4.1 290 18:25 30.05.2020
2161 Clouds 26 1011 61 10000 4.1 280 17:55 30.05.2020
2162 Clouds 27 1011 61 10000 5.1 260 17:37 30.05.2020
2163 Clouds 27 1011 61 10000 5.1 250 17:18 30.05.2020
2164 Clouds 27 1011 58 10000 4.1 240 16:43 30.05.2020
2165 Clouds 27 1011 58 10000 4.1 240 16:23 30.05.2020
2166 Clouds 27 1011 58 10000 4.1 170 15:56 30.05.2020
2167 Clouds 27 1012 58 10000 3.1 130 15:37 30.05.2020
2168 Clouds 27 1012 58 10000 3.1 130 15:19 30.05.2020
2169 Clouds 27 1012 57 10000 2.6 120 14:42 30.05.2020
2170 Clouds 26 1012 57 10000 2.6 120 14:20 30.05.2020
2171 Clouds 26 1012 61 10000 1.5 0 13:41 30.05.2020
2172 Clouds 26 1012 61 10000 1.5 0 13:18 30.05.2020
2173 Clouds 24 1012 73 10000 1.5 0 12:40 30.05.2020
2174 Clouds 23 1012 73 10000 1.5 0 12:20 30.05.2020
2175 Clouds 24 1012 64 10000 1.5 0 11:55 30.05.2020
2176 Clouds 23 1012 73 10000 2.1 330 11:37 30.05.2020
2177 Clouds 22 1012 73 10000 2.1 330 11:19 30.05.2020
2178 Clouds 21 1012 77 10000 2.1 360 10:39 30.05.2020
2179 Clouds 21 1012 77 10000 2.1 360 10:39 30.05.2020
2180 Clouds 20 1012 77 10000 2.1 360 10:21 30.05.2020
2181 Clouds 20 1012 82 10000 4.6 330 09:47 30.05.2020
2182 Clouds 19 1012 82 10000 4.6 330 09:29 30.05.2020
2183 Clouds 19 1012 88 10000 4.6 340 08:46 30.05.2020
2184 Clouds 19 1011 82 10000 3.6 340 08:28 30.05.2020
2185 Clouds 18 1011 82 10000 3.6 330 07:44 30.05.2020
2186 Clouds 18 1011 82 10000 3.6 330 07:44 30.05.2020
2187 Clouds 19 1011 82 10000 4.1 330 07:21 30.05.2020
2188 Clouds 19 1011 77 10000 4.6 310 06:39 30.05.2020
2189 Clouds 19 1011 77 10000 4.6 310 06:20 30.05.2020
2190 Clouds 19 1012 77 10000 4.6 310 05:49 30.05.2020
2191 Clouds 20 1012 77 10000 5.1 310 03:39 30.05.2020
2192 Clouds 21 1013 68 10000 3.6 330 02:30 30.05.2020
2193 Clouds 22 1013 64 10000 3.1 320 01:48 30.05.2020
2194 Clear 23 1013 56 10000 1.5 10 00:38 30.05.2020
2195 Clear 24 1013 60 10000 1 0 00:19 30.05.2020
2196 Clear 24 1013 60 10000 1 0 23:57 29.05.2020
2197 Clear 24 1013 60 10000 2.6 310 23:37 29.05.2020
2198 Clear 24 1013 60 10000 2.6 310 23:18 29.05.2020
2199 Clear 24 1012 64 10000 5.7 320 22:41 29.05.2020
2200 Clear 24 1012 64 10000 5.7 320 22:19 29.05.2020
2201 -273 0 0 0 0 0 21:58 29.05.2020
2202 Clear 25 1012 61 10000 5.7 310 21:38 29.05.2020
2203 Clear 25 1012 61 10000 5.7 310 21:20 29.05.2020
2204 Clear 26 1012 51 10000 5.1 300 20:45 29.05.2020
2205 Clear 27 1012 51 10000 5.1 300 20:21 29.05.2020
2206 Clouds 27 1012 42 10000 3.1 290 19:59 29.05.2020
2207 Clear 28 1012 45 10000 3.6 300 19:41 29.05.2020
2208 Clear 28 1012 45 10000 3.6 300 19:23 29.05.2020
2209 Clouds 28 1012 48 10000 4.1 270 18:47 29.05.2020
2210 Clouds 28 1012 48 10000 4.1 270 18:47 29.05.2020
2211 Clouds 28 1013 54 10000 4.6 240 18:21 29.05.2020
2212 Clouds 28 1013 51 10000 5.1 220 17:57 29.05.2020
2213 Clouds 28 1013 51 10000 5.1 220 17:38 29.05.2020
2214 Clouds 28 1013 51 10000 5.1 220 17:19 29.05.2020
2215 Clouds 29 1013 42 10000 3.1 230 16:45 29.05.2020
2216 Clouds 29 1013 42 10000 3.1 230 16:27 29.05.2020
2217 Clouds 29 1014 35 10000 2.6 100 15:57 29.05.2020
2218 Clouds 29 1014 37 10000 2.1 80 15:38 29.05.2020
2219 Clouds 29 1014 37 10000 2.1 80 15:20 29.05.2020
2220 Clouds 28 1014 42 10000 2.6 80 14:51 29.05.2020
2221 Clouds 29 1014 42 10000 2.6 60 14:24 29.05.2020
2222 Clouds 28 1015 42 10000 2.1 120 13:58 29.05.2020
2223 Clear 27 1015 42 10000 1 0 13:40 29.05.2020
2224 Clear 27 1015 42 10000 1 0 13:21 29.05.2020
2225 Clear 26 1015 54 10000 2.6 50 12:44 29.05.2020
2226 Clear 26 1015 54 10000 3.1 70 12:25 29.05.2020
2227 Clouds 25 1015 61 10000 2.6 80 11:46 29.05.2020
2228 Clouds 25 1015 57 10000 3.6 50 11:27 29.05.2020
2229 Clear 24 1015 60 10000 4.1 50 10:58 29.05.2020
2230 Clear 23 1015 64 10000 3.1 60 10:40 29.05.2020
2231 Clear 23 1015 64 10000 3.1 60 10:21 29.05.2020
2232 Clear 23 1015 64 10000 3.1 70 09:55 29.05.2020
2233 Clear 23 1015 64 10000 3.1 70 09:55 29.05.2020
2234 Clear 23 1015 64 10000 3.1 60 09:37 29.05.2020
2235 Clear 23 1015 64 10000 3.1 60 09:18 29.05.2020
2236 Clear 21 1015 68 10000 1.5 70 08:44 29.05.2020
2237 Clear 22 1015 68 10000 1.5 70 08:21 29.05.2020
2238 Clear 22 1015 60 10000 2.18 66 07:46 29.05.2020
2239 Clear 23 1015 60 10000 2.31 37 07:27 29.05.2020
2240 Clear 23 1014 63 0 2.31 37 06:49 29.05.2020
2241 Clear 23 1015 60 10000 2.6 330 06:29 29.05.2020
2242 Clear 22 1015 56 10000 2.6 330 05:56 29.05.2020
2243 Clouds 23 1015 53 10000 3.6 360 03:55 29.05.2020
2244 Clear 24 1016 53 10000 5.1 330 01:48 29.05.2020
2245 Clear 24 1016 50 10000 5.7 320 01:25 29.05.2020
2246 Clear 24 1017 53 10000 5.1 320 00:49 29.05.2020
2247 Clear 24 1017 53 10000 5.7 330 00:23 29.05.2020
2248 Clear 25 1016 53 10000 6.7 320 23:41 28.05.2020
2249 Clear 25 1016 53 10000 6.7 320 23:41 28.05.2020
2250 Clear 25 1016 53 10000 6.7 320 23:19 28.05.2020
2251 Clear 25 1016 53 10000 6.7 320 23:19 28.05.2020
2252 Clear 25 1016 60 10000 5.7 320 22:58 28.05.2020
2253 Clear 25 1016 53 10000 6.2 320 22:39 28.05.2020
2254 Clear 25 1016 53 10000 6.2 320 22:18 28.05.2020
2255 Clear 25 1016 53 10000 6.2 320 21:54 28.05.2020
2256 Clear 26 1016 50 10000 6.2 310 21:36 28.05.2020
2257 Clear 26 1016 47 10000 5.7 310 21:18 28.05.2020
2258 Clear 27 1016 51 10000 5.7 310 20:40 28.05.2020
2259 Clear 27 1016 51 10000 5.7 310 20:19 28.05.2020
2260 Clear 28 1016 48 10000 4.1 300 19:58 28.05.2020
2261 Clear 28 1016 45 10000 5.1 300 19:40 28.05.2020
2262 Clear 28 1016 45 10000 5.1 300 19:20 28.05.2020
2263 Clear 29 1016 42 10000 4.1 300 18:57 28.05.2020
2264 Clear 29 1016 43 10000 4.1 320 18:38 28.05.2020
2265 Clear 30 1016 43 10000 4.1 320 18:20 28.05.2020
2266 Clear 30 1017 38 10000 3.6 350 17:40 28.05.2020
2267 Clear 30 1017 38 10000 3.6 350 17:21 28.05.2020
2268 Clear 31 1017 35 10000 1.5 0 16:47 28.05.2020
2269 Clear 30 1017 35 10000 1.5 0 16:21 28.05.2020
2270 Clear 30 1018 37 10000 2.1 110 15:59 28.05.2020
2271 Clear 30 1018 40 10000 2.6 120 15:40 28.05.2020
2272 Clear 30 1018 40 10000 2.6 120 15:22 28.05.2020
2273 Clear 29 1018 45 10000 3.1 90 14:42 28.05.2020
2274 Clear 29 1018 45 10000 3.1 90 14:23 28.05.2020
2275 Clear 28 1018 51 10000 4.1 70 13:47 28.05.2020
2276 Clear 27 1018 54 10000 3.6 70 13:29 28.05.2020
2277 Clear 26 1019 61 10000 4.1 70 12:57 28.05.2020
2278 Clear 26 1018 61 10000 2.1 10 12:38 28.05.2020
2279 Clear 25 1019 61 10000 4.6 70 12:18 28.05.2020
2280 Clear 24 1018 64 10000 3.1 50 11:41 28.05.2020
2281 Clear 24 1019 73 10000 4.1 70 11:23 28.05.2020
2282 Clear 22 1019 73 10000 4.1 70 10:50 28.05.2020
2283 Clear 22 1019 77 10000 5.1 60 10:28 28.05.2020
2284 Clear 21 1019 82 10000 5.7 60 09:59 28.05.2020
2285 Clear 21 1018 88 10000 3.6 60 09:38 28.05.2020
2286 Clear 21 1018 88 10000 3.6 60 09:19 28.05.2020
2287 Clear 20 1018 88 10000 3.6 60 08:44 28.05.2020
2288 Clear 20 1018 88 10000 2.1 40 08:25 28.05.2020
2289 Clear 20 1018 82 10000 1 310 07:45 28.05.2020
2290 Clear 20 1018 82 10000 1.5 10 07:24 28.05.2020
2291 Clear 20 1018 77 10000 1.5 110 06:55 28.05.2020
2292 Clear 20 1018 77 10000 1.5 30 06:36 28.05.2020
2293 Clear 21 1018 68 10000 1.5 70 05:40 28.05.2020
2294 Clear 22 1018 64 10000 2.6 320 04:46 28.05.2020
2295 Clear 22 1018 64 10000 2.6 320 04:25 28.05.2020
2296 Clear 22 1018 64 10000 2.6 320 03:45 28.05.2020
2297 Clear 23 1018 56 10000 2.1 320 02:45 28.05.2020
2298 Clear 23 1018 56 10000 4.6 310 01:50 28.05.2020
2299 Clear 23 1018 53 10000 5.1 320 00:54 28.05.2020
2300 Clear 23 1019 53 10000 6.2 310 00:24 28.05.2020
2301 Clear 23 1019 49 10000 6.7 310 23:57 27.05.2020
2302 Clear 23 1018 49 10000 6.2 310 23:39 27.05.2020
2303 Clear 23 1018 49 10000 6.2 310 23:20 27.05.2020
2304 Clear 23 1018 49 10000 6.2 310 22:56 27.05.2020
2305 Clear 23 1018 49 10000 6.7 310 22:38 27.05.2020
2306 Clear 23 1018 49 10000 6.7 310 22:19 27.05.2020
2307 Clear 25 1018 47 10000 7.2 310 21:41 27.05.2020
2308 Clear 25 1018 47 10000 7.2 310 21:22 27.05.2020
2309 Clear 26 1018 47 10000 6.7 310 20:59 27.05.2020
2310 Clear 26 1018 47 10000 6.7 310 20:59 27.05.2020
2311 Clear 26 1017 44 10000 6.2 310 20:40 27.05.2020
2312 Clear 27 1017 44 10000 6.2 310 20:21 27.05.2020
2313 Clear 27 1018 44 10000 6.2 300 19:57 27.05.2020
2314 Clear 27 1018 42 10000 6.2 310 19:39 27.05.2020
2315 Clear 27 1018 42 10000 6.2 310 19:18 27.05.2020
2316 Clear 28 1017 39 10000 5.7 300 18:40 27.05.2020
2317 Clear 28 1017 39 10000 5.7 300 18:19 27.05.2020
2318 Clear 29 1017 40 10000 5.7 330 17:46 27.05.2020
2319 Clear 29 1018 33 10000 3.1 70 17:28 27.05.2020
2320 Clear 30 1018 31 10000 1.5 0 16:57 27.05.2020
2321 Clear 30 1018 35 10000 2.1 0 16:38 27.05.2020
2322 Clear 30 1018 35 10000 2.1 0 16:38 27.05.2020
2323 Clear 30 1018 35 10000 2.1 0 16:20 27.05.2020
2324 Clear 30 1018 35 10000 3.1 80 15:59 27.05.2020
2325 Clear 29 1019 42 10000 2.6 80 15:39 27.05.2020
2326 Clear 29 1019 42 10000 2.6 80 15:21 27.05.2020
2327 Clear 28 1019 51 10000 3.1 80 14:42 27.05.2020
2328 Clear 28 1019 51 10000 3.1 80 14:21 27.05.2020
2329 Clear 28 1019 51 10000 4.1 70 13:55 27.05.2020
2330 Clear 27 1019 57 10000 3.6 80 13:36 27.05.2020
2331 Clear 27 1019 57 10000 3.6 80 13:18 27.05.2020
2332 Clear 26 1019 65 10000 4.1 50 12:40 27.05.2020
2333 Clear 26 1019 65 10000 4.1 50 12:22 27.05.2020
2334 Clear 25 1020 64 10000 3.6 60 11:40 27.05.2020
2335 Clear 25 1020 64 10000 3.6 60 11:40 27.05.2020
2336 Clear 25 1020 64 10000 3.6 60 11:22 27.05.2020
2337 Clear 24 1019 69 10000 2.6 60 10:58 27.05.2020
2338 Clear 23 1019 73 10000 3.1 50 10:39 27.05.2020
2339 Clear 23 1019 73 10000 3.1 50 10:20 27.05.2020
2340 Clear 22 1019 88 10000 2.1 40 09:41 27.05.2020
2341 Clear 21 1019 88 10000 2.1 40 09:22 27.05.2020
2342 Clear 20 1019 88 10000 2.6 40 08:56 27.05.2020
2343 Clear 20 1019 88 10000 2.6 40 08:56 27.05.2020
2344 Clear 20 1019 88 10000 1.5 60 08:36 27.05.2020
2345 Clear 20 1019 88 10000 1.5 60 08:18 27.05.2020
2346 Clear 20 1019 88 10000 2.6 90 07:50 27.05.2020
2347 Clear 20 1018 82 10000 3.6 110 07:32 27.05.2020
2348 Clear 21 1018 77 10000 4.1 70 06:49 27.05.2020
2349 Clear 22 1018 68 10000 4.6 70 06:21 27.05.2020
2350 Clear 23 1018 64 10000 4.1 50 05:49 27.05.2020
2351 Clear 24 1018 57 10000 4.1 50 05:22 27.05.2020
2352 Clear 24 1019 60 10000 2.6 340 02:36 27.05.2020
2353 Clouds 24 1019 57 10000 2.1 330 01:55 27.05.2020
2354 Clouds 24 1019 57 10000 1.5 340 01:30 27.05.2020
2355 Clouds 25 1019 50 10000 3.1 330 00:47 27.05.2020
2356 Clouds 25 1019 53 10000 4.6 320 00:20 27.05.2020
2357 Clouds 25 1019 53 10000 4.6 330 23:57 26.05.2020
2358 Clouds 25 1019 53 10000 4.6 330 23:38 26.05.2020
2359 Clouds 25 1019 53 10000 4.6 330 23:20 26.05.2020
2360 Clouds 26 1018 54 10000 5.1 320 22:41 26.05.2020
2361 Clouds 26 1018 54 10000 5.1 320 22:23 26.05.2020
2362 Clouds 26 1018 54 10000 5.7 320 21:59 26.05.2020
2363 Clouds 26 1018 54 10000 5.7 320 21:40 26.05.2020
2364 Clouds 27 1018 54 10000 5.7 320 21:22 26.05.2020
2365 Clouds 27 1018 51 10000 5.7 310 20:57 26.05.2020
2366 Clouds 27 1018 54 10000 5.1 310 20:39 26.05.2020
2367 Clouds 27 1018 54 10000 5.1 310 20:19 26.05.2020
2368 Clouds 29 1018 54 10000 5.1 300 19:40 26.05.2020
2369 Clouds 29 1018 54 10000 5.1 300 19:20 26.05.2020
2370 Clouds 29 1018 54 10000 5.1 300 18:58 26.05.2020
2371 Clouds 29 1018 54 10000 4.6 300 18:39 26.05.2020
2372 Clouds 29 1018 54 10000 4.6 300 18:20 26.05.2020
2373 Clouds 29 1018 52 10000 2.6 20 17:40 26.05.2020
2374 Clouds 29 1018 52 10000 2.6 20 17:21 26.05.2020
2375 Clouds 30 1019 51 10000 2.6 0 16:48 26.05.2020
2376 Clouds 30 1019 51 10000 2.6 0 16:23 26.05.2020
2377 Clouds 29 1019 55 10000 2.6 0 15:58 26.05.2020
2378 Clear 30 1020 51 10000 2.6 50 15:39 26.05.2020
2379 Clear 30 1020 51 10000 2.6 50 15:19 26.05.2020
2380 Clear 28 1020 58 10000 2.6 80 14:45 26.05.2020
2381 Clear 27 1020 58 10000 2.6 80 14:27 26.05.2020
2382 Clear 27 1020 61 10000 2.6 0 13:58 26.05.2020
2383 Clear 27 1020 61 10000 2.6 0 13:58 26.05.2020
2384 Clear 27 1020 65 10000 2.6 70 13:40 26.05.2020
2385 Clear 27 1020 65 10000 2.6 70 13:21 26.05.2020
2386 Clear 25 1021 69 10000 3.1 0 12:44 26.05.2020
2387 Clear 25 1021 69 10000 3.1 0 12:44 26.05.2020
2388 Clear 25 1021 69 10000 3.1 0 12:22 26.05.2020
2389 Clear 24 1021 64 10000 3.1 50 11:59 26.05.2020
2390 Clear 23 1021 68 10000 3.1 60 11:40 26.05.2020
2391 Clear 23 1021 68 10000 3.1 60 11:40 26.05.2020
2392 Clear 23 1021 68 10000 3.1 60 11:19 26.05.2020
2393 Clear 22 1021 77 10000 2.6 50 10:47 26.05.2020
2394 Clear 21 1021 77 10000 2.6 50 10:19 26.05.2020
2395 Clear 20 1021 82 10000 3.1 50 09:57 26.05.2020
2396 Clear 20 1020 82 10000 2.1 70 09:37 26.05.2020
2397 Clear 20 1020 82 10000 2.1 70 09:18 26.05.2020
2398 Clear 19 1020 88 10000 0.54 226 08:40 26.05.2020
2399 Clear 18 1020 88 10000 0.56 203 08:21 26.05.2020
2400 Clear 18 1020 88 10000 0.56 203 08:21 26.05.2020
2401 Clear 17 1019 82 10000 0.5 0 07:42 26.05.2020
2402 Clear 17 1019 82 10000 0.5 0 07:23 26.05.2020
2403 Clear 17 1019 82 10000 0.5 0 06:52 26.05.2020
2404 Clear 17 1019 82 10000 0.5 0 06:52 26.05.2020
2405 Clear 17 1019 82 10000 1 0 06:28 26.05.2020
2406 Clear 18 1019 77 10000 1 0 05:42 26.05.2020
2407 Clear 18 1019 77 10000 1 0 05:18 26.05.2020
2408 Clear 18 1019 77 10000 3.6 320 04:47 26.05.2020
2409 Clear 18 1019 72 10000 4.1 310 04:28 26.05.2020
2410 Clear 18 1019 68 10000 3.1 310 03:45 26.05.2020
2411 Clear 18 1019 68 10000 3.1 310 03:45 26.05.2020
2412 Clear 19 1020 68 10000 3.6 310 02:35 26.05.2020
2413 Clear 18 1020 72 10000 4.6 310 01:47 26.05.2020
2414 Clear 18 1020 77 10000 5.1 320 00:43 26.05.2020
2415 Clear 18 1020 77 10000 5.1 320 00:23 26.05.2020
2416 Clear 19 1020 72 10000 5.1 310 23:59 25.05.2020
2417 Clear 19 1020 72 10000 5.1 310 23:39 25.05.2020
2418 Clear 19 1020 72 10000 5.1 310 23:20 25.05.2020
2419 Clear 20 1020 72 10000 5.1 310 22:56 25.05.2020
2420 Clear 20 1020 72 10000 5.7 310 22:37 25.05.2020
2421 Clear 20 1020 72 10000 5.7 310 22:19 25.05.2020
2422 Clear 20 1020 68 10000 4.1 320 21:58 25.05.2020
2423 Clear 21 1020 64 10000 6.7 320 21:38 25.05.2020
2424 Clear 22 1020 64 10000 6.7 320 21:19 25.05.2020
2425 -273 0 0 0 0 0 20:58 25.05.2020
2426 -273 0 0 0 0 0 20:58 25.05.2020
2427 Clear 23 1019 64 10000 6.2 310 20:40 25.05.2020
2428 Clear 23 1019 64 10000 6.2 310 20:20 25.05.2020
2429 Clear 23 1020 64 10000 6.7 320 19:55 25.05.2020
2430 Clear 23 1020 64 10000 6.2 310 19:37 25.05.2020
2431 Clear 25 1020 61 10000 6.2 310 19:18 25.05.2020
2432 Clear 26 1020 57 10000 6.2 310 18:43 25.05.2020
2433 Clear 26 1020 57 10000 6.2 310 18:21 25.05.2020
2434 Clear 26 1020 61 10000 6.7 320 17:56 25.05.2020
2435 Clear 26 1021 61 10000 6.2 310 17:38 25.05.2020
2436 Clear 26 1021 61 10000 6.2 310 17:19 25.05.2020
2437 Clear 26 1021 57 10000 5.7 330 16:41 25.05.2020
2438 Clear 26 1021 57 10000 5.7 330 16:22 25.05.2020
2439 Clear 27 1021 57 10000 6.2 340 15:58 25.05.2020
2440 Clear 27 1021 54 10000 5.7 360 15:40 25.05.2020
2441 Clear 27 1021 54 10000 5.7 360 15:18 25.05.2020
2442 Clear 27 1021 54 10000 5.7 360 15:18 25.05.2020
2443 Clear 27 1022 54 10000 5.7 340 14:43 25.05.2020
2444 Clear 26 1022 54 10000 5.7 340 14:24 25.05.2020
2445 Clear 26 1022 57 10000 5.1 330 13:57 25.05.2020
2446 Clear 25 1022 61 10000 4.6 340 13:38 25.05.2020
2447 Clear 25 1022 61 10000 4.6 340 13:20 25.05.2020
2448 Clear 24 1022 57 10000 4.6 340 12:57 25.05.2020
2449 Clear 24 1022 60 10000 4.1 330 12:37 25.05.2020
2450 Clear 24 1022 60 10000 4.1 330 12:19 25.05.2020
2451 Clouds 22 1023 68 10000 3.1 330 11:39 25.05.2020
2452 Clouds 21 1023 68 10000 3.1 330 11:19 25.05.2020
2453 Clouds 21 1023 68 10000 3.1 330 11:19 25.05.2020
2454 Clouds 20 1023 77 10000 3.1 320 10:54 25.05.2020
2455 Clouds 20 1023 77 10000 3.1 320 10:54 25.05.2020
2456 Clouds 19 1023 82 10000 5.7 340 10:36 25.05.2020
2457 Clouds 19 1023 82 10000 5.7 340 10:36 25.05.2020
2458 Clouds 19 1023 82 10000 5.7 340 10:18 25.05.2020
2459 Clouds 18 1023 88 10000 5.1 330 09:42 25.05.2020
2460 Clouds 18 1023 88 10000 5.1 330 09:20 25.05.2020
2461 Clouds 17 1023 82 10000 3.6 320 08:59 25.05.2020
2462 Clouds 17 1023 82 10000 3.6 320 08:38 25.05.2020
2463 Clouds 17 1023 82 10000 3.6 320 08:20 25.05.2020
2464 Clouds 16 1022 87 10000 4.1 320 07:47 25.05.2020
2465 Clouds 16 1022 87 10000 4.6 330 07:24 25.05.2020
2466 Clouds 16 1022 87 10000 2.6 0 06:55 25.05.2020
2467 Clouds 16 1022 87 10000 4.6 330 06:34 25.05.2020
2468 Clouds 17 1022 87 10000 5.7 320 05:20 25.05.2020
2469 Clouds 17 1023 77 10000 1 0 03:25 25.05.2020
2470 Clouds 18 1023 72 10000 5.7 320 02:46 25.05.2020
2471 Clouds 18 1023 72 10000 5.7 330 01:59 25.05.2020
2472 Clouds 19 1023 68 10000 5.7 310 01:40 25.05.2020
2473 Clouds 19 1023 68 10000 5.7 310 00:46 25.05.2020
2474 Clear 19 1023 68 10000 5.7 320 00:24 25.05.2020
2475 Clear 19 1023 72 10000 5.7 320 23:58 24.05.2020
2476 Clear 19 1023 72 10000 4.6 310 23:38 24.05.2020
2477 Clear 19 1023 72 10000 4.6 310 23:19 24.05.2020
2478 Clear 20 1022 72 10000 5.7 320 22:42 24.05.2020
2479 Clear 20 1022 72 10000 5.7 320 22:42 24.05.2020
2480 Clear 20 1022 72 10000 5.7 320 22:20 24.05.2020
2481 Clouds 20 1022 73 10000 5.1 320 21:59 24.05.2020
2482 Clouds 21 1022 64 10000 5.1 310 21:40 24.05.2020
2483 Clouds 22 1022 64 10000 5.1 310 21:22 24.05.2020
2484 Clouds 22 1022 64 10000 7.2 330 20:57 24.05.2020
2485 Clear 24 1022 61 10000 4.6 320 20:38 24.05.2020
2486 Clouds 24 1022 61 10000 4.6 320 20:18 24.05.2020
2487 Clouds 25 1022 61 10000 6.2 330 19:56 24.05.2020
2488 Clouds 25 1022 57 10000 4.6 330 19:36 24.05.2020
2489 Clouds 25 1022 57 10000 4.6 330 19:18 24.05.2020
2490 Clouds 26 1022 61 10000 5.7 320 18:42 24.05.2020
2491 Clouds 26 1022 61 10000 5.7 320 18:23 24.05.2020
2492 Clouds 27 1022 54 10000 4.1 320 17:57 24.05.2020
2493 Clouds 26 1022 57 10000 4.1 310 17:38 24.05.2020
2494 Clouds 26 1022 57 10000 4.1 310 17:19 24.05.2020
2495 Clouds 26 1023 57 10000 4.1 320 16:54 24.05.2020
2496 Clouds 26 1023 61 10000 3.6 310 16:36 24.05.2020
2497 Clouds 26 1023 61 10000 3.6 310 16:18 24.05.2020
2498 Clouds 26 1023 61 10000 3.6 330 15:40 24.05.2020
2499 Clouds 26 1023 61 10000 3.6 330 15:21 24.05.2020
2500 Clouds 26 1023 57 10000 3.6 350 14:59 24.05.2020
2501 Clouds 25 1023 65 10000 3.1 340 14:40 24.05.2020
2502 Clouds 25 1023 65 10000 3.1 340 14:21 24.05.2020
2503 Clouds 25 1023 65 10000 3.1 340 14:21 24.05.2020
2504 Clouds 24 1023 64 10000 3.6 10 13:55 24.05.2020
2505 Clouds 24 1024 64 10000 4.6 340 13:37 24.05.2020
2506 Clouds 23 1023 69 10000 3.6 350 13:18 24.05.2020
2507 Clouds 23 1023 69 10000 3.6 350 12:55 24.05.2020
2508 Clouds 23 1023 64 10000 3.6 320 12:37 24.05.2020
2509 Clouds 23 1023 64 10000 3.6 320 12:18 24.05.2020
2510 Clouds 21 1023 64 10000 3.1 330 11:54 24.05.2020
2511 Clouds 21 1024 73 10000 4.1 330 11:36 24.05.2020
2512 Clear 21 1024 73 10000 4.1 330 11:18 24.05.2020
2513 Clear 20 1024 77 10000 4.1 320 10:41 24.05.2020
2514 Clear 19 1024 77 10000 4.1 320 10:23 24.05.2020
2515 Clouds 18 1024 82 10000 4.6 320 09:56 24.05.2020
2516 Clouds 18 1023 82 10000 6.2 320 09:38 24.05.2020
2517 Clouds 17 1023 82 10000 6.2 320 09:18 24.05.2020
2518 Clouds 17 1023 87 10000 5.7 330 08:41 24.05.2020
2519 Clouds 16 1023 87 10000 5.7 330 08:23 24.05.2020
2520 Clouds 16 1023 93 10000 7.2 310 07:58 24.05.2020
2521 Clouds 16 1023 87 10000 4.6 320 07:39 24.05.2020
2522 Clouds 16 1023 87 10000 4.6 320 07:20 24.05.2020
2523 Clouds 16 1023 87 10000 6.2 320 06:38 24.05.2020
2524 Clouds 16 1023 87 10000 6.2 310 05:49 24.05.2020
2525 Clouds 17 1024 87 10000 5.1 350 03:56 24.05.2020
2526 Clouds 17 1024 87 10000 4.6 340 03:35 24.05.2020
2527 Clear 17 1025 82 10000 4.6 340 02:24 24.05.2020
2528 Clear 17 1025 72 10000 7.7 340 00:59 24.05.2020
2529 Clear 18 1025 72 10000 6.7 340 00:36 24.05.2020
2530 Clear 18 1025 72 10000 6.7 340 00:18 24.05.2020
2531 Clear 18 1025 68 10000 7.2 330 23:38 23.05.2020
2532 Clouds 18 1025 68 10000 7.2 330 23:19 23.05.2020
2533 Clouds 18 1025 68 10000 7.7 320 22:55 23.05.2020
2534 Clouds 19 1025 55 10000 6.2 310 22:37 23.05.2020
2535 Clouds 19 1025 55 10000 6.2 310 22:19 23.05.2020
2536 Clouds 19 1024 52 10000 6.7 330 21:56 23.05.2020
2537 Clouds 20 1024 52 10000 7.2 320 21:36 23.05.2020
2538 Clouds 21 1024 52 10000 7.2 320 21:18 23.05.2020
2539 Clouds 22 1024 46 10000 7.2 320 20:41 23.05.2020
2540 Clouds 23 1024 46 10000 7.2 320 20:20 23.05.2020
2541 Clouds 23 1024 49 10000 8.2 320 19:59 23.05.2020
2542 Clouds 23 1024 47 10000 7.7 320 19:40 23.05.2020
2543 Clouds 24 1024 47 10000 7.7 320 19:19 23.05.2020
2544 Clouds 25 1025 44 10000 7.2 310 18:55 23.05.2020
2545 Clouds 25 1025 41 10000 6.7 320 18:36 23.05.2020
2546 Clouds 25 1025 41 10000 6.7 320 18:18 23.05.2020
2547 Clouds 26 1025 44 10000 7.2 340 17:54 23.05.2020
2548 Clouds 26 1025 42 10000 6.7 340 17:36 23.05.2020
2549 Clouds 26 1025 42 10000 6.7 340 17:18 23.05.2020
2550 Clouds 26 1025 47 10000 7.7 350 16:41 23.05.2020
2551 Clouds 26 1025 47 10000 7.7 350 16:21 23.05.2020
2552 Clouds 26 1025 47 10000 7.7 350 16:21 23.05.2020
2553 Clouds 26 1025 47 10000 6.2 350 15:59 23.05.2020
2554 Clouds 27 1025 47 10000 5.1 350 15:41 23.05.2020
2555 Clouds 27 1025 47 10000 5.1 350 15:22 23.05.2020
2556 Clouds 26 1026 41 10000 5.7 10 14:43 23.05.2020
2557 Clear 26 1026 41 10000 5.7 10 14:24 23.05.2020
2558 Clear 26 1026 44 10000 6.2 360 13:56 23.05.2020
2559 Clear 25 1026 47 10000 5.1 20 13:37 23.05.2020
2560 Clear 25 1026 47 10000 5.7 360 13:18 23.05.2020
2561 Clear 23 1027 53 10000 5.7 360 12:41 23.05.2020
2562 Clear 23 1027 53 10000 5.7 360 12:20 23.05.2020
2563 Clear 22 1026 60 10000 4.6 350 11:57 23.05.2020
2564 Clear 21 1027 64 10000 5.1 360 11:39 23.05.2020
2565 Clear 21 1026 64 10000 8.2 350 11:19 23.05.2020
2566 Clear 20 1026 64 10000 8.2 350 10:55 23.05.2020
2567 Clear 20 1026 68 10000 7.7 350 10:37 23.05.2020
2568 Clear 20 1026 68 10000 7.7 350 10:37 23.05.2020
2569 Clear 19 1026 68 10000 7.7 350 10:18 23.05.2020
2570 Clouds 18 1026 77 10000 5.7 340 09:43 23.05.2020
2571 Clouds 18 1026 77 10000 5.7 340 09:24 23.05.2020
2572 Clouds 18 1025 77 10000 6.7 330 08:58 23.05.2020
2573 Clouds 17 1025 77 10000 4.1 340 08:38 23.05.2020
2574 Clouds 17 1025 77 10000 4.1 340 08:19 23.05.2020
2575 Clouds 17 1025 82 10000 1 0 07:44 23.05.2020
2576 Clouds 17 1025 82 10000 1 0 07:23 23.05.2020
2577 Clouds 17 1025 77 10000 7.7 350 06:43 23.05.2020
2578 Clouds 17 1025 82 10000 2.1 0 05:55 23.05.2020
2579 Clouds 17 1025 82 10000 2.1 0 05:55 23.05.2020
2580 Clouds 17 1025 88 10000 2.1 80 03:55 23.05.2020
2581 Clouds 18 1025 88 10000 5.1 350 03:24 23.05.2020
2582 Clouds 18 1026 82 10000 5.1 350 02:40 23.05.2020
2583 Clouds 18 1026 88 10000 5.7 360 01:48 23.05.2020
2584 Clouds 18 1026 88 10000 9.3 320 01:18 23.05.2020
2585 Clouds 18 1025 88 10000 9.8 330 00:42 23.05.2020
2586 Clouds 18 1025 88 10000 8.7 330 23:59 22.05.2020
2587 Clouds 18 1025 88 10000 8.2 330 23:41 22.05.2020
2588 Clouds 18 1025 88 10000 8.2 330 23:22 22.05.2020
2589 Clouds 19 1025 82 10000 7.7 320 22:58 22.05.2020
2590 Clouds 19 1025 82 10000 7.7 320 22:58 22.05.2020
2591 Clouds 19 1024 82 10000 7.2 310 22:40 22.05.2020
2592 Clouds 19 1024 82 10000 7.2 310 22:20 22.05.2020
2593 Clouds 19 1024 77 10000 6.7 320 21:47 22.05.2020
2594 Clouds 20 1024 77 10000 6.7 320 21:23 22.05.2020
2595 Clouds 20 1024 77 10000 6.7 320 21:23 22.05.2020
2596 Clouds 20 1024 73 10000 6.2 310 20:59 22.05.2020
2597 Clouds 21 1023 68 10000 6.2 320 20:41 22.05.2020
2598 Clouds 21 1023 68 10000 6.2 320 20:41 22.05.2020
2599 Clouds 22 1023 68 10000 6.2 320 20:20 22.05.2020
2600 Clouds 23 1023 64 10000 5.1 310 19:45 22.05.2020
2601 Clear 23 1023 64 10000 5.7 320 19:26 22.05.2020
2602 Clear 24 1023 60 10000 6.2 310 18:55 22.05.2020
2603 Clear 24 1023 57 10000 6.2 320 18:37 22.05.2020
2604 Clear 24 1023 57 10000 6.2 320 18:37 22.05.2020
2605 Clouds 25 1023 57 10000 6.2 320 18:19 22.05.2020
2606 Clouds 25 1024 64 10000 6.7 320 17:40 22.05.2020
2607 Clouds 25 1024 64 10000 6.7 320 17:20 22.05.2020
2608 Clouds 25 1024 61 10000 6.2 320 16:57 22.05.2020
2609 Clouds 25 1024 61 10000 5.7 320 16:39 22.05.2020
2610 Clouds 25 1024 61 10000 5.7 320 16:39 22.05.2020
2611 Clouds 25 1024 61 10000 5.1 340 16:19 22.05.2020
2612 Clouds 25 1024 61 10000 5.1 340 15:54 22.05.2020
2613 Clouds 25 1024 61 10000 5.1 340 15:54 22.05.2020
2614 Clouds 25 1024 61 10000 5.1 340 15:36 22.05.2020
2615 Clouds 25 1024 61 10000 5.1 340 15:18 22.05.2020
2616 Clouds 24 1025 64 10000 4.1 300 14:39 22.05.2020
2617 Clouds 24 1025 64 10000 4.1 300 14:20 22.05.2020
2618 Clouds 22 1025 73 10000 3.6 340 13:42 22.05.2020
2619 Clouds 22 1025 73 10000 3.6 340 13:42 22.05.2020
2620 Clouds 22 1025 73 10000 3.6 340 13:19 22.05.2020
2621 Clouds 21 1025 77 10000 5.1 360 12:43 22.05.2020
2622 Clouds 21 1025 77 10000 5.1 360 12:24 22.05.2020
2623 Clouds 21 1025 77 10000 5.1 360 12:24 22.05.2020
2624 Clouds 20 1025 82 10000 5.7 350 11:48 22.05.2020
2625 Clouds 19 1025 82 10000 6.2 350 11:22 22.05.2020
2626 Clouds 19 1025 82 10000 7.2 340 10:59 22.05.2020
2627 Clouds 18 1025 88 10000 6.7 340 10:39 22.05.2020
2628 Clouds 18 1025 88 10000 6.7 340 10:20 22.05.2020
2629 Clouds 17 1024 93 10000 6.2 340 09:57 22.05.2020
2630 Clouds 17 1024 88 10000 7.2 330 09:38 22.05.2020
2631 Clouds 17 1024 88 10000 7.2 330 09:18 22.05.2020
2632 Clouds 16 1023 93 10000 4.6 330 08:43 22.05.2020
2633 Clouds 16 1023 93 10000 3.6 330 08:20 22.05.2020
2634 Clouds 16 1023 93 10000 3.6 330 07:52 22.05.2020
2635 Clouds 16 1023 93 10000 5.1 320 07:24 22.05.2020
2636 Clouds 16 1023 93 10000 4.6 330 06:54 22.05.2020
2637 Clouds 16 1023 93 10000 4.1 350 06:33 22.05.2020
2638 Clouds 16 1023 93 10000 6.2 330 05:38 22.05.2020
2639 Clouds 15 1023 93 10000 5.1 320 04:50 22.05.2020
2640 Clouds 16 1023 93 10000 5.7 320 04:19 22.05.2020
2641 Clouds 16 1023 93 10000 3.1 340 03:45 22.05.2020
2642 Clouds 16 1023 82 10000 4.6 340 02:59 22.05.2020
2643 Clouds 16 1023 82 10000 4.1 340 01:52 22.05.2020
2644 Clouds 16 1023 82 10000 6.2 330 01:24 22.05.2020
2645 Clouds 16 1023 82 10000 2.6 320 00:40 22.05.2020
2646 Clouds 16 1023 82 10000 2.6 320 00:22 22.05.2020
2647 Clouds 17 1022 82 10000 5.7 320 23:42 21.05.2020
2648 Clouds 17 1022 82 10000 5.7 320 23:24 21.05.2020
2649 Clouds 17 1022 82 10000 6.2 320 22:58 21.05.2020
2650 Clouds 17 1022 82 10000 5.7 320 22:38 21.05.2020
2651 Clouds 17 1022 82 10000 5.7 320 22:19 21.05.2020
2652 Clouds 18 1022 77 10000 5.7 310 21:55 21.05.2020
2653 Clouds 18 1022 72 10000 6.7 330 21:37 21.05.2020
2654 Clouds 19 1021 68 10000 7.2 320 21:18 21.05.2020
2655 Clouds 20 1021 64 10000 6.2 310 20:42 21.05.2020
2656 Clouds 21 1021 64 10000 6.2 310 20:22 21.05.2020
2657 Clouds 22 1021 60 10000 6.7 330 19:40 21.05.2020
2658 Clouds 22 1021 60 10000 6.7 330 19:20 21.05.2020
2659 Clouds 23 1021 56 10000 5.7 330 18:59 21.05.2020
2660 Clouds 23 1021 53 10000 5.1 300 18:39 21.05.2020
2661 Clouds 23 1021 53 10000 5.1 300 18:19 21.05.2020
2662 Clouds 24 1021 50 10000 6.7 330 17:56 21.05.2020
2663 Clouds 24 1021 57 10000 4.6 300 17:38 21.05.2020
2664 Clouds 24 1021 57 10000 4.6 300 17:19 21.05.2020
2665 Clouds 25 1021 50 10000 3.6 310 16:44 21.05.2020
2666 Clouds 25 1021 50 10000 3.6 310 16:22 21.05.2020
2667 Clouds 24 1021 53 10000 3.1 310 15:44 21.05.2020
2668 Clouds 24 1021 53 10000 3.1 310 15:24 21.05.2020
2669 Clouds 24 1021 60 10000 2.6 350 14:43 21.05.2020
2670 Clouds 23 1021 60 10000 2.6 350 14:25 21.05.2020
2671 Clouds 22 1021 64 10000 2.1 290 14:00 21.05.2020
2672 Clouds 22 1021 64 10000 2.6 0 13:38 21.05.2020
2673 Clouds 22 1021 64 10000 2.6 0 13:20 21.05.2020
2674 Clouds 21 1021 64 10000 1 0 12:40 21.05.2020
2675 Clouds 21 1021 64 10000 1 0 12:22 21.05.2020
2676 Clouds 20 1021 68 10000 1 0 11:59 21.05.2020
2677 Clouds 19 1020 77 10000 2.1 350 11:39 21.05.2020
2678 Clouds 19 1020 77 10000 2.1 350 11:21 21.05.2020
2679 Clouds 18 1020 77 10000 1.5 50 10:54 21.05.2020
2680 Clouds 18 1020 77 10000 0.5 0 10:36 21.05.2020
2681 Clouds 17 1020 77 10000 0.5 0 10:18 21.05.2020
2682 Clouds 16 1019 77 10000 1.5 80 09:42 21.05.2020
2683 Clouds 16 1020 87 10000 3.1 330 09:24 21.05.2020
2684 Clouds 15 1020 87 10000 3.6 330 08:57 21.05.2020
2685 Clouds 15 1019 87 10000 2.6 330 08:38 21.05.2020
2686 Clouds 15 1019 87 10000 2.6 330 08:20 21.05.2020
2687 Clouds 15 1019 87 10000 4.1 330 07:42 21.05.2020
2688 Clouds 15 1019 87 10000 4.1 330 07:22 21.05.2020
2689 Clouds 15 1019 82 10000 5.7 310 06:37 21.05.2020
2690 Clouds 15 1019 82 10000 5.7 320 05:50 21.05.2020
2691 Clouds 15 1019 72 10000 4.1 310 04:18 21.05.2020
2692 Clouds 16 1019 72 10000 4.1 320 03:21 21.05.2020
2693 Clouds 16 1020 72 10000 3.6 320 02:31 21.05.2020
2694 Clouds 16 1020 67 10000 2.6 320 01:51 21.05.2020
2695 Clouds 16 1020 72 10000 3.1 310 01:24 21.05.2020
2696 Clouds 16 1020 77 10000 4.6 310 00:55 21.05.2020
2697 Clouds 16 1020 77 10000 4.6 320 00:27 21.05.2020
2698 Clouds 16 1020 77 10000 4.6 330 23:59 20.05.2020
2699 Clouds 16 1019 82 10000 4.6 320 23:40 20.05.2020
2700 Clouds 16 1019 82 10000 4.6 320 23:19 20.05.2020
2701 Clouds 17 1019 82 10000 5.7 330 22:55 20.05.2020
2702 Clouds 17 1019 77 10000 6.2 330 22:36 20.05.2020
2703 Clouds 17 1019 77 10000 6.2 330 22:18 20.05.2020
2704 Clouds 18 1018 72 10000 5.1 320 21:39 20.05.2020
2705 Clouds 18 1018 72 10000 5.1 320 21:20 20.05.2020
2706 Clouds 19 1018 68 10000 6.2 320 20:44 20.05.2020
2707 Clouds 19 1018 68 10000 6.2 320 20:24 20.05.2020
2708 Clouds 20 1018 68 10000 7.7 320 19:44 20.05.2020
2709 Clouds 20 1018 68 10000 7.7 320 19:25 20.05.2020
2710 Clouds 20 1018 64 10000 6.7 320 18:59 20.05.2020
2711 Clouds 20 1018 68 10000 7.2 330 18:41 20.05.2020
2712 Clouds 20 1018 68 10000 7.2 330 18:21 20.05.2020
2713 Clouds 22 1018 64 10000 5.7 310 17:41 20.05.2020
2714 Clouds 22 1018 64 10000 5.7 310 17:22 20.05.2020
2715 Clouds 23 1018 64 10000 6.7 330 16:55 20.05.2020
2716 Clouds 22 1018 64 10000 5.7 320 16:37 20.05.2020
2717 Clouds 22 1018 64 10000 5.7 320 16:18 20.05.2020
2718 Clouds 23 1018 64 10000 4.6 290 15:43 20.05.2020
2719 Clouds 23 1018 64 10000 4.6 290 15:43 20.05.2020
2720 Clouds 23 1018 64 10000 4.6 290 15:25 20.05.2020
2721 Clouds 24 1018 60 10000 3.6 310 14:45 20.05.2020
2722 Clear 23 1018 60 10000 3.6 310 14:24 20.05.2020
2723 Clouds 23 1018 64 10000 3.1 300 13:56 20.05.2020
2724 Clouds 23 1019 64 10000 3.1 330 13:37 20.05.2020
2725 Clouds 23 1019 64 10000 3.1 330 13:18 20.05.2020
2726 Clouds 21 1019 68 10000 3.1 340 12:42 20.05.2020
2727 Clouds 21 1019 68 10000 3.1 340 12:21 20.05.2020
2728 Clouds 20 1018 72 10000 4.1 330 11:38 20.05.2020
2729 Clouds 20 1018 72 10000 4.1 330 11:20 20.05.2020
2730 Clouds 19 1018 77 10000 3.1 310 10:55 20.05.2020
2731 Clear 18 1017 82 10000 3.6 340 10:37 20.05.2020
2732 Clear 18 1017 82 10000 3.6 340 10:18 20.05.2020
2733 Clear 17 1017 77 10000 4.1 310 09:41 20.05.2020
2734 Clear 17 1017 77 10000 4.1 310 09:20 20.05.2020
2735 Clear 17 1017 77 10000 4.1 310 08:42 20.05.2020
2736 Clouds 16 1017 77 10000 4.1 310 08:19 20.05.2020
2737 Clouds 16 1017 77 10000 5.1 320 07:50 20.05.2020
2738 Clouds 16 1017 87 10000 4.1 320 07:23 20.05.2020
2739 Clouds 16 1017 87 10000 5.1 330 06:53 20.05.2020
2740 Clouds 16 1017 82 10000 4.6 320 06:18 20.05.2020
2741 Clouds 16 1018 77 10000 5.1 310 04:40 20.05.2020
2742 Clouds 17 1018 77 10000 5.1 310 04:18 20.05.2020
2743 Clouds 16 1019 77 10000 5.1 320 03:35 20.05.2020
2744 Clouds 17 1019 67 10000 6.7 310 01:45 20.05.2020
2745 Clouds 17 1019 67 10000 5.7 310 01:23 20.05.2020
2746 Clouds 17 1019 67 10000 6.7 310 00:41 20.05.2020
2747 Clouds 17 1019 67 10000 6.7 310 00:21 20.05.2020
2748 Clouds 18 1018 68 10000 7.2 310 23:37 19.05.2020
2749 Clouds 18 1018 68 10000 7.2 310 23:19 19.05.2020
2750 Clouds 18 1018 72 10000 7.7 310 22:55 19.05.2020
2751 Clouds 19 1018 68 10000 7.2 310 22:36 19.05.2020
2752 Clouds 19 1018 68 10000 7.2 310 22:18 19.05.2020
2753 Clouds 19 1018 72 10000 6.7 300 21:55 19.05.2020
2754 Clouds 19 1018 72 10000 6.2 300 21:36 19.05.2020
2755 Clouds 20 1018 72 10000 6.2 300 21:18 19.05.2020
2756 Clouds 20 1018 68 10000 6.2 300 20:55 19.05.2020
2757 Clouds 21 1018 68 10000 5.7 310 20:37 19.05.2020
2758 Clouds 22 1018 60 10000 5.7 310 20:19 19.05.2020
2759 Clouds 23 1018 60 10000 5.1 300 19:38 19.05.2020
2760 Clouds 23 1018 60 10000 5.1 300 19:20 19.05.2020
2761 Clouds 25 1018 57 10000 4.1 300 18:45 19.05.2020
2762 Clouds 25 1018 57 10000 4.1 300 18:23 19.05.2020
2763 Clouds 25 1018 61 10000 4.6 310 17:58 19.05.2020
2764 Clouds 26 1018 61 10000 4.6 320 17:39 19.05.2020
2765 Clouds 26 1018 61 10000 4.6 320 17:20 19.05.2020
2766 Clouds 26 1018 57 10000 3.6 330 16:55 19.05.2020
2767 Clouds 26 1018 51 10000 2.6 0 16:37 19.05.2020
2768 Clouds 26 1018 51 10000 2.6 0 16:18 19.05.2020
2769 Clouds 26 1019 44 10000 2.1 0 15:41 19.05.2020
2770 Clouds 26 1019 44 10000 2.1 0 15:20 19.05.2020
2771 Clouds 26 1019 50 10000 2.1 0 14:55 19.05.2020
2772 Clouds 26 1019 47 10000 2.6 30 14:37 19.05.2020
2773 Clouds 25 1020 54 10000 1 0 14:19 19.05.2020
2774 Clouds 25 1020 54 10000 1 0 13:56 19.05.2020
2775 Clouds 25 1020 53 10000 1 0 13:37 19.05.2020
2776 Clouds 24 1019 50 10000 3.1 20 13:18 19.05.2020
2777 Clouds 24 1020 53 10000 2.1 0 12:55 19.05.2020
2778 Clouds 23 1020 60 10000 2.1 360 12:36 19.05.2020
2779 Clouds 22 1020 60 10000 2.1 360 12:18 19.05.2020
2780 Clouds 21 1020 60 10000 3.6 340 11:41 19.05.2020
2781 Clouds 21 1020 60 10000 3.6 340 11:22 19.05.2020
2782 Clouds 20 1020 64 10000 3.6 330 10:56 19.05.2020
2783 Clouds 19 1020 68 10000 3.1 310 10:38 19.05.2020
2784 Clouds 19 1020 68 10000 3.1 310 10:18 19.05.2020
2785 Clouds 18 1020 72 10000 4.1 310 09:43 19.05.2020
2786 Clouds 17 1020 72 10000 4.1 310 09:24 19.05.2020
2787 Clouds 17 1020 72 10000 4.1 320 08:47 19.05.2020
2788 Clouds 16 1020 72 10000 4.6 310 08:25 19.05.2020
2789 Clouds 16 1020 72 10000 4.6 310 07:48 19.05.2020
2790 Clouds 16 1020 72 10000 5.1 320 07:27 19.05.2020
2791 Clouds 16 1020 72 10000 4.6 320 06:55 19.05.2020
2792 Clouds 16 1020 77 10000 4.6 320 06:31 19.05.2020
2793 Clouds 17 1020 67 10000 4.1 310 05:43 19.05.2020
2794 Clouds 17 1020 67 10000 4.1 310 05:19 19.05.2020
2795 Clouds 17 1021 67 10000 3.6 320 04:36 19.05.2020
2796 Clouds 17 1022 72 10000 4.1 320 02:24 19.05.2020
2797 Clouds 18 1022 63 10000 2.1 330 00:48 19.05.2020
2798 Clouds 18 1022 68 10000 5.7 330 00:29 19.05.2020
2799 Clouds 18 1022 68 10000 6.2 330 23:59 18.05.2020
2800 Clouds 18 1022 68 10000 6.2 310 23:40 18.05.2020
2801 Clouds 18 1022 68 10000 6.2 310 23:20 18.05.2020
2802 Clouds 19 1022 63 10000 6.2 310 22:55 18.05.2020
2803 Clouds 19 1022 68 10000 5.7 320 22:37 18.05.2020
2804 Clouds 19 1022 68 10000 5.7 320 22:19 18.05.2020
2805 Clear 20 1021 60 10000 6.2 320 21:42 18.05.2020
2806 Clear 20 1021 60 10000 6.2 320 21:21 18.05.2020
2807 Clear 21 1021 60 10000 5.7 310 20:57 18.05.2020
2808 Clear 22 1021 56 10000 5.7 320 20:37 18.05.2020
2809 Clouds 23 1022 57 10000 5.7 310 20:19 18.05.2020
2810 Clouds 23 1022 57 10000 5.7 320 19:41 18.05.2020
2811 Clouds 24 1022 57 10000 5.7 320 19:20 18.05.2020
2812 Clouds 24 1022 57 10000 5.7 320 18:59 18.05.2020
2813 Clouds 24 1022 57 10000 5.1 320 18:41 18.05.2020
2814 Clouds 24 1022 57 10000 5.1 320 18:20 18.05.2020
2815 Clouds 25 1022 57 10000 4.6 300 17:38 18.05.2020
2816 Clouds 25 1022 57 10000 4.6 300 17:18 18.05.2020
2817 Clouds 25 1022 57 10000 4.6 300 17:18 18.05.2020
2818 Clouds 26 1022 53 10000 4.6 310 16:56 18.05.2020
2819 Clouds 26 1023 57 10000 4.1 290 16:37 18.05.2020
2820 Clouds 26 1023 50 10000 3.6 300 16:18 18.05.2020
2821 Clouds 26 1023 57 10000 4.1 290 16:18 18.05.2020
2822 Clouds 26 1023 50 10000 3.6 300 15:46 18.05.2020
2823 Clouds 26 1023 50 10000 3.1 360 15:25 18.05.2020
2824 Clouds 25 1023 44 10000 1.5 0 14:59 18.05.2020
2825 Clouds 25 1023 50 10000 2.6 0 14:40 18.05.2020
2826 Clouds 25 1023 50 10000 2.6 0 14:22 18.05.2020
2827 Clouds 25 1023 57 10000 2.6 110 13:54 18.05.2020
2828 Clear 24 1024 53 10000 2.6 340 13:36 18.05.2020
2829 Clear 23 1024 56 10000 2.1 0 13:18 18.05.2020
2830 Clear 23 1024 56 10000 2.1 0 12:55 18.05.2020
2831 Clear 23 1024 60 10000 3.1 350 12:36 18.05.2020
2832 Clear 21 1024 64 10000 4.1 350 12:18 18.05.2020
2833 Clear 21 1024 64 10000 4.1 350 11:46 18.05.2020
2834 Clear 21 1024 60 10000 3.1 350 11:26 18.05.2020
2835 Clear 20 1024 68 10000 3.1 340 10:47 18.05.2020
2836 Clear 19 1024 68 10000 4.1 330 10:27 18.05.2020
2837 Clear 18 1023 77 10000 4.1 330 09:57 18.05.2020
2838 Clear 17 1023 72 10000 4.1 330 09:39 18.05.2020
2839 Clear 17 1023 72 10000 4.1 330 09:20 18.05.2020
2840 Clear 16 1023 72 10000 4.1 320 08:42 18.05.2020
2841 Clouds 16 1023 72 10000 4.1 320 08:23 18.05.2020
2842 Clouds 16 1023 72 10000 3.1 320 07:50 18.05.2020
2843 Clouds 17 1023 72 10000 2.6 310 07:26 18.05.2020
2844 Clouds 17 1023 67 10000 3.1 320 06:48 18.05.2020
2845 Clouds 17 1023 72 10000 3.1 330 06:25 18.05.2020
2846 Clouds 17 1023 67 10000 3.6 320 05:46 18.05.2020
2847 Clear 17 1023 67 10000 3.6 320 04:26 18.05.2020
2848 Clear 17 1023 59 10000 3.1 320 03:30 18.05.2020
2849 Clear 17 1023 63 10000 2.71 345 01:58 18.05.2020
2850 Clear 18 1024 59 10000 3.6 300 00:50 18.05.2020
2851 Clear 18 1023 63 10000 4.1 300 00:22 18.05.2020
2852 Clear 18 1023 68 10000 5.1 300 23:56 17.05.2020
2853 Clear 18 1023 72 10000 5.1 310 23:38 17.05.2020
2854 Clear 18 1023 72 10000 5.1 310 23:19 17.05.2020
2855 Clear 19 1023 68 10000 6.2 320 22:55 17.05.2020
2856 Clear 19 1022 63 10000 5.7 310 22:36 17.05.2020
2857 Clear 19 1022 63 10000 5.7 310 22:18 17.05.2020
2858 Clear 20 1022 56 10000 5.1 310 21:41 17.05.2020
2859 Clear 20 1022 56 10000 5.1 310 21:20 17.05.2020
2860 -273 0 0 0 0 0 20:59 17.05.2020
2861 Clear 22 1021 46 10000 4.1 310 20:40 17.05.2020
2862 Clear 23 1021 46 10000 4.1 310 20:19 17.05.2020
2863 Clear 23 1021 46 10000 6.2 330 19:55 17.05.2020
2864 Clear 24 1021 44 10000 4.6 300 19:37 17.05.2020
2865 Clouds 24 1021 41 10000 5.7 310 19:18 17.05.2020
2866 Clouds 25 1021 47 10000 5.1 320 18:39 17.05.2020
2867 Clouds 25 1021 47 10000 5.1 320 18:21 17.05.2020
2868 Clouds 25 1021 47 10000 4.6 300 17:56 17.05.2020
2869 Clouds 25 1021 57 10000 5.1 320 17:37 17.05.2020
2870 Clouds 25 1021 57 10000 5.1 320 17:18 17.05.2020
2871 Clouds 25 1021 39 10000 3.6 20 16:40 17.05.2020
2872 Clouds 25 1021 39 10000 3.6 20 16:20 17.05.2020
2873 Clouds 25 1021 33 10000 4.1 0 15:56 17.05.2020
2874 Clouds 25 1021 44 10000 3.1 110 15:37 17.05.2020
2875 Clouds 24 1022 47 10000 4.6 80 15:19 17.05.2020
2876 Clouds 24 1022 47 10000 4.1 50 14:43 17.05.2020
2877 Clouds 24 1022 47 10000 4.1 50 14:24 17.05.2020
2878 Clouds 24 1022 49 10000 4.6 60 13:58 17.05.2020
2879 Clouds 23 1022 49 10000 4.6 70 13:39 17.05.2020
2880 Clouds 23 1022 49 10000 4.6 70 13:18 17.05.2020
2881 Clear 17 1020 77 10000 2.6 320 04:26 17.05.2020
2882 Clear 17 1020 67 10000 2.6 320 02:39 17.05.2020
2883 Clear 17 1020 67 10000 2.6 320 02:19 17.05.2020
2884 Clear 17 1020 67 10000 3.6 310 01:44 17.05.2020
2885 Clear 18 1020 67 10000 4.1 310 00:40 17.05.2020
2886 Clear 18 1020 72 10000 4.6 310 00:19 17.05.2020
2887 Clear 18 1019 68 10000 4.1 310 23:39 16.05.2020
2888 Clear 18 1019 68 10000 4.1 310 23:20 16.05.2020
2889 Clear 18 1019 68 10000 3.6 320 22:58 16.05.2020
2890 Clouds 18 1019 68 10000 4.1 320 22:40 16.05.2020
2891 Clouds 18 1019 68 10000 4.1 320 22:20 16.05.2020
2892 Clouds 19 1018 68 10000 4.6 320 21:46 16.05.2020
2893 Clouds 19 1018 68 10000 4.6 320 21:46 16.05.2020
2894 Clouds 19 1018 64 10000 5.7 330 21:27 16.05.2020
2895 Clouds 20 1018 60 10000 5.1 310 20:59 16.05.2020
2896 Clouds 21 1018 56 10000 6.7 330 20:41 16.05.2020
2897 Clouds 21 1018 56 10000 6.7 330 20:22 16.05.2020
2898 Clouds 21 1018 60 10000 4.6 330 19:58 16.05.2020
2899 Clouds 22 1017 60 10000 6.2 350 19:40 16.05.2020
2900 Clouds 22 1017 60 10000 6.2 350 19:22 16.05.2020
2901 Clouds 22 1017 64 10000 5.7 340 18:43 16.05.2020
2902 Clouds 22 1017 64 10000 5.7 340 18:25 16.05.2020
2903 Clouds 22 1017 64 10000 5.7 340 18:25 16.05.2020
2904 Clouds 22 1017 49 10000 3.1 10 17:57 16.05.2020
2905 Clouds 23 1017 53 10000 3.1 90 17:39 16.05.2020
2906 Clouds 23 1017 53 10000 3.1 90 17:20 16.05.2020
2907 Clouds 22 1018 46 10000 4.1 80 16:42 16.05.2020
2908 Clouds 22 1018 46 10000 4.1 80 16:23 16.05.2020
2909 Clouds 21 1018 53 10000 4.1 50 15:58 16.05.2020
2910 Clouds 21 1018 53 10000 4.1 60 15:40 16.05.2020
2911 Clouds 21 1018 53 10000 4.1 60 15:20 16.05.2020
2912 Clouds 21 1018 60 10000 4.1 50 14:48 16.05.2020
2913 Clouds 21 1018 64 10000 2.1 0 14:21 16.05.2020
2914 Clouds 21 1018 64 10000 2.1 0 14:21 16.05.2020
2915 Clouds 21 1018 64 10000 3.6 60 13:59 16.05.2020
2916 Clouds 21 1018 64 10000 3.6 80 13:41 16.05.2020
2917 Clouds 20 1018 64 10000 3.6 80 13:22 16.05.2020
2918 Clouds 20 1018 68 10000 3.6 60 12:55 16.05.2020
2919 Clouds 19 1018 77 10000 4.1 70 12:37 16.05.2020
2920 Clouds 19 1018 77 10000 4.1 70 12:18 16.05.2020
2921 Clouds 18 1017 77 10000 6.2 50 11:39 16.05.2020
2922 Clouds 18 1017 77 10000 6.2 50 11:20 16.05.2020
2923 Clouds 17 1017 72 10000 5.7 60 10:56 16.05.2020
2924 Clouds 17 1017 77 10000 5.7 50 10:37 16.05.2020
2925 Clouds 17 1016 77 10000 5.1 50 10:19 16.05.2020
2926 Clouds 16 1016 82 10000 4.1 50 09:45 16.05.2020
2927 Clouds 16 1016 82 10000 4.1 50 09:27 16.05.2020
2928 Clouds 15 1016 87 10000 3.6 30 08:45 16.05.2020
2929 Clouds 14 1016 100 10000 2.1 10 08:23 16.05.2020
2930 Clouds 14 1016 100 10000 2.1 10 08:23 16.05.2020
2931 Clouds 14 1015 100 10000 2.6 350 07:56 16.05.2020
2932 Clouds 14 1015 93 10000 2.6 330 07:38 16.05.2020
2933 Clouds 14 1015 93 10000 3.1 310 07:19 16.05.2020
2934 Clouds 14 1015 93 10000 2.6 320 06:45 16.05.2020
2935 Clouds 15 1015 93 10000 2.6 320 06:19 16.05.2020
2936 Clouds 15 1015 87 10000 3.1 320 05:40 16.05.2020
2937 Clouds 15 1015 87 10000 2.6 320 04:51 16.05.2020
2938 Clear 16 1015 77 10000 4.1 320 03:25 16.05.2020
2939 Clear 16 1015 77 10000 1.5 350 02:38 16.05.2020
2940 Clouds 16 1015 77 10000 1.5 350 02:18 16.05.2020
2941 Clouds 16 1015 82 10000 4.1 320 01:37 16.05.2020
2942 Clouds 16 1015 82 10000 3.6 320 00:56 16.05.2020
2943 Clouds 16 1015 82 10000 4.1 320 00:38 16.05.2020
2944 Clouds 16 1015 82 10000 4.1 320 00:18 16.05.2020
2945 Clouds 16 1015 77 10000 3.6 330 23:38 15.05.2020
2946 Clouds 17 1015 77 10000 3.1 330 23:18 15.05.2020
2947 Clouds 17 1014 77 10000 4.1 340 22:41 15.05.2020
2948 Clouds 17 1014 77 10000 4.1 340 22:20 15.05.2020
2949 Clouds 17 1014 77 10000 4.1 340 22:20 15.05.2020
2950 Clouds 18 1014 72 10000 3.1 310 21:56 15.05.2020
2951 Clouds 18 1014 72 10000 2.6 230 21:38 15.05.2020
2952 Clouds 18 1014 72 10000 2.6 230 21:20 15.05.2020
2953 Clouds 18 1014 67 10000 3.1 210 20:54 15.05.2020
2954 Clouds 18 1014 67 10000 3.1 210 20:54 15.05.2020
2955 Clouds 18 1014 67 10000 3.1 210 20:36 15.05.2020
2956 Clouds 18 1014 67 10000 3.1 210 20:18 15.05.2020
2957 Thunderstorm 19 1014 68 10000 6.2 340 19:42 15.05.2020
2958 Thunderstorm 19 1014 68 10000 6.2 340 19:23 15.05.2020
2959 Thunderstorm 20 1013 68 10000 8.2 340 18:48 15.05.2020
2960 Thunderstorm 19 1012 72 10000 7.2 350 18:28 15.05.2020
2961 Rain 19 1012 68 10000 6.2 340 17:59 15.05.2020
2962 Clouds 20 1012 56 10000 1.5 0 17:37 15.05.2020
2963 Clouds 21 1012 56 10000 1.5 0 17:18 15.05.2020
2964 Clouds 21 1012 56 10000 3.1 90 16:55 15.05.2020
2965 Clouds 21 1012 56 10000 2.6 0 16:37 15.05.2020
2966 Clouds 21 1013 60 10000 2.6 0 16:18 15.05.2020
2967 Clouds 21 1013 64 10000 3.6 40 15:40 15.05.2020
2968 Clouds 21 1013 64 10000 3.6 40 15:20 15.05.2020
2969 Clouds 20 1013 68 10000 4.6 30 14:57 15.05.2020
2970 Clouds 19 1013 68 10000 4.6 50 14:38 15.05.2020
2971 Clouds 20 1013 68 10000 4.6 60 14:20 15.05.2020
2972 Clouds 18 1013 72 10000 4.1 60 13:42 15.05.2020
2973 Clouds 19 1013 72 10000 4.1 60 13:22 15.05.2020
2974 Clouds 18 1013 77 10000 5.1 50 12:56 15.05.2020
2975 Clouds 18 1013 82 10000 5.1 40 12:36 15.05.2020
2976 Clouds 18 1013 82 10000 5.1 40 12:18 15.05.2020
2977 Clouds 17 1013 82 10000 5.1 50 11:56 15.05.2020
2978 Clouds 16 1013 87 10000 4.6 50 11:37 15.05.2020
2979 Clouds 16 1013 87 10000 4.6 50 11:18 15.05.2020
2980 Clouds 16 1012 87 10000 5.1 50 10:54 15.05.2020
2981 Clouds 15 1012 87 10000 5.1 30 10:36 15.05.2020
2982 Clouds 15 1012 87 10000 5.1 30 10:18 15.05.2020
2983 Clouds 14 1011 93 10000 3.6 50 09:38 15.05.2020
2984 Clouds 14 1011 93 10000 3.6 50 09:19 15.05.2020
2985 Clouds 13 1011 100 10000 3.6 50 08:58 15.05.2020
2986 Clouds 13 1011 100 10000 3.6 20 08:37 15.05.2020
2987 Clouds 13 1011 100 10000 3.6 20 08:18 15.05.2020
2988 Clouds 12 1010 100 10000 2.6 40 07:44 15.05.2020
2989 Clouds 12 1010 100 10000 2.6 40 07:24 15.05.2020
2990 Clouds 12 1010 100 10000 2.6 10 06:54 15.05.2020
2991 Clouds 13 1009 93 10000 2.6 30 05:49 15.05.2020
2992 Clouds 13 1008 93 10000 4.1 50 04:28 15.05.2020
2993 Clouds 13 1008 93 10000 3.1 50 03:48 15.05.2020
2994 Clouds 14 1008 93 10000 3.6 30 02:35 15.05.2020
2995 Clouds 14 1008 93 10000 4.1 20 01:31 15.05.2020
2996 Rain 14 1008 93 10000 3.1 360 00:56 15.05.2020
2997 Rain 14 1007 93 10000 2.6 350 00:37 15.05.2020
2998 Rain 14 1007 93 10000 2.6 350 00:19 15.05.2020
2999 Clouds 14 1007 93 10000 3.6 340 23:40 14.05.2020
3000 Clouds 14 1007 93 10000 3.6 340 23:18 14.05.2020
3001 Rain 13 1006 100 10000 3.6 310 22:41 14.05.2020
3002 Rain 13 1006 100 10000 3.6 310 22:20 14.05.2020
3003 Rain 13 1006 93 10000 4.6 330 21:58 14.05.2020
3004 Rain 13 1005 93 10000 5.7 330 21:39 14.05.2020
3005 Rain 13 1005 93 10000 5.7 330 21:19 14.05.2020
3006 Rain 14 1005 93 8000 5.1 340 20:55 14.05.2020
3007 Rain 14 1005 87 10000 6.2 330 20:37 14.05.2020
3008 Clouds 14 1004 87 10000 5.7 330 20:18 14.05.2020
3009 Clouds 14 1004 87 10000 5.7 330 19:55 14.05.2020
3010 Rain 13 1004 93 9000 6.2 330 19:36 14.05.2020
3011 Clouds 14 1004 82 10000 5.7 330 19:18 14.05.2020
3012 Clouds 14 1004 82 10000 5.7 330 18:54 14.05.2020
3013 Clouds 14 1004 87 10000 5.7 340 18:36 14.05.2020
3014 Clouds 14 1003 82 10000 5.1 320 18:18 14.05.2020
3015 Clouds 14 1003 82 10000 5.1 320 17:55 14.05.2020
3016 Clouds 15 1003 82 10000 4.1 360 17:36 14.05.2020
3017 Clouds 15 1003 82 10000 4.1 360 17:18 14.05.2020
3018 Clouds 16 1003 77 10000 2.6 30 16:39 14.05.2020
3019 Clouds 16 1003 77 10000 2.6 30 16:20 14.05.2020
3020 Clouds 16 1003 82 10000 3.1 60 15:57 14.05.2020
3021 Rain 16 1003 77 10000 5.7 40 15:39 14.05.2020
3022 Rain 16 1003 77 10000 5.7 40 15:19 14.05.2020
3023 Rain 16 1003 82 10000 3.6 30 14:56 14.05.2020
3024 Rain 15 1003 93 10000 4.1 50 14:37 14.05.2020
3025 Rain 15 1003 93 10000 4.1 50 14:19 14.05.2020
3026 Clouds 16 1003 82 10000 2.1 30 13:55 14.05.2020
3027 Rain 16 1003 87 10000 2.1 20 13:37 14.05.2020
3028 Rain 15 1003 87 10000 2.1 20 13:18 14.05.2020
3029 Rain 15 1003 87 10000 3.6 30 12:55 14.05.2020
3030 Clouds 15 1003 82 10000 4.1 40 12:36 14.05.2020
3031 Clouds 15 1003 82 10000 4.1 40 12:18 14.05.2020
3032 Clouds 14 1003 87 10000 4.6 40 11:42 14.05.2020
3033 Clouds 14 1003 87 10000 4.6 40 11:24 14.05.2020
3034 Clouds 14 1003 93 10000 4.6 40 10:58 14.05.2020
3035 Clouds 13 1002 93 10000 4.1 60 10:39 14.05.2020
3036 Clouds 13 1002 93 10000 4.1 60 10:21 14.05.2020
3037 Clouds 12 1002 100 10000 4.1 60 09:43 14.05.2020
3038 Clouds 12 1002 100 10000 4.1 60 09:23 14.05.2020
3039 Clouds 12 1002 93 10000 3.6 50 08:56 14.05.2020
3040 Clouds 11 1002 100 10000 3.6 80 08:36 14.05.2020
3041 Clouds 11 1002 100 10000 3.6 80 08:18 14.05.2020
3042 Clouds 12 1002 93 10000 3.1 70 07:43 14.05.2020
3043 Clouds 12 1002 93 10000 3.1 70 07:20 14.05.2020
3044 Clouds 12 1002 93 10000 2.6 60 06:43 14.05.2020
3045 Clouds 12 1002 93 10000 2.6 60 06:23 14.05.2020
3046 Clouds 13 1002 93 10000 2.1 40 05:37 14.05.2020
3047 Clouds 13 1002 93 10000 1.5 90 04:43 14.05.2020
3048 Clouds 14 1003 93 10000 2.1 130 03:32 14.05.2020
3049 Clouds 14 1003 93 10000 1 0 02:57 14.05.2020
3050 Clouds 14 1003 100 10000 2.1 60 02:34 14.05.2020
3051 Clouds 14 1003 100 10000 1 0 01:47 14.05.2020
3052 Clouds 14 1003 82 10000 3.09 187 00:51 14.05.2020
3053 Clouds 14 1003 87 10000 2.1 140 00:27 14.05.2020
3054 Clouds 15 1003 87 10000 2.1 170 23:45 13.05.2020
3055 Clouds 15 1003 87 10000 2.1 170 23:23 13.05.2020
3056 Clouds 15 1003 87 10000 3.1 160 22:59 13.05.2020
3057 Clouds 15 1003 82 10000 3.1 170 22:40 13.05.2020
3058 Clouds 15 1003 82 10000 3.1 170 22:21 13.05.2020
3059 Clouds 15 1003 82 10000 3.1 170 22:21 13.05.2020
3060 Clouds 15 1003 87 10000 2.6 200 21:57 13.05.2020
3061 Clouds 15 1003 87 10000 3.1 210 21:39 13.05.2020
3062 Clouds 15 1003 87 10000 3.1 210 21:39 13.05.2020
3063 Clouds 15 1003 87 10000 3.1 210 21:19 13.05.2020
3064 Clouds 15 1002 82 10000 3.6 200 20:42 13.05.2020
3065 Clouds 15 1002 82 10000 3.6 200 20:23 13.05.2020
3066 Rain 16 1003 82 10000 4.1 200 19:59 13.05.2020
3067 Clouds 16 1003 82 10000 3.1 200 19:40 13.05.2020
3068 Clouds 16 1003 82 10000 3.1 200 19:22 13.05.2020
3069 Clouds 15 1002 82 10000 3.6 200 18:43 13.05.2020
3070 Clouds 15 1002 82 10000 3.6 200 18:22 13.05.2020
3071 Clouds 15 1002 82 10000 3.6 200 18:22 13.05.2020
3072 Clouds 15 1002 93 10000 3.1 210 17:58 13.05.2020
3073 Rain 14 1002 93 4000 5.1 190 17:38 13.05.2020
3074 Rain 14 1002 93 4000 5.1 190 17:18 13.05.2020
3075 Rain 15 1003 87 10000 3.6 160 16:40 13.05.2020
3076 Rain 15 1003 87 10000 3.6 160 16:19 13.05.2020
3077 Rain 15 1003 93 10000 4.1 150 15:55 13.05.2020
3078 Rain 15 1003 93 10000 4.1 150 15:55 13.05.2020
3079 Rain 15 1003 93 10000 4.1 150 15:36 13.05.2020
3080 Rain 15 1003 93 10000 4.1 150 15:36 13.05.2020
3081 Rain 15 1003 93 10000 4.1 150 15:18 13.05.2020
3082 Rain 15 1004 93 10000 3.1 140 14:42 13.05.2020
3083 Rain 14 1004 93 10000 3.1 140 14:24 13.05.2020
3084 Rain 15 1004 93 10000 3.1 200 13:59 13.05.2020
3085 Rain 14 1004 100 10000 4.6 190 13:41 13.05.2020
3086 Rain 14 1004 100 10000 4.6 190 13:21 13.05.2020
3087 Clouds 15 1003 87 10000 4.6 130 12:58 13.05.2020
3088 Clouds 15 1004 93 10000 5.1 110 12:39 13.05.2020
3089 Clouds 15 1004 93 10000 5.1 110 12:20 13.05.2020
3090 Rain 15 1004 93 10000 4.6 110 11:56 13.05.2020
3091 Rain 14 1004 93 10000 4.6 110 11:56 13.05.2020
3092 Clouds 15 1004 87 10000 3.1 130 11:37 13.05.2020
3093 Clouds 15 1004 87 10000 3.1 130 11:19 13.05.2020
3094 Clouds 15 1004 87 10000 4.1 170 10:57 13.05.2020
3095 Clouds 15 1004 93 10000 4.6 160 10:38 13.05.2020
3096 Clouds 15 1004 93 10000 4.6 160 10:19 13.05.2020
3097 Rain 15 1004 93 10000 3.6 170 09:46 13.05.2020
3098 Rain 15 1004 93 10000 2.1 200 09:23 13.05.2020
3099 Rain 15 1004 93 10000 3.1 220 08:58 13.05.2020
3100 Rain 15 1004 100 10000 1.5 260 08:37 13.05.2020
3101 Rain 15 1004 100 10000 1.5 260 08:19 13.05.2020
3102 Rain 15 1004 100 10000 1 0 07:48 13.05.2020
3103 Clouds 15 1004 100 10000 0.5 0 07:30 13.05.2020
3104 Clouds 15 1004 93 10000 2.6 180 06:51 13.05.2020
3105 Clouds 15 1005 93 10000 3.1 180 06:31 13.05.2020
3106 Drizzle 15 1006 93 10000 5.1 200 05:34 13.05.2020
3107 Clouds 15 1006 82 10000 4.6 200 03:37 13.05.2020
3108 Clouds 15 1007 82 10000 4.1 200 02:34 13.05.2020
3109 Clouds 15 1008 87 10000 3.1 220 01:45 13.05.2020
3110 Clouds 15 1008 82 10000 3.6 230 00:56 13.05.2020
3111 Clouds 15 1008 82 10000 2.6 220 00:23 13.05.2020
3112 Clouds 15 1008 82 10000 2.1 230 23:58 12.05.2020
3113 Clouds 15 1008 82 10000 2.1 240 23:39 12.05.2020
3114 Clouds 15 1008 82 10000 2.1 240 23:18 12.05.2020
3115 Clouds 16 1008 77 10000 3.1 250 22:42 12.05.2020
3116 Clouds 16 1008 77 10000 3.1 250 22:22 12.05.2020
3117 Clouds 16 1008 77 10000 3.6 270 21:56 12.05.2020
3118 Clouds 16 1008 72 10000 3.6 270 21:38 12.05.2020
3119 Clouds 17 1007 67 10000 4.1 270 21:19 12.05.2020
3120 Clouds 17 1007 67 10000 4.1 270 20:58 12.05.2020
3121 Clouds 17 1007 72 10000 4.1 280 20:39 12.05.2020
3122 Clouds 18 1007 72 10000 4.1 280 20:21 12.05.2020
3123 Clouds 18 1007 67 10000 5.1 260 19:57 12.05.2020
3124 Clouds 18 1007 63 10000 4.6 300 19:39 12.05.2020
3125 Clouds 18 1007 63 10000 4.6 300 19:20 12.05.2020
3126 Clouds 19 1007 63 10000 4.1 280 18:56 12.05.2020
3127 Clouds 18 1007 72 10000 3.1 280 18:38 12.05.2020
3128 Clouds 18 1007 72 10000 3.1 280 18:19 12.05.2020
3129 Clouds 18 1007 82 10000 4.6 260 17:42 12.05.2020
3130 Clouds 18 1007 82 10000 4.6 260 17:24 12.05.2020
3131 Clouds 17 1008 77 10000 6.2 240 16:47 12.05.2020
3132 Clouds 17 1008 63 10000 3.6 250 16:26 12.05.2020
3133 Clouds 18 1008 67 10000 3.1 290 15:56 12.05.2020
3134 Clouds 19 1008 68 10000 1.5 0 15:38 12.05.2020
3135 Clouds 18 1008 68 10000 1.5 0 15:19 12.05.2020
3136 Clouds 18 1008 72 10000 2.1 0 14:57 12.05.2020
3137 Clouds 18 1009 72 10000 2.6 250 14:37 12.05.2020
3138 Clouds 17 1009 72 10000 2.6 250 14:19 12.05.2020
3139 Clouds 17 1009 82 10000 3.6 230 13:58 12.05.2020
3140 Clouds 16 1009 87 10000 4.1 170 13:39 12.05.2020
3141 Clouds 16 1009 87 10000 4.1 170 13:19 12.05.2020
3142 Clouds 16 1009 77 10000 2.6 130 12:57 12.05.2020
3143 Clouds 16 1009 82 10000 2.6 100 12:39 12.05.2020
3144 Clouds 16 1009 82 10000 2.6 100 12:21 12.05.2020
3145 Clouds 17 1009 77 10000 2.6 70 11:58 12.05.2020
3146 Clouds 16 1009 87 10000 2.6 330 11:38 12.05.2020
3147 Clouds 16 1009 87 10000 2.6 330 11:20 12.05.2020
3148 Clouds 15 1009 87 10000 1.5 30 10:58 12.05.2020
3149 Clouds 15 1009 93 10000 1.5 40 10:40 12.05.2020
3150 Clouds 15 1009 93 10000 1.5 40 10:21 12.05.2020
3151 Clouds 14 1009 100 10000 2.6 60 09:59 12.05.2020
3152 Clouds 14 1009 93 10000 2.6 30 09:39 12.05.2020
3153 Rain 14 1009 100 9000 3.1 40 09:20 12.05.2020
3154 Rain 14 1009 100 5000 3.1 10 08:54 12.05.2020
3155 Rain 14 1009 100 4000 1 0 08:36 12.05.2020
3156 Rain 14 1009 100 4000 1 0 08:18 12.05.2020
3157 Clouds 14 1009 93 10000 2.1 40 07:41 12.05.2020
3158 Clouds 14 1009 93 10000 2.1 40 07:21 12.05.2020
3159 Clouds 14 1008 100 10000 2.1 90 06:41 12.05.2020
3160 Clouds 14 1008 100 10000 1.5 30 06:22 12.05.2020
3161 Clouds 14 1009 93 10000 2.6 50 05:50 12.05.2020
3162 Clouds 14 1009 93 10000 1.5 50 04:54 12.05.2020
3163 Clouds 15 1010 93 10000 1.87 109 03:26 12.05.2020
3164 Clouds 15 1010 87 10000 2.1 170 02:28 12.05.2020
3165 Rain 15 1011 93 10000 0.5 360 01:59 12.05.2020
3166 Clouds 15 1011 87 10000 1.5 220 01:24 12.05.2020
3167 Clouds 15 1011 93 10000 2.1 210 00:26 12.05.2020
3168 Clouds 16 1010 82 10000 2.1 210 23:58 11.05.2020
3169 Clouds 16 1011 87 10000 3.1 200 23:40 11.05.2020
3170 Clouds 16 1011 87 10000 3.1 200 23:20 11.05.2020
3171 Clouds 16 1011 87 10000 2.6 200 22:58 11.05.2020
3172 Clouds 16 1010 87 10000 3.1 210 22:40 11.05.2020
3173 Clouds 16 1010 87 10000 3.1 210 22:20 11.05.2020
3174 Clouds 17 1010 82 10000 3.1 220 21:57 11.05.2020
3175 Clouds 17 1010 77 10000 5.1 210 21:39 11.05.2020
3176 Clouds 17 1010 77 10000 5.1 210 21:19 11.05.2020
3177 Clouds 17 1010 72 10000 5.1 210 20:57 11.05.2020
3178 Clouds 17 1010 77 10000 5.7 210 20:38 11.05.2020
3179 Clouds 18 1010 77 10000 5.7 210 20:19 11.05.2020
3180 Clouds 18 1010 77 10000 6.2 210 19:54 11.05.2020
3181 Clouds 18 1010 77 10000 6.7 210 19:36 11.05.2020
3182 Clouds 18 1010 68 10000 6.2 230 19:18 11.05.2020
3183 Clouds 18 1010 68 10000 6.2 230 18:55 11.05.2020
3184 Clouds 18 1010 72 10000 6.7 230 18:36 11.05.2020
3185 Clouds 18 1010 72 10000 6.7 230 18:18 11.05.2020
3186 Clouds 18 1010 72 10000 6.7 230 18:18 11.05.2020
3187 Clouds 18 1009 72 10000 6.2 250 17:41 11.05.2020
3188 Clouds 18 1009 72 10000 6.2 250 17:22 11.05.2020
3189 Rain 18 1009 82 10000 6.2 240 16:59 11.05.2020
3190 Clouds 18 1009 82 10000 7.7 240 16:39 11.05.2020
3191 Clouds 18 1009 82 10000 7.7 240 16:21 11.05.2020
3192 Clouds 18 1009 87 10000 6.2 240 15:57 11.05.2020
3193 Clouds 18 1009 82 10000 7.2 240 15:39 11.05.2020
3194 Clouds 18 1009 82 10000 7.2 240 15:18 11.05.2020
3195 Clouds 17 1009 87 9000 5.7 250 14:42 11.05.2020
3196 Clouds 17 1009 87 9000 5.7 250 14:42 11.05.2020
3197 Clouds 17 1009 87 9000 5.7 250 14:23 11.05.2020
3198 Rain 17 1009 82 6000 9.8 240 13:59 11.05.2020
3199 Clouds 18 1008 82 10000 6.7 230 13:41 11.05.2020
3200 Clouds 18 1008 82 10000 6.7 230 13:19 11.05.2020
3201 Clouds 18 1008 93 10000 6.2 250 12:58 11.05.2020
3202 Rain 17 1008 93 8000 5.7 240 12:39 11.05.2020
3203 Rain 17 1008 93 8000 5.7 240 12:21 11.05.2020
3204 Clouds 17 1007 82 10000 7.7 230 11:56 11.05.2020
3205 Rain 17 1007 93 10000 5.7 240 11:37 11.05.2020
3206 Clouds 17 1006 82 10000 6.7 240 11:19 11.05.2020
3207 Rain 16 1007 87 8000 7.2 240 10:54 11.05.2020
3208 Clouds 16 1006 87 10000 6.7 220 10:36 11.05.2020
3209 Clouds 16 1006 87 10000 6.7 220 10:36 11.05.2020
3210 Clouds 16 1006 87 10000 6.7 220 10:18 11.05.2020
3211 Rain 16 1006 87 9000 6.2 220 09:42 11.05.2020
3212 Rain 16 1006 87 9000 6.2 220 09:22 11.05.2020
3213 Clouds 16 1006 93 10000 5.1 230 08:59 11.05.2020
3214 Clouds 16 1006 93 10000 5.1 230 08:39 11.05.2020
3215 Clouds 15 1006 93 10000 5.1 230 08:19 11.05.2020
3216 Rain 15 1006 93 6000 5.7 200 07:50 11.05.2020
3217 Clouds 15 1006 93 10000 4.6 210 07:32 11.05.2020
3218 Clouds 15 1006 93 10000 4.1 220 06:53 11.05.2020
3219 Clouds 15 1006 93 10000 5.1 220 06:19 11.05.2020
3220 Rain 15 1006 87 10000 8.7 230 05:30 11.05.2020
3221 Clouds 15 1006 100 10000 5.1 190 04:44 11.05.2020
3222 Rain 15 1007 93 10000 5.1 210 03:46 11.05.2020
3223 Clouds 16 1007 93 10000 8.2 220 02:35 11.05.2020
3224 Clouds 16 1008 93 10000 8.7 210 01:47 11.05.2020
3225 Drizzle 16 1008 93 6000 6.7 190 00:54 11.05.2020
3226 Drizzle 16 1009 100 4000 6.7 170 00:24 11.05.2020
3227 Drizzle 16 1009 93 5000 5.7 180 23:46 10.05.2020
3228 Drizzle 16 1009 93 5000 5.7 180 23:27 10.05.2020
3229 Clouds 16 1009 93 10000 4.1 190 22:59 10.05.2020
3230 Drizzle 16 1010 93 7000 5.1 210 22:41 10.05.2020
3231 Drizzle 16 1010 93 7000 5.1 210 22:23 10.05.2020
3232 Clouds 17 1010 82 10000 5.1 210 21:46 10.05.2020
3233 Clouds 17 1010 82 10000 5.1 210 21:21 10.05.2020
3234 Clouds 17 1010 82 10000 5.1 220 20:59 10.05.2020
3235 Clouds 17 1010 72 10000 5.1 220 20:41 10.05.2020
3236 Clouds 17 1010 72 10000 5.1 220 20:23 10.05.2020
3237 Clouds 17 1010 77 10000 5.1 220 19:54 10.05.2020
3238 Clouds 17 1010 72 10000 5.1 240 19:36 10.05.2020
3239 Clouds 17 1010 72 10000 5.1 240 19:18 10.05.2020
3240 Clouds 17 1010 72 10000 6.2 260 18:54 10.05.2020
3241 Clouds 17 1010 72 10000 6.2 250 18:36 10.05.2020
3242 Clouds 17 1010 72 10000 6.2 250 18:18 10.05.2020
3243 Clouds 17 1010 72 10000 6.7 240 17:55 10.05.2020
3244 Clouds 18 1010 63 10000 6.2 250 17:36 10.05.2020
3245 Clouds 18 1010 68 10000 6.7 240 17:18 10.05.2020
3246 Clouds 18 1010 68 10000 6.7 260 16:41 10.05.2020
3247 Clouds 18 1010 68 10000 6.7 260 16:20 10.05.2020
3248 Clouds 17 1010 72 10000 6.2 260 15:58 10.05.2020
3249 Clouds 17 1011 72 10000 6.7 260 15:38 10.05.2020
3250 Clouds 17 1011 72 10000 6.7 260 15:19 10.05.2020
3251 Rain 17 1011 87 10000 7.7 260 14:55 10.05.2020
3252 Rain 17 1010 72 10000 6.2 270 14:37 10.05.2020
3253 Clouds 17 1010 77 10000 5.1 280 14:18 10.05.2020
3254 Clouds 17 1010 77 10000 5.1 280 13:55 10.05.2020
3255 Clouds 18 1010 72 10000 5.1 270 13:36 10.05.2020
3256 Clouds 18 1010 72 10000 5.1 270 13:18 10.05.2020
3257 Clouds 18 1010 68 10000 4.1 260 12:41 10.05.2020
3258 Clouds 18 1010 68 10000 4.1 260 12:21 10.05.2020
3259 Clouds 17 1010 77 10000 5.7 260 11:58 10.05.2020
3260 Clouds 17 1010 87 10000 4.1 240 11:40 10.05.2020
3261 Clouds 16 1010 82 10000 3.1 270 11:21 10.05.2020
3262 Clouds 17 1010 82 10000 3.1 270 10:54 10.05.2020
3263 Clouds 16 1010 82 10000 3.1 270 10:54 10.05.2020
3264 Clouds 16 1010 82 10000 4.6 250 10:36 10.05.2020
3265 Clouds 16 1010 82 10000 4.6 250 10:18 10.05.2020
3266 Rain 15 1009 87 10000 3.1 270 09:41 10.05.2020
3267 Rain 15 1009 87 10000 3.1 270 09:22 10.05.2020
3268 Clouds 15 1009 87 10000 3.1 260 08:55 10.05.2020
3269 Clouds 15 1009 87 10000 3.6 260 08:25 10.05.2020
3270 Clouds 14 1008 87 10000 3.6 270 07:59 10.05.2020
3271 Clouds 14 1008 87 10000 3.1 280 07:38 10.05.2020
3272 Clouds 14 1008 87 10000 3.1 280 07:19 10.05.2020
3273 Clouds 14 1008 93 10000 4.6 250 06:50 10.05.2020
3274 Rain 14 1008 87 10000 5.1 250 06:23 10.05.2020
3275 Rain 15 1008 87 10000 3.6 260 05:45 10.05.2020
3276 Rain 16 1008 87 10000 4.1 230 04:45 10.05.2020
3277 Rain 16 1008 87 10000 4.1 230 04:25 10.05.2020
3278 Clouds 15 1009 87 10000 4.1 230 03:44 10.05.2020
3279 Clouds 15 1009 87 10000 4.1 220 02:59 10.05.2020
3280 Clouds 15 1009 87 10000 5.1 230 02:25 10.05.2020
3281 Clouds 15 1010 87 10000 5.1 230 01:57 10.05.2020
3282 Clouds 15 1010 82 0 4.6 240 01:39 10.05.2020
3283 Clouds 15 1010 82 0 4.6 240 01:18 10.05.2020
3284 Rain 15 1010 82 10000 3.6 230 00:52 10.05.2020
3285 Clouds 16 1010 82 10000 4.1 230 00:20 10.05.2020
3286 Clouds 16 1010 77 10000 3.6 240 23:40 09.05.2020
3287 Clouds 16 1010 77 10000 3.6 240 23:21 09.05.2020
3288 Clouds 16 1010 77 10000 4.6 230 22:58 09.05.2020
3289 Clouds 17 1010 77 10000 4.6 230 22:39 09.05.2020
3290 Clouds 16 1010 77 10000 4.6 230 22:21 09.05.2020
3291 Clouds 17 1010 72 10000 4.6 240 21:56 09.05.2020
3292 Clouds 17 1010 72 10000 5.7 250 21:38 09.05.2020
3293 Clouds 17 1010 72 10000 5.7 250 21:19 09.05.2020
3294 Clouds 17 1010 67 10000 4.6 240 20:56 09.05.2020
3295 Clouds 17 1010 67 10000 4.1 260 20:37 09.05.2020
3296 Clouds 18 1010 67 10000 4.1 260 20:19 09.05.2020
3297 Clouds 18 1010 67 10000 5.7 270 19:40 09.05.2020
3298 Clouds 18 1010 67 10000 5.7 270 19:21 09.05.2020
3299 Clouds 18 1010 63 10000 6.2 250 18:59 09.05.2020
3300 Clouds 19 1010 55 10000 6.2 270 18:40 09.05.2020
3301 Clouds 19 1010 55 10000 6.2 270 18:21 09.05.2020
3302 Clouds 18 1010 63 10000 5.7 260 17:44 09.05.2020
3303 Clouds 19 1010 63 10000 5.7 260 17:23 09.05.2020
3304 Rain 18 1010 77 10000 4.6 240 16:55 09.05.2020
3305 Clouds 18 1010 72 10000 6.7 220 16:37 09.05.2020
3306 Clouds 18 1010 72 10000 6.7 220 16:18 09.05.2020
3307 Clouds 18 1010 63 10000 7.2 250 15:41 09.05.2020
3308 Clouds 18 1010 63 10000 7.2 250 15:22 09.05.2020
3309 Clouds 18 1010 77 10000 7.2 250 14:54 09.05.2020
3310 Clouds 18 1010 82 10000 7.2 240 14:36 09.05.2020
3311 Clouds 17 1010 77 10000 7.7 240 14:18 09.05.2020
3312 Rain 17 1010 93 10000 8.7 200 13:41 09.05.2020
3313 Rain 16 1010 93 10000 8.7 200 13:22 09.05.2020
3314 Rain 16 1010 93 10000 9.3 170 12:58 09.05.2020
3315 Clouds 17 1010 82 10000 7.2 160 12:39 09.05.2020
3316 Clouds 17 1010 82 10000 7.2 160 12:21 09.05.2020
3317 Rain 17 1011 88 10000 5.1 150 11:44 09.05.2020
3318 Rain 17 1011 88 10000 5.1 150 11:20 09.05.2020
3319 Rain 17 1011 93 10000 4.6 180 10:54 09.05.2020
3320 Rain 16 1012 93 10000 4.6 190 10:36 09.05.2020
3321 Rain 16 1012 93 10000 4.6 190 10:18 09.05.2020
3322 Clouds 16 1011 100 10000 3.1 150 09:41 09.05.2020
3323 Clouds 16 1011 100 10000 3.1 150 09:20 09.05.2020
3324 Clouds 16 1011 93 10000 4.1 160 08:52 09.05.2020
3325 Rain 16 1011 87 10000 3.1 160 08:34 09.05.2020
3326 Clouds 16 1012 87 10000 2.1 140 07:56 09.05.2020
3327 Clouds 16 1012 87 10000 3.1 170 07:38 09.05.2020
3328 Clouds 16 1012 87 10000 3.1 170 07:20 09.05.2020
3329 Clouds 15 1012 93 10000 1.5 150 06:27 09.05.2020
3330 Clouds 15 1013 87 10000 1 210 05:50 09.05.2020
3331 Clouds 15 1013 93 10000 2.6 220 05:19 09.05.2020
3332 Clouds 15 1014 87 10000 1.5 240 03:39 09.05.2020
3333 Clouds 14 1014 87 10000 1 270 02:54 09.05.2020
3334 Clouds 14 1014 87 10000 1 230 02:30 09.05.2020
3335 Clouds 15 1014 87 10000 1.58 255 01:49 09.05.2020
3336 Clouds 15 1014 82 10000 1.5 260 01:21 09.05.2020
3337 Clouds 15 1015 82 10000 3.6 250 00:42 09.05.2020
3338 Clouds 15 1015 82 10000 3.6 250 00:18 09.05.2020
3339 Clouds 16 1014 82 10000 1.5 290 23:43 08.05.2020
3340 Clouds 16 1014 82 10000 1.5 290 23:25 08.05.2020
3341 Clouds 16 1014 77 10000 2.6 290 22:56 08.05.2020
3342 Clouds 16 1014 77 10000 3.6 290 22:37 08.05.2020
3343 Clouds 17 1014 72 10000 3.6 300 22:19 08.05.2020
3344 Clouds 17 1014 72 10000 3.6 300 21:54 08.05.2020
3345 Clouds 18 1014 72 10000 4.1 300 21:36 08.05.2020
3346 Clouds 18 1014 72 10000 4.1 300 21:18 08.05.2020
3347 Clouds 18 1014 72 10000 4.1 300 20:55 08.05.2020
3348 Clouds 18 1014 68 10000 3.1 300 20:37 08.05.2020
3349 Clouds 18 1014 68 10000 3.1 300 20:19 08.05.2020
3350 Clouds 19 1014 68 10000 4.1 300 19:42 08.05.2020
3351 Clouds 19 1014 68 10000 4.1 300 19:21 08.05.2020
3352 Clouds 19 1014 64 10000 3.6 270 18:46 08.05.2020
3353 Clouds 19 1014 64 10000 3.6 270 18:46 08.05.2020
3354 Clouds 20 1014 64 10000 3.6 270 18:28 08.05.2020
3355 Clouds 20 1014 72 10000 4.6 310 17:43 08.05.2020
3356 Clouds 20 1014 72 10000 4.6 310 17:20 08.05.2020
3357 Clouds 20 1014 64 10000 3.6 310 16:58 08.05.2020
3358 Clouds 20 1014 72 10000 3.1 300 16:39 08.05.2020
3359 Clouds 20 1014 72 10000 3.1 300 16:21 08.05.2020
3360 Clouds 20 1014 68 10000 2.1 10 15:44 08.05.2020
3361 Clouds 20 1014 68 10000 2.1 10 15:22 08.05.2020
3362 Clouds 19 1014 77 10000 2.1 330 14:58 08.05.2020
3363 Clouds 19 1014 72 10000 1 0 14:40 08.05.2020
3364 Clouds 19 1014 72 10000 1 0 14:20 08.05.2020
3365 Clouds 19 1014 77 10000 2.6 0 13:57 08.05.2020
3366 Clouds 19 1014 77 10000 1.5 170 13:39 08.05.2020
3367 Clouds 19 1014 77 10000 1.5 170 13:18 08.05.2020
3368 Clouds 19 1014 77 10000 2.1 340 12:45 08.05.2020
3369 Clouds 19 1014 77 10000 2.1 340 12:23 08.05.2020
3370 Clouds 18 1014 77 10000 3.1 310 11:55 08.05.2020
3371 Clouds 18 1014 82 10000 3.1 340 11:36 08.05.2020
3372 Clouds 18 1014 82 10000 3.1 340 11:18 08.05.2020
3373 Clouds 18 1014 82 10000 3.6 320 10:43 08.05.2020
3374 Clouds 17 1014 82 10000 3.6 320 10:22 08.05.2020
3375 Clouds 17 1014 87 10000 3.6 310 09:59 08.05.2020
3376 Clouds 16 1014 87 10000 3.6 320 09:40 08.05.2020
3377 Clouds 16 1014 87 10000 3.6 320 09:19 08.05.2020
3378 Clouds 16 1014 87 10000 3.6 320 09:19 08.05.2020
3379 Clouds 15 1013 93 10000 2.6 320 08:50 08.05.2020
3380 Clouds 15 1013 87 10000 3.1 320 08:24 08.05.2020
3381 Clear 15 1013 87 10000 3.6 320 07:54 08.05.2020
3382 Clear 15 1013 87 10000 3.1 310 07:36 08.05.2020
3383 Clear 15 1013 87 10000 3.1 310 07:18 08.05.2020
3384 Clear 16 1013 87 10000 3.6 320 06:39 08.05.2020
3385 Clear 16 1013 87 10000 3.6 320 06:18 08.05.2020
3386 Clear 16 1013 87 10000 3.6 320 05:24 08.05.2020
3387 Clear 16 1014 87 10000 3.6 320 02:59 08.05.2020
3388 Clouds 16 1014 82 10000 3.1 330 02:24 08.05.2020
3389 Clouds 16 1014 87 10000 4.1 340 01:39 08.05.2020
3390 Clouds 16 1014 87 10000 4.1 340 01:20 08.05.2020
3391 Clouds 17 1014 87 10000 4.1 340 00:47 08.05.2020
3392 Clouds 17 1014 87 10000 4.1 330 00:25 08.05.2020
3393 Clouds 17 1014 87 10000 5.1 320 23:46 07.05.2020
3394 Clouds 17 1013 87 10000 6.2 310 23:24 07.05.2020
3395 Clouds 17 1013 82 10000 7.2 310 22:59 07.05.2020
3396 Clouds 17 1013 82 10000 7.2 310 22:41 07.05.2020
3397 Clouds 17 1013 82 10000 7.2 310 22:20 07.05.2020
3398 Clouds 18 1012 77 10000 6.2 310 21:57 07.05.2020
3399 Clouds 18 1012 77 10000 7.7 310 21:38 07.05.2020
3400 Clouds 18 1012 77 10000 7.7 310 21:38 07.05.2020
3401 Clear 19 1012 77 10000 7.7 310 21:20 07.05.2020
3402 Clear 19 1012 77 10000 7.7 310 21:20 07.05.2020
3403 Clear 20 1012 72 10000 6.7 310 20:57 07.05.2020
3404 Clear 20 1012 72 10000 6.2 310 20:37 07.05.2020
3405 Clear 20 1012 72 10000 6.2 310 20:19 07.05.2020
3406 Clouds 21 1012 68 10000 6.7 300 19:46 07.05.2020
3407 Clouds 21 1012 64 10000 6.2 300 19:22 07.05.2020
3408 Clouds 22 1012 64 10000 5.7 310 18:55 07.05.2020
3409 Clouds 22 1012 60 10000 5.7 320 18:36 07.05.2020
3410 Clouds 22 1012 60 10000 5.7 320 18:36 07.05.2020
3411 Clouds 22 1012 60 10000 5.7 320 18:18 07.05.2020
3412 Clouds 24 1012 57 10000 5.1 310 17:41 07.05.2020
3413 Clouds 24 1012 57 10000 5.1 310 17:20 07.05.2020
3414 Clouds 23 1012 57 10000 3.6 300 16:43 07.05.2020
3415 Clouds 24 1012 57 10000 3.6 320 16:19 07.05.2020
3416 Clouds 24 1012 57 10000 3.6 320 15:57 07.05.2020
3417 Clouds 24 1013 53 10000 3.6 330 15:38 07.05.2020
3418 Clouds 23 1013 57 10000 2.1 0 15:18 07.05.2020
3419 Clouds 24 1013 57 10000 2.1 0 14:56 07.05.2020
3420 Clouds 23 1013 56 10000 2.6 0 14:37 07.05.2020
3421 Clouds 24 1013 56 10000 2.6 0 14:18 07.05.2020
3422 Clouds 23 1014 64 10000 3.1 320 13:41 07.05.2020
3423 Clouds 22 1014 64 10000 3.1 320 13:22 07.05.2020
3424 Clouds 22 1014 64 10000 3.1 320 13:22 07.05.2020
3425 Clouds 21 1014 64 10000 3.1 330 12:43 07.05.2020
3426 Clouds 21 1014 64 10000 3.1 330 12:20 07.05.2020
3427 Clouds 20 1014 68 10000 3.1 330 11:40 07.05.2020
3428 Clouds 20 1014 68 10000 3.1 330 11:22 07.05.2020
3429 Clouds 19 1014 77 10000 3.6 330 10:58 07.05.2020
3430 Clouds 18 1014 82 10000 4.1 330 10:40 07.05.2020
3431 Clouds 18 1014 82 10000 4.1 330 10:20 07.05.2020
3432 Clouds 17 1014 77 10000 4.1 330 09:40 07.05.2020
3433 Clouds 16 1014 77 10000 4.1 330 09:20 07.05.2020
3434 Clouds 16 1014 82 10000 4.1 340 08:56 07.05.2020
3435 Clouds 16 1013 82 10000 4.1 330 08:37 07.05.2020
3436 Clouds 15 1013 82 10000 4.1 330 08:19 07.05.2020
3437 Clouds 15 1014 87 10000 4.1 320 07:41 07.05.2020
3438 Clouds 15 1014 87 10000 4.1 320 07:22 07.05.2020
3439 Clouds 15 1015 82 10000 1 0 06:45 07.05.2020
3440 Clouds 15 1015 82 10000 1 0 06:45 07.05.2020
3441 Clouds 15 1015 82 10000 1 0 06:23 07.05.2020
3442 Clouds 16 1015 82 10000 2.6 330 05:28 07.05.2020
3443 Clouds 16 1016 82 10000 4.6 320 03:50 07.05.2020
3444 Clouds 16 1016 82 10000 5.1 310 03:23 07.05.2020
3445 Clouds 16 1016 77 10000 5.1 320 02:41 07.05.2020
3446 Clouds 17 1017 77 10000 3.6 310 01:41 07.05.2020
3447 Clouds 17 1017 77 10000 3.6 310 01:23 07.05.2020
3448 Clouds 17 1017 72 10000 3.6 310 00:45 07.05.2020
3449 Clouds 17 1017 72 10000 3.6 310 00:26 07.05.2020
3450 Clouds 17 1017 77 10000 5.7 330 23:46 06.05.2020
3451 Clouds 17 1017 77 10000 5.7 330 23:25 06.05.2020
3452 Clouds 18 1017 77 10000 4.6 310 22:57 06.05.2020
3453 Clouds 18 1017 77 10000 4.1 320 22:39 06.05.2020
3454 Clouds 18 1017 77 10000 4.1 320 22:19 06.05.2020
3455 Clouds 18 1017 72 10000 5.7 320 21:56 06.05.2020
3456 Clouds 19 1017 68 10000 5.1 320 21:38 06.05.2020
3457 Clouds 19 1017 68 10000 5.1 320 21:38 06.05.2020
3458 Clouds 19 1017 68 10000 5.1 320 21:38 06.05.2020
3459 Clouds 19 1017 68 10000 5.1 320 21:19 06.05.2020
3460 Clouds 20 1017 64 10000 4.6 320 20:42 06.05.2020
3461 Clouds 20 1017 64 10000 4.6 320 20:23 06.05.2020
3462 Clouds 20 1017 64 10000 5.7 320 19:58 06.05.2020
3463 Clouds 21 1017 60 10000 6.2 330 19:39 06.05.2020
3464 Clouds 21 1017 60 10000 6.2 330 19:20 06.05.2020
3465 Clouds 21 1018 60 10000 4.1 300 18:59 06.05.2020
3466 Clouds 21 1017 64 10000 4.1 320 18:39 06.05.2020
3467 Clouds 21 1017 64 10000 4.1 320 18:21 06.05.2020
3468 Clouds 21 1018 64 10000 4.1 310 17:59 06.05.2020
3469 Clouds 22 1018 60 10000 3.1 320 17:39 06.05.2020
3470 Clouds 22 1018 60 10000 3.1 320 17:21 06.05.2020
3471 Clouds 22 1019 64 10000 3.1 280 16:58 06.05.2020
3472 Clouds 21 1019 60 10000 1 0 16:40 06.05.2020
3473 Clouds 21 1019 60 10000 1 0 16:21 06.05.2020
3474 Clouds 21 1019 56 10000 1.5 0 15:58 06.05.2020
3475 Clouds 21 1019 64 10000 2.1 0 15:40 06.05.2020
3476 Clouds 21 1019 68 10000 3.1 90 15:21 06.05.2020
3477 Clouds 21 1019 68 10000 3.1 90 14:55 06.05.2020
3478 Clouds 20 1020 68 10000 3.1 120 14:36 06.05.2020
3479 Clouds 20 1020 68 10000 3.1 120 14:18 06.05.2020
3480 Clouds 20 1020 68 10000 2.6 70 13:43 06.05.2020
3481 Clouds 19 1020 68 10000 2.6 70 13:24 06.05.2020
3482 Clouds 19 1020 77 10000 2.6 110 12:56 06.05.2020
3483 Clouds 19 1020 72 10000 2.1 100 12:37 06.05.2020
3484 Clouds 19 1020 72 10000 2.1 100 12:19 06.05.2020
3485 Clouds 18 1020 82 10000 2.6 80 11:40 06.05.2020
3486 Clouds 18 1020 82 10000 2.6 80 11:21 06.05.2020
3487 Clouds 17 1019 100 10000 3.1 80 10:57 06.05.2020
3488 Fog 17 1019 100 4000 2.1 70 10:38 06.05.2020
3489 Fog 16 1019 100 4000 2.1 70 10:19 06.05.2020
3490 Fog 16 1019 100 9000 2.6 80 09:44 06.05.2020
3491 Fog 15 1019 100 9000 2.6 80 09:23 06.05.2020
3492 Clouds 14 1019 100 10000 1 0 08:49 06.05.2020
3493 Clouds 14 1019 93 10000 1.53 48 08:23 06.05.2020
3494 Clouds 15 1018 93 10000 0.5 0 07:59 06.05.2020
3495 Clouds 15 1018 100 10000 1.53 48 07:39 06.05.2020
3496 Clouds 14 1018 93 10000 1.19 31 07:21 06.05.2020
3497 Clouds 14 1018 93 10000 1.19 31 06:53 06.05.2020
3498 Clouds 15 1018 100 10000 1 280 06:22 06.05.2020
3499 Clouds 15 1018 93 10000 0.5 270 05:55 06.05.2020
3500 Clouds 15 1018 93 10000 1.5 280 05:37 06.05.2020
3501 Clouds 16 1018 93 10000 1.5 270 04:38 06.05.2020
3502 Clouds 16 1019 93 10000 2.1 230 03:42 06.05.2020
3503 Clouds 16 1019 93 10000 2.1 230 03:20 06.05.2020
3504 Clouds 17 1019 93 10000 2.6 250 02:30 06.05.2020
3505 Clouds 17 1019 93 10000 3.1 240 01:54 06.05.2020
3506 Clouds 17 1019 93 10000 3.1 250 01:33 06.05.2020
3507 Clouds 17 1019 88 10000 3.1 250 00:54 06.05.2020
3508 Clouds 17 1019 93 10000 2.1 220 00:27 06.05.2020
3509 Clouds 17 1019 87 10000 2.6 220 23:57 05.05.2020
3510 Clouds 17 1019 82 10000 3.1 230 23:38 05.05.2020
3511 Clouds 17 1019 82 10000 3.1 230 23:18 05.05.2020
3512 Clouds 17 1018 88 10000 3.6 210 22:42 05.05.2020
3513 Clouds 18 1018 88 10000 3.6 210 22:20 05.05.2020
3514 Clouds 18 1018 88 10000 4.6 210 21:58 05.05.2020
3515 Clouds 18 1018 82 10000 4.6 210 21:39 05.05.2020
3516 Clouds 18 1018 82 10000 4.6 210 21:20 05.05.2020
3517 Clouds 19 1017 82 10000 5.1 210 20:58 05.05.2020
3518 Clouds 19 1017 77 10000 4.6 220 20:39 05.05.2020
3519 Clouds 19 1017 77 10000 4.6 220 20:18 05.05.2020
3520 Clouds 20 1017 72 10000 6.2 230 19:54 05.05.2020
3521 Clouds 20 1017 68 10000 6.7 210 19:36 05.05.2020
3522 Clouds 20 1017 68 10000 6.7 210 19:18 05.05.2020
3523 Clouds 20 1017 68 10000 6.7 220 18:42 05.05.2020
3524 Clouds 20 1017 68 10000 6.7 220 18:20 05.05.2020
3525 Clouds 20 1017 68 10000 7.2 230 17:59 05.05.2020
3526 Clouds 20 1017 68 10000 6.7 220 17:41 05.05.2020
3527 Clouds 21 1017 68 10000 6.7 220 17:23 05.05.2020
3528 Clouds 20 1017 68 10000 6.7 220 16:57 05.05.2020
3529 Clouds 20 1017 72 10000 5.7 210 16:36 05.05.2020
3530 Clouds 20 1017 72 10000 5.7 210 16:18 05.05.2020
3531 Clouds 20 1017 72 10000 5.7 210 16:18 05.05.2020
3532 Clouds 20 1017 68 10000 5.1 220 15:42 05.05.2020
3533 Clouds 20 1017 68 10000 5.1 220 15:23 05.05.2020
3534 Clouds 20 1017 68 10000 5.1 220 15:23 05.05.2020
3535 Clouds 20 1017 68 10000 5.7 200 14:58 05.05.2020
3536 Clouds 20 1017 68 10000 4.6 220 14:39 05.05.2020
3537 Clouds 20 1017 68 10000 4.6 220 14:39 05.05.2020
3538 Clouds 20 1017 68 10000 4.6 220 14:21 05.05.2020
3539 Clouds 20 1017 68 10000 5.7 210 13:58 05.05.2020
3540 Clouds 19 1017 72 10000 5.1 200 13:40 05.05.2020
3541 Clouds 20 1017 72 10000 5.1 200 13:21 05.05.2020
3542 Clouds 20 1017 72 10000 5.1 200 13:21 05.05.2020
3543 Clouds 19 1017 77 10000 4.6 230 12:59 05.05.2020
3544 Clouds 19 1017 77 10000 4.1 220 12:39 05.05.2020
3545 Clouds 19 1017 77 10000 4.1 220 12:20 05.05.2020
3546 Clouds 19 1017 77 10000 4.6 200 11:57 05.05.2020
3547 Clouds 19 1016 77 10000 3.6 200 11:36 05.05.2020
3548 Clouds 18 1016 77 10000 3.6 200 11:18 05.05.2020
3549 Clouds 18 1016 77 10000 3.6 200 11:18 05.05.2020
3550 Clouds 17 1016 82 10000 2.6 170 10:39 05.05.2020
3551 Clouds 17 1016 82 10000 2.6 170 10:19 05.05.2020
3552 Clouds 17 1016 82 10000 3.1 160 09:59 05.05.2020
3553 Clouds 16 1016 87 10000 2.1 170 09:41 05.05.2020
3554 Clouds 16 1016 87 10000 2.1 170 09:22 05.05.2020
3555 Clouds 16 1016 93 10000 2.1 180 08:42 05.05.2020
3556 Clouds 16 1016 93 10000 2.1 180 08:21 05.05.2020
3557 Clouds 16 1015 93 10000 2.1 190 07:58 05.05.2020
3558 Clouds 16 1015 93 10000 1.5 190 07:39 05.05.2020
3559 Clouds 16 1015 93 10000 1.5 190 07:19 05.05.2020
3560 Clouds 16 1015 93 10000 1.5 200 06:49 05.05.2020
3561 Clouds 16 1015 93 10000 2.6 220 06:23 05.05.2020
3562 Clouds 16 1015 93 10000 2.6 220 05:39 05.05.2020
3563 Clouds 16 1015 87 10000 3.6 220 03:36 05.05.2020
3564 Clouds 16 1016 87 10000 4.1 240 02:18 05.05.2020
3565 Clouds 17 1016 82 10000 3.6 230 00:54 05.05.2020
3566 Clouds 17 1016 82 10000 4.6 240 00:22 05.05.2020
3567 Clouds 17 1016 87 10000 5.1 230 23:46 04.05.2020
3568 Clouds 17 1015 82 10000 5.7 240 23:23 04.05.2020
3569 Clouds 17 1015 82 10000 5.1 240 22:57 04.05.2020
3570 Clouds 17 1015 82 10000 5.7 230 22:38 04.05.2020
3571 Clouds 17 1015 82 10000 5.7 230 22:19 04.05.2020
3572 Clouds 18 1015 82 10000 6.2 210 21:56 04.05.2020
3573 Clouds 18 1014 72 10000 7.2 220 21:35 04.05.2020
3574 Clouds 18 1014 77 10000 6.7 220 20:58 04.05.2020
3575 Clouds 18 1014 77 10000 6.7 220 20:58 04.05.2020
3576 Clouds 18 1014 77 10000 6.7 220 20:58 04.05.2020
3577 Clouds 19 1014 77 10000 7.2 210 20:38 04.05.2020
3578 Clouds 19 1014 77 10000 7.2 210 20:38 04.05.2020
3579 Clouds 19 1014 68 10000 7.2 220 20:18 04.05.2020
3580 Clouds 19 1014 72 10000 8.7 210 19:43 04.05.2020
3581 Clouds 19 1014 72 10000 8.7 210 19:23 04.05.2020
3582 Clouds 19 1014 72 10000 8.7 210 19:23 04.05.2020
3583 Clouds 20 1014 72 10000 8.2 210 18:58 04.05.2020
3584 Clouds 20 1013 77 10000 9.8 210 18:38 04.05.2020
3585 Clouds 20 1013 77 10000 9.8 210 18:38 04.05.2020
3586 Clouds 20 1013 77 10000 9.8 210 18:19 04.05.2020
3587 Clouds 20 1013 68 10000 7.7 220 17:56 04.05.2020
3588 Clouds 20 1013 68 10000 10.3 230 17:37 04.05.2020
3589 Clouds 20 1013 68 10000 10.3 230 17:18 04.05.2020
3590 Clouds 21 1013 72 10000 9.3 220 16:43 04.05.2020
3591 Clouds 21 1013 72 10000 9.3 220 16:22 04.05.2020
3592 Clouds 21 1013 77 10000 10.8 220 15:55 04.05.2020
3593 Clouds 21 1012 72 10000 11.3 220 15:37 04.05.2020
3594 Clouds 21 1012 72 10000 11.3 220 15:37 04.05.2020
3595 Clouds 21 1012 72 10000 11.3 220 15:18 04.05.2020
3596 Clouds 21 1012 68 10000 10.8 210 14:48 04.05.2020
3597 Clouds 21 1012 68 10000 10.8 210 14:48 04.05.2020
3598 Clouds 21 1011 72 10000 10.3 210 14:48 04.05.2020
3599 Clouds 21 1012 68 10000 10.8 210 14:48 04.05.2020
3600 Clouds 21 1012 68 10000 10.8 210 14:48 04.05.2020
3601 Clouds 21 1011 72 10000 10.3 210 14:19 04.05.2020
3602 Clouds 19 1011 82 10000 8.7 200 12:53 04.05.2020
3603 Clouds 19 1010 77 10000 8.7 200 12:35 04.05.2020
3604 Clouds 19 1010 77 10000 8.7 200 12:35 04.05.2020
3605 Clouds 19 1010 77 10000 8.7 200 12:35 04.05.2020
3606 Clouds 19 1010 77 10000 8.7 200 12:35 04.05.2020
3607 Clouds 19 1010 77 10000 8.7 200 12:35 04.05.2020
3608 Clouds 19 1009 77 10000 6.7 210 10:37 04.05.2020
3609 Clouds 18 1009 88 10000 5.7 210 09:26 04.05.2020
3610 Clouds 18 1009 88 10000 5.7 210 09:26 04.05.2020
3611 Clouds 18 1009 88 10000 5.7 210 09:26 04.05.2020
3612 Clouds 18 1009 88 10000 5.7 210 09:26 04.05.2020
3613 Clouds 18 1009 88 10000 5.7 210 09:26 04.05.2020
3614 Clouds 17 1008 88 10000 4.6 220 07:53 04.05.2020
3615 Clouds 17 1008 93 10000 4.6 210 07:33 04.05.2020
3616 Clouds 17 1008 93 10000 4.6 210 07:33 04.05.2020
3617 Clouds 17 1008 93 10000 4.6 210 07:33 04.05.2020
3618 Clouds 17 1008 93 10000 4.6 210 07:33 04.05.2020
3619 Clouds 17 1008 93 10000 4.6 210 07:33 04.05.2020
3620 Clouds 18 1008 93 10000 4.1 210 04:59 04.05.2020
3621 Clouds 18 1008 93 10000 3.6 210 03:57 04.05.2020
3622 Clouds 19 1009 93 10000 2.6 200 02:32 04.05.2020
3623 Clouds 19 1010 88 10000 3.1 230 01:19 04.05.2020
3624 Clouds 20 1010 77 10000 3.6 210 23:57 03.05.2020
3625 Clouds 20 1010 77 10000 3.6 210 23:57 03.05.2020
3626 Clouds 20 1010 77 10000 3.6 210 23:57 03.05.2020
3627 Clouds 21 1010 68 10000 4.1 220 23:39 03.05.2020
3628 Clouds 21 1010 68 10000 4.1 220 23:39 03.05.2020
3629 Clouds 21 1010 68 10000 4.1 220 23:19 03.05.2020
3630 Clouds 22 1010 56 10000 7.7 230 22:41 03.05.2020
3631 Clouds 22 1010 56 10000 7.7 230 22:22 03.05.2020
3632 Clouds 23 1009 53 10000 6.2 240 21:42 03.05.2020
3633 Clouds 24 1009 53 10000 6.2 240 21:42 03.05.2020
3634 Clouds 24 1009 53 10000 6.2 240 21:42 03.05.2020
3635 Clouds 24 1009 53 10000 6.2 240 21:22 03.05.2020
3636 Clouds 26 1009 39 10000 5.7 230 20:54 03.05.2020
3637 Clouds 27 1009 28 10000 7.7 210 20:36 03.05.2020
3638 Clouds 28 1010 30 10000 5.1 220 20:18 03.05.2020
3639 Clouds 28 1010 30 10000 5.1 220 19:46 03.05.2020
3640 Clouds 29 1010 30 10000 5.7 190 19:26 03.05.2020
3641 Clouds 29 1010 30 10000 5.7 190 19:26 03.05.2020
3642 Clouds 30 1010 25 10000 5.1 140 18:40 03.05.2020
3643 Clouds 31 1010 25 10000 5.1 140 18:21 03.05.2020
3644 Clouds 32 1010 24 10000 5.7 150 17:59 03.05.2020
3645 Clouds 31 1011 27 10000 4.1 140 17:40 03.05.2020
3646 Clouds 31 1011 27 10000 4.1 140 17:20 03.05.2020
3647 Clouds 31 1011 27 10000 4.1 140 17:20 03.05.2020
3648 Clouds 31 1012 30 10000 4.1 130 16:45 03.05.2020
3649 Clouds 30 1012 30 10000 4.1 130 16:20 03.05.2020
3650 Clouds 30 1012 30 10000 4.1 130 16:20 03.05.2020
3651 Clouds 29 1012 33 10000 4.1 150 15:58 03.05.2020
3652 Clouds 29 1012 39 10000 3.1 130 15:39 03.05.2020
3653 Clouds 29 1012 39 10000 3.1 130 15:20 03.05.2020
3654 Clouds 28 1012 48 10000 2.6 100 14:57 03.05.2020
3655 Clouds 27 1013 51 10000 3.1 130 14:38 03.05.2020
3656 Clouds 27 1013 51 10000 3.1 130 14:20 03.05.2020
3657 Clouds 27 1013 51 10000 3.1 130 14:20 03.05.2020
3658 Clouds 25 1014 60 10000 2.6 90 13:41 03.05.2020
3659 Clouds 25 1014 60 10000 2.6 90 13:41 03.05.2020
3660 Clouds 23 1014 64 10000 2.1 110 12:59 03.05.2020
3661 Clouds 23 1014 64 10000 2.1 110 12:59 03.05.2020
3662 Clouds 23 1014 64 10000 2.1 110 12:59 03.05.2020
3663 Clouds 23 1014 68 10000 3.1 80 12:39 03.05.2020
3664 Clouds 21 1014 72 10000 3.1 70 12:18 03.05.2020
3665 Clouds 21 1014 72 10000 3.6 70 11:41 03.05.2020
3666 Clouds 20 1014 72 10000 3.6 70 11:21 03.05.2020
3667 Clouds 19 1015 77 10000 3.6 60 10:59 03.05.2020
3668 Clouds 19 1014 82 10000 4.1 60 10:39 03.05.2020
3669 Clouds 19 1014 82 10000 4.1 60 10:39 03.05.2020
3670 Clouds 19 1014 82 10000 4.1 60 10:39 03.05.2020
3671 Clouds 19 1014 82 10000 4.1 60 10:39 03.05.2020
3672 Clouds 19 1014 82 10000 4.1 60 10:39 03.05.2020
3673 Clouds 19 1015 93 10000 3.1 60 09:48 03.05.2020
3674 Clouds 19 1015 93 10000 3.1 60 09:48 03.05.2020
3675 Clouds 19 1015 93 10000 3.1 60 09:48 03.05.2020
3676 Clouds 19 1015 93 10000 3.1 60 09:48 03.05.2020
3677 Clouds 19 1015 93 10000 3.1 60 09:48 03.05.2020
3678 Clouds 17 1015 87 10000 3.1 50 09:27 03.05.2020
3679 Clouds 17 1015 87 10000 3.1 50 09:27 03.05.2020
3680 Clouds 17 1015 87 10000 3.1 50 09:27 03.05.2020
3681 Clouds 17 1015 87 10000 3.1 50 09:27 03.05.2020
3682 Clouds 16 1015 93 10000 1.5 50 08:37 03.05.2020
3683 Clouds 16 1015 93 10000 1.5 50 08:19 03.05.2020
3684 Clouds 16 1015 93 10000 1.5 50 08:19 03.05.2020
3685 Clouds 16 1015 93 10000 1.5 50 08:19 03.05.2020
3686 Clouds 16 1015 93 10000 1.5 50 08:18 03.05.2020
3687 Clouds 15 1015 93 10000 2.1 40 07:38 03.05.2020
3688 Clouds 15 1015 93 10000 2.1 40 06:18 03.05.2020
3689 Clouds 15 1016 93 10000 1.5 50 05:44 03.05.2020
3690 Clouds 15 1016 87 10000 1.5 30 04:29 03.05.2020
3691 Clouds 15 1017 87 10000 1.5 30 03:58 03.05.2020
3692 Clouds 16 1018 87 10000 1.5 330 02:47 03.05.2020
3693 Clouds 16 1018 87 10000 2.1 330 02:22 03.05.2020
3694 Clouds 16 1018 82 10000 2.6 320 01:41 03.05.2020
3695 Clouds 16 1018 82 10000 2.6 320 01:23 03.05.2020
3696 Clouds 16 1019 82 10000 3.6 320 00:40 03.05.2020
3697 Clouds 16 1019 82 10000 3.6 320 00:21 03.05.2020
3698 Clouds 17 1019 82 10000 3.6 310 23:55 02.05.2020
3699 Clouds 17 1019 77 10000 4.1 320 23:37 02.05.2020
3700 Clouds 17 1019 77 10000 4.1 320 23:18 02.05.2020
3701 Clouds 18 1019 72 10000 4.6 320 22:41 02.05.2020
3702 Clouds 18 1019 72 10000 4.6 320 22:22 02.05.2020
3703 Clouds 18 1019 72 10000 5.1 320 21:55 02.05.2020
3704 Clouds 19 1019 72 10000 5.1 310 21:37 02.05.2020
3705 Clouds 19 1019 72 10000 5.1 310 21:18 02.05.2020
3706 Clouds 20 1019 68 10000 4.1 300 20:54 02.05.2020
3707 Clouds 21 1019 68 10000 4.1 310 20:36 02.05.2020
3708 Clouds 21 1019 68 10000 4.1 310 20:18 02.05.2020
3709 Clouds 22 1019 64 10000 4.1 310 19:55 02.05.2020
3710 Clouds 22 1019 68 10000 3.6 310 19:36 02.05.2020
3711 Clouds 22 1019 68 10000 3.6 310 19:18 02.05.2020
3712 Clouds 22 1019 64 10000 2.1 0 18:40 02.05.2020
3713 Clouds 22 1019 64 10000 2.1 0 18:22 02.05.2020
3714 Clouds 22 1020 60 10000 2.6 180 17:57 02.05.2020
3715 Clouds 22 1020 60 10000 2.6 200 17:39 02.05.2020
3716 Clouds 23 1020 60 10000 2.6 200 17:20 02.05.2020
3717 Clouds 22 1020 60 10000 2.6 0 16:57 02.05.2020
3718 Clouds 22 1021 60 10000 3.1 90 16:39 02.05.2020
3719 Clouds 22 1021 60 10000 3.1 90 16:20 02.05.2020
3720 Clouds 22 1021 68 10000 2.6 50 15:42 02.05.2020
3721 Clouds 22 1021 68 10000 2.6 50 15:20 02.05.2020
3722 Clouds 21 1022 68 10000 2.6 70 14:46 02.05.2020
3723 Clouds 20 1022 68 10000 2.6 70 14:28 02.05.2020
3724 Clouds 20 1022 68 10000 2.6 0 13:59 02.05.2020
3725 Clouds 21 1022 68 10000 2.6 100 13:40 02.05.2020
3726 Clouds 20 1022 68 10000 2.6 100 13:20 02.05.2020
3727 Clouds 19 1022 77 10000 2.1 90 12:43 02.05.2020
3728 Clouds 19 1022 77 10000 2.1 90 12:24 02.05.2020
3729 Clouds 19 1022 82 10000 2.1 110 11:59 02.05.2020
3730 Clouds 18 1022 88 10000 2.6 80 11:40 02.05.2020
3731 Clouds 18 1022 88 10000 2.6 80 11:22 02.05.2020
3732 Clouds 18 1022 88 10000 2.1 70 10:56 02.05.2020
3733 Clouds 18 1022 88 10000 2.1 100 10:38 02.05.2020
3734 Clouds 17 1022 88 10000 2.1 100 10:20 02.05.2020
3735 Clouds 17 1022 87 10000 1 0 09:55 02.05.2020
3736 Clouds 16 1022 87 10000 1 0 09:36 02.05.2020
3737 Clouds 16 1022 87 10000 1 0 09:18 02.05.2020
3738 Clouds 15 1022 93 10000 1.36 107 08:45 02.05.2020
3739 Clouds 15 1022 93 10000 1.21 101 08:25 02.05.2020
3740 Clouds 15 1022 93 10000 1.21 101 07:47 02.05.2020
3741 Clouds 15 1022 93 10000 0.98 104 07:28 02.05.2020
3742 Clouds 15 1022 93 10000 0.5 0 06:50 02.05.2020
3743 Clouds 15 1022 100 10000 1.5 300 05:29 02.05.2020
3744 Clouds 15 1022 93 10000 2.1 320 04:47 02.05.2020
3745 Clouds 15 1022 93 10000 1 310 04:24 02.05.2020
3746 Clouds 16 1023 93 10000 1.5 240 02:44 02.05.2020
3747 Clouds 16 1023 93 10000 1.5 240 02:23 02.05.2020
3748 Clouds 16 1023 93 10000 1.12 250 01:48 02.05.2020
3749 Clouds 17 1023 88 10000 3.1 250 00:46 02.05.2020
3750 Clouds 17 1024 87 10000 1.5 230 00:28 02.05.2020
3751 Clouds 17 1024 87 10000 1 0 23:58 01.05.2020
3752 Clouds 17 1023 82 10000 1.5 270 23:39 01.05.2020
3753 Clouds 17 1023 82 10000 1.5 270 23:20 01.05.2020
3754 Clouds 17 1023 82 10000 2.1 290 22:55 01.05.2020
3755 Clouds 17 1023 77 10000 2.1 300 22:37 01.05.2020
3756 Clouds 18 1023 77 10000 3.1 300 22:18 01.05.2020
3757 Clouds 18 1023 77 10000 3.1 300 22:18 01.05.2020
3758 Clouds 18 1023 77 10000 3.1 300 21:55 01.05.2020
3759 Clouds 18 1022 72 10000 2.6 290 21:37 01.05.2020
3760 Clouds 19 1022 72 10000 2.6 290 21:18 01.05.2020
3761 Clouds 19 1022 72 10000 3.6 280 20:55 01.05.2020
3762 Clouds 19 1022 68 10000 3.1 280 20:37 01.05.2020
3763 Clouds 19 1022 68 10000 3.1 280 20:37 01.05.2020
3764 Clouds 19 1022 77 10000 4.6 230 20:18 01.05.2020
3765 Clouds 20 1022 77 10000 5.7 220 19:41 01.05.2020
3766 Clouds 20 1022 77 10000 5.7 220 19:22 01.05.2020
3767 Clouds 20 1022 72 10000 4.6 230 18:57 01.05.2020
3768 Clouds 20 1022 64 10000 5.1 220 18:39 01.05.2020
3769 Clouds 21 1022 64 10000 5.1 220 18:19 01.05.2020
3770 Clouds 21 1022 68 10000 4.6 230 17:56 01.05.2020
3771 Clouds 21 1023 72 10000 5.7 210 17:38 01.05.2020
3772 Clouds 21 1023 72 10000 5.7 210 17:20 01.05.2020
3773 Clouds 21 1023 72 10000 5.1 210 16:55 01.05.2020
3774 Clouds 21 1023 77 10000 5.7 200 16:37 01.05.2020
3775 Clouds 21 1023 77 10000 5.7 200 16:18 01.05.2020
3776 Clouds 21 1023 72 10000 5.1 220 15:42 01.05.2020
3777 Clouds 21 1023 72 10000 5.1 220 15:24 01.05.2020
3778 Clouds 20 1023 72 10000 4.6 220 14:58 01.05.2020
3779 Clouds 21 1023 72 10000 4.1 220 14:39 01.05.2020
3780 Clouds 20 1023 72 10000 4.1 220 14:21 01.05.2020
3781 Clouds 20 1023 82 10000 4.1 220 13:41 01.05.2020
3782 Clouds 20 1023 82 10000 4.1 220 13:41 01.05.2020
3783 Clouds 20 1023 82 10000 4.1 220 13:22 01.05.2020
3784 Clouds 19 1023 77 10000 5.7 210 12:58 01.05.2020
3785 Clouds 19 1023 82 10000 5.1 220 12:39 01.05.2020
3786 Clouds 18 1023 82 10000 5.1 220 12:19 01.05.2020
3787 Clouds 18 1023 77 10000 4.1 220 11:58 01.05.2020
3788 Clouds 18 1023 82 10000 4.6 200 11:39 01.05.2020
3789 Clouds 18 1023 82 10000 4.6 200 11:19 01.05.2020
3790 Clouds 17 1023 87 10000 3.6 240 10:41 01.05.2020
3791 Clouds 17 1023 87 10000 3.6 240 10:20 01.05.2020
3792 Clouds 17 1023 82 10000 3.1 240 09:55 01.05.2020
3793 Clouds 17 1023 87 10000 3.6 250 09:37 01.05.2020
3794 Clouds 17 1023 87 10000 3.6 250 09:18 01.05.2020
3795 Clouds 16 1022 93 10000 4.1 240 08:42 01.05.2020
3796 Clouds 16 1022 93 10000 4.1 240 08:24 01.05.2020
3797 Clouds 16 1022 93 10000 3.6 240 07:47 01.05.2020
3798 Clouds 16 1022 93 10000 3.6 240 07:23 01.05.2020
3799 Clouds 16 1022 93 10000 3.1 240 06:57 01.05.2020
3800 Clouds 16 1022 100 10000 3.6 230 05:41 01.05.2020
3801 Clouds 16 1022 100 10000 3.6 230 05:19 01.05.2020
3802 Drizzle 16 1022 93 8000 4.6 210 03:41 01.05.2020
3803 Clouds 16 1022 87 10000 4.6 210 02:50 01.05.2020
3804 Clouds 16 1022 87 10000 4.1 220 02:32 01.05.2020
3805 Clouds 16 1023 87 10000 4.1 230 01:42 01.05.2020
3806 Clouds 16 1023 87 10000 4.1 230 01:24 01.05.2020
3807 Clouds 16 1023 87 10000 4.6 230 00:39 01.05.2020
3808 Clouds 16 1023 87 10000 4.6 230 00:20 01.05.2020
3809 Clouds 16 1023 93 10000 3.1 220 23:57 30.04.2020
3810 Clouds 16 1022 87 10000 3.6 230 23:38 30.04.2020
3811 Clouds 16 1022 87 10000 3.6 230 23:19 30.04.2020
3812 Clouds 16 1022 87 10000 4.1 210 22:54 30.04.2020
3813 Clouds 16 1022 82 10000 4.1 230 22:36 30.04.2020
3814 Clouds 16 1022 82 10000 4.1 230 22:18 30.04.2020
3815 Clouds 17 1022 77 10000 4.1 220 21:41 30.04.2020
3816 Clouds 17 1022 77 10000 4.1 220 21:21 30.04.2020
3817 Clouds 17 1021 82 10000 5.7 210 20:57 30.04.2020
3818 Clouds 18 1021 72 10000 5.7 210 20:39 30.04.2020
3819 Clouds 18 1021 72 10000 5.7 210 20:18 30.04.2020
3820 Clouds 18 1021 72 10000 5.7 210 20:18 30.04.2020
3821 Clouds 18 1021 72 10000 5.7 210 20:18 30.04.2020
3822 Clouds 19 1021 72 10000 5.7 210 19:46 30.04.2020
3823 Clouds 18 1021 72 10000 6.2 210 19:26 30.04.2020
3824 Clouds 19 1021 63 10000 6.2 220 18:57 30.04.2020
3825 Clouds 19 1021 72 10000 7.2 210 18:39 30.04.2020
3826 Clouds 19 1021 72 10000 7.2 210 18:21 30.04.2020
3827 Clouds 19 1021 68 10000 6.7 210 17:57 30.04.2020
3828 Clouds 19 1021 68 10000 5.7 220 17:39 30.04.2020
3829 Clouds 19 1021 68 10000 5.7 220 17:39 30.04.2020
3830 Clouds 19 1021 68 10000 5.7 220 17:20 30.04.2020
3831 Clouds 20 1021 68 10000 6.7 210 16:56 30.04.2020
3832 Clouds 20 1021 64 10000 6.2 220 16:38 30.04.2020
3833 Clouds 20 1021 64 10000 6.2 220 16:18 30.04.2020
3834 Clouds 19 1021 63 10000 4.1 230 15:45 30.04.2020
3835 Clouds 19 1021 63 10000 4.1 230 15:24 30.04.2020
3836 Clouds 19 1021 68 10000 4.1 230 14:56 30.04.2020
3837 Clouds 19 1021 63 10000 5.1 230 14:38 30.04.2020
3838 Clouds 19 1021 63 10000 5.1 230 14:18 30.04.2020
3839 Clouds 18 1021 63 10000 4.1 250 13:54 30.04.2020
3840 Clouds 18 1022 63 10000 5.1 260 13:36 30.04.2020
3841 Clouds 18 1022 68 10000 4.1 250 13:18 30.04.2020
3842 Clouds 18 1021 67 10000 3.6 270 12:41 30.04.2020
3843 Clouds 18 1021 67 10000 3.6 270 12:19 30.04.2020
3844 Clouds 18 1021 67 10000 4.1 280 11:57 30.04.2020
3845 Clouds 17 1021 72 10000 3.1 290 11:36 30.04.2020
3846 Clouds 17 1021 72 10000 3.1 290 11:18 30.04.2020
3847 Clouds 16 1020 82 10000 3.1 250 10:41 30.04.2020
3848 Clouds 16 1020 82 10000 3.1 250 10:21 30.04.2020
3849 Clouds 16 1020 87 10000 3.6 260 09:57 30.04.2020
3850 Clouds 16 1020 87 10000 2.1 230 09:39 30.04.2020
3851 Clouds 15 1020 87 10000 2.1 230 09:20 30.04.2020
3852 Clouds 15 1020 87 10000 2.1 240 08:46 30.04.2020
3853 Clouds 15 1020 87 10000 2.1 240 08:26 30.04.2020
3854 Clouds 15 1019 87 10000 2.1 210 07:45 30.04.2020
3855 Clouds 15 1019 87 10000 2.1 210 07:26 30.04.2020
3856 Clouds 15 1019 93 10000 1.5 240 06:59 30.04.2020
3857 Clouds 15 1019 93 10000 1.5 240 06:59 30.04.2020
3858 Clouds 15 1019 93 10000 2.1 260 06:32 30.04.2020
3859 Clouds 15 1019 87 10000 2.6 240 05:47 30.04.2020
3860 Clouds 15 1019 93 10000 2.1 240 04:43 30.04.2020
3861 Clouds 15 1019 93 10000 2.1 240 04:24 30.04.2020
3862 Clouds 15 1020 93 10000 3.6 220 02:50 30.04.2020
3863 Clouds 15 1020 93 10000 3.6 220 02:28 30.04.2020
3864 Clouds 15 1020 93 10000 4.1 230 01:37 30.04.2020
3865 Clouds 15 1020 93 10000 4.1 220 00:53 30.04.2020
3866 Clouds 15 1020 93 10000 4.1 230 00:24 30.04.2020
3867 Clouds 15 1020 93 10000 4.1 230 00:24 30.04.2020
3868 Clouds 15 1020 87 7000 4.1 220 23:59 29.04.2020
3869 Drizzle 15 1020 93 7000 3.6 240 23:41 29.04.2020
3870 Drizzle 15 1020 93 7000 3.6 240 23:22 29.04.2020
3871 Drizzle 15 1020 93 5000 3.6 260 22:58 29.04.2020
3872 Clouds 15 1020 77 10000 5.7 230 22:39 29.04.2020
3873 Clouds 16 1020 77 10000 5.7 230 22:19 29.04.2020
3874 Clouds 16 1020 72 10000 4.1 250 21:39 29.04.2020
3875 Clouds 16 1020 72 10000 4.1 250 21:20 29.04.2020
3876 Clouds 17 1020 72 10000 5.7 250 20:58 29.04.2020
3877 Clouds 17 1020 67 10000 6.2 250 20:39 29.04.2020
3878 Clouds 17 1020 67 10000 6.2 250 20:19 29.04.2020
3879 Clouds 17 1020 67 10000 6.2 250 19:57 29.04.2020
3880 Clouds 18 1020 68 10000 6.7 240 19:39 29.04.2020
3881 Clouds 18 1020 68 10000 6.7 240 19:18 29.04.2020
3882 Clouds 18 1020 72 10000 6.7 240 18:42 29.04.2020
3883 Clouds 18 1020 72 10000 6.7 240 18:20 29.04.2020
3884 Clouds 18 1020 63 10000 6.7 230 17:55 29.04.2020
3885 Clouds 18 1020 63 10000 7.2 250 17:37 29.04.2020
3886 Clouds 18 1020 63 10000 7.2 250 17:18 29.04.2020
3887 Clouds 18 1020 77 10000 5.7 250 16:37 29.04.2020
3888 Clouds 18 1020 77 10000 6.7 230 16:19 29.04.2020
3889 Clouds 17 1020 77 10000 6.7 230 15:57 29.04.2020
3890 Clouds 17 1020 82 10000 6.2 230 15:38 29.04.2020
3891 Clouds 17 1020 82 10000 6.2 230 15:20 29.04.2020
3892 Drizzle 16 1020 93 10000 6.7 240 14:46 29.04.2020
3893 Rain 16 1020 93 10000 4.6 230 14:27 29.04.2020
3894 Drizzle 16 1021 93 4000 4.6 260 13:59 29.04.2020
3895 Drizzle 16 1021 93 4000 4.6 260 13:59 29.04.2020
3896 Drizzle 16 1021 93 4000 4.6 260 13:59 29.04.2020
3897 Drizzle 16 1020 93 5000 5.7 250 13:40 29.04.2020
3898 Drizzle 16 1020 93 5000 5.7 250 13:20 29.04.2020
3899 Drizzle 16 1020 93 8000 7.7 210 12:57 29.04.2020
3900 Drizzle 16 1020 93 10000 5.1 220 12:38 29.04.2020
3901 Clouds 16 1020 93 10000 5.7 210 12:18 29.04.2020
3902 Clouds 16 1020 93 10000 5.7 210 12:18 29.04.2020
3903 Drizzle 16 1020 93 6000 5.7 210 11:40 29.04.2020
3904 Drizzle 16 1020 93 6000 5.7 210 11:20 29.04.2020
3905 Drizzle 16 1020 87 5000 5.7 210 10:57 29.04.2020
3906 Rain 16 1020 87 10000 6.2 210 10:37 29.04.2020
3907 Rain 15 1020 87 10000 6.2 210 10:19 29.04.2020
3908 Clouds 15 1020 87 10000 5.1 220 09:42 29.04.2020
3909 Clouds 15 1020 87 10000 5.1 220 09:23 29.04.2020
3910 Clouds 14 1020 93 10000 2.1 220 08:56 29.04.2020
3911 Clouds 14 1019 93 10000 1 0 08:37 29.04.2020
3912 Clouds 14 1019 93 10000 1 0 08:19 29.04.2020
3913 Clouds 14 1019 93 10000 1.5 210 07:41 29.04.2020
3914 Clouds 14 1019 93 10000 1.5 210 07:23 29.04.2020
3915 Clouds 14 1019 93 10000 3.29 225 06:50 29.04.2020
3916 Clouds 14 1019 93 10000 1 0 06:30 29.04.2020
3917 Clouds 14 1019 93 10000 2.1 240 05:21 29.04.2020
3918 Clouds 14 1019 93 10000 2.1 240 05:21 29.04.2020
3919 Clouds 14 1020 93 10000 2.6 250 04:38 29.04.2020
3920 Clouds 14 1020 93 10000 2.6 250 04:18 29.04.2020
3921 Clouds 14 1020 87 10000 2.6 240 02:39 29.04.2020
3922 Clear 14 1020 87 10000 2.1 240 01:44 29.04.2020
3923 Clear 14 1020 87 10000 2.1 240 01:22 29.04.2020
3924 Clear 14 1021 87 10000 3.1 240 00:41 29.04.2020
3925 Clear 14 1021 87 10000 3.1 240 00:19 29.04.2020
3926 Clouds 15 1021 82 10000 2.6 280 23:49 28.04.2020
3927 Clouds 15 1021 82 10000 2.6 280 23:24 28.04.2020
3928 Clouds 15 1020 77 10000 2.6 270 22:55 28.04.2020
3929 Clouds 15 1020 82 10000 3.1 250 22:37 28.04.2020
3930 Clouds 15 1020 82 10000 3.1 250 22:18 28.04.2020
3931 Clouds 16 1020 72 10000 4.6 270 21:54 28.04.2020
3932 Clouds 16 1019 67 10000 4.6 280 21:36 28.04.2020
3933 Clouds 16 1019 67 10000 4.6 280 21:18 28.04.2020
3934 Clouds 17 1019 67 10000 4.1 280 20:54 28.04.2020
3935 Clouds 17 1019 63 10000 4.6 270 20:36 28.04.2020
3936 Clouds 17 1019 63 10000 4.6 270 20:18 28.04.2020
3937 Clouds 18 1019 55 10000 4.6 290 19:42 28.04.2020
3938 Clouds 18 1019 55 10000 4.6 290 19:22 28.04.2020
3939 Clouds 18 1019 52 10000 4.6 270 18:59 28.04.2020
3940 Clouds 18 1019 52 10000 4.1 280 18:40 28.04.2020
3941 Clouds 18 1019 52 10000 4.1 280 18:19 28.04.2020
3942 Clouds 18 1019 52 10000 4.1 280 18:19 28.04.2020
3943 Clouds 18 1019 52 10000 4.1 280 18:19 28.04.2020
3944 Clouds 18 1019 52 10000 4.1 280 18:19 28.04.2020
3945 Clouds 18 1018 55 10000 5.1 270 17:57 28.04.2020
3946 Clouds 19 1018 55 10000 5.1 280 17:36 28.04.2020
3947 Clouds 18 1018 55 10000 5.1 280 17:18 28.04.2020
3948 Clouds 18 1019 52 10000 3.1 280 16:42 28.04.2020
3949 Clouds 18 1019 52 10000 3.1 280 16:23 28.04.2020
3950 Clouds 18 1019 48 10000 3.6 300 15:58 28.04.2020
3951 Clouds 18 1019 52 10000 2.6 300 15:39 28.04.2020
3952 Clouds 18 1019 63 10000 3.1 210 15:21 28.04.2020
3953 Clouds 17 1019 63 10000 3.1 210 14:59 28.04.2020
3954 Clouds 17 1019 67 10000 4.6 200 14:40 28.04.2020
3955 Clouds 17 1019 67 10000 4.6 200 14:21 28.04.2020
3956 Clouds 17 1019 67 10000 3.6 240 13:58 28.04.2020
3957 Clouds 17 1019 59 10000 2.6 330 13:38 28.04.2020
3958 Clouds 17 1019 59 10000 2.6 330 13:19 28.04.2020
3959 Clouds 17 1018 55 0 1.5 0 12:46 28.04.2020
3960 Clouds 17 1018 55 0 1.5 0 12:25 28.04.2020
3961 Clouds 16 1018 63 10000 2.1 350 11:46 28.04.2020
3962 Clouds 16 1018 63 10000 2.1 350 11:26 28.04.2020
3963 Clouds 16 1018 72 10000 2.6 310 11:00 28.04.2020
3964 Clouds 16 1018 72 10000 2.6 310 11:00 28.04.2020
3965 Clouds 15 1018 77 10000 2.6 300 10:39 28.04.2020
3966 Clouds 15 1018 77 10000 2.6 300 10:19 28.04.2020
3967 Clouds 14 1018 76 10000 3.1 310 09:58 28.04.2020
3968 Clouds 14 1017 82 10000 2.6 300 09:39 28.04.2020
3969 Clouds 13 1017 82 10000 2.6 300 09:20 28.04.2020
3970 Clouds 13 1017 87 10000 2.6 270 08:46 28.04.2020
3971 Clouds 12 1017 87 10000 2.6 270 08:26 28.04.2020
3972 Clouds 12 1017 87 10000 2.1 270 07:46 28.04.2020
3973 Clouds 12 1016 81 10000 1.5 290 07:21 28.04.2020
3974 Clouds 12 1016 87 10000 1 0 06:54 28.04.2020
3975 Clouds 12 1016 87 10000 1.5 260 06:22 28.04.2020
3976 Clouds 12 1016 87 10000 2.6 310 05:43 28.04.2020
3977 Clouds 12 1016 87 10000 2.6 310 05:25 28.04.2020
3978 Clouds 12 1016 87 10000 2.6 320 04:27 28.04.2020
3979 Clouds 14 1017 82 10000 2.1 270 02:34 28.04.2020
3980 Clouds 14 1017 82 10000 2.6 260 01:23 28.04.2020
3981 Clouds 14 1017 82 10000 2.6 260 01:23 28.04.2020
3982 Clouds 14 1017 82 10000 2.6 260 01:23 28.04.2020
3983 Clouds 14 1017 82 10000 2.6 260 00:58 28.04.2020
3984 Clouds 14 1017 82 10000 2.1 260 00:25 28.04.2020
3985 Clouds 14 1016 76 10000 2.1 290 23:47 27.04.2020
3986 Clouds 14 1016 76 10000 2.1 290 23:47 27.04.2020
3987 Clouds 14 1016 76 10000 2.6 300 23:24 27.04.2020
3988 Clouds 14 1016 76 10000 2.6 300 22:56 27.04.2020
3989 Clouds 14 1016 76 10000 3.1 310 22:38 27.04.2020
3990 Clouds 15 1015 72 10000 3.1 300 22:19 27.04.2020
3991 Clouds 15 1015 72 10000 3.1 300 21:56 27.04.2020
3992 Clouds 15 1015 72 10000 3.1 300 21:56 27.04.2020
3993 Clouds 16 1015 72 10000 3.6 310 21:38 27.04.2020
3994 Clouds 15 1015 72 10000 3.6 310 21:18 27.04.2020
3995 Clouds 16 1015 63 10000 5.1 300 20:44 27.04.2020
3996 Clouds 16 1015 63 10000 5.1 300 20:22 27.04.2020
3997 Clouds 17 1015 55 10000 4.6 270 19:59 27.04.2020
3998 Clouds 18 1014 52 10000 4.1 290 19:39 27.04.2020
3999 Clouds 18 1014 52 10000 4.1 290 19:21 27.04.2020
4000 Clouds 18 1014 55 10000 4.6 280 18:58 27.04.2020
4001 Clouds 17 1014 55 10000 4.1 280 18:40 27.04.2020
4002 Clouds 18 1014 55 10000 4.1 280 18:19 27.04.2020
4003 Clouds 18 1014 52 10000 3.6 280 17:44 27.04.2020
4004 Clouds 18 1014 52 10000 3.6 280 17:24 27.04.2020
4005 Clouds 18 1014 52 10000 4.1 280 17:00 27.04.2020
4006 Clouds 19 1014 52 10000 4.1 260 16:40 27.04.2020
4007 Clouds 18 1014 52 10000 4.1 260 16:21 27.04.2020
4008 Clouds 18 1014 59 10000 4.6 200 15:57 27.04.2020
4009 Clouds 18 1014 63 10000 4.1 200 15:38 27.04.2020
4010 Clouds 18 1014 63 10000 4.1 200 15:38 27.04.2020
4011 Clouds 18 1014 63 10000 4.1 200 15:19 27.04.2020
4012 Clouds 17 1014 67 10000 2.1 220 14:56 27.04.2020
4013 Clouds 17 1014 82 10000 3.1 200 14:37 27.04.2020
4014 Clouds 17 1014 82 10000 3.1 200 14:18 27.04.2020
4015 Clouds 16 1015 77 10000 2.1 100 13:42 27.04.2020
4016 Clouds 16 1015 77 10000 2.1 100 13:20 27.04.2020
4017 Clouds 16 1015 77 10000 2.6 70 12:57 27.04.2020
4018 Clouds 16 1014 87 10000 2.6 90 12:39 27.04.2020
4019 Clouds 15 1014 87 10000 2.6 90 12:20 27.04.2020
4020 Rain 15 1014 87 9000 2.6 60 11:41 27.04.2020
4021 Rain 15 1014 87 9000 2.6 60 11:21 27.04.2020
4022 Clouds 14 1014 93 10000 2.1 90 10:57 27.04.2020
4023 Clouds 15 1014 87 10000 1.5 80 10:39 27.04.2020
4024 Clouds 14 1014 87 10000 1.5 80 10:20 27.04.2020
4025 Clouds 13 1014 87 10000 1 0 09:44 27.04.2020
4026 Clouds 13 1014 87 10000 1 0 09:44 27.04.2020
4027 Clouds 13 1014 87 10000 1 0 09:19 27.04.2020
4028 Clouds 12 1013 100 10000 1.69 207 08:59 27.04.2020
4029 Clouds 12 1013 93 10000 1.69 207 08:41 27.04.2020
4030 Clouds 11 1013 93 10000 1.69 207 08:23 27.04.2020
4031 Clouds 11 1013 93 10000 1.69 207 07:44 27.04.2020
4032 Clouds 11 1013 93 10000 1.69 207 07:22 27.04.2020
4033 Clouds 12 1013 87 10000 1 280 06:56 27.04.2020
4034 Clouds 12 1013 87 10000 1 220 06:27 27.04.2020
4035 Clouds 12 1013 87 10000 2.02 209 05:50 27.04.2020
4036 Clouds 12 1014 87 10000 2.02 209 04:51 27.04.2020
4037 Clouds 13 1014 87 10000 1.5 280 03:59 27.04.2020
4038 Clouds 13 1014 93 10000 0.5 0 03:36 27.04.2020
4039 Clear 13 1015 87 10000 2.1 230 01:43 27.04.2020
4040 Clear 13 1015 93 10000 2.6 250 00:59 27.04.2020
4041 Clear 13 1015 93 10000 2.6 250 00:20 27.04.2020
4042 Clear 14 1015 82 10000 2.1 270 23:58 26.04.2020
4043 Clear 14 1015 82 10000 1.5 280 23:40 26.04.2020
4044 Clear 14 1015 82 10000 1.5 280 23:21 26.04.2020
4045 Clouds 14 1014 76 10000 1.5 280 22:58 26.04.2020
4046 Clouds 14 1014 76 10000 1.5 280 22:58 26.04.2020
4047 Clouds 14 1014 76 10000 2.1 310 22:39 26.04.2020
4048 Clouds 14 1014 76 10000 2.1 310 22:20 26.04.2020
4049 Clouds 15 1014 67 10000 2.6 300 21:57 26.04.2020
4050 Clouds 16 1013 67 10000 3.1 290 21:38 26.04.2020
4051 Clouds 16 1013 67 10000 3.1 290 21:18 26.04.2020
4052 Clouds 16 1013 63 10000 3.1 290 21:18 26.04.2020
4053 Clouds 15 1013 67 10000 3.1 290 21:18 26.04.2020
4054 Clouds 16 1013 63 10000 3.1 290 20:54 26.04.2020
4055 Clouds 16 1013 67 10000 2.1 280 20:36 26.04.2020
4056 Clouds 16 1013 67 10000 2.1 280 20:18 26.04.2020
4057 Clouds 17 1014 67 10000 2.1 280 19:56 26.04.2020
4058 Clouds 16 1014 72 10000 2.6 290 19:36 26.04.2020
4059 Clouds 16 1014 72 10000 2.6 290 19:18 26.04.2020
4060 Clouds 16 1014 72 10000 2.6 290 19:18 26.04.2020
4061 Clouds 16 1014 72 10000 3.1 300 18:41 26.04.2020
4062 Clouds 16 1014 72 10000 3.1 300 18:23 26.04.2020
4063 Clouds 16 1014 67 10000 5.1 250 17:42 26.04.2020
4064 Clouds 17 1014 67 10000 5.1 250 17:22 26.04.2020
4065 Clouds 17 1014 67 10000 2.6 270 16:57 26.04.2020
4066 Clouds 17 1014 67 10000 3.6 260 16:38 26.04.2020
4067 Clouds 17 1014 67 10000 3.6 260 16:19 26.04.2020
4068 Clouds 17 1014 67 10000 2.1 330 15:57 26.04.2020
4069 Rain 17 1014 67 10000 2.1 280 15:37 26.04.2020
4070 Rain 17 1014 67 10000 2.1 280 15:18 26.04.2020
4071 Rain 16 1015 77 10000 3.1 260 14:41 26.04.2020
4072 Rain 16 1015 77 10000 3.1 260 14:19 26.04.2020
4073 Rain 16 1015 72 10000 2.6 290 13:59 26.04.2020
4074 Clouds 16 1015 67 10000 3.1 300 13:40 26.04.2020
4075 Clouds 16 1015 67 10000 3.1 300 13:22 26.04.2020
4076 Clouds 16 1015 67 10000 2.1 290 12:57 26.04.2020
4077 Clouds 16 1015 67 10000 2.6 220 12:38 26.04.2020
4078 Clouds 16 1015 67 10000 2.6 220 12:20 26.04.2020
4079 Clouds 16 1014 67 10000 2.6 250 11:54 26.04.2020
4080 Clouds 16 1014 77 10000 3.6 240 11:36 26.04.2020
4081 Clouds 16 1014 77 10000 3.6 240 11:18 26.04.2020
4082 Clouds 15 1014 76 10000 2.6 220 10:42 26.04.2020
4083 Clouds 15 1014 76 10000 2.6 220 10:24 26.04.2020
4084 Clouds 14 1014 82 10000 2.6 230 09:58 26.04.2020
4085 Clouds 14 1014 82 10000 1.5 220 09:38 26.04.2020
4086 Clouds 14 1014 82 10000 1.5 220 09:38 26.04.2020
4087 Clouds 14 1014 82 10000 1.5 220 09:20 26.04.2020
4088 Clouds 12 1013 93 10000 2.1 230 08:41 26.04.2020
4089 Clouds 12 1013 93 10000 2.1 230 08:23 26.04.2020
4090 Clouds 11 1013 87 10000 2.6 240 07:49 26.04.2020
4091 Clouds 11 1013 87 10000 2.6 240 07:49 26.04.2020
4092 Clouds 12 1013 87 10000 2.6 250 07:25 26.04.2020
4093 Clouds 12 1014 87 10000 1.5 260 06:53 26.04.2020
4094 Clouds 12 1014 87 10000 3.1 240 06:32 26.04.2020
4095 Clouds 12 1014 87 10000 2.1 270 05:54 26.04.2020
4096 Clouds 12 1014 81 10000 1.5 250 05:34 26.04.2020
4097 Clouds 12 1014 82 10000 3.1 250 04:42 26.04.2020
4098 Clouds 13 1014 82 10000 2.1 290 03:46 26.04.2020
4099 Clouds 13 1015 82 10000 2.6 310 02:40 26.04.2020
4100 Clouds 13 1015 82 10000 2.6 310 02:20 26.04.2020
4101 Clouds 13 1015 82 10000 2.1 270 01:38 26.04.2020
4102 Clouds 13 1015 82 10000 2.1 270 01:19 26.04.2020
4103 Clouds 14 1015 76 10000 3.6 300 00:38 26.04.2020
4104 Clouds 14 1015 76 10000 3.6 300 00:18 26.04.2020
4105 Clouds 14 1015 76 10000 2.6 300 23:38 25.04.2020
4106 Clouds 14 1014 76 10000 3.6 300 23:20 25.04.2020
4107 Clouds 14 1014 76 10000 3.6 300 22:54 25.04.2020
4108 Clouds 14 1014 76 10000 3.1 290 22:36 25.04.2020
4109 Clouds 14 1014 76 10000 3.1 290 22:18 25.04.2020
4110 Clouds 15 1013 67 10000 4.1 300 21:39 25.04.2020
4111 Clouds 15 1013 67 10000 4.1 300 21:20 25.04.2020
4112 Clouds 15 1013 67 10000 5.1 330 20:56 25.04.2020
4113 Clouds 16 1013 63 10000 5.7 330 20:38 25.04.2020
4114 Clouds 16 1013 63 10000 5.7 330 20:19 25.04.2020
4115 Clouds 17 1013 55 10000 5.1 300 19:41 25.04.2020
4116 Clouds 17 1013 55 10000 5.1 300 19:23 25.04.2020
4117 Clouds 17 1013 55 10000 5.7 310 18:58 25.04.2020
4118 Clouds 17 1013 55 10000 5.1 300 18:39 25.04.2020
4119 Clouds 17 1013 55 10000 5.1 300 18:20 25.04.2020
4120 Clouds 18 1012 55 10000 6.2 330 17:58 25.04.2020
4121 Clouds 17 1013 55 10000 6.7 340 17:38 25.04.2020
4122 Clouds 18 1013 59 10000 5.1 310 17:19 25.04.2020
4123 Clouds 17 1013 59 10000 5.1 310 16:54 25.04.2020
4124 Clouds 18 1013 59 10000 4.6 310 16:36 25.04.2020
4125 Clouds 18 1013 59 10000 4.6 310 16:18 25.04.2020
4126 Clouds 18 1013 59 10000 6.2 350 15:40 25.04.2020
4127 Clouds 18 1013 59 10000 6.2 350 15:40 25.04.2020
4128 Clouds 18 1013 59 10000 6.2 350 15:20 25.04.2020
4129 Clouds 18 1013 59 10000 5.1 320 14:58 25.04.2020
4130 Clouds 18 1013 59 10000 5.1 320 14:58 25.04.2020
4131 Clouds 18 1013 59 10000 5.1 320 14:58 25.04.2020
4132 Clouds 18 1013 55 10000 6.2 320 14:39 25.04.2020
4133 Clouds 18 1013 55 10000 6.2 320 14:20 25.04.2020
4134 Clouds 18 1013 59 10000 5.7 330 13:43 25.04.2020
4135 Clouds 18 1013 59 10000 5.7 330 13:20 25.04.2020
4136 Clouds 17 1013 63 10000 6.2 330 12:58 25.04.2020
4137 Clouds 17 1013 63 10000 5.1 330 12:40 25.04.2020
4138 Clouds 17 1013 63 10000 5.1 330 12:21 25.04.2020
4139 Clouds 16 1013 67 10000 5.7 340 11:58 25.04.2020
4140 Clouds 16 1013 67 10000 5.1 310 11:39 25.04.2020
4141 Clouds 16 1013 67 10000 5.1 310 11:21 25.04.2020
4142 Clouds 15 1012 77 10000 4.6 340 10:44 25.04.2020
4143 Clouds 15 1012 77 10000 4.6 340 10:24 25.04.2020
4144 Clouds 14 1012 82 10000 3.6 320 09:50 25.04.2020
4145 Clouds 14 1012 82 10000 3.6 320 09:30 25.04.2020
4146 Clouds 14 1012 82 10000 3.1 300 08:59 25.04.2020
4147 Clouds 13 1011 82 10000 3.6 310 08:40 25.04.2020
4148 Clouds 13 1011 82 10000 3.6 310 08:21 25.04.2020
4149 Clouds 13 1011 82 10000 4.1 310 07:58 25.04.2020
4150 Clouds 14 1011 82 10000 3.6 310 07:40 25.04.2020
4151 Clouds 14 1011 87 10000 4.6 310 06:55 25.04.2020
4152 Clouds 14 1011 87 10000 4.1 310 06:36 25.04.2020
4153 Clouds 13 1011 82 10000 5.1 310 05:42 25.04.2020
4154 Clouds 14 1011 82 10000 5.1 310 05:23 25.04.2020
4155 Clouds 14 1012 87 10000 3.6 320 03:19 25.04.2020
4156 Clouds 14 1012 82 10000 2.1 20 02:25 25.04.2020
4157 Clouds 14 1012 82 10000 3.6 350 01:55 25.04.2020
4158 Clouds 14 1012 82 10000 5.7 330 01:37 25.04.2020
4159 Clouds 14 1012 82 10000 5.7 330 01:18 25.04.2020
4160 Clouds 14 1012 82 10000 5.7 320 00:37 25.04.2020
4161 Clouds 14 1011 82 10000 7.2 310 23:57 24.04.2020
4162 Clouds 14 1011 82 10000 7.2 310 23:38 24.04.2020
4163 Clouds 14 1011 82 10000 7.2 310 23:38 24.04.2020
4164 Clouds 14 1011 82 10000 7.2 310 23:20 24.04.2020
4165 Clouds 14 1010 82 10000 7.7 320 22:41 24.04.2020
4166 Clouds 15 1010 82 10000 7.7 320 22:20 24.04.2020
4167 Clouds 15 1010 77 10000 7.7 310 21:58 24.04.2020
4168 Clouds 15 1010 77 10000 7.7 310 21:39 24.04.2020
4169 Clouds 15 1010 77 10000 7.7 310 21:21 24.04.2020
4170 Clouds 16 1010 77 10000 7.7 300 20:56 24.04.2020
4171 Clouds 16 1010 77 10000 7.2 300 20:38 24.04.2020
4172 Clouds 17 1010 77 10000 7.2 300 20:18 24.04.2020
4173 Clouds 17 1010 68 10000 5.7 300 19:44 24.04.2020
4174 Clouds 18 1010 68 10000 5.7 300 19:25 24.04.2020
4175 Clouds 19 1010 68 10000 5.7 310 18:56 24.04.2020
4176 Clouds 19 1010 68 10000 3.6 310 18:38 24.04.2020
4177 Clouds 19 1010 68 10000 3.6 310 18:38 24.04.2020
4178 Clouds 19 1010 68 10000 3.6 310 18:19 24.04.2020
4179 Clouds 20 1010 64 10000 3.6 340 17:42 24.04.2020
4180 Clouds 20 1010 64 10000 3.6 340 17:23 24.04.2020
4181 Clouds 20 1011 68 10000 4.6 330 16:59 24.04.2020
4182 Clouds 20 1011 68 10000 4.6 330 16:40 24.04.2020
4183 Clouds 20 1011 68 10000 4.6 330 16:40 24.04.2020
4184 Clouds 20 1011 68 10000 4.6 330 16:40 24.04.2020
4185 Clouds 20 1011 68 10000 4.6 330 16:21 24.04.2020
4186 Clouds 20 1011 68 10000 4.1 320 15:59 24.04.2020
4187 Clouds 19 1011 68 10000 4.6 310 15:37 24.04.2020
4188 Clouds 20 1011 64 10000 4.1 340 15:18 24.04.2020
4189 Clouds 19 1011 68 10000 5.1 330 14:40 24.04.2020
4190 Clouds 19 1011 68 10000 5.1 330 14:20 24.04.2020
4191 Clouds 19 1011 68 10000 5.1 330 14:20 24.04.2020
4192 Clouds 19 1012 68 10000 4.6 340 13:55 24.04.2020
4193 Clouds 18 1012 72 10000 4.1 320 13:36 24.04.2020
4194 Clouds 18 1012 72 10000 4.1 320 13:18 24.04.2020
4195 Clouds 18 1013 72 10000 4.1 320 12:41 24.04.2020
4196 Clouds 17 1013 72 10000 4.1 320 12:21 24.04.2020
4197 Clouds 17 1013 72 10000 4.1 320 11:57 24.04.2020
4198 Clouds 16 1013 77 10000 4.6 320 11:37 24.04.2020
4199 Clouds 16 1013 77 10000 4.6 320 11:19 24.04.2020
4200 Clouds 15 1013 82 10000 5.1 310 10:54 24.04.2020
4201 Clouds 15 1013 82 10000 4.1 320 10:36 24.04.2020
4202 Clouds 15 1013 87 10000 4.6 330 10:18 24.04.2020
4203 Clouds 14 1013 82 10000 3.6 340 09:44 24.04.2020
4204 Clouds 14 1013 87 10000 5.1 320 09:24 24.04.2020
4205 Clouds 13 1013 87 10000 4.1 320 08:55 24.04.2020
4206 Clouds 13 1013 87 10000 3.6 320 08:37 24.04.2020
4207 Clouds 13 1013 87 10000 3.6 320 08:18 24.04.2020
4208 Clouds 13 1013 87 10000 3.1 320 07:44 24.04.2020
4209 Clouds 12 1013 87 10000 3.1 320 07:26 24.04.2020
4210 Clouds 13 1013 87 10000 3.6 330 06:50 24.04.2020
4211 Clouds 13 1013 87 10000 4.6 330 06:31 24.04.2020
4212 Clouds 13 1013 87 10000 4.1 310 05:42 24.04.2020
4213 Clouds 14 1014 87 10000 4.6 320 04:25 24.04.2020
4214 Clouds 14 1015 93 10000 4.6 320 02:58 24.04.2020
4215 Clouds 14 1015 87 10000 4.1 320 02:37 24.04.2020
4216 Clouds 14 1015 87 10000 4.1 320 01:58 24.04.2020
4217 Clouds 14 1015 82 10000 4.6 310 00:58 24.04.2020
4218 Clouds 14 1015 82 10000 4.6 320 00:21 24.04.2020
4219 Clouds 15 1015 82 10000 5.1 320 23:55 23.04.2020
4220 Clouds 15 1015 82 10000 5.1 310 23:37 23.04.2020
4221 Clouds 15 1015 82 10000 5.1 310 23:18 23.04.2020
4222 Clouds 15 1015 82 10000 4.6 320 22:54 23.04.2020
4223 Clouds 15 1014 82 10000 4.6 320 22:36 23.04.2020
4224 Clouds 16 1014 82 10000 4.1 310 22:18 23.04.2020
4225 Clouds 16 1014 82 10000 4.1 310 21:55 23.04.2020
4226 Clouds 16 1014 82 10000 4.1 310 21:55 23.04.2020
4227 Clouds 16 1014 77 10000 4.6 310 21:37 23.04.2020
4228 Clouds 17 1014 77 10000 4.6 310 21:18 23.04.2020
4229 Clouds 17 1014 72 10000 5.1 320 20:41 23.04.2020
4230 Clouds 18 1014 72 10000 5.1 320 20:22 23.04.2020
4231 Clouds 18 1014 72 10000 5.1 320 20:22 23.04.2020
4232 Clouds 19 1014 72 10000 4.6 320 19:58 23.04.2020
4233 Clouds 19 1014 64 10000 3.1 0 19:40 23.04.2020
4234 Clouds 19 1014 64 10000 3.1 0 19:21 23.04.2020
4235 Clouds 20 1014 52 10000 2.1 220 18:56 23.04.2020
4236 Clouds 20 1015 56 10000 2.1 80 18:36 23.04.2020
4237 Clouds 20 1015 56 10000 1.5 0 18:18 23.04.2020
4238 Clouds 20 1015 56 10000 1.5 0 17:55 23.04.2020
4239 Clouds 20 1015 52 10000 1.98 328 17:36 23.04.2020
4240 Clouds 20 1015 52 10000 1.98 328 17:36 23.04.2020
4241 Clouds 20 1015 52 10000 1.98 328 17:18 23.04.2020
4242 Clouds 20 1016 49 10000 3.1 110 16:42 23.04.2020
4243 Clouds 20 1016 49 10000 3.1 110 16:19 23.04.2020
4244 Clouds 19 1016 63 10000 3.1 80 15:42 23.04.2020
4245 Clouds 19 1016 63 10000 3.1 80 15:23 23.04.2020
4246 Clouds 18 1016 72 10000 2.6 0 14:58 23.04.2020
4247 Clouds 19 1017 72 10000 1.5 70 14:38 23.04.2020
4248 Clouds 18 1017 72 10000 1.5 70 14:20 23.04.2020
4249 Clouds 18 1017 72 10000 1.5 70 14:20 23.04.2020
4250 Clouds 17 1017 82 10000 2.6 60 13:57 23.04.2020
4251 Clouds 17 1017 82 10000 2.6 60 13:38 23.04.2020
4252 Clouds 17 1017 82 10000 2.6 60 13:19 23.04.2020
4253 Clouds 16 1017 82 10000 2.1 80 12:44 23.04.2020
4254 Clouds 16 1017 82 10000 2.1 80 12:26 23.04.2020
4255 Clouds 15 1017 82 10000 2.1 80 11:59 23.04.2020
4256 Clouds 16 1017 82 10000 2.6 80 11:40 23.04.2020
4257 Clouds 16 1017 82 10000 2.6 80 11:22 23.04.2020
4258 Clouds 15 1017 87 10000 3.6 10 10:43 23.04.2020
4259 Clouds 15 1017 87 10000 3.6 10 10:24 23.04.2020
4260 Clouds 14 1017 87 10000 4.1 350 09:58 23.04.2020
4261 Clouds 14 1017 93 10000 3.6 340 09:37 23.04.2020
4262 Clouds 13 1017 87 10000 3.6 340 09:18 23.04.2020
4263 Clouds 13 1017 87 10000 4.1 330 08:46 23.04.2020
4264 Clouds 13 1017 87 10000 4.1 330 08:27 23.04.2020
4265 Clouds 13 1016 87 10000 4.6 330 07:43 23.04.2020
4266 Clouds 13 1016 87 10000 4.6 330 07:24 23.04.2020
4267 Clouds 13 1016 87 10000 4.1 320 06:49 23.04.2020
4268 Clouds 13 1016 87 10000 4.1 320 06:27 23.04.2020
4269 Clouds 13 1017 87 10000 3.1 330 05:31 23.04.2020
4270 Clouds 12 1017 87 10000 3.6 330 04:53 23.04.2020
4271 Clouds 13 1018 87 10000 3.6 340 02:25 23.04.2020
4272 Clouds 13 1018 82 10000 6.7 330 01:55 23.04.2020
4273 Clouds 13 1018 82 10000 7.2 330 01:33 23.04.2020
4274 Clouds 13 1018 82 10000 7.7 330 00:49 23.04.2020
4275 Clouds 13 1018 82 10000 6.7 330 00:24 23.04.2020
4276 Clouds 13 1018 82 10000 4.6 320 23:53 22.04.2020
4277 Clouds 13 1018 82 10000 4.6 330 23:26 22.04.2020
4278 Clouds 14 1018 82 10000 5.1 320 22:58 22.04.2020
4279 Clouds 14 1018 76 10000 5.7 330 22:39 22.04.2020
4280 Clouds 14 1018 76 10000 5.1 320 22:19 22.04.2020
4281 Clouds 14 1018 76 10000 5.1 320 21:56 22.04.2020
4282 Clouds 14 1017 76 10000 6.2 330 21:38 22.04.2020
4283 Clouds 15 1017 76 10000 6.2 330 21:20 22.04.2020
4284 Clouds 15 1017 72 10000 5.7 330 20:54 22.04.2020
4285 Clouds 16 1017 63 10000 7.7 330 20:36 22.04.2020
4286 Clouds 16 1017 63 10000 6.7 320 20:18 22.04.2020
4287 Clouds 17 1017 63 10000 6.7 320 19:54 22.04.2020
4288 Clouds 17 1017 59 10000 6.7 320 19:36 22.04.2020
4289 Clouds 17 1017 59 10000 6.7 320 19:36 22.04.2020
4290 Clouds 17 1017 59 10000 6.7 320 19:18 22.04.2020
4291 Clouds 17 1017 63 10000 7.2 330 18:55 22.04.2020
4292 Clouds 17 1017 63 10000 6.2 330 18:36 22.04.2020
4293 Clouds 17 1017 59 10000 6.7 340 18:18 22.04.2020
4294 Clouds 18 1017 59 10000 6.7 320 17:42 22.04.2020
4295 Clouds 18 1017 59 10000 6.7 320 17:23 22.04.2020
4296 Clouds 18 1018 59 10000 6.2 330 16:46 22.04.2020
4297 Clouds 18 1018 59 10000 6.2 330 16:28 22.04.2020
4298 Clouds 18 1018 63 10000 6.7 340 15:54 22.04.2020
4299 Clouds 18 1018 63 10000 6.7 340 15:54 22.04.2020
4300 Clouds 18 1018 59 10000 5.7 320 15:36 22.04.2020
4301 Clouds 18 1018 59 10000 5.7 320 15:18 22.04.2020
4302 Clouds 18 1018 55 10000 6.7 340 14:55 22.04.2020
4303 Clouds 18 1018 55 10000 6.2 320 14:36 22.04.2020
4304 Clouds 18 1018 55 10000 6.2 320 14:18 22.04.2020
4305 Clouds 17 1018 59 10000 6.7 350 13:43 22.04.2020
4306 Clouds 17 1018 59 10000 6.7 350 13:20 22.04.2020
4307 Clouds 16 1018 63 10000 7.2 340 12:42 22.04.2020
4308 Clouds 16 1018 63 10000 7.2 340 12:23 22.04.2020
4309 Clouds 15 1018 72 10000 7.2 330 11:58 22.04.2020
4310 Clouds 16 1018 77 10000 6.7 340 11:38 22.04.2020
4311 Clouds 15 1018 77 10000 5.7 330 11:19 22.04.2020
4312 Clouds 15 1018 82 10000 5.7 330 10:42 22.04.2020
4313 Clouds 15 1018 82 10000 5.7 330 10:24 22.04.2020
4314 Clouds 14 1018 87 10000 4.6 330 09:55 22.04.2020
4315 Clouds 14 1017 87 10000 3.6 320 09:36 22.04.2020
4316 Clouds 14 1017 87 10000 3.6 320 09:18 22.04.2020
4317 Clouds 13 1017 87 10000 2.6 310 08:41 22.04.2020
4318 Clouds 13 1017 87 10000 2.6 310 08:23 22.04.2020
4319 Clouds 13 1017 87 10000 1.5 300 07:55 22.04.2020
4320 Clouds 13 1017 87 10000 2.6 330 07:36 22.04.2020
4321 Clouds 13 1017 87 10000 2.6 330 07:18 22.04.2020
4322 Clouds 13 1017 87 10000 1.5 0 06:41 22.04.2020
4323 Clouds 13 1017 87 10000 1 0 05:40 22.04.2020
4324 Clouds 13 1017 87 10000 1 0 05:40 22.04.2020
4325 Clouds 13 1017 87 10000 3.1 330 04:42 22.04.2020
4326 Clouds 14 1018 82 10000 2.6 340 02:59 22.04.2020
4327 Clouds 14 1018 82 10000 4.1 330 02:18 22.04.2020
4328 Clouds 14 1017 76 10000 4.1 320 01:39 22.04.2020
4329 Clouds 14 1017 76 10000 4.1 320 01:19 22.04.2020
4330 Clouds 14 1017 82 10000 5.1 330 00:41 22.04.2020
4331 Clouds 14 1017 82 10000 5.1 330 00:20 22.04.2020
4332 Clouds 14 1017 82 10000 4.6 320 23:44 21.04.2020
4333 Clouds 14 1017 82 10000 4.6 320 23:22 21.04.2020
4334 Clouds 14 1016 82 10000 4.6 330 22:58 21.04.2020
4335 Clouds 14 1016 82 10000 4.6 320 22:39 21.04.2020
4336 Clouds 14 1016 82 10000 4.6 320 22:19 21.04.2020
4337 Clouds 15 1015 82 10000 5.1 330 21:55 21.04.2020
4338 Clouds 15 1015 77 10000 6.2 330 21:37 21.04.2020
4339 Clouds 15 1015 77 10000 6.2 330 21:18 21.04.2020
4340 Clouds 16 1014 72 10000 6.7 330 20:40 21.04.2020
4341 Clouds 16 1014 72 10000 6.7 330 20:22 21.04.2020
4342 Clouds 16 1014 77 10000 8.2 330 19:58 21.04.2020
4343 Clouds 17 1014 67 10000 7.2 330 19:38 21.04.2020
4344 Clouds 17 1014 67 10000 7.2 330 19:18 21.04.2020
4345 Clouds 17 1013 67 10000 6.7 330 18:55 21.04.2020
4346 Clouds 17 1013 67 10000 6.7 330 18:36 21.04.2020
4347 Clouds 17 1013 67 10000 6.7 330 18:18 21.04.2020
4348 Clouds 17 1013 67 10000 7.2 340 17:39 21.04.2020
4349 Clouds 17 1013 67 10000 7.2 340 17:20 21.04.2020
4350 Clouds 17 1013 67 10000 5.7 340 16:57 21.04.2020
4351 Clouds 17 1013 67 10000 6.2 320 16:37 21.04.2020
4352 Clouds 17 1013 67 10000 5.1 330 16:18 21.04.2020
4353 Clouds 17 1013 67 10000 5.1 330 15:55 21.04.2020
4354 Clouds 17 1012 67 10000 4.6 310 15:37 21.04.2020
4355 Clouds 17 1012 67 10000 4.6 310 15:19 21.04.2020
4356 Clouds 17 1012 63 10000 5.7 340 14:45 21.04.2020
4357 Clouds 17 1012 63 10000 5.7 340 14:24 21.04.2020
4358 Clouds 16 1012 63 10000 5.1 360 13:56 21.04.2020
4359 Clouds 16 1012 67 10000 6.2 340 13:38 21.04.2020
4360 Clouds 16 1012 67 10000 6.2 340 13:18 21.04.2020
4361 Clouds 16 1012 67 10000 6.2 340 13:18 21.04.2020
4362 Clouds 15 1012 67 10000 4.1 320 12:39 21.04.2020
4363 Clouds 15 1012 67 10000 4.1 320 12:19 21.04.2020
4364 Clouds 15 1012 77 10000 4.6 350 11:57 21.04.2020
4365 Clouds 14 1011 76 10000 3.6 10 11:39 21.04.2020
4366 Clouds 14 1011 87 10000 3.1 20 11:19 21.04.2020
4367 Clouds 13 1011 87 10000 3.1 20 10:59 21.04.2020
4368 Clouds 13 1010 93 10000 2.1 60 10:40 21.04.2020
4369 Clouds 12 1010 93 10000 2.1 60 10:22 21.04.2020
4370 Clouds 12 1010 93 10000 2.1 350 09:58 21.04.2020
4371 Clouds 12 1010 93 10000 2.1 340 09:36 21.04.2020
4372 Clouds 11 1010 93 10000 2.1 340 09:18 21.04.2020
4373 Clouds 11 1008 100 10000 6.2 340 08:44 21.04.2020
4374 Clouds 11 1008 100 10000 6.2 340 08:26 21.04.2020
4375 Clouds 11 1008 93 10000 3.6 350 07:53 21.04.2020
4376 Clouds 11 1007 93 10000 4.6 350 07:27 21.04.2020
4377 Clouds 11 1007 93 10000 4.1 350 06:54 21.04.2020
4378 Clouds 11 1006 100 10000 4.6 20 06:36 21.04.2020
4379 Drizzle 11 1006 93 10000 5.1 30 05:51 21.04.2020
4380 Drizzle 11 1006 100 10000 4.6 30 05:20 21.04.2020
4381 Rain 12 1006 93 7000 1.5 110 03:46 21.04.2020
4382 Rain 13 1007 93 10000 1.5 180 02:42 21.04.2020
4383 Rain 13 1007 87 10000 2.6 230 01:31 21.04.2020
4384 Rain 13 1008 87 10000 3.1 270 00:39 21.04.2020
4385 Rain 13 1008 87 10000 3.1 270 00:19 21.04.2020
4386 Rain 13 1008 82 10000 2.6 260 23:43 20.04.2020
4387 Rain 13 1008 82 10000 2.6 260 23:21 20.04.2020
4388 Clouds 14 1008 82 10000 2.6 240 22:56 20.04.2020
4389 Clouds 14 1007 82 10000 3.1 240 22:36 20.04.2020
4390 Clouds 14 1007 82 10000 3.1 240 22:18 20.04.2020
4391 Clouds 14 1007 82 10000 4.1 230 21:54 20.04.2020
4392 Clouds 14 1007 76 10000 6.2 230 21:36 20.04.2020
4393 Clouds 14 1007 76 10000 6.2 230 21:18 20.04.2020
4394 Clouds 15 1007 71 10000 6.2 230 20:42 20.04.2020
4395 Clouds 15 1007 71 10000 6.2 230 20:20 20.04.2020
4396 Clouds 15 1007 67 10000 6.7 230 19:59 20.04.2020
4397 Clouds 16 1007 67 10000 6.2 240 19:41 20.04.2020
4398 Clouds 16 1007 67 10000 6.2 240 19:22 20.04.2020
4399 Rain 16 1007 77 10000 7.2 230 18:59 20.04.2020
4400 Rain 16 1007 77 10000 7.2 220 18:40 20.04.2020
4401 Rain 16 1007 77 10000 7.2 220 18:20 20.04.2020
4402 Rain 15 1008 82 10000 3.6 220 17:54 20.04.2020
4403 Rain 15 1008 82 9000 6.7 250 17:36 20.04.2020
4404 Rain 15 1008 72 10000 4.6 270 17:18 20.04.2020
4405 Rain 15 1009 77 10000 6.2 210 16:43 20.04.2020
4406 Rain 15 1009 77 10000 6.2 210 16:21 20.04.2020
4407 Clouds 15 1009 82 10000 5.1 230 15:57 20.04.2020
4408 Clouds 15 1009 82 10000 3.6 210 15:39 20.04.2020
4409 Clouds 14 1009 82 10000 3.6 210 15:20 20.04.2020
4410 Rain 12 1010 87 6000 9.8 220 14:42 20.04.2020
4411 Rain 12 1010 87 6000 9.8 220 14:20 20.04.2020
4412 Rain 13 1010 93 6000 4.6 200 13:59 20.04.2020
4413 Rain 13 1011 93 4500 8.7 200 13:40 20.04.2020
4414 Rain 13 1011 93 4500 8.7 200 13:22 20.04.2020
4415 Rain 15 1011 82 10000 7.7 190 12:44 20.04.2020
4416 Rain 15 1011 82 10000 7.7 190 12:25 20.04.2020
4417 Clouds 15 1011 87 10000 6.7 190 11:59 20.04.2020
4418 Clouds 15 1011 87 10000 6.7 190 11:59 20.04.2020
4419 Rain 15 1011 77 10000 7.7 200 11:39 20.04.2020
4420 Rain 15 1011 77 10000 7.7 200 11:20 20.04.2020
4421 Clouds 15 1012 77 10000 6.2 210 10:56 20.04.2020
4422 Clouds 15 1012 77 10000 4.6 210 10:38 20.04.2020
4423 Clouds 15 1012 77 10000 4.6 210 10:19 20.04.2020
4424 Clouds 15 1012 82 10000 2.6 210 09:55 20.04.2020
4425 Clouds 14 1013 82 10000 2.1 200 09:36 20.04.2020
4426 Clouds 14 1013 82 10000 2.1 200 09:18 20.04.2020
4427 Clouds 14 1012 82 10000 2.1 230 08:41 20.04.2020
4428 Clouds 14 1012 82 10000 2.1 230 08:19 20.04.2020
4429 Clouds 14 1013 82 10000 2.6 240 07:52 20.04.2020
4430 Clouds 14 1012 82 10000 3.1 240 07:29 20.04.2020
4431 Clouds 14 1013 82 10000 3.1 240 06:55 20.04.2020
4432 Clouds 14 1013 82 10000 2.1 250 06:36 20.04.2020
4433 Clouds 14 1014 87 10000 2.6 260 05:38 20.04.2020
4434 Clouds 14 1015 82 10000 2.6 270 03:49 20.04.2020
4435 Clouds 14 1015 87 10000 2.1 280 02:44 20.04.2020
4436 Clouds 14 1015 87 10000 2.1 250 01:37 20.04.2020
4437 Clouds 14 1015 87 10000 2.1 250 01:19 20.04.2020
4438 Clouds 14 1016 87 10000 2.1 270 00:36 20.04.2020
4439 Clouds 14 1016 87 10000 2.1 280 23:57 19.04.2020
4440 Clouds 14 1016 76 10000 2.6 300 23:38 19.04.2020
4441 Clouds 14 1015 76 10000 2.6 310 23:19 19.04.2020
4442 Clouds 15 1015 76 10000 3.1 310 22:41 19.04.2020
4443 Clouds 15 1015 76 10000 3.1 310 22:23 19.04.2020
4444 Clouds 15 1015 76 10000 4.1 320 21:58 19.04.2020
4445 Clouds 15 1014 72 10000 3.6 300 21:40 19.04.2020
4446 Clouds 15 1014 72 10000 3.6 300 21:21 19.04.2020
4447 Clouds 15 1014 72 10000 4.1 300 20:55 19.04.2020
4448 Clouds 16 1014 67 10000 4.1 310 20:37 19.04.2020
4449 Clouds 16 1014 59 10000 5.1 320 20:19 19.04.2020
4450 Clouds 17 1014 55 10000 5.7 290 19:41 19.04.2020
4451 Clouds 17 1014 55 10000 5.7 290 19:23 19.04.2020
4452 Clouds 17 1014 63 10000 6.2 290 18:58 19.04.2020
4453 Clouds 17 1013 59 10000 5.7 290 18:40 19.04.2020
4454 Clouds 17 1013 59 10000 5.7 290 18:40 19.04.2020
4455 Clouds 17 1013 59 10000 5.7 290 18:21 19.04.2020
4456 Clouds 17 1014 59 10000 6.2 310 17:59 19.04.2020
4457 Clouds 18 1014 63 10000 5.7 320 17:40 19.04.2020
4458 Clouds 17 1014 63 10000 5.7 320 17:22 19.04.2020
4459 Clouds 17 1014 59 10000 5.1 310 16:58 19.04.2020
4460 Clouds 17 1014 63 10000 6.2 320 16:39 19.04.2020
4461 Clouds 17 1014 63 10000 6.2 320 16:21 19.04.2020
4462 Clouds 18 1014 63 10000 6.2 330 15:43 19.04.2020
4463 Clouds 18 1014 63 10000 6.2 330 15:43 19.04.2020
4464 Clouds 18 1014 63 10000 6.2 330 15:23 19.04.2020
4465 Clouds 18 1014 63 10000 6.2 330 15:23 19.04.2020
4466 Clouds 17 1014 59 10000 6.7 330 14:56 19.04.2020
4467 Clouds 17 1015 59 10000 5.1 300 14:38 19.04.2020
4468 Clouds 17 1015 59 10000 5.1 300 14:19 19.04.2020
4469 Clouds 17 1015 55 10000 5.1 310 13:41 19.04.2020
4470 Clouds 17 1015 55 10000 5.1 310 13:22 19.04.2020
4471 Clouds 17 1015 59 10000 5.1 330 12:59 19.04.2020
4472 Clouds 17 1015 63 10000 5.1 330 12:41 19.04.2020
4473 Clouds 17 1015 63 10000 5.1 330 12:23 19.04.2020
4474 Clouds 17 1015 63 10000 5.1 330 12:23 19.04.2020
4475 Clouds 16 1015 77 10000 5.1 350 11:38 19.04.2020
4476 Clouds 16 1015 77 10000 5.1 350 11:19 19.04.2020
4477 Clouds 15 1015 82 10000 4.1 340 10:58 19.04.2020
4478 Clouds 15 1015 87 10000 3.1 330 10:40 19.04.2020
4479 Clouds 15 1015 87 10000 3.1 330 10:20 19.04.2020
4480 Clouds 14 1015 82 10000 3.1 330 09:46 19.04.2020
4481 Clouds 14 1015 87 10000 2.6 310 09:28 19.04.2020
4482 Clouds 13 1014 93 10000 2.6 320 08:59 19.04.2020
4483 Clouds 13 1014 93 10000 3.1 320 08:38 19.04.2020
4484 Clouds 13 1014 93 10000 3.1 320 08:18 19.04.2020
4485 Clouds 13 1014 93 10000 3.1 330 07:44 19.04.2020
4486 Clouds 13 1014 93 10000 3.1 330 07:24 19.04.2020
4487 Clouds 13 1014 93 10000 2.6 340 06:32 19.04.2020
4488 Clouds 13 1014 93 10000 3.1 340 05:58 19.04.2020
4489 Clouds 13 1014 87 10000 3.6 340 04:54 19.04.2020
4490 Clouds 14 1014 93 10000 2.6 320 03:21 19.04.2020
4491 Clouds 14 1014 87 10000 4.6 320 02:22 19.04.2020
4492 Clouds 14 1014 87 10000 5.1 320 01:39 19.04.2020
4493 Clouds 14 1014 87 10000 5.1 320 01:18 19.04.2020
4494 Clouds 15 1014 87 10000 4.6 310 00:38 19.04.2020
4495 Clouds 15 1014 87 10000 4.6 310 00:19 19.04.2020
4496 Clouds 15 1014 87 10000 4.6 320 23:40 18.04.2020
4497 Clouds 15 1014 87 10000 5.7 310 23:19 18.04.2020
4498 Clouds 15 1014 82 10000 5.1 310 22:43 18.04.2020
4499 Clouds 15 1014 82 10000 5.1 310 22:23 18.04.2020
4500 Clouds 16 1014 77 10000 5.1 300 21:58 18.04.2020
4501 Clouds 16 1013 72 10000 5.1 310 21:38 18.04.2020
4502 Clouds 16 1013 72 10000 5.1 310 21:20 18.04.2020
4503 Clouds 16 1013 67 10000 4.6 310 20:54 18.04.2020
4504 Clouds 18 1013 59 10000 5.1 300 20:36 18.04.2020
4505 Clouds 17 1013 59 10000 5.1 300 20:18 18.04.2020
4506 Clouds 19 1013 52 10000 4.1 310 19:40 18.04.2020
4507 Clouds 19 1013 52 10000 4.1 310 19:22 18.04.2020
4508 Clouds 20 1013 63 10000 3.6 120 18:39 18.04.2020
4509 Clouds 20 1013 63 10000 3.6 120 18:20 18.04.2020
4510 Clouds 20 1013 59 10000 1.5 200 17:57 18.04.2020
4511 Clouds 20 1014 59 10000 1 0 17:38 18.04.2020
4512 Clouds 20 1014 59 10000 2.1 180 17:18 18.04.2020
4513 Clouds 20 1014 59 10000 1.5 0 16:43 18.04.2020
4514 Clouds 20 1014 59 10000 1.5 0 16:22 18.04.2020
4515 Clouds 20 1015 56 10000 2.1 0 15:55 18.04.2020
4516 Clouds 19 1015 63 10000 3.1 100 15:37 18.04.2020
4517 Clouds 19 1015 59 10000 2.6 80 15:19 18.04.2020
4518 Clouds 19 1015 68 10000 2.1 90 14:44 18.04.2020
4519 Clouds 19 1015 68 10000 2.1 90 14:20 18.04.2020
4520 Clouds 17 1016 68 10000 3.6 90 13:43 18.04.2020
4521 Clouds 18 1016 68 10000 3.6 90 13:21 18.04.2020
4522 Clouds 17 1016 72 10000 1 0 12:55 18.04.2020
4523 Clouds 17 1016 77 10000 1 0 12:36 18.04.2020
4524 Clouds 17 1016 77 10000 1 0 12:18 18.04.2020
4525 Clouds 16 1016 87 10000 2.1 50 11:41 18.04.2020
4526 Clouds 15 1016 87 10000 2.1 50 11:22 18.04.2020
4527 Clouds 15 1016 87 10000 2.1 50 11:22 18.04.2020
4528 Clouds 15 1016 82 10000 2.1 70 10:57 18.04.2020
4529 Clouds 15 1016 87 10000 1.5 40 10:36 18.04.2020
4530 Clouds 14 1016 87 10000 1.5 40 10:18 18.04.2020
4531 Clouds 13 1016 100 10000 2.1 320 09:41 18.04.2020
4532 Clouds 12 1016 100 10000 2.1 320 09:21 18.04.2020
4533 Clouds 11 1015 93 10000 0.5 0 08:43 18.04.2020
4534 Clouds 11 1015 93 10000 0.5 0 08:23 18.04.2020
4535 Clouds 12 1015 100 10000 1 0 07:51 18.04.2020
4536 Clouds 11 1015 100 10000 1 0 07:32 18.04.2020
4537 Clouds 11 1015 100 10000 1 0 06:50 18.04.2020
4538 Clouds 12 1015 100 10000 2.1 40 05:50 18.04.2020
4539 Clouds 11 1015 100 10000 1.5 10 04:57 18.04.2020
4540 Clouds 12 1015 93 10000 1.54 98 04:39 18.04.2020
4541 Clouds 12 1015 93 10000 1.54 98 04:18 18.04.2020
4542 Clear 12 1015 93 10000 1 280 02:42 18.04.2020
4543 Clear 13 1015 93 10000 1 280 02:21 18.04.2020
4544 Clear 12 1015 93 10000 1 280 02:21 18.04.2020
4545 Clear 12 1015 93 10000 1 280 02:21 18.04.2020
4546 Clear 13 1015 93 10000 1.5 280 01:48 18.04.2020
4547 Clear 13 1015 93 10000 0.5 0 01:28 18.04.2020
4548 Clear 14 1015 82 10000 1 240 00:38 18.04.2020
4549 Clear 14 1015 82 10000 1 240 00:20 18.04.2020
4550 Clouds 15 1015 82 10000 2.6 250 23:41 17.04.2020
4551 Clouds 15 1015 82 10000 2.6 250 23:20 17.04.2020
4552 Clouds 15 1015 77 10000 2.1 240 23:00 17.04.2020
4553 Clouds 15 1015 77 10000 2.1 240 22:59 17.04.2020
4554 Clouds 15 1015 82 10000 2.6 220 22:40 17.04.2020
4555 Clouds 15 1015 82 10000 2.6 220 22:21 17.04.2020
4556 Clouds 16 1015 82 10000 4.1 210 21:58 17.04.2020
4557 Clouds 16 1014 82 10000 3.6 220 21:40 17.04.2020
4558 Clouds 16 1014 82 10000 3.6 220 21:20 17.04.2020
4559 Clouds 17 1014 72 10000 4.1 210 20:56 17.04.2020
4560 Clouds 17 1014 72 10000 4.1 210 20:56 17.04.2020
4561 Clouds 17 1014 72 10000 4.6 210 20:37 17.04.2020
4562 Clouds 17 1014 72 10000 4.6 210 20:18 17.04.2020
4563 Clouds 17 1014 67 10000 4.6 220 20:18 17.04.2020
4564 Clouds 17 1014 67 10000 4.6 220 19:55 17.04.2020
4565 Clouds 18 1014 67 10000 5.1 220 19:37 17.04.2020
4566 Clouds 18 1014 63 10000 5.1 230 19:18 17.04.2020
4567 Clouds 18 1014 63 10000 5.7 210 18:40 17.04.2020
4568 Clouds 18 1014 63 10000 5.7 210 18:21 17.04.2020
4569 Clouds 18 1014 59 10000 5.7 220 17:38 17.04.2020
4570 Clouds 18 1014 59 10000 5.7 220 17:20 17.04.2020
4571 Clouds 19 1014 59 10000 5.7 220 16:59 17.04.2020
4572 Clouds 19 1014 59 10000 7.2 220 16:41 17.04.2020
4573 Clouds 18 1014 59 10000 7.2 220 16:21 17.04.2020
4574 Clouds 19 1014 63 10000 6.7 220 15:39 17.04.2020
4575 Clouds 19 1014 63 10000 6.7 220 15:21 17.04.2020
4576 Clouds 18 1014 63 10000 6.7 230 14:55 17.04.2020
4577 Clouds 18 1014 68 10000 6.7 210 14:36 17.04.2020
4578 Clouds 18 1014 67 10000 6.7 220 14:18 17.04.2020
4579 Clouds 17 1014 67 10000 7.7 210 13:40 17.04.2020
4580 Clouds 17 1014 67 10000 7.7 210 13:40 17.04.2020
4581 Clouds 17 1014 67 10000 7.7 210 13:20 17.04.2020
4582 Clouds 17 1013 67 10000 6.2 220 12:48 17.04.2020
4583 Clouds 17 1013 67 10000 6.2 220 12:28 17.04.2020
4584 Clouds 16 1013 82 10000 6.7 230 11:59 17.04.2020
4585 Clouds 16 1013 77 10000 7.2 210 11:40 17.04.2020
4586 Clouds 16 1013 77 10000 7.2 210 11:19 17.04.2020
4587 Clouds 16 1013 87 10000 5.7 220 10:40 17.04.2020
4588 Clouds 15 1013 87 10000 5.7 220 10:20 17.04.2020
4589 Clouds 15 1012 87 10000 4.6 220 09:55 17.04.2020
4590 Clouds 15 1012 93 10000 3.6 220 09:37 17.04.2020
4591 Clouds 15 1012 93 10000 3.6 220 09:18 17.04.2020
4592 Rain 15 1011 92 0 1.79 221 08:47 17.04.2020
4593 Rain 15 1011 92 0 1.79 221 08:47 17.04.2020
4594 Clouds 14 1011 93 10000 4.1 210 08:27 17.04.2020
4595 Clouds 14 1011 93 10000 4.1 210 07:57 17.04.2020
4596 Clouds 14 1011 93 10000 4.1 210 07:39 17.04.2020
4597 Clouds 14 1011 93 10000 4.1 210 07:18 17.04.2020
4598 Clouds 14 1011 93 10000 5.1 200 06:43 17.04.2020
4599 Clouds 15 1011 93 10000 6.7 200 05:58 17.04.2020
4600 Clouds 15 1012 93 10000 6.7 200 03:24 17.04.2020
4601 Clouds 15 1012 93 10000 7.2 200 02:52 17.04.2020
4602 Clouds 15 1011 93 10000 6.7 190 01:41 17.04.2020
4603 Clouds 15 1011 93 10000 6.7 190 01:19 17.04.2020
4604 Clouds 15 1011 93 10000 6.2 200 00:21 17.04.2020
4605 Clouds 15 1011 93 10000 5.7 210 23:55 16.04.2020
4606 Clouds 15 1011 93 10000 5.7 210 23:36 16.04.2020
4607 Clouds 15 1011 93 10000 6.2 200 23:18 16.04.2020
4608 Clouds 15 1011 93 10000 7.7 200 22:39 16.04.2020
4609 Clouds 15 1010 93 10000 7.2 200 22:21 16.04.2020
4610 Clouds 15 1010 93 10000 6.7 200 21:58 16.04.2020
4611 Clouds 15 1010 93 10000 6.7 200 21:40 16.04.2020
4612 Rain 16 1010 87 10000 9.3 190 21:19 16.04.2020
4613 Clouds 15 1010 93 10000 7.2 210 20:42 16.04.2020
4614 Clouds 15 1010 93 10000 7.2 210 20:42 16.04.2020
4615 Rain 16 1010 93 3800 6.7 210 20:22 16.04.2020
4616 Rain 16 1010 93 3800 6.7 210 19:59 16.04.2020
4617 Rain 16 1010 93 3800 6.7 210 19:39 16.04.2020
4618 Clouds 16 1009 87 10000 7.7 210 19:19 16.04.2020
4619 Rain 16 1009 82 10000 10.3 200 18:56 16.04.2020
4620 Rain 16 1009 87 10000 12.3 190 18:37 16.04.2020
4621 Rain 17 1009 87 10000 12.3 190 18:19 16.04.2020
4622 Clouds 17 1009 82 10000 10.8 200 17:42 16.04.2020
4623 Clouds 17 1009 82 10000 10.8 200 17:24 16.04.2020
4624 Rain 17 1009 87 6000 9.3 180 16:55 16.04.2020
4625 Rain 17 1009 87 6000 9.3 180 16:37 16.04.2020
4626 Clouds 17 1009 77 10000 7.7 170 16:19 16.04.2020
4627 Clouds 17 1010 93 10000 7.2 170 15:41 16.04.2020
4628 Rain 17 1010 93 10000 8.2 190 15:19 16.04.2020
4629 Rain 17 1010 93 10000 8.2 190 15:19 16.04.2020
4630 Rain 17 1010 93 10000 8.2 190 14:58 16.04.2020
4631 Rain 16 1010 93 10000 8.2 190 14:38 16.04.2020
4632 Clouds 17 1010 72 10000 9.8 180 14:19 16.04.2020
4633 Rain 16 1010 82 10000 9.3 190 13:56 16.04.2020
4634 Rain 16 1010 82 10000 9.3 190 13:36 16.04.2020
4635 Rain 16 1010 82 10000 9.3 190 13:18 16.04.2020
4636 Clouds 16 1010 82 10000 10.8 190 12:56 16.04.2020
4637 Clouds 16 1010 82 10000 10.8 190 12:37 16.04.2020
4638 Clouds 16 1009 77 10000 10.3 190 12:18 16.04.2020
4639 Clouds 16 1009 87 10000 8.7 190 11:41 16.04.2020
4640 Clouds 15 1009 87 10000 7.7 190 11:22 16.04.2020
4641 Clouds 15 1009 93 10000 5.7 200 10:57 16.04.2020
4642 Clouds 15 1009 93 10000 5.7 200 10:39 16.04.2020
4643 Clouds 14 1009 87 10000 5.7 170 10:19 16.04.2020
4644 Clouds 14 1008 87 10000 5.1 170 09:57 16.04.2020
4645 Clouds 14 1008 87 10000 5.1 170 09:38 16.04.2020
4646 Rain 14 1008 87 10000 6.2 170 09:19 16.04.2020
4647 Clouds 14 1008 93 10000 6.7 170 08:42 16.04.2020
4648 Rain 14 1008 100 10000 5.7 150 08:22 16.04.2020
4649 Rain 14 1008 100 10000 5.7 150 07:46 16.04.2020
4650 Rain 13 1008 93 9000 4.6 150 07:26 16.04.2020
4651 Rain 14 1009 93 9000 6.2 160 06:44 16.04.2020
4652 Rain 13 1009 93 9000 4.1 170 06:25 16.04.2020
4653 Rain 13 1009 100 4000 3.6 120 05:37 16.04.2020
4654 Clouds 15 1011 87 10000 3.6 150 03:59 16.04.2020
4655 Clouds 15 1011 93 10000 3.1 150 03:23 16.04.2020
4656 Clouds 15 1011 93 10000 3.1 150 02:49 16.04.2020
4657 Clouds 15 1012 93 10000 3.1 160 02:31 16.04.2020
4658 Clouds 15 1012 93 10000 3.1 150 01:19 16.04.2020
4659 Clouds 15 1011 87 10000 2.6 150 00:34 16.04.2020
4660 Clouds 15 1012 82 10000 5.1 170 23:59 15.04.2020
4661 Clouds 15 1012 82 10000 5.1 170 23:41 15.04.2020
4662 Clouds 15 1012 82 10000 5.1 180 23:22 15.04.2020
4663 Clouds 15 1011 82 10000 6.2 190 22:41 15.04.2020
4664 Clouds 15 1011 82 10000 6.2 190 22:22 15.04.2020
4665 Clouds 15 1011 82 10000 6.7 200 21:59 15.04.2020
4666 Clouds 15 1011 82 10000 6.7 200 21:41 15.04.2020
4667 Clouds 15 1010 82 10000 7.2 200 21:23 15.04.2020
4668 Rain 16 1010 82 10000 6.7 210 20:58 15.04.2020
4669 Rain 16 1010 82 10000 6.7 210 20:40 15.04.2020
4670 Rain 16 1010 82 10000 6.7 210 20:22 15.04.2020
4671 Rain 16 1010 82 10000 6.7 210 20:22 15.04.2020
4672 Rain 16 1010 72 10000 7.7 210 19:46 15.04.2020
4673 Rain 16 1009 77 10000 8.7 210 19:21 15.04.2020
4674 Clouds 16 1009 72 10000 9.3 210 18:58 15.04.2020
4675 Clouds 16 1009 72 10000 9.3 210 18:40 15.04.2020
4676 Rain 16 1009 72 10000 8.2 200 18:21 15.04.2020
4677 Rain 16 1009 72 10000 8.2 200 18:21 15.04.2020
4678 Clouds 16 1009 67 10000 8.7 220 17:55 15.04.2020
4679 Clouds 17 1009 67 10000 8.7 220 17:36 15.04.2020
4680 Clouds 17 1009 67 10000 8.7 220 17:36 15.04.2020
4681 Clouds 17 1008 67 10000 8.7 210 17:18 15.04.2020
4682 Clouds 17 1008 67 10000 8.7 210 16:54 15.04.2020
4683 Clouds 17 1008 67 10000 8.7 210 16:36 15.04.2020
4684 Clouds 17 1008 67 10000 9.3 210 16:18 15.04.2020
4685 Clouds 17 1007 77 10000 9.3 210 15:55 15.04.2020
4686 Clouds 16 1007 77 10000 9.3 210 15:36 15.04.2020
4687 Clouds 16 1007 72 10000 8.2 220 15:18 15.04.2020
4688 Clouds 16 1006 72 10000 9.3 210 14:42 15.04.2020
4689 Clouds 16 1006 77 10000 8.7 210 14:23 15.04.2020
4690 Clouds 15 1006 77 10000 8.7 210 14:00 15.04.2020
4691 Clouds 15 1006 77 10000 8.7 210 13:40 15.04.2020
4692 Clouds 15 1006 82 10000 7.7 220 13:21 15.04.2020
4693 Rain 15 1006 87 10000 7.2 220 12:59 15.04.2020
4694 Rain 15 1006 87 10000 7.2 220 12:41 15.04.2020
4695 Clouds 14 1006 87 10000 6.7 210 12:22 15.04.2020
4696 Clouds 14 1005 93 10000 3.1 140 11:58 15.04.2020
4697 Clouds 14 1005 93 10000 3.1 140 11:38 15.04.2020
4698 Clouds 13 1005 100 10000 3.1 120 11:20 15.04.2020
4699 Clouds 13 1004 100 10000 4.1 110 10:38 15.04.2020
4700 Rain 13 1004 100 10000 4.6 110 10:20 15.04.2020
4701 Rain 12 1004 100 7000 3.6 120 09:57 15.04.2020
4702 Rain 13 1004 100 7000 3.6 120 09:38 15.04.2020
4703 Clouds 12 1004 100 10000 3.6 110 09:20 15.04.2020
4704 Clouds 12 1004 100 10000 3.6 110 08:55 15.04.2020
4705 Clouds 12 1004 100 10000 4.1 100 08:36 15.04.2020
4706 Clouds 12 1004 100 10000 4.1 100 08:18 15.04.2020
4707 Clouds 12 1004 100 10000 4.1 100 07:46 15.04.2020
4708 Clouds 12 1004 100 10000 3.6 110 07:27 15.04.2020
4709 Rain 12 1004 100 10000 2.1 110 06:29 15.04.2020
4710 Rain 12 1005 93 10000 3.1 120 05:49 15.04.2020
4711 Clouds 12 1005 93 10000 3.6 110 04:48 15.04.2020
4712 Clouds 12 1005 93 10000 3.6 120 04:23 15.04.2020
4713 Clouds 13 1005 100 10000 3.6 140 03:23 15.04.2020
4714 Clouds 13 1006 100 10000 4.1 130 02:50 15.04.2020
4715 Clouds 13 1006 87 10000 4.1 130 01:53 15.04.2020
4716 Clouds 13 1006 87 10000 4.1 130 01:25 15.04.2020
4717 Clouds 13 1006 93 10000 3.1 140 00:51 15.04.2020
4718 Rain 13 1005 100 10000 4.6 160 00:29 15.04.2020
4719 Rain 14 1005 87 10000 6.2 170 23:56 14.04.2020
4720 Rain 14 1005 87 10000 6.2 170 23:56 14.04.2020
4721 Rain 14 1005 87 10000 6.2 170 23:38 14.04.2020
4722 Clouds 14 1005 82 10000 5.7 170 23:20 14.04.2020
4723 Thunderstorm 14 1005 87 10000 5.1 190 22:57 14.04.2020
4724 Thunderstorm 14 1005 87 10000 5.1 190 22:39 14.04.2020
4725 Thunderstorm 14 1005 87 10000 4.6 210 22:20 14.04.2020
4726 Rain 15 1005 93 10000 3.6 80 21:57 14.04.2020
4727 Rain 15 1005 93 10000 3.6 80 21:39 14.04.2020
4728 Thunderstorm 15 1004 93 10000 2.1 110 21:19 14.04.2020
4729 Thunderstorm 15 1005 93 10000 3.6 90 20:58 14.04.2020
4730 Thunderstorm 15 1005 93 10000 3.6 90 20:39 14.04.2020
4731 Rain 15 1004 93 10000 3.1 110 20:20 14.04.2020
4732 Thunderstorm 16 1005 93 10000 4.1 100 19:41 14.04.2020
4733 Thunderstorm 16 1005 93 10000 4.1 100 19:23 14.04.2020
4734 Thunderstorm 16 1004 82 7000 9.3 120 18:58 14.04.2020
4735 Thunderstorm 16 1004 82 7000 9.3 120 18:39 14.04.2020
4736 Clouds 17 1005 93 2000 8.2 110 18:21 14.04.2020
4737 Clouds 18 1005 68 10000 6.7 100 17:58 14.04.2020
4738 Clouds 18 1005 68 10000 6.7 100 17:38 14.04.2020
4739 Clouds 19 1005 52 10000 4.1 110 17:19 14.04.2020
4740 Clouds 19 1006 49 10000 4.6 170 16:56 14.04.2020
4741 Clouds 19 1006 49 10000 4.6 170 16:38 14.04.2020
4742 Clouds 19 1006 48 10000 5.1 180 16:19 14.04.2020
4743 Clouds 19 1007 49 10000 6.7 170 15:55 14.04.2020
4744 Clouds 19 1007 49 10000 6.7 170 15:37 14.04.2020
4745 Clouds 19 1007 55 10000 5.7 140 15:18 14.04.2020
4746 Clouds 19 1007 55 10000 5.1 130 14:55 14.04.2020
4747 Clouds 18 1007 55 10000 5.1 130 14:37 14.04.2020
4748 Clouds 18 1007 55 10000 5.1 130 14:19 14.04.2020
4749 Clouds 18 1007 55 10000 5.1 130 14:19 14.04.2020
4750 Clouds 18 1008 63 10000 4.6 150 13:40 14.04.2020
4751 Clouds 17 1008 67 10000 5.1 130 13:22 14.04.2020
4752 Clouds 16 1008 77 10000 4.1 140 12:54 14.04.2020
4753 Clouds 16 1008 77 10000 4.1 140 12:36 14.04.2020
4754 Clouds 15 1008 87 10000 3.6 140 12:18 14.04.2020
4755 Clouds 14 1008 100 10000 3.1 120 11:40 14.04.2020
4756 Clouds 14 1008 93 10000 4.1 100 11:20 14.04.2020
4757 Clouds 13 1008 93 10000 3.1 100 10:47 14.04.2020
4758 Clouds 13 1008 93 10000 3.6 110 10:28 14.04.2020
4759 Clouds 12 1007 100 10000 1.5 100 09:59 14.04.2020
4760 Clouds 12 1007 100 10000 1.5 100 09:41 14.04.2020
4761 Clouds 12 1007 93 10000 3.1 40 09:22 14.04.2020
4762 Clouds 11 1007 93 10000 2.1 40 08:44 14.04.2020
4763 Clouds 11 1007 93 10000 1 40 08:26 14.04.2020
4764 Clouds 12 1007 93 10000 1 30 07:59 14.04.2020
4765 Clouds 12 1007 93 10000 1 30 07:41 14.04.2020
4766 Clouds 12 1008 73 0 1.89 105 07:22 14.04.2020
4767 Rain 11 1007 93 10000 1 60 06:45 14.04.2020
4768 Clouds 11 1008 87 10000 1 360 05:40 14.04.2020
4769 Clouds 11 1009 76 10000 1 0 03:27 14.04.2020
4770 Clouds 11 1008 71 10000 1 330 02:33 14.04.2020
4771 Clouds 12 1008 71 10000 0.28 113 01:27 14.04.2020
4772 Clouds 12 1008 71 10000 1.5 330 00:50 14.04.2020
4773 Clouds 12 1008 62 10000 2.1 280 00:24 14.04.2020
4774 Clouds 12 1008 62 10000 2.1 280 23:57 13.04.2020
4775 Clouds 13 1008 62 10000 2.1 280 23:37 13.04.2020
4776 Clouds 13 1008 62 10000 1.5 280 23:18 13.04.2020
4777 Clouds 13 1007 62 10000 2.1 300 22:42 13.04.2020
4778 Clouds 13 1007 62 10000 3.1 310 22:22 13.04.2020
4779 Clouds 14 1007 62 10000 3.1 290 21:58 13.04.2020
4780 Clouds 14 1007 62 10000 3.1 290 21:39 13.04.2020
4781 Clouds 14 1006 58 10000 2.6 290 21:20 13.04.2020
4782 Rain 14 1006 71 10000 3.1 200 20:57 13.04.2020
4783 Rain 14 1006 71 10000 3.1 200 20:38 13.04.2020
4784 Rain 14 1006 71 10000 3.1 200 20:38 13.04.2020
4785 Clouds 15 1006 51 10000 2.1 240 20:19 13.04.2020
4786 Clouds 15 1006 51 10000 2.1 240 19:57 13.04.2020
4787 Clouds 15 1006 51 10000 2.1 240 19:37 13.04.2020
4788 Clouds 15 1006 55 10000 2.6 240 19:18 13.04.2020
4789 Clouds 16 1006 59 10000 3.1 230 18:55 13.04.2020
4790 Clouds 16 1006 59 10000 3.1 230 18:36 13.04.2020
4791 Rain 15 1006 62 10000 3.1 310 18:18 13.04.2020
4792 Clouds 15 1006 67 10000 1.5 0 17:55 13.04.2020
4793 Clouds 15 1007 82 10000 3.1 130 17:36 13.04.2020
4794 Clouds 15 1007 82 10000 3.1 130 17:36 13.04.2020
4795 Clouds 15 1007 76 10000 3.1 130 17:18 13.04.2020
4796 Clouds 15 1007 63 10000 2.1 150 16:56 13.04.2020
4797 Clouds 16 1007 63 10000 2.1 150 16:37 13.04.2020
4798 Clouds 15 1007 67 10000 2.1 0 16:18 13.04.2020
4799 Clouds 15 1007 67 10000 2.1 0 16:18 13.04.2020
4800 Clouds 14 1007 76 10000 2.1 0 15:46 13.04.2020
4801 Clouds 14 1008 82 10000 5.1 330 15:28 13.04.2020
4802 Rain 13 1008 93 10000 3.1 340 14:58 13.04.2020
4803 Rain 14 1008 93 10000 3.1 340 14:40 13.04.2020
4804 Rain 13 1008 93 6000 4.1 320 14:21 13.04.2020
4805 Drizzle 13 1008 93 5000 4.6 330 13:56 13.04.2020
4806 Drizzle 13 1008 93 5000 4.6 330 13:38 13.04.2020
4807 Drizzle 13 1008 93 5000 4.6 330 13:19 13.04.2020
4808 Drizzle 13 1008 93 6000 5.1 330 12:58 13.04.2020
4809 Drizzle 13 1008 93 6000 5.1 330 12:39 13.04.2020
4810 Drizzle 13 1008 93 6000 5.1 330 12:19 13.04.2020
4811 Drizzle 13 1008 93 6000 5.1 330 12:19 13.04.2020
4812 Drizzle 13 1008 93 6000 3.1 220 11:57 13.04.2020
4813 Drizzle 13 1008 93 6000 3.1 220 11:39 13.04.2020
4814 Drizzle 13 1008 87 4000 3.6 230 11:18 13.04.2020
4815 Clouds 13 1008 87 10000 2.6 230 10:55 13.04.2020
4816 Clouds 13 1008 87 10000 2.6 230 10:36 13.04.2020
4817 Clouds 13 1009 87 10000 1.5 220 10:18 13.04.2020
4818 Clouds 13 1009 93 10000 2.6 200 09:43 13.04.2020
4819 Clouds 13 1009 93 10000 1.5 260 09:25 13.04.2020
4820 Clouds 13 1009 87 10000 2.1 290 08:45 13.04.2020
4821 Clouds 13 1009 87 10000 1.5 260 08:27 13.04.2020
4822 Clouds 13 1009 87 10000 1.5 260 07:56 13.04.2020
4823 Clouds 13 1009 87 10000 1.5 300 07:37 13.04.2020
4824 Clouds 13 1009 87 10000 1.5 300 07:18 13.04.2020
4825 Clouds 13 1009 93 10000 1.5 310 06:42 13.04.2020
4826 Clouds 13 1010 87 10000 1.5 290 05:52 13.04.2020
4827 Clouds 13 1010 87 10000 1 0 05:19 13.04.2020
4828 Clouds 13 1010 87 10000 1 0 05:19 13.04.2020
4829 Clouds 13 1011 87 10000 2.1 320 04:31 13.04.2020
4830 Clouds 13 1011 87 10000 2.1 320 04:31 13.04.2020
4831 Clouds 14 1012 87 10000 3.1 330 03:56 13.04.2020
4832 Clouds 13 1012 87 10000 3.1 330 03:34 13.04.2020
4833 Clouds 14 1012 87 10000 3.6 330 02:41 13.04.2020
4834 Clouds 14 1013 82 10000 5.1 340 01:47 13.04.2020
4835 Clouds 14 1013 82 10000 5.1 340 01:28 13.04.2020
4836 Clouds 14 1013 87 10000 4.6 330 00:50 13.04.2020
4837 Clouds 14 1013 87 10000 4.1 330 00:25 13.04.2020
4838 Clouds 14 1014 82 10000 5.7 330 23:57 12.04.2020
4839 Clouds 14 1014 82 10000 5.7 330 23:38 12.04.2020
4840 Clouds 14 1013 82 10000 6.7 330 23:20 12.04.2020
4841 Clouds 14 1013 87 10000 6.7 330 22:54 12.04.2020
4842 Clouds 15 1013 87 10000 6.7 330 22:36 12.04.2020
4843 Clouds 15 1013 82 10000 5.1 320 22:18 12.04.2020
4844 Clouds 15 1013 82 10000 6.2 320 21:38 12.04.2020
4845 Clouds 15 1012 77 10000 7.2 320 21:19 12.04.2020
4846 Clouds 16 1012 77 10000 6.7 320 20:43 12.04.2020
4847 Clouds 16 1013 72 10000 7.2 320 20:23 12.04.2020
4848 Clouds 17 1013 72 10000 7.2 320 19:59 12.04.2020
4849 Clouds 18 1013 72 10000 7.2 320 19:40 12.04.2020
4850 Clouds 18 1013 72 10000 6.2 310 19:19 12.04.2020
4851 Clouds 19 1013 64 10000 6.2 320 18:57 12.04.2020
4852 Clouds 19 1013 68 10000 5.7 330 18:39 12.04.2020
4853 Clouds 19 1013 68 10000 5.7 330 18:19 12.04.2020
4854 Clouds 20 1014 60 10000 4.1 330 17:54 12.04.2020
4855 Clouds 20 1014 60 10000 5.1 350 17:36 12.04.2020
4856 Clouds 21 1014 60 10000 5.1 350 17:18 12.04.2020
4857 Clouds 21 1014 64 10000 3.6 340 16:41 12.04.2020
4858 Clouds 21 1015 64 10000 4.1 350 16:20 12.04.2020
4859 Clouds 20 1015 64 10000 3.6 0 15:52 12.04.2020
4860 Clouds 20 1015 64 10000 3.1 350 15:31 12.04.2020
4861 Clouds 20 1016 68 10000 3.6 340 14:57 12.04.2020
4862 Clouds 20 1016 68 10000 3.6 340 14:39 12.04.2020
4863 Clouds 19 1016 72 10000 4.1 350 14:20 12.04.2020
4864 Clouds 19 1016 68 10000 3.6 80 13:55 12.04.2020
4865 Clouds 18 1016 72 10000 3.6 60 13:36 12.04.2020
4866 Clouds 18 1016 72 10000 3.6 60 13:18 12.04.2020
4867 Clouds 18 1016 72 10000 3.6 60 13:18 12.04.2020
4868 Clouds 18 1016 72 10000 3.6 60 12:45 12.04.2020
4869 Clouds 17 1016 77 10000 2.6 10 12:21 12.04.2020
4870 Clouds 17 1017 82 10000 2.6 10 11:57 12.04.2020
4871 Clouds 16 1017 82 10000 2.6 10 11:37 12.04.2020
4872 Clouds 16 1017 87 10000 3.6 340 11:18 12.04.2020
4873 Clouds 15 1017 82 10000 3.1 340 10:55 12.04.2020
4874 Clouds 15 1017 82 10000 3.1 340 10:37 12.04.2020
4875 Clouds 14 1017 87 10000 3.1 330 10:18 12.04.2020
4876 Clouds 14 1016 87 10000 2.6 320 09:54 12.04.2020
4877 Clouds 14 1016 87 10000 2.6 320 09:36 12.04.2020
4878 Clouds 13 1016 93 10000 2.6 320 09:18 12.04.2020
4879 Clouds 13 1016 93 10000 2.6 320 09:18 12.04.2020
4880 Clouds 12 1016 93 10000 2.6 320 08:46 12.04.2020
4881 Clouds 12 1016 93 10000 2.6 340 08:27 12.04.2020
4882 Clouds 12 1016 93 10000 2.6 340 07:45 12.04.2020
4883 Clouds 12 1017 93 10000 2.6 350 07:19 12.04.2020
4884 Clouds 13 1017 87 10000 2.6 350 06:36 12.04.2020
4885 Clouds 13 1017 93 10000 3.6 330 06:00 12.04.2020
4886 Clouds 13 1017 93 10000 3.6 330 05:41 12.04.2020
4887 Clouds 13 1018 87 10000 3.6 320 03:48 12.04.2020
4888 Clouds 13 1018 87 10000 4.1 320 03:25 12.04.2020
4889 Clouds 13 1018 87 10000 3.6 320 02:35 12.04.2020
4890 Clouds 13 1018 87 10000 3.6 310 01:53 12.04.2020
4891 Clouds 13 1018 87 10000 3.6 310 01:19 12.04.2020
4892 Clouds 13 1019 87 10000 4.1 320 00:42 12.04.2020
4893 Clouds 14 1019 87 10000 5.1 320 00:20 12.04.2020
4894 Clouds 14 1019 82 10000 4.6 320 23:47 11.04.2020
4895 Clouds 14 1018 87 10000 4.6 330 23:26 11.04.2020
4896 Clouds 14 1018 82 10000 5.1 320 22:55 11.04.2020
4897 Clouds 14 1018 82 10000 5.1 320 22:36 11.04.2020
4898 Clouds 14 1018 82 10000 5.7 320 22:18 11.04.2020
4899 Clouds 15 1018 77 10000 4.6 320 21:54 11.04.2020
4900 Clouds 15 1018 77 10000 4.6 320 21:36 11.04.2020
4901 Clouds 15 1018 77 10000 5.7 310 21:18 11.04.2020
4902 Clouds 15 1018 77 10000 5.7 310 21:18 11.04.2020
4903 Clouds 16 1018 72 0 5.7 320 20:54 11.04.2020
4904 Clouds 16 1018 72 0 5.7 320 20:54 11.04.2020
4905 Clouds 16 1018 72 0 5.7 320 20:36 11.04.2020
4906 Clouds 16 1018 72 0 5.7 320 20:36 11.04.2020
4907 Clouds 17 1018 68 0 5.7 330 20:18 11.04.2020
4908 Clouds 17 1018 68 10000 4.6 310 19:54 11.04.2020
4909 Clouds 18 1018 68 10000 4.6 310 19:36 11.04.2020
4910 Clouds 18 1017 63 10000 5.7 330 19:18 11.04.2020
4911 Clouds 19 1017 63 10000 5.7 330 18:54 11.04.2020
4912 Clouds 19 1017 63 10000 4.6 310 18:36 11.04.2020
4913 Clouds 19 1017 63 10000 4.6 310 18:18 11.04.2020
4914 Clouds 19 1017 63 10000 4.6 310 18:18 11.04.2020
4915 Clouds 19 1018 56 10000 4.6 350 17:56 11.04.2020
4916 Clouds 20 1018 56 10000 4.6 350 17:36 11.04.2020
4917 Clouds 20 1018 60 10000 3.6 340 17:18 11.04.2020
4918 Clouds 19 1018 63 10000 4.1 310 16:42 11.04.2020
4919 Clouds 20 1019 60 10000 4.1 310 16:21 11.04.2020
4920 Clouds 19 1019 63 10000 3.6 330 15:41 11.04.2020
4921 Clouds 19 1019 63 10000 3.6 320 15:21 11.04.2020
4922 Clouds 19 1019 63 10000 3.1 10 14:57 11.04.2020
4923 Clouds 19 1019 63 10000 3.1 10 14:39 11.04.2020
4924 Clouds 18 1020 68 10000 4.1 330 14:20 11.04.2020
4925 Clouds 18 1020 72 10000 3.6 360 13:42 11.04.2020
4926 Clouds 17 1020 67 10000 4.1 350 13:24 11.04.2020
4927 Clouds 17 1021 72 10000 3.6 330 12:59 11.04.2020
4928 Clouds 17 1021 72 10000 3.6 330 12:37 11.04.2020
4929 Clouds 17 1021 72 10000 3.6 330 12:18 11.04.2020
4930 Clouds 16 1021 82 10000 3.1 330 11:43 11.04.2020
4931 Clouds 15 1020 87 10000 2.6 310 11:21 11.04.2020
4932 Clouds 15 1020 87 10000 2.1 320 10:57 11.04.2020
4933 Clouds 15 1020 87 10000 2.1 320 10:37 11.04.2020
4934 Clouds 14 1020 93 10000 2.6 340 10:19 11.04.2020
4935 Clouds 14 1020 93 10000 2.6 320 09:57 11.04.2020
4936 Clouds 14 1020 93 10000 2.6 320 09:38 11.04.2020
4937 Clouds 14 1020 87 10000 2.6 360 09:19 11.04.2020
4938 Clouds 13 1020 100 10000 1.5 30 08:43 11.04.2020
4939 Clouds 13 1020 93 10000 1.5 20 08:23 11.04.2020
4940 Clouds 13 1020 93 10000 1.5 20 07:49 11.04.2020
4941 Clouds 13 1020 93 10000 2.6 330 07:28 11.04.2020
4942 Clouds 14 1020 93 10000 2.6 330 06:44 11.04.2020
4943 Clouds 14 1020 93 10000 3.6 340 05:59 11.04.2020
4944 Clouds 14 1021 87 10000 3.6 330 04:33 11.04.2020
4945 Clouds 14 1021 93 10000 3.1 340 03:40 11.04.2020
4946 Clouds 15 1021 87 10000 4.1 330 01:52 11.04.2020
4947 Clouds 15 1021 87 10000 4.1 320 01:20 11.04.2020
4948 Clouds 15 1022 87 10000 4.6 310 00:44 11.04.2020
4949 Clouds 15 1021 87 10000 4.6 320 00:19 11.04.2020
4950 Clouds 15 1021 87 10000 5.7 310 23:56 10.04.2020
4951 Clouds 15 1021 87 10000 5.7 310 23:56 10.04.2020
4952 Clouds 15 1021 87 10000 5.7 310 23:37 10.04.2020
4953 Clouds 15 1021 87 10000 5.1 320 23:18 10.04.2020
4954 Clouds 15 1021 82 10000 5.7 310 22:43 10.04.2020
4955 Clouds 15 1021 87 10000 5.7 310 22:21 10.04.2020
4956 Clouds 16 1021 82 10000 4.6 300 21:58 10.04.2020
4957 Clouds 16 1021 82 10000 4.6 300 21:39 10.04.2020
4958 Clouds 16 1020 82 10000 5.1 300 21:20 10.04.2020
4959 Clouds 17 1020 82 10000 4.6 310 20:41 10.04.2020
4960 Clouds 17 1020 77 10000 4.6 310 20:23 10.04.2020
4961 Clouds 18 1020 77 10000 4.6 310 19:58 10.04.2020
4962 Clouds 18 1020 77 10000 4.6 310 19:40 10.04.2020
4963 Clouds 19 1020 77 10000 4.6 300 19:20 10.04.2020
4964 Clouds 19 1020 68 10000 3.6 300 18:57 10.04.2020
4965 Clouds 19 1020 68 10000 3.6 300 18:39 10.04.2020
4966 Clouds 19 1020 72 10000 3.6 300 18:21 10.04.2020
4967 Clouds 20 1020 64 10000 2.1 180 17:58 10.04.2020
4968 Clouds 20 1020 64 10000 2.1 180 17:39 10.04.2020
4969 Clouds 20 1020 68 10000 2.1 160 17:20 10.04.2020
4970 Clouds 20 1020 72 10000 2.1 170 16:56 10.04.2020
4971 Clouds 20 1020 72 10000 2.1 170 16:37 10.04.2020
4972 Clouds 20 1021 68 10000 1.5 0 16:19 10.04.2020
4973 Clouds 20 1021 68 10000 2.1 0 15:55 10.04.2020
4974 Clouds 20 1021 68 10000 2.1 0 15:55 10.04.2020
4975 Clouds 20 1021 68 10000 2.1 0 15:36 10.04.2020
4976 Clouds 20 1021 68 10000 2.1 0 15:18 10.04.2020
4977 Clouds 20 1021 68 10000 2.1 70 14:56 10.04.2020
4978 Clouds 20 1021 68 10000 2.1 70 14:38 10.04.2020
4979 Clouds 20 1021 64 10000 1.5 0 14:18 10.04.2020
4980 Clouds 20 1021 64 10000 1.5 0 14:18 10.04.2020
4981 Clouds 19 1021 72 10000 1.5 0 13:43 10.04.2020
4982 Clouds 19 1022 72 10000 2.1 0 13:21 10.04.2020
4983 Clouds 18 1022 72 10000 2.1 0 12:43 10.04.2020
4984 Clouds 17 1022 72 10000 2.1 0 12:24 10.04.2020
4985 Clouds 17 1021 77 10000 1.5 300 11:57 10.04.2020
4986 Clouds 17 1021 77 10000 1.5 300 11:38 10.04.2020
4987 Clouds 16 1021 93 10000 1.5 330 11:20 10.04.2020
4988 Clouds 16 1021 93 10000 0.5 0 10:46 10.04.2020
4989 Clouds 15 1021 100 10000 1.4 310 10:23 10.04.2020
4990 Clouds 15 1021 93 10000 1 350 09:57 10.04.2020
4991 Clouds 15 1021 93 10000 1 350 09:39 10.04.2020
4992 Clouds 15 1020 87 10000 1.5 350 09:20 10.04.2020
4993 Clouds 14 1021 100 10000 2.16 327 08:43 10.04.2020
4994 Clouds 14 1020 93 10000 2.16 327 08:24 10.04.2020
4995 Clouds 14 1020 93 10000 2.16 327 07:46 10.04.2020
4996 Clouds 14 1020 100 10000 2.1 310 07:24 10.04.2020
4997 Clouds 14 1020 100 10000 2.1 310 06:49 10.04.2020
4998 Clouds 14 1020 100 10000 2.1 310 06:29 10.04.2020
4999 Clouds 14 1020 100 10000 3.1 320 05:42 10.04.2020
5000 Clouds 14 1020 100 10000 2.6 320 04:59 10.04.2020
5001 Clouds 15 1021 100 10000 2.1 310 03:53 10.04.2020
5002 Clouds 15 1020 100 10000 2.1 320 03:32 10.04.2020
5003 Clouds 15 1020 100 10000 1.5 290 02:49 10.04.2020
5004 Clouds 15 1020 100 10000 1.5 310 02:31 10.04.2020
5005 Clouds 16 1020 100 10000 1 0 01:30 10.04.2020
5006 Clouds 16 1021 100 10000 1.5 340 00:53 10.04.2020
5007 Clouds 16 1021 100 10000 1.5 330 00:26 10.04.2020
5008 Clouds 16 1020 100 10000 1 0 23:57 09.04.2020
5009 Clouds 16 1020 100 10000 1 0 23:38 09.04.2020
5010 Clouds 16 1020 100 10000 1 0 23:38 09.04.2020
5011 Clouds 16 1020 100 10000 2.1 320 23:20 09.04.2020
5012 Clouds 16 1020 88 10000 2.6 310 22:42 09.04.2020
5013 Clouds 16 1019 93 10000 1.5 290 22:23 09.04.2020
5014 Clouds 16 1019 93 10000 2.1 230 21:56 09.04.2020
5015 Clouds 16 1019 93 10000 2.1 230 21:37 09.04.2020
5016 Clouds 16 1019 93 10000 2.1 230 21:19 09.04.2020
5017 Clouds 16 1019 93 10000 2.1 230 21:19 09.04.2020
5018 Clouds 17 1019 93 10000 3.1 220 20:44 09.04.2020
5019 Clouds 17 1019 93 10000 3.6 230 20:21 09.04.2020
5020 Clouds 17 1019 93 10000 3.6 230 19:58 09.04.2020
5021 Clouds 17 1018 93 10000 3.6 220 19:37 09.04.2020
5022 Clouds 17 1018 93 10000 3.6 220 19:18 09.04.2020
5023 Clouds 17 1018 93 10000 4.1 230 18:42 09.04.2020
5024 Clouds 17 1018 88 10000 3.1 230 18:20 09.04.2020
5025 Clouds 17 1018 93 10000 3.1 250 17:42 09.04.2020
5026 Clouds 16 1018 100 10000 3.6 230 17:24 09.04.2020
5027 Clouds 16 1018 93 10000 4.1 230 16:56 09.04.2020
5028 Clouds 16 1018 93 10000 4.1 230 16:38 09.04.2020
5029 Clouds 16 1018 100 9000 4.1 220 16:19 09.04.2020
5030 Clouds 16 1018 93 9000 4.1 220 15:55 09.04.2020
5031 Clouds 16 1018 93 9000 4.1 220 15:37 09.04.2020
5032 Clouds 16 1019 93 9000 3.1 200 15:18 09.04.2020
5033 Drizzle 15 1019 100 9000 3.6 180 14:41 09.04.2020
5034 Drizzle 15 1019 100 8000 3.6 180 14:21 09.04.2020
5035 Drizzle 15 1019 100 8000 3.6 180 13:56 09.04.2020
5036 Drizzle 15 1019 100 8000 3.6 180 13:37 09.04.2020
5037 Drizzle 15 1019 100 6000 3.6 190 13:18 09.04.2020
5038 Drizzle 15 1019 100 7000 4.6 190 12:42 09.04.2020
5039 Drizzle 15 1019 100 3800 5.1 190 12:23 09.04.2020
5040 Drizzle 15 1018 100 5000 5.1 180 11:59 09.04.2020
5041 Drizzle 15 1018 100 5000 5.1 180 11:40 09.04.2020
5042 Drizzle 15 1018 100 7000 4.1 170 11:20 09.04.2020
5043 Drizzle 15 1018 100 3000 3.6 160 10:57 09.04.2020
5044 Drizzle 15 1018 100 3000 3.6 160 10:38 09.04.2020
5045 Rain 15 1018 100 2500 2.6 150 10:19 09.04.2020
5046 Rain 15 1018 100 6000 2.6 150 09:55 09.04.2020
5047 Rain 15 1018 100 6000 2.6 150 09:37 09.04.2020
5048 Rain 15 1018 100 6000 2.6 150 09:37 09.04.2020
5049 Rain 15 1017 93 6000 3.1 150 09:19 09.04.2020
5050 Clouds 15 1017 93 10000 2.1 190 08:43 09.04.2020
5051 Rain 15 1017 93 10000 2.1 200 08:23 09.04.2020
5052 Rain 15 1017 93 10000 2.1 200 07:55 09.04.2020
5053 Clouds 15 1017 93 10000 2.1 210 07:24 09.04.2020
5054 Rain 15 1017 93 10000 2.1 210 06:52 09.04.2020
5055 Clouds 16 1017 82 10000 3.1 210 05:59 09.04.2020
5056 Clouds 16 1017 82 10000 3.1 210 05:38 09.04.2020
5057 Clouds 16 1019 87 10000 3.6 210 03:49 09.04.2020
5058 Clouds 16 1019 82 10000 3.1 230 02:25 09.04.2020
5059 Clouds 16 1019 82 10000 2.6 200 01:40 09.04.2020
5060 Clouds 16 1019 82 10000 2.6 200 01:20 09.04.2020
5061 Clouds 16 1020 82 10000 3.1 210 00:41 09.04.2020
5062 Clouds 16 1020 82 10000 3.1 220 00:19 09.04.2020
5063 Clouds 16 1020 77 10000 1.5 210 23:57 08.04.2020
5064 Clouds 16 1020 77 10000 1.5 210 23:39 08.04.2020
5065 Clouds 16 1020 77 10000 1.5 210 23:20 08.04.2020
5066 Rain 16 1020 82 10000 2.6 220 22:42 08.04.2020
5067 Rain 16 1020 82 10000 2.6 220 22:24 08.04.2020
5068 Clouds 16 1020 77 10000 2.6 220 21:56 08.04.2020
5069 Clouds 17 1019 82 10000 3.6 220 21:37 08.04.2020
5070 Clouds 17 1019 82 10000 3.6 220 21:19 08.04.2020
5071 Clouds 17 1020 82 10000 3.6 230 20:56 08.04.2020
5072 Clouds 17 1020 82 10000 3.6 230 20:38 08.04.2020
5073 Clouds 17 1020 82 10000 3.6 230 20:19 08.04.2020
5074 -273 0 0 0 0 0 19:42 08.04.2020
5075 Clouds 18 1019 82 10000 4.1 210 19:42 08.04.2020
5076 Clouds 17 1019 82 10000 3.6 200 19:22 08.04.2020
5077 Clouds 17 1019 88 10000 3.6 210 18:56 08.04.2020
5078 Clouds 17 1019 88 10000 3.6 210 18:38 08.04.2020
5079 Clouds 17 1020 88 10000 3.6 220 18:19 08.04.2020
5080 Rain 17 1020 88 10000 4.6 230 17:42 08.04.2020
5081 Rain 17 1020 93 10000 3.1 220 17:22 08.04.2020
5082 Rain 17 1020 93 10000 3.1 220 16:59 08.04.2020
5083 Rain 18 1020 77 10000 2.6 130 16:40 08.04.2020
5084 Clouds 18 1020 77 10000 2.1 160 16:22 08.04.2020
5085 Clouds 18 1020 82 10000 3.1 140 15:39 08.04.2020
5086 Clouds 18 1020 82 10000 3.1 140 15:39 08.04.2020
5087 Clouds 18 1021 93 9000 2.1 100 15:21 08.04.2020
5088 Clouds 18 1021 93 9000 2.1 100 14:59 08.04.2020
5089 Clouds 18 1021 93 9000 2.1 100 14:41 08.04.2020
5090 Clouds 17 1021 93 9000 2.1 90 14:22 08.04.2020
5091 Clouds 17 1021 88 9000 2.1 100 13:44 08.04.2020
5092 Clouds 17 1021 88 9000 2.1 100 13:44 08.04.2020
5093 Clouds 17 1021 93 10000 2.1 100 13:21 08.04.2020
5094 Clouds 17 1021 93 10000 2.1 100 13:21 08.04.2020
5095 Clouds 16 1021 93 9000 1.5 100 12:58 08.04.2020
5096 Clouds 16 1021 93 9000 1.5 100 12:39 08.04.2020
5097 Clouds 16 1022 100 8000 1.5 110 12:18 08.04.2020
5098 Clouds 16 1021 100 6000 2.1 90 11:42 08.04.2020
5099 Clouds 16 1021 100 6000 2.1 90 11:23 08.04.2020
5100 Clouds 15 1022 100 6000 1.5 100 10:59 08.04.2020
5101 Mist 15 1022 100 1300 1.93 133 10:41 08.04.2020
5102 Mist 15 1022 100 1300 1.93 133 10:21 08.04.2020
5103 Fog 14 1021 100 500 1.5 60 09:59 08.04.2020
5104 Fog 14 1021 100 500 1.5 60 09:41 08.04.2020
5105 Fog 15 1021 100 500 1.5 60 09:19 08.04.2020
5106 Fog 14 1021 100 400 1.5 160 08:58 08.04.2020
5107 Fog 14 1021 100 400 1.5 160 08:39 08.04.2020
5108 Fog 14 1021 100 100 2.1 90 08:21 08.04.2020
5109 Fog 14 1021 100 100 2.1 90 07:43 08.04.2020
5110 Clouds 14 1021 100 10000 1.5 100 07:22 08.04.2020
5111 Clouds 14 1021 100 10000 1.5 90 06:32 08.04.2020
5112 Clouds 14 1022 100 10000 1.77 145 04:59 08.04.2020
5113 Clouds 15 1023 93 10000 2.1 210 02:51 08.04.2020
5114 Clouds 15 1023 100 10000 1 210 02:22 08.04.2020
5115 Clouds 15 1023 100 10000 2.1 230 01:56 08.04.2020
5116 Clouds 15 1023 100 10000 2.1 230 01:28 08.04.2020
5117 Clouds 15 1023 100 10000 3.1 240 00:47 08.04.2020
5118 Clouds 15 1023 100 10000 3.1 240 00:26 08.04.2020
5119 Mist 15 1022 93 1700 2.1 250 23:57 07.04.2020
5120 Mist 15 1022 93 1700 2.1 250 23:38 07.04.2020
5121 Clouds 15 1022 87 10000 2.1 240 23:19 07.04.2020
5122 Clouds 16 1022 87 10000 2.6 220 22:56 07.04.2020
5123 Clouds 16 1022 87 10000 2.6 220 22:37 07.04.2020
5124 Clouds 16 1021 72 10000 2.6 240 22:18 07.04.2020
5125 Clouds 17 1021 72 10000 2.6 240 21:42 07.04.2020
5126 Clouds 17 1021 72 10000 2.6 220 21:21 07.04.2020
5127 Clouds 18 1021 68 10000 3.1 210 20:59 07.04.2020
5128 Clouds 18 1021 68 10000 3.1 210 20:40 07.04.2020
5129 Clouds 18 1021 68 10000 3.1 210 20:21 07.04.2020
5130 Clouds 19 1021 63 10000 3.1 230 19:58 07.04.2020
5131 Clouds 19 1021 68 10000 4.1 230 19:38 07.04.2020
5132 Clouds 19 1021 68 10000 4.1 230 19:38 07.04.2020
5133 Clouds 19 1021 68 10000 4.1 230 19:20 07.04.2020
5134 Clouds 19 1021 72 10000 4.6 220 18:59 07.04.2020
5135 Clouds 19 1021 68 10000 5.1 230 18:40 07.04.2020
5136 Clouds 19 1021 68 10000 5.1 230 18:40 07.04.2020
5137 Clouds 18 1021 68 10000 5.1 220 18:21 07.04.2020
5138 Clouds 18 1021 68 10000 5.1 220 17:47 07.04.2020
5139 Clouds 19 1021 72 10000 6.2 210 17:25 07.04.2020
5140 Clouds 19 1021 72 10000 6.2 210 16:59 07.04.2020
5141 Clouds 19 1021 72 10000 6.2 220 16:41 07.04.2020
5142 Clouds 18 1021 77 10000 5.7 220 16:22 07.04.2020
5143 Clouds 19 1021 77 10000 5.7 220 15:44 07.04.2020
5144 Clouds 18 1021 82 10000 6.7 220 15:26 07.04.2020
5145 Clouds 18 1022 88 10000 6.7 210 14:55 07.04.2020
5146 Clouds 18 1022 88 10000 6.7 210 14:37 07.04.2020
5147 Clouds 18 1022 88 10000 6.2 210 14:18 07.04.2020
5148 Clouds 17 1021 93 9000 5.1 200 13:42 07.04.2020
5149 Clouds 17 1021 93 8000 3.1 150 13:19 07.04.2020
5150 Clouds 17 1021 93 8000 3.1 150 13:19 07.04.2020
5151 Clouds 17 1021 93 8000 3.1 150 12:57 07.04.2020
5152 Clouds 17 1021 93 8000 3.1 150 12:37 07.04.2020
5153 Clouds 16 1021 100 6000 3.1 140 12:19 07.04.2020
5154 Mist 16 1021 100 1200 3.1 130 11:56 07.04.2020
5155 Mist 16 1021 100 1200 3.1 130 11:38 07.04.2020
5156 Mist 16 1021 100 3000 2.1 180 11:19 07.04.2020
5157 Mist 16 1021 100 3500 1.5 200 10:39 07.04.2020
5158 Mist 15 1020 100 3000 1.5 220 10:20 07.04.2020
5159 Mist 15 1020 100 4000 2.1 180 09:56 07.04.2020
5160 Clouds 15 1020 100 7000 1.5 210 09:37 07.04.2020
5161 Clouds 15 1020 100 7000 1.5 210 09:18 07.04.2020
5162 Clouds 15 1019 100 9000 2.6 210 08:39 07.04.2020
5163 Clouds 15 1019 100 9000 2.1 210 08:20 07.04.2020
5164 Clouds 15 1019 100 9000 2.1 210 07:46 07.04.2020
5165 Clouds 15 1019 100 9000 2.1 220 07:26 07.04.2020
5166 Clouds 15 1019 100 10000 3.1 220 06:53 07.04.2020
5167 Clouds 15 1019 100 10000 2.1 230 06:26 07.04.2020
5168 Clouds 15 1019 100 10000 3.6 230 05:56 07.04.2020
5169 Mist 16 1019 100 4500 4.1 240 05:26 07.04.2020
5170 Fog 16 1019 100 600 3.1 230 04:22 07.04.2020
5171 Mist 16 1019 100 4000 3.1 220 03:23 07.04.2020
5172 Mist 16 1019 100 1100 2.1 210 02:46 07.04.2020
5173 Mist 16 1019 100 1100 2.6 210 01:40 07.04.2020
5174 Mist 16 1019 100 1100 2.6 210 01:21 07.04.2020
5175 Drizzle 16 1019 100 1100 4.1 220 00:26 07.04.2020
5176 Drizzle 16 1019 100 900 4.6 220 23:43 06.04.2020
5177 Drizzle 16 1019 100 2800 5.1 210 23:22 06.04.2020
5178 Drizzle 16 1019 100 2800 5.1 210 23:22 06.04.2020
5179 Drizzle 16 1018 100 2500 5.7 210 22:56 06.04.2020
5180 Drizzle 16 1018 100 2500 5.7 210 22:37 06.04.2020
5181 Drizzle 16 1018 100 2500 6.2 210 22:19 06.04.2020
5182 Drizzle 16 1018 100 3000 6.2 210 21:56 06.04.2020
5183 Drizzle 16 1018 100 3000 6.2 210 21:37 06.04.2020
5184 Clouds 16 1018 100 7000 6.2 200 21:18 06.04.2020
5185 Clouds 16 1018 100 7000 7.2 200 20:41 06.04.2020
5186 Clouds 16 1018 100 7000 7.2 200 20:21 06.04.2020
5187 Rain 16 1018 100 4000 7.7 200 19:58 06.04.2020
5188 Rain 16 1018 100 4000 7.7 200 19:39 06.04.2020
5189 Clouds 16 1017 100 10000 8.2 200 19:20 06.04.2020
5190 Clouds 16 1017 100 10000 6.7 200 18:45 06.04.2020
5191 Clouds 16 1017 100 9000 6.7 190 18:24 06.04.2020
5192 Clouds 16 1017 100 9000 6.7 190 18:24 06.04.2020
5193 Rain 16 1018 100 2000 4.1 140 17:59 06.04.2020
5194 Rain 15 1018 100 2000 4.1 140 17:41 06.04.2020
5195 Rain 15 1018 100 1400 4.1 150 17:19 06.04.2020
5196 Rain 15 1018 100 1400 4.1 150 16:49 06.04.2020
5197 Rain 15 1018 100 1400 4.1 150 16:49 06.04.2020
5198 Rain 15 1019 93 4500 5.7 160 16:31 06.04.2020
5199 Clouds 16 1019 100 10000 6.2 160 15:40 06.04.2020
5200 Clouds 16 1019 100 10000 6.2 160 15:40 06.04.2020
5201 Rain 15 1019 93 7000 5.1 170 13:45 06.04.2020
5202 Rain 15 1019 93 7000 5.1 170 13:23 06.04.2020
5203 Clouds 15 1019 93 10000 5.1 160 12:53 06.04.2020
5204 Clouds 15 1019 93 10000 5.1 160 12:53 06.04.2020
5205 Clouds 15 1019 93 10000 5.1 160 12:53 06.04.2020
5206 Clouds 15 1019 93 10000 4.6 160 12:21 06.04.2020
5207 Clouds 15 1019 93 10000 4.6 160 12:21 06.04.2020
5208 Rain 15 1018 100 8000 3.1 130 11:54 06.04.2020
5209 Rain 15 1018 100 8000 3.1 130 11:54 06.04.2020
5210 Rain 15 1018 100 8000 3.1 130 11:54 06.04.2020
5211 Rain 15 1018 100 8000 3.1 130 11:54 06.04.2020
5212 Rain 15 1018 100 8000 3.1 130 11:54 06.04.2020
5213 Rain 15 1018 100 8000 3.1 130 11:28 06.04.2020
5214 Rain 15 1018 100 8000 3.1 130 11:28 06.04.2020
5215 Rain 15 1018 100 8000 3.1 130 11:28 06.04.2020
5216 Rain 15 1018 100 8000 3.1 130 11:28 06.04.2020
5217 Rain 15 1018 100 8000 3.1 130 11:28 06.04.2020
5218 Clouds 15 1018 100 8000 3.1 150 10:50 06.04.2020
5219 Clouds 15 1018 100 8000 3.1 150 10:50 06.04.2020
5220 Clouds 15 1018 100 8000 3.1 150 10:50 06.04.2020
5221 Clouds 15 1018 100 8000 3.1 150 10:50 06.04.2020
5222 Clouds 15 1018 100 8000 3.1 150 10:50 06.04.2020
5223 Clouds 14 1018 100 8000 2.1 130 10:21 06.04.2020
5224 Clouds 14 1018 100 7000 2.1 150 09:44 06.04.2020
5225 Mist 14 1017 100 3000 2.1 160 09:20 06.04.2020
5226 Mist 14 1017 100 3000 2.1 150 08:53 06.04.2020
5227 Mist 14 1017 100 3000 2.1 150 08:30 06.04.2020
5228 Clouds 14 1017 93 10000 1 0 07:26 06.04.2020
5229 Fog 14 1017 100 300 1 0 06:40 06.04.2020
5230 Fog 14 1017 100 300 1 0 06:40 06.04.2020
5231 Fog 14 1017 100 300 1 0 06:18 06.04.2020
5232 Fog 14 1017 100 800 2.6 230 04:18 06.04.2020
5233 Clouds 13 1017 93 10000 2.1 170 02:56 06.04.2020
5234 Mist 14 1017 93 5000 3.1 200 02:18 06.04.2020
5235 Clouds 14 1017 93 10000 2.1 240 01:23 06.04.2020
5236 Clouds 14 1017 93 10000 2.1 230 00:41 06.04.2020
5237 Clouds 14 1017 93 10000 2.1 230 00:21 06.04.2020
5238 Clouds 14 1017 93 10000 2.1 230 00:21 06.04.2020
5239 Clouds 14 1017 93 10000 2.1 230 00:21 06.04.2020
5240 Clouds 14 1016 93 10000 2.1 260 23:41 05.04.2020
5241 Clouds 15 1016 93 10000 2.1 260 23:23 05.04.2020
5242 Clouds 15 1016 93 10000 2.1 260 23:23 05.04.2020
5243 Clouds 15 1016 93 10000 2.1 260 23:21 05.04.2020
5244 Clouds 15 1016 93 10000 2.6 250 22:54 05.04.2020
5245 Clouds 15 1016 93 10000 2.6 250 22:54 05.04.2020
5246 Clouds 15 1015 93 10000 3.1 260 22:36 05.04.2020
5247 Clouds 15 1015 87 10000 3.1 270 22:18 05.04.2020
5248 Clouds 15 1014 87 10000 3.1 270 21:44 05.04.2020
5249 Clouds 15 1014 87 10000 3.1 270 21:44 05.04.2020
5250 Clouds 15 1014 87 10000 3.1 270 21:44 05.04.2020
5251 Clouds 15 1014 87 10000 3.1 270 21:23 05.04.2020
5252 Clouds 16 1014 93 10000 4.6 260 20:25 05.04.2020
5253 Clouds 16 1014 93 10000 4.6 260 20:25 05.04.2020
5254 Clouds 16 1013 93 10000 6.2 260 20:25 05.04.2020
5255 Clouds 16 1012 93 10000 7.7 260 19:45 05.04.2020
5256 Clouds 16 1012 93 10000 7.7 260 19:26 05.04.2020
5257 Clouds 16 1011 93 8000 8.2 220 18:50 05.04.2020
5258 Clouds 17 1011 93 8000 8.2 220 18:28 05.04.2020
5259 Clouds 17 1011 93 8000 8.2 220 18:28 05.04.2020
5260 Clouds 17 1011 93 8000 8.2 220 18:28 05.04.2020
5261 Clouds 17 1011 93 8000 8.2 220 18:28 05.04.2020
5262 Clouds 17 1011 93 8000 8.2 220 18:28 05.04.2020
5263 Drizzle 17 1011 100 7000 12.9 190 17:50 05.04.2020
5264 Drizzle 17 1011 100 7000 12.9 190 17:50 05.04.2020
5265 Drizzle 17 1011 100 7000 12.9 190 17:50 05.04.2020
5266 Drizzle 17 1011 100 7000 12.9 190 17:49 05.04.2020
5267 Drizzle 17 1011 100 7000 12.9 190 17:49 05.04.2020
5268 Rain 17 1011 100 6000 10.8 180 17:23 05.04.2020
5269 Rain 17 1012 100 8000 9.3 180 16:47 05.04.2020
5270 Rain 17 1012 93 6000 9.3 190 16:19 05.04.2020
5271 Rain 17 1012 93 8000 9.3 200 15:46 05.04.2020
5272 Rain 17 1012 93 8000 9.3 200 15:46 05.04.2020
5273 Rain 16 1012 93 8000 9.3 200 15:28 05.04.2020
5274 Clouds 17 1012 93 10000 9.3 190 14:48 05.04.2020
5275 Clouds 17 1012 93 10000 9.3 190 14:48 05.04.2020
5276 Clouds 17 1012 93 10000 9.3 190 14:48 05.04.2020
5277 Clouds 17 1012 93 10000 9.3 190 14:48 05.04.2020
5278 Clouds 17 1012 93 10000 9.3 190 14:48 05.04.2020
5279 Rain 17 1012 100 10000 10.3 190 14:23 05.04.2020
5280 Rain 17 1012 100 10000 10.3 190 14:23 05.04.2020
5281 Clouds 17 1012 93 10000 9.3 190 14:23 05.04.2020
5282 Clouds 17 1012 93 10000 9.3 190 14:23 05.04.2020
5283 Clouds 17 1012 93 10000 9.3 190 14:23 05.04.2020
5284 Rain 17 1012 100 10000 10.3 190 13:40 05.04.2020
5285 Clouds 17 1012 93 10000 8.7 190 12:41 05.04.2020
5286 Clouds 17 1012 93 10000 8.7 190 12:41 05.04.2020
5287 Clouds 17 1012 93 10000 8.7 190 12:40 05.04.2020
5288 Clouds 17 1012 93 10000 8.7 190 12:40 05.04.2020
5289 Clouds 17 1012 93 10000 8.7 190 12:32 05.04.2020
5290 Drizzle 16 1012 100 9000 6.7 200 11:41 05.04.2020
5291 Drizzle 16 1011 100 9000 6.2 180 11:20 05.04.2020
5292 Drizzle 16 1011 100 9000 5.7 170 10:48 05.04.2020
5293 Rain 16 1012 100 9000 5.7 180 10:24 05.04.2020
5294 Rain 16 1012 100 9000 5.7 180 10:24 05.04.2020
5295 Drizzle 16 1011 100 9000 5.7 170 10:24 05.04.2020
5296 Drizzle 16 1011 100 9000 5.7 170 10:24 05.04.2020
5297 Rain 16 1012 100 9000 5.7 180 10:24 05.04.2020
5298 Rain 16 1012 100 9000 5.7 180 09:56 05.04.2020
5299 Rain 16 1012 100 9000 5.7 180 09:56 05.04.2020
5300 Drizzle 16 1012 100 10000 5.7 170 09:31 05.04.2020
5301 Drizzle 16 1012 100 10000 5.7 170 09:31 05.04.2020
5302 Clouds 16 1011 100 10000 5.7 170 08:39 05.04.2020
5303 Clouds 16 1011 100 10000 5.7 170 08:39 05.04.2020
5304 Clouds 16 1011 100 10000 5.7 170 08:39 05.04.2020
5305 Clouds 16 1011 100 10000 5.7 170 08:38 05.04.2020
5306 Clouds 16 1011 100 10000 5.7 170 08:38 05.04.2020
5307 Clouds 15 1011 100 10000 6.2 170 07:24 05.04.2020
5308 Clouds 15 1011 100 10000 6.2 170 07:24 05.04.2020
5309 Clouds 16 1011 82 10000 6.2 160 04:33 05.04.2020
5310 Clouds 16 1011 82 10000 6.7 160 03:29 05.04.2020
5311 Clouds 16 1011 82 10000 7.7 160 02:49 05.04.2020
5312 Clouds 16 1012 82 10000 6.2 170 01:46 05.04.2020
5313 Clouds 16 1012 82 10000 6.2 170 01:23 05.04.2020
5314 Clouds 16 1012 82 10000 6.7 170 00:43 05.04.2020
5315 Clouds 16 1012 82 10000 6.7 170 00:21 05.04.2020
5316 Clouds 16 1011 82 10000 7.2 180 23:42 04.04.2020
5317 Clouds 16 1011 82 10000 7.2 180 23:42 04.04.2020
5318 Clouds 16 1011 77 10000 7.2 180 23:23 04.04.2020
5319 Clouds 16 1011 77 10000 7.2 180 22:57 04.04.2020
5320 Clouds 16 1011 72 10000 7.2 170 22:39 04.04.2020
5321 Clouds 16 1010 77 10000 6.7 170 22:21 04.04.2020
5322 Clouds 16 1010 77 10000 6.7 170 21:58 04.04.2020
5323 Clouds 16 1010 72 10000 7.2 180 21:39 04.04.2020
5324 Clouds 16 1010 77 10000 6.2 160 21:19 04.04.2020
5325 Clouds 17 1010 77 10000 6.2 160 20:58 04.04.2020
5326 Clouds 17 1010 68 10000 7.7 170 20:39 04.04.2020
5327 Clouds 17 1010 68 10000 6.2 170 20:20 04.04.2020
5328 Clouds 17 1010 77 10000 6.2 180 19:56 04.04.2020
5329 Clouds 17 1010 68 10000 6.2 170 19:36 04.04.2020
5330 Clouds 17 1010 68 10000 5.7 170 19:18 04.04.2020
5331 Rain 17 1010 72 10000 5.7 180 18:55 04.04.2020
5332 Rain 17 1010 72 10000 5.7 180 18:37 04.04.2020
5333 Rain 17 1010 67 10000 7.2 170 18:18 04.04.2020
5334 Clouds 17 1010 68 10000 5.1 130 17:40 04.04.2020
5335 Clouds 17 1010 72 10000 4.6 130 17:20 04.04.2020
5336 Clouds 17 1010 72 10000 4.6 130 16:55 04.04.2020
5337 Clouds 17 1010 72 10000 4.1 120 16:37 04.04.2020
5338 Clouds 17 1010 72 10000 4.1 120 16:37 04.04.2020
5339 Clouds 17 1011 77 10000 4.1 130 16:18 04.04.2020
5340 Rain 16 1011 77 10000 4.1 140 15:40 04.04.2020
5341 Rain 16 1011 72 10000 5.1 130 15:22 04.04.2020
5342 Rain 16 1011 72 10000 5.1 130 14:57 04.04.2020
5343 Rain 16 1011 72 10000 5.1 130 14:57 04.04.2020
5344 Rain 15 1011 77 10000 5.1 140 14:39 04.04.2020
5345 Clouds 15 1011 72 10000 5.7 130 14:20 04.04.2020
5346 Clouds 15 1011 71 10000 4.6 110 13:55 04.04.2020
5347 Clouds 15 1011 71 10000 4.6 110 13:37 04.04.2020
5348 Clouds 15 1011 71 10000 4.6 110 13:18 04.04.2020
5349 Clouds 15 1011 71 10000 5.1 120 12:44 04.04.2020
5350 Clouds 15 1011 71 10000 4.6 120 12:23 04.04.2020
5351 Clouds 14 1011 81 10000 3.1 90 11:55 04.04.2020
5352 Clouds 14 1010 71 10000 6.2 130 11:37 04.04.2020
5353 Clouds 13 1010 87 10000 3.6 90 11:18 04.04.2020
5354 Clouds 13 1010 87 10000 3.6 90 10:55 04.04.2020
5355 Clouds 13 1010 87 10000 2.6 80 10:37 04.04.2020
5356 Clouds 13 1010 87 10000 1.5 70 10:18 04.04.2020
5357 Clouds 13 1010 87 10000 1.5 70 09:54 04.04.2020
5358 Clouds 12 1010 87 10000 2.6 70 09:36 04.04.2020
5359 Clouds 12 1010 87 10000 2.6 60 09:18 04.04.2020
5360 Clouds 12 1010 87 10000 2.6 50 08:38 04.04.2020
5361 Clouds 11 1010 87 10000 1.5 50 08:19 04.04.2020
5362 Clouds 11 1010 87 10000 1.5 50 07:40 04.04.2020
5363 Clouds 11 1010 93 10000 2.1 60 07:22 04.04.2020
5364 Clouds 11 1010 87 10000 2.1 20 06:46 04.04.2020
5365 Clouds 11 1011 81 10000 2.1 80 06:18 04.04.2020
5366 Clouds 11 1011 76 10000 1 20 05:40 04.04.2020
5367 Clouds 11 1011 76 10000 1 30 05:22 04.04.2020
5368 Clouds 11 1011 76 10000 1 30 04:25 04.04.2020
5369 Clouds 11 1012 76 10000 2.6 10 03:47 04.04.2020
5370 Clouds 12 1012 66 10000 1.5 10 02:49 04.04.2020
5371 Clouds 12 1012 66 10000 1.5 10 02:30 04.04.2020
5372 Clouds 12 1013 71 10000 1.43 76 01:51 04.04.2020
5373 Clouds 13 1013 71 10000 1.43 76 01:24 04.04.2020
5374 Clouds 13 1013 66 10000 1.43 76 00:48 04.04.2020
5375 Clouds 14 1013 66 10000 1.43 76 00:28 04.04.2020
5376 Clouds 14 1013 54 10000 1.5 280 23:39 03.04.2020
5377 Clouds 15 1013 51 10000 1.5 280 23:21 03.04.2020
5378 Clouds 15 1013 51 10000 1.5 280 22:57 03.04.2020
5379 Clouds 15 1013 51 10000 2.1 270 22:39 03.04.2020
5380 Clouds 15 1013 51 10000 3.6 250 22:18 03.04.2020
5381 Clouds 16 1013 48 10000 3.6 250 21:43 03.04.2020
5382 Clear 16 1013 42 10000 4.1 250 21:24 03.04.2020
5383 Clear 17 1013 39 10000 4.6 230 20:57 03.04.2020
5384 Clear 17 1013 39 10000 4.6 230 20:57 03.04.2020
5385 Clear 17 1013 39 10000 4.6 230 20:37 03.04.2020
5386 Clear 18 1013 39 10000 3.1 230 20:19 03.04.2020
5387 Clouds 18 1012 59 10000 4.1 260 19:57 03.04.2020
5388 Clear 19 1013 39 10000 3.1 230 19:38 03.04.2020
5389 Clear 19 1013 39 10000 3.1 230 19:38 03.04.2020
5390 Clear 19 1012 39 10000 3.1 220 19:20 03.04.2020
5391 Clear 19 1013 39 10000 4.1 240 18:58 03.04.2020
5392 Clear 19 1013 39 10000 4.1 240 18:40 03.04.2020
5393 Clouds 19 1013 42 10000 4.6 240 18:22 03.04.2020
5394 Clouds 19 1013 39 10000 5.1 220 17:54 03.04.2020
5395 Clouds 19 1013 39 10000 5.1 220 17:36 03.04.2020
5396 Clouds 19 1014 48 10000 4.6 220 17:18 03.04.2020
5397 Clouds 19 1014 48 10000 4.6 220 16:42 03.04.2020
5398 Clouds 19 1014 45 10000 3.6 180 16:21 03.04.2020
5399 Clouds 19 1014 45 10000 3.6 180 15:58 03.04.2020
5400 Clouds 19 1014 52 10000 2.1 140 15:39 03.04.2020
5401 Clouds 19 1015 52 10000 2.6 120 15:19 03.04.2020
5402 Clear 18 1016 59 10000 2.6 90 14:55 03.04.2020
5403 Clear 18 1016 59 10000 2.6 90 14:55 03.04.2020
5404 Clear 18 1016 59 10000 2.6 90 14:37 03.04.2020
5405 Clear 18 1016 59 10000 2.6 90 14:19 03.04.2020
5406 Clear 17 1016 59 10000 2.6 90 13:42 03.04.2020
5407 Clear 17 1016 63 10000 2.6 80 13:24 03.04.2020
5408 Clouds 16 1016 67 10000 2.6 110 12:44 03.04.2020
5409 Clouds 15 1016 76 10000 2.1 0 12:21 03.04.2020
5410 Clouds 15 1016 76 10000 2.1 0 11:57 03.04.2020
5411 Clouds 14 1016 82 10000 2.1 110 11:39 03.04.2020
5412 Clouds 14 1016 87 10000 2.6 60 11:21 03.04.2020
5413 Clouds 14 1016 87 10000 2.6 60 11:21 03.04.2020
5414 Clouds 13 1016 87 10000 2.6 60 10:59 03.04.2020
5415 Fog 13 1016 93 10000 1.5 50 10:39 03.04.2020
5416 Fog 12 1016 100 10000 1.86 115 10:20 03.04.2020
5417 Fog 11 1016 100 10000 1.86 115 09:59 03.04.2020
5418 Clouds 10 1016 100 10000 2.1 20 09:40 03.04.2020
5419 Clouds 10 1016 100 10000 2.1 20 09:40 03.04.2020
5420 Clouds 9 1016 100 10000 1 0 09:22 03.04.2020
5421 Clouds 9 1015 93 10000 0.5 0 08:56 03.04.2020
5422 Clouds 9 1015 93 10000 0.5 0 08:38 03.04.2020
5423 Clouds 9 1015 93 10000 0.5 0 08:20 03.04.2020
5424 Clouds 9 1015 100 10000 1 0 07:46 03.04.2020
5425 Clear 9 1015 93 10000 3.6 310 07:28 03.04.2020
5426 Clear 10 1015 87 10000 3.6 310 06:42 03.04.2020
5427 Clear 10 1015 93 10000 3.1 300 06:23 03.04.2020
5428 Clear 10 1015 87 10000 3.1 320 05:39 03.04.2020
5429 Clear 10 1016 87 10000 1.5 40 03:42 03.04.2020
5430 Clear 11 1016 81 10000 3.6 310 02:56 03.04.2020
5431 Clear 11 1016 87 10000 4.1 320 02:18 03.04.2020
5432 Clear 12 1017 81 10000 3.6 310 01:22 03.04.2020
5433 Clear 12 1017 87 10000 4.6 310 00:37 03.04.2020
5434 Clear 12 1017 87 10000 4.6 310 00:19 03.04.2020
5435 Clouds 12 1016 87 10000 4.1 310 23:42 02.04.2020
5436 Clouds 12 1016 87 10000 4.1 330 23:23 02.04.2020
5437 Clouds 12 1016 87 10000 4.1 330 22:58 02.04.2020
5438 Clouds 13 1016 82 10000 4.1 310 22:38 02.04.2020
5439 Clouds 13 1016 82 10000 4.6 300 22:20 02.04.2020
5440 Clouds 13 1016 76 10000 3.6 310 21:39 02.04.2020
5441 Clouds 14 1015 67 10000 3.6 330 21:20 02.04.2020
5442 Clouds 14 1015 67 10000 3.6 330 20:58 02.04.2020
5443 Clouds 15 1015 59 10000 3.6 310 20:40 02.04.2020
5444 Clouds 16 1015 59 10000 4.6 310 20:21 02.04.2020
5445 Clouds 16 1015 59 10000 4.6 310 19:44 02.04.2020
5446 Clouds 17 1015 51 10000 5.7 330 19:21 02.04.2020
5447 Clouds 17 1015 45 10000 4.6 300 18:59 02.04.2020
5448 Clouds 18 1015 45 10000 4.6 300 18:39 02.04.2020
5449 Clouds 17 1015 42 10000 4.6 310 18:20 02.04.2020
5450 Clouds 18 1015 42 10000 4.6 310 17:57 02.04.2020
5451 Clouds 18 1015 39 10000 4.6 300 17:39 02.04.2020
5452 Clouds 18 1015 45 10000 6.2 340 17:20 02.04.2020
5453 Clouds 18 1015 45 10000 6.2 340 16:56 02.04.2020
5454 Clouds 18 1015 39 10000 4.6 320 16:37 02.04.2020
5455 Clouds 18 1015 45 10000 6.2 330 16:19 02.04.2020
5456 Clouds 18 1015 55 10000 5.1 330 15:54 02.04.2020
5457 Clouds 17 1015 55 10000 5.1 330 15:36 02.04.2020
5458 Clouds 17 1015 55 10000 4.1 320 15:18 02.04.2020
5459 Clouds 17 1015 55 10000 3.6 320 14:40 02.04.2020
5460 Clouds 17 1015 55 10000 3.6 320 14:21 02.04.2020
5461 Clouds 17 1015 59 10000 4.1 310 13:58 02.04.2020
5462 Clouds 16 1015 59 10000 4.1 310 13:39 02.04.2020
5463 Clouds 16 1015 59 10000 4.1 310 13:21 02.04.2020
5464 Clouds 16 1015 59 10000 4.1 310 12:56 02.04.2020
5465 Clouds 16 1015 59 10000 4.1 310 12:56 02.04.2020
5466 Clouds 16 1015 59 10000 4.1 310 12:56 02.04.2020
5467 Clouds 16 1015 59 10000 3.6 10 12:37 02.04.2020
5468 Clouds 14 1015 67 10000 3.1 350 12:19 02.04.2020
5469 Clear 14 1014 71 10000 4.6 340 11:57 02.04.2020
5470 Clear 14 1014 71 10000 4.6 340 11:38 02.04.2020
5471 Clear 13 1014 76 10000 4.6 330 11:19 02.04.2020
5472 Clear 13 1014 76 10000 4.6 330 10:55 02.04.2020
5473 Clear 12 1014 76 10000 4.6 330 10:37 02.04.2020
5474 Clouds 11 1013 81 10000 3.6 320 10:19 02.04.2020
5475 Clouds 9 1013 81 10000 3.1 310 09:43 02.04.2020
5476 Clouds 9 1013 87 10000 3.1 300 09:25 02.04.2020
5477 Clouds 8 1013 87 10000 3.1 300 08:59 02.04.2020
5478 Clouds 8 1012 93 10000 1.5 290 08:40 02.04.2020
5479 Clouds 7 1012 93 10000 1.5 290 08:22 02.04.2020
5480 Clear 7 1012 87 10000 2.6 340 07:45 02.04.2020
5481 Clouds 8 1012 87 10000 2.1 310 07:20 02.04.2020
5482 Clouds 8 1012 87 10000 2.1 310 06:58 02.04.2020
5483 Clouds 8 1012 87 10000 3.1 320 06:21 02.04.2020
5484 Clouds 8 1012 87 10000 2.6 310 05:45 02.04.2020
5485 Clouds 8 1011 93 10000 2.1 330 04:35 02.04.2020
5486 Clouds 8 1011 93 10000 4.6 330 01:51 02.04.2020
5487 Clouds 8 1011 93 10000 4.1 340 00:50 02.04.2020
5488 Clouds 8 1011 93 10000 4.1 340 00:28 02.04.2020
5489 Clouds 8 1011 87 10000 2.6 330 23:57 01.04.2020
5490 Clouds 9 1010 81 10000 1.5 310 23:37 01.04.2020
5491 Clouds 9 1010 81 10000 1.5 310 23:37 01.04.2020
5492 Clouds 9 1010 81 10000 2.6 260 23:18 01.04.2020
5493 Clouds 10 1010 81 10000 1.5 240 22:41 01.04.2020
5494 Clouds 9 1009 87 10000 2.6 250 22:22 01.04.2020
5495 Clouds 10 1009 87 10000 2.6 250 21:57 01.04.2020
5496 Clouds 10 1009 76 10000 2.6 230 21:39 01.04.2020
5497 Clouds 10 1009 76 10000 2.6 250 21:18 01.04.2020
5498 Clouds 11 1009 76 10000 2.6 250 20:55 01.04.2020
5499 Rain 11 1008 71 10000 5.1 260 20:37 01.04.2020
5500 Clouds 12 1008 71 10000 3.6 270 20:18 01.04.2020
5501 Clouds 12 1008 71 10000 3.6 270 19:43 01.04.2020
5502 Clouds 12 1008 71 10000 4.1 290 19:22 01.04.2020
5503 Clouds 12 1008 71 10000 4.1 290 18:59 01.04.2020
5504 Clouds 12 1008 71 10000 4.1 290 18:59 01.04.2020
5505 Clouds 12 1008 71 10000 4.1 290 18:59 01.04.2020
5506 Clouds 13 1008 66 10000 4.1 280 18:40 01.04.2020
5507 Clouds 13 1008 76 10000 5.1 240 18:21 01.04.2020
5508 Clouds 12 1007 76 10000 6.2 240 17:56 01.04.2020
5509 Clouds 12 1007 76 10000 6.2 240 17:56 01.04.2020
5510 Clouds 12 1007 76 10000 6.2 240 17:36 01.04.2020
5511 Rain 12 1007 93 10000 5.7 190 17:18 01.04.2020
5512 Rain 12 1007 93 10000 5.7 190 16:54 01.04.2020
5513 Rain 12 1007 93 10000 5.7 190 16:36 01.04.2020
5514 Rain 11 1008 93 6000 3.6 130 16:18 01.04.2020
5515 Rain 10 1009 100 6000 3.6 110 15:42 01.04.2020
5516 Rain 10 1009 100 8000 4.1 150 15:22 01.04.2020
5517 Rain 10 1009 100 8000 4.1 150 14:58 01.04.2020
5518 Rain 10 1009 100 6000 3.6 170 14:39 01.04.2020
5519 Rain 10 1010 100 8000 2.6 180 14:20 01.04.2020
5520 Rain 10 1010 100 8000 2.6 180 13:59 01.04.2020
5521 Rain 10 1010 87 10000 2.6 230 13:38 01.04.2020
5522 Rain 10 1010 93 6000 3.1 150 13:19 01.04.2020
5523 Rain 10 1010 93 6000 3.1 150 12:57 01.04.2020
5524 Rain 10 1010 100 7000 2.1 130 12:37 01.04.2020
5525 Rain 9 1010 100 8000 3.6 140 12:18 01.04.2020
5526 Rain 9 1010 100 8000 3.6 140 12:18 01.04.2020
5527 Clouds 10 1009 93 10000 3.6 130 11:56 01.04.2020
5528 Clouds 10 1009 93 10000 3.6 130 11:37 01.04.2020
5529 Clouds 10 1009 93 10000 3.6 130 11:37 01.04.2020
5530 Clouds 10 1009 93 10000 3.6 130 11:37 01.04.2020
5531 Clouds 9 1009 100 10000 3.1 120 11:18 01.04.2020
5532 Clouds 9 1010 93 10000 2.6 100 10:38 01.04.2020
5533 Rain 8 1009 100 10000 2.6 130 10:20 01.04.2020
5534 Rain 8 1009 100 10000 2.6 130 09:58 01.04.2020
5535 Thunderstorm 8 1010 93 8000 4.6 270 09:39 01.04.2020
5536 Thunderstorm 7 1009 100 10000 1 0 09:19 01.04.2020
5537 Clouds 7 1009 100 10000 1 10 08:44 01.04.2020
5538 Clouds 8 1009 100 10000 1.5 0 08:19 01.04.2020
5539 Clouds 7 1009 100 10000 2.85 230 07:56 01.04.2020
5540 Clouds 7 1009 100 10000 2.85 230 07:38 01.04.2020
5541 Clouds 7 1009 100 10000 2.85 230 07:18 01.04.2020
5542 Clouds 7 1009 100 10000 0.5 0 06:39 01.04.2020
5543 Clouds 7 1009 93 10000 4.16 208 06:20 01.04.2020
5544 Clouds 8 1009 93 10000 2.1 230 04:55 01.04.2020
5545 Clouds 8 1009 93 10000 2.6 270 03:36 01.04.2020
5546 Clouds 8 1009 81 10000 1.5 190 02:59 01.04.2020
5547 Clouds 8 1009 93 10000 1 230 02:31 01.04.2020
5548 Clouds 8 1009 81 10000 1 180 01:46 01.04.2020
5549 Clouds 9 1009 81 10000 1 180 01:24 01.04.2020
5550 Clouds 9 1009 76 10000 1.5 260 00:47 01.04.2020
5551 Clouds 10 1009 70 10000 2.1 270 00:22 01.04.2020
5552 Clouds 9 1009 75 10000 3.19 272 23:55 31.03.2020
5553 Clouds 9 1009 75 10000 3.19 272 23:37 31.03.2020
5554 Clouds 10 1009 70 10000 1 0 23:19 31.03.2020
5555 Clouds 10 1009 70 10000 2.1 230 22:40 31.03.2020
5556 Clouds 10 1008 61 10000 2.6 240 22:21 31.03.2020
5557 Clouds 10 1008 57 10000 3.1 260 21:58 31.03.2020
5558 Clouds 10 1008 57 10000 3.1 260 21:39 31.03.2020
5559 Clouds 11 1007 57 10000 4.6 250 21:21 31.03.2020
5560 Clouds 11 1007 57 10000 3.6 270 20:57 31.03.2020
5561 Clouds 11 1006 57 10000 4.1 260 20:37 31.03.2020
5562 Clouds 11 1006 57 10000 4.1 260 20:19 31.03.2020
5563 Clouds 11 1006 54 10000 4.1 270 19:56 31.03.2020
5564 Clouds 11 1006 54 10000 4.1 270 19:37 31.03.2020
5565 Clouds 11 1006 57 10000 4.6 270 19:19 31.03.2020
5566 Clouds 12 1006 62 10000 4.6 280 18:43 31.03.2020
5567 Clouds 12 1005 58 10000 5.7 260 18:20 31.03.2020
5568 Clouds 12 1005 50 10000 4.6 280 17:57 31.03.2020
5569 Clouds 12 1005 50 10000 4.6 280 17:39 31.03.2020
5570 Clouds 12 1005 58 10000 4.6 290 17:21 31.03.2020
5571 Clouds 12 1005 58 10000 4.6 290 16:56 31.03.2020
5572 Clouds 12 1005 58 10000 4.1 280 16:36 31.03.2020
5573 Clouds 11 1005 71 10000 3.6 260 16:18 31.03.2020
5574 Clouds 11 1005 71 10000 3.6 260 15:55 31.03.2020
5575 Clouds 11 1005 76 10000 1.5 0 15:36 31.03.2020
5576 Clouds 10 1005 81 10000 1.5 250 15:18 31.03.2020
5577 Clouds 10 1005 81 10000 1 0 14:42 31.03.2020
5578 Clouds 10 1005 81 10000 1 0 14:23 31.03.2020
5579 Clouds 9 1005 87 10000 1.5 360 13:59 31.03.2020
5580 Clouds 9 1005 81 10000 2.1 360 13:40 31.03.2020
5581 Clouds 9 1005 81 10000 2.1 360 13:19 31.03.2020
5582 Clouds 9 1005 81 10000 2.6 360 12:46 31.03.2020
5583 Clouds 8 1005 87 10000 3.6 360 12:21 31.03.2020
5584 Clouds 8 1005 87 10000 3.6 360 12:21 31.03.2020
5585 Clouds 8 1005 87 10000 3.6 360 11:59 31.03.2020
5586 Clouds 7 1004 87 10000 3.6 360 11:38 31.03.2020
5587 Clouds 8 1004 87 10000 4.6 10 11:19 31.03.2020
5588 Clouds 7 1004 87 10000 4.6 10 10:56 31.03.2020
5589 Clouds 7 1004 87 10000 4.6 10 10:38 31.03.2020
5590 Clouds 7 1004 87 10000 4.1 360 10:20 31.03.2020
5591 Clouds 7 1004 87 10000 4.1 360 09:55 31.03.2020
5592 Clouds 7 1004 87 10000 5.7 20 09:37 31.03.2020
5593 Clouds 7 1004 87 10000 5.7 20 09:19 31.03.2020
5594 Clouds 7 1003 93 10000 5.1 10 08:54 31.03.2020
5595 Clouds 7 1003 93 10000 5.1 10 08:36 31.03.2020
5596 Clouds 7 1003 93 10000 6.2 20 08:18 31.03.2020
5597 Clouds 7 1003 93 10000 6.2 20 07:43 31.03.2020
5598 Clouds 7 1003 87 10000 7.2 30 07:23 31.03.2020
5599 Drizzle 7 1003 87 10000 5.7 30 06:58 31.03.2020
5600 Drizzle 7 1003 87 10000 5.7 30 06:39 31.03.2020
5601 Drizzle 7 1003 87 10000 5.7 40 05:42 31.03.2020
5602 Clouds 7 1004 93 10000 6.2 30 05:23 31.03.2020
5603 Drizzle 8 1004 93 10000 7.7 40 02:56 31.03.2020
5604 Clouds 8 1005 93 10000 8.7 30 01:47 31.03.2020
5605 Clouds 8 1005 93 10000 8.7 30 01:22 31.03.2020
5606 Clouds 8 1005 93 10000 7.7 40 00:43 31.03.2020
5607 Clouds 9 1005 93 10000 6.7 40 00:23 31.03.2020
5608 Clouds 9 1005 100 10000 7.7 40 23:40 30.03.2020
5609 Rain 9 1005 93 10000 7.2 40 23:20 30.03.2020
5610 Rain 10 1005 93 10000 7.2 40 22:58 30.03.2020
5611 Drizzle 10 1006 93 10000 7.2 40 22:38 30.03.2020
5612 Rain 10 1006 93 10000 8.2 30 22:19 30.03.2020
5613 Rain 10 1006 93 10000 8.2 30 21:57 30.03.2020
5614 Rain 11 1005 93 10000 7.7 30 21:38 30.03.2020
5615 -273 0 0 0 0 0 21:20 30.03.2020
5616 -273 0 0 0 0 0 21:20 30.03.2020
5617 Rain 11 1005 87 10000 6.2 40 21:20 30.03.2020
5618 Rain 12 1005 87 10000 6.2 40 20:58 30.03.2020
5619 Clouds 12 1006 81 10000 5.7 40 20:39 30.03.2020
5620 Clouds 12 1006 93 10000 5.7 50 20:19 30.03.2020
5621 Clouds 12 1006 93 10000 6.2 40 19:56 30.03.2020
5622 Clouds 13 1006 93 10000 6.2 40 19:37 30.03.2020
5623 Clouds 13 1006 93 10000 6.2 40 19:19 30.03.2020
5624 Clouds 14 1006 87 10000 5.1 50 18:42 30.03.2020
5625 Clouds 13 1007 93 10000 4.6 50 18:24 30.03.2020
5626 Clouds 13 1007 93 10000 4.1 60 17:58 30.03.2020
5627 Clouds 14 1007 93 10000 4.1 60 17:39 30.03.2020
5628 Rain 13 1008 100 10000 4.1 50 17:19 30.03.2020
5629 Rain 13 1008 100 10000 4.1 50 16:57 30.03.2020
5630 Drizzle 14 1008 93 9000 5.1 70 16:39 30.03.2020
5631 Drizzle 13 1009 93 7000 3.6 70 16:20 30.03.2020
5632 Drizzle 13 1009 93 7000 3.6 70 16:20 30.03.2020
5633 Drizzle 13 1009 93 7000 3.6 70 15:55 30.03.2020
5634 Drizzle 13 1009 93 4000 4.1 70 15:37 30.03.2020
5635 Rain 13 1010 87 10000 4.1 70 15:19 30.03.2020
5636 Rain 13 1010 87 10000 4.1 70 15:19 30.03.2020
5637 Rain 13 1010 87 10000 4.1 70 14:55 30.03.2020
5638 Clouds 13 1010 87 10000 4.6 70 14:37 30.03.2020
5639 Clouds 13 1010 93 9000 5.1 60 14:18 30.03.2020
5640 Clouds 13 1010 87 10000 4.1 50 13:55 30.03.2020
5641 Clouds 13 1010 93 9000 5.7 60 13:37 30.03.2020
5642 Rain 13 1011 100 10000 3.6 90 13:18 30.03.2020
5643 Rain 13 1011 100 10000 3.6 90 12:43 30.03.2020
5644 Rain 13 1011 93 5000 2.1 80 12:20 30.03.2020
5645 Drizzle 13 1012 93 9000 1 0 11:57 30.03.2020
5646 Drizzle 13 1012 93 9000 1 0 11:39 30.03.2020
5647 Clouds 12 1012 93 9000 1.5 340 11:21 30.03.2020
5648 Clouds 12 1012 100 10000 2.1 60 10:41 30.03.2020
5649 Clouds 12 1012 100 10000 2.1 60 10:23 30.03.2020
5650 Clouds 12 1012 100 9000 2.1 80 09:59 30.03.2020
5651 Clouds 12 1012 93 9000 1.5 350 09:40 30.03.2020
5652 Clouds 12 1012 93 10000 1.5 350 09:19 30.03.2020
5653 Clouds 12 1012 93 10000 1 50 08:47 30.03.2020
5654 Clouds 12 1012 93 10000 1 50 08:28 30.03.2020
5655 Clouds 12 1012 93 10000 1 40 07:55 30.03.2020
5656 Clouds 12 1012 93 10000 1 40 07:37 30.03.2020
5657 Clouds 12 1012 93 10000 0.5 350 07:18 30.03.2020
5658 Clouds 12 1012 93 10000 1.5 30 06:37 30.03.2020
5659 Clouds 12 1013 87 10000 0.36 95 06:18 30.03.2020
5660 Clouds 12 1014 87 10000 0.36 95 05:39 30.03.2020
5661 Clouds 12 1014 87 10000 0.36 95 04:28 30.03.2020
5662 Clouds 12 1015 93 10000 1.5 250 03:52 30.03.2020
5663 Clouds 12 1015 87 10000 1.5 260 02:44 30.03.2020
5664 Clouds 12 1016 87 10000 2.1 250 01:54 30.03.2020
5665 Clouds 12 1016 87 10000 2.1 250 00:57 30.03.2020
5666 Clouds 12 1016 87 10000 1 0 00:26 30.03.2020
5667 Clouds 13 1016 76 10000 1.5 240 23:55 29.03.2020
5668 Clouds 13 1016 76 10000 1.5 240 23:36 29.03.2020
5669 Clouds 13 1016 76 10000 1.5 300 23:18 29.03.2020
5670 Clouds 13 1016 71 10000 2.6 240 22:40 29.03.2020
5671 Clouds 14 1016 67 10000 2.6 250 22:20 29.03.2020
5672 Clouds 14 1016 76 10000 2.6 250 21:59 29.03.2020
5673 Clouds 14 1016 54 10000 3.6 240 21:38 29.03.2020
5674 Clouds 15 1016 54 10000 3.6 240 21:20 29.03.2020
5675 Clouds 15 1016 58 10000 4.1 230 20:55 29.03.2020
5676 Clouds 15 1016 58 10000 4.1 230 20:55 29.03.2020
5677 Clouds 15 1016 58 10000 4.1 230 20:37 29.03.2020
5678 Clouds 15 1016 55 10000 4.1 230 20:19 29.03.2020
5679 Clouds 16 1016 59 10000 4.6 240 19:56 29.03.2020
5680 Clouds 16 1016 59 10000 4.6 240 19:38 29.03.2020
5681 Clouds 16 1016 51 10000 4.6 230 19:19 29.03.2020
5682 Clouds 16 1016 42 10000 5.7 210 18:57 29.03.2020
5683 Clouds 17 1016 42 10000 5.7 210 18:38 29.03.2020
5684 Clouds 17 1016 51 10000 5.1 220 18:18 29.03.2020
5685 Clouds 17 1017 51 10000 5.7 220 17:55 29.03.2020
5686 Clouds 16 1017 51 10000 5.7 220 17:37 29.03.2020
5687 Clouds 17 1017 59 10000 6.2 210 17:18 29.03.2020
5688 Clouds 17 1017 59 10000 6.2 210 16:55 29.03.2020
5689 Clouds 17 1017 59 10000 6.2 210 16:36 29.03.2020
5690 Clouds 17 1018 59 10000 6.2 210 16:18 29.03.2020
5691 Clouds 17 1018 59 10000 6.2 220 15:41 29.03.2020
5692 Clouds 17 1018 63 10000 6.2 210 15:23 29.03.2020
5693 Clouds 17 1018 63 10000 6.2 210 15:23 29.03.2020
5694 Clouds 18 1018 55 10000 4.1 190 14:57 29.03.2020
5695 Clouds 18 1018 55 10000 4.1 190 14:39 29.03.2020
5696 Clouds 17 1018 55 10000 4.1 190 14:20 29.03.2020
5697 Clouds 17 1018 52 10000 3.6 150 13:57 29.03.2020
5698 Clouds 17 1018 52 10000 3.6 150 13:57 29.03.2020
5699 Clouds 17 1018 52 10000 3.6 150 13:39 29.03.2020
5700 Clouds 16 1018 72 10000 2.6 130 13:19 29.03.2020
5701 Clouds 16 1018 67 10000 4.6 190 12:55 29.03.2020
5702 Clouds 16 1018 67 10000 4.6 190 12:37 29.03.2020
5703 Clouds 16 1018 67 10000 3.1 170 12:18 29.03.2020
5704 Clouds 14 1018 76 10000 2.1 140 11:40 29.03.2020
5705 Clouds 14 1018 87 10000 1.5 60 11:21 29.03.2020
5706 Clouds 13 1018 87 10000 1.5 60 10:59 29.03.2020
5707 Clouds 13 1018 87 10000 1.5 60 10:38 29.03.2020
5708 Clouds 13 1018 93 10000 1.5 50 10:18 29.03.2020
5709 Clouds 13 1018 93 10000 1.5 50 10:18 29.03.2020
5710 Clouds 11 1018 93 10000 1 10 09:41 29.03.2020
5711 Clouds 11 1018 93 10000 2.1 30 09:20 29.03.2020
5712 Clouds 11 1018 93 10000 2.1 30 08:54 29.03.2020
5713 Clouds 11 1018 93 10000 2.1 30 08:54 29.03.2020
5714 Clouds 11 1017 87 10000 2.6 60 08:30 29.03.2020
5715 Clouds 11 1017 87 10000 2.6 60 07:59 29.03.2020
5716 Clouds 11 1017 87 10000 3.1 70 07:41 29.03.2020
5717 Clouds 11 1017 87 10000 0.5 0 07:21 29.03.2020
5718 Clouds 11 1018 76 10000 2.53 74 05:46 29.03.2020
5719 Clouds 11 1018 76 10000 1 320 04:27 29.03.2020
5720 Clouds 12 1018 76 10000 1.5 350 03:31 29.03.2020
5721 Clouds 12 1018 71 10000 3.1 310 01:51 29.03.2020
5722 Clouds 13 1018 71 10000 3.1 310 01:23 29.03.2020
5723 Clouds 12 1018 76 10000 3.1 320 00:56 29.03.2020
5724 Clouds 12 1018 76 10000 3.1 320 00:33 29.03.2020
5725 Clouds 13 1018 76 10000 3.6 320 23:56 28.03.2020
5726 Clouds 13 1018 76 10000 3.6 320 23:38 28.03.2020
5727 Clouds 13 1018 71 10000 3.6 320 23:18 28.03.2020
5728 Clouds 13 1018 71 10000 5.1 320 22:39 28.03.2020
5729 Clouds 13 1018 71 10000 4.6 320 22:21 28.03.2020
5730 Clouds 13 1017 67 10000 3.6 310 21:55 28.03.2020
5731 Clouds 13 1017 67 10000 3.6 310 21:37 28.03.2020
5732 Clouds 14 1017 58 10000 2.6 340 21:18 28.03.2020
5733 Clouds 14 1016 48 10000 3.6 40 20:42 28.03.2020
5734 Clouds 15 1016 48 10000 4.1 60 20:24 28.03.2020
5735 Clouds 15 1016 48 10000 4.1 60 19:58 28.03.2020
5736 Clouds 16 1016 48 10000 4.1 60 19:39 28.03.2020
5737 Clouds 16 1016 45 10000 2.1 30 19:21 28.03.2020
5738 Clouds 17 1016 45 10000 2.1 30 18:59 28.03.2020
5739 Clouds 17 1016 45 10000 3.6 40 18:39 28.03.2020
5740 Clouds 17 1016 39 10000 3.1 90 18:20 28.03.2020
5741 Clouds 17 1015 42 10000 3.1 30 17:39 28.03.2020
5742 Clouds 17 1015 39 10000 3.6 60 17:21 28.03.2020
5743 Clouds 17 1015 45 10000 3.6 30 16:55 28.03.2020
5744 Clouds 17 1015 45 10000 3.6 30 16:37 28.03.2020
5745 Clouds 17 1015 45 10000 3.6 30 16:37 28.03.2020
5746 Clouds 17 1016 45 10000 4.1 90 16:18 28.03.2020
5747 Clouds 17 1016 45 10000 4.1 70 15:39 28.03.2020
5748 Clouds 17 1016 45 10000 5.1 70 15:19 28.03.2020
5749 Clouds 17 1016 48 10000 6.2 80 14:57 28.03.2020
5750 Clouds 17 1016 48 10000 6.2 80 14:39 28.03.2020
5751 Clouds 16 1016 51 10000 5.7 80 14:20 28.03.2020
5752 Clouds 16 1016 51 10000 5.7 80 14:20 28.03.2020
5753 Clouds 16 1016 51 10000 5.7 80 13:41 28.03.2020
5754 Clouds 16 1016 51 10000 7.2 40 13:22 28.03.2020
5755 Clouds 15 1016 51 10000 6.2 50 12:41 28.03.2020
5756 Clouds 14 1016 54 10000 6.7 40 12:22 28.03.2020
5757 Clouds 14 1016 58 10000 7.2 60 11:43 28.03.2020
5758 Clouds 13 1016 58 10000 7.2 60 11:23 28.03.2020
5759 Clouds 12 1016 62 10000 5.7 50 10:58 28.03.2020
5760 Clouds 12 1016 62 10000 5.7 50 10:38 28.03.2020
5761 Clouds 12 1016 66 10000 4.6 60 10:18 28.03.2020
5762 Clouds 11 1016 71 10000 4.6 60 09:43 28.03.2020
5763 Clouds 11 1016 70 10000 4.1 50 09:23 28.03.2020
5764 Clouds 10 1016 70 10000 4.1 50 08:55 28.03.2020
5765 Clouds 10 1015 75 10000 4.1 50 08:37 28.03.2020
5766 Clouds 9 1015 75 10000 3.6 50 08:18 28.03.2020
5767 Clouds 8 1015 75 10000 3.6 50 07:42 28.03.2020
5768 Clouds 8 1015 75 10000 3.1 50 06:59 28.03.2020
5769 Clouds 9 1015 75 10000 3.6 50 06:35 28.03.2020
5770 Clouds 9 1014 76 10000 3.1 50 05:43 28.03.2020
5771 Clouds 9 1014 76 10000 3.1 50 05:21 28.03.2020
5772 Clouds 10 1014 71 10000 3.6 50 04:41 28.03.2020
5773 Clouds 11 1014 71 10000 4.1 60 03:54 28.03.2020
5774 Clouds 11 1014 76 10000 3.1 330 02:21 28.03.2020
5775 Clouds 11 1014 76 10000 2.6 320 01:30 28.03.2020
5776 Clouds 12 1013 76 10000 3.1 330 00:59 28.03.2020
5777 Clouds 12 1013 76 10000 3.1 330 00:36 28.03.2020
5778 Clouds 12 1013 71 10000 4.1 320 23:57 27.03.2020
5779 Clouds 12 1013 71 10000 4.1 320 23:39 27.03.2020
5780 Clouds 12 1013 76 10000 4.1 330 23:21 27.03.2020
5781 Clouds 12 1013 66 10000 4.1 310 22:56 27.03.2020
5782 Clouds 12 1013 66 10000 4.1 310 22:37 27.03.2020
5783 Clouds 12 1013 66 10000 4.1 310 22:37 27.03.2020
5784 Clouds 12 1012 66 10000 5.1 320 22:19 27.03.2020
5785 Clouds 12 1012 66 10000 5.1 320 21:44 27.03.2020
5786 Clouds 12 1011 76 10000 6.2 310 21:25 27.03.2020
5787 Clouds 12 1011 76 10000 6.2 310 21:25 27.03.2020
5788 Clouds 12 1011 71 10000 4.1 320 20:59 27.03.2020
5789 Clouds 13 1011 76 10000 6.2 310 20:41 27.03.2020
5790 Clouds 13 1010 67 10000 4.6 300 20:20 27.03.2020
5791 Clouds 13 1010 62 10000 3.6 280 19:58 27.03.2020
5792 Clouds 14 1010 62 10000 4.1 300 19:40 27.03.2020
5793 Clouds 14 1010 58 10000 4.1 300 19:20 27.03.2020
5794 Clouds 15 1010 58 10000 4.1 300 18:44 27.03.2020
5795 Clouds 16 1010 55 10000 3.6 310 18:25 27.03.2020
5796 Clouds 16 1010 55 10000 3.1 310 17:59 27.03.2020
5797 Clouds 16 1010 55 10000 3.1 310 17:39 27.03.2020
5798 Clouds 16 1009 51 10000 4.1 310 17:20 27.03.2020
5799 Clouds 17 1009 51 10000 3.6 310 16:44 27.03.2020
5800 Clouds 17 1010 48 10000 3.1 300 16:25 27.03.2020
5801 Clouds 17 1009 45 10000 3.1 340 15:56 27.03.2020
5802 Clouds 16 1010 48 10000 3.1 300 15:38 27.03.2020
5803 Clouds 17 1010 45 10000 2.1 10 15:20 27.03.2020
5804 Clouds 16 1010 55 10000 3.6 270 14:45 27.03.2020
5805 Clouds 16 1010 51 10000 2.6 0 14:24 27.03.2020
5806 Clouds 16 1010 51 10000 2.6 0 13:56 27.03.2020
5807 Clouds 16 1010 51 10000 2.6 0 13:37 27.03.2020
5808 Clouds 15 1010 48 10000 3.6 290 13:18 27.03.2020
5809 Clouds 15 1011 54 10000 3.6 330 12:45 27.03.2020
5810 Clouds 14 1011 58 10000 3.6 310 12:20 27.03.2020
5811 Clouds 14 1011 58 10000 4.1 350 11:59 27.03.2020
5812 Clouds 14 1011 58 10000 4.1 350 11:59 27.03.2020
5813 Clouds 14 1011 58 10000 4.1 350 11:59 27.03.2020
5814 Clouds 14 1011 58 10000 4.1 350 11:40 27.03.2020
5815 Clouds 14 1011 62 10000 5.1 350 11:22 27.03.2020
5816 Clouds 13 1011 62 10000 5.1 340 10:54 27.03.2020
5817 Clouds 13 1011 62 10000 5.1 340 10:36 27.03.2020
5818 Clouds 13 1010 76 10000 2.6 340 10:18 27.03.2020
5819 Clouds 12 1010 76 10000 2.6 340 09:54 27.03.2020
5820 Clouds 12 1010 76 10000 2.6 340 09:36 27.03.2020
5821 Clouds 12 1010 81 10000 1 0 09:18 27.03.2020
5822 Clouds 11 1010 87 10000 2.1 250 08:54 27.03.2020
5823 Clouds 11 1010 87 10000 2.1 250 08:36 27.03.2020
5824 Clouds 10 1010 87 10000 1.5 240 08:18 27.03.2020
5825 Clouds 10 1010 87 10000 1.5 240 07:41 27.03.2020
5826 Clouds 10 1010 81 10000 1 0 07:21 27.03.2020
5827 Clouds 10 1010 81 10000 0.5 0 06:41 27.03.2020
5828 Clouds 10 1010 81 10000 2.6 320 06:18 27.03.2020
5829 Clouds 11 1011 81 10000 3.6 310 03:42 27.03.2020
5830 Clouds 11 1011 81 10000 2.1 290 02:19 27.03.2020
5831 Clouds 11 1011 81 10000 2.1 290 01:19 27.03.2020
5832 Clouds 11 1012 81 10000 1 0 00:44 27.03.2020
5833 Clouds 11 1012 76 10000 1.5 0 00:20 27.03.2020
5834 Clouds 12 1012 81 10000 2.1 330 23:42 26.03.2020
5835 Clouds 12 1012 81 10000 3.1 310 23:19 26.03.2020
5836 Clouds 12 1012 76 10000 3.6 310 22:57 26.03.2020
5837 Clouds 12 1012 76 10000 3.6 310 22:36 26.03.2020
5838 Clouds 12 1012 71 10000 3.1 320 22:18 26.03.2020
5839 Clouds 12 1012 76 10000 7.2 330 21:40 26.03.2020
5840 Clouds 13 1012 76 10000 7.2 330 21:22 26.03.2020
5841 Clouds 13 1012 76 10000 7.2 330 20:59 26.03.2020
5842 Clouds 13 1012 71 10000 4.1 310 20:40 26.03.2020
5843 Clouds 13 1012 71 10000 4.1 310 20:22 26.03.2020
5844 Clouds 14 1012 71 10000 4.1 310 19:58 26.03.2020
5845 Clouds 14 1012 71 10000 4.1 310 19:40 26.03.2020
5846 Clouds 14 1012 67 10000 5.7 310 19:21 26.03.2020
5847 Clouds 15 1012 62 10000 6.2 310 18:58 26.03.2020
5848 Clouds 14 1012 62 10000 6.2 310 18:40 26.03.2020
5849 Clouds 15 1012 62 10000 6.7 310 18:22 26.03.2020
5850 Clouds 16 1012 55 10000 6.7 320 17:45 26.03.2020
5851 Clouds 16 1012 59 10000 6.2 320 17:20 26.03.2020
5852 Clouds 16 1013 59 10000 6.2 300 16:57 26.03.2020
5853 Clouds 16 1013 59 10000 6.2 300 16:57 26.03.2020
5854 Clouds 16 1013 59 10000 6.2 300 16:38 26.03.2020
5855 Clouds 16 1013 63 10000 5.7 310 16:19 26.03.2020
5856 Clouds 16 1013 63 10000 5.7 310 15:56 26.03.2020
5857 Clouds 16 1013 63 10000 5.7 310 15:38 26.03.2020
5858 Clouds 16 1014 63 10000 5.1 310 15:18 26.03.2020
5859 Clouds 16 1014 63 10000 4.6 300 14:43 26.03.2020
5860 Clouds 16 1014 55 10000 3.6 300 14:24 26.03.2020
5861 Clouds 17 1014 55 10000 3.6 300 13:56 26.03.2020
5862 Clouds 16 1014 72 10000 3.6 300 13:38 26.03.2020
5863 Clouds 16 1014 72 10000 3.6 300 13:20 26.03.2020
5864 Clouds 15 1015 72 10000 4.1 310 12:39 26.03.2020
5865 Clouds 15 1015 72 10000 4.1 320 12:20 26.03.2020
5866 Clouds 15 1015 72 10000 4.1 300 11:55 26.03.2020
5867 Clouds 15 1015 72 10000 4.1 300 11:36 26.03.2020
5868 Clouds 14 1015 71 10000 4.6 310 11:18 26.03.2020
5869 Clouds 14 1015 76 10000 4.6 320 10:42 26.03.2020
5870 Clouds 13 1015 76 10000 5.1 320 10:20 26.03.2020
5871 Clouds 13 1015 81 10000 4.6 310 09:45 26.03.2020
5872 Clouds 13 1015 81 10000 4.6 310 09:24 26.03.2020
5873 Clouds 12 1015 87 10000 2.1 320 08:58 26.03.2020
5874 Clouds 12 1015 87 10000 2.1 320 08:39 26.03.2020
5875 Clouds 12 1014 87 10000 3.6 300 08:20 26.03.2020
5876 Clouds 11 1014 87 10000 3.6 300 07:46 26.03.2020
5877 Clouds 11 1014 87 10000 3.6 310 07:24 26.03.2020
5878 Clouds 11 1014 87 10000 3.6 310 06:59 26.03.2020
5879 Clouds 12 1014 81 10000 5.7 320 06:33 26.03.2020
5880 Clouds 12 1015 81 10000 5.7 330 05:47 26.03.2020
5881 Clouds 12 1015 87 10000 5.1 310 03:46 26.03.2020
5882 Clear 12 1015 81 10000 2.6 310 02:58 26.03.2020
5883 Clouds 12 1016 87 10000 3.1 310 01:51 26.03.2020
5884 Clouds 11 1016 87 10000 3.1 310 01:18 26.03.2020
5885 Clouds 12 1016 93 10000 2.1 300 00:32 26.03.2020
5886 Clouds 12 1016 87 10000 3.6 330 23:44 25.03.2020
5887 Clouds 12 1016 87 10000 3.6 330 23:24 25.03.2020
5888 Clear 13 1016 82 10000 5.7 310 22:54 25.03.2020
5889 Clear 13 1016 82 10000 5.7 310 22:36 25.03.2020
5890 Clear 13 1016 82 10000 5.7 310 22:18 25.03.2020
5891 Clear 13 1016 82 10000 5.7 310 21:42 25.03.2020
5892 Clouds 13 1015 76 10000 4.1 360 21:24 25.03.2020
5893 Clouds 14 1015 82 10000 6.2 320 20:58 25.03.2020
5894 Clouds 14 1015 82 10000 6.2 320 20:38 25.03.2020
5895 Clouds 15 1015 72 10000 6.2 320 20:19 25.03.2020
5896 Clouds 15 1015 72 10000 6.2 320 19:55 25.03.2020
5897 Clouds 16 1015 72 10000 6.2 320 19:37 25.03.2020
5898 Clouds 17 1015 67 10000 6.2 330 19:18 25.03.2020
5899 Clouds 18 1015 55 10000 6.2 320 18:43 25.03.2020
5900 Clouds 18 1015 52 10000 5.7 330 18:25 25.03.2020
5901 Clouds 19 1015 59 10000 4.6 300 17:58 25.03.2020
5902 Clouds 19 1015 59 10000 4.6 300 17:40 25.03.2020
5903 Clouds 19 1015 59 10000 5.7 320 17:22 25.03.2020
5904 Clouds 19 1015 59 10000 4.1 340 16:58 25.03.2020
5905 Clouds 19 1015 59 10000 4.1 340 16:39 25.03.2020
5906 Clouds 21 1015 46 10000 2.1 0 16:20 25.03.2020
5907 Clouds 21 1015 46 10000 2.1 0 15:42 25.03.2020
5908 Clouds 21 1016 40 10000 3.1 90 15:21 25.03.2020
5909 Clouds 21 1016 40 10000 3.1 90 14:57 25.03.2020
5910 Clouds 21 1016 40 10000 3.1 90 14:57 25.03.2020
5911 Clouds 21 1016 40 10000 3.1 90 14:39 25.03.2020
5912 Clouds 21 1016 40 10000 3.1 90 14:39 25.03.2020
5913 Clouds 19 1016 45 10000 3.6 80 14:20 25.03.2020
5914 Clear 19 1017 45 10000 4.1 60 13:44 25.03.2020
5915 Clear 19 1017 45 10000 4.1 60 13:24 25.03.2020
5916 Clear 19 1017 52 10000 4.6 60 12:39 25.03.2020
5917 Clear 18 1017 52 10000 5.1 50 12:21 25.03.2020
5918 Clear 17 1017 55 10000 4.1 40 11:59 25.03.2020
5919 Clear 17 1017 55 10000 4.1 40 11:40 25.03.2020
5920 Clear 16 1017 59 10000 5.1 50 11:21 25.03.2020
5921 Clear 15 1017 67 10000 5.7 60 10:58 25.03.2020
5922 Clear 15 1017 67 10000 5.7 60 10:39 25.03.2020
5923 Clear 14 1017 67 10000 5.7 60 10:18 25.03.2020
5924 Clear 14 1016 71 10000 3.6 30 09:56 25.03.2020
5925 Clear 14 1016 71 10000 3.6 30 09:38 25.03.2020
5926 Clear 13 1016 76 10000 4.1 40 09:19 25.03.2020
5927 Clear 13 1016 76 10000 3.6 40 08:41 25.03.2020
5928 Clear 12 1016 76 10000 3.6 40 08:23 25.03.2020
5929 Clear 12 1016 76 10000 4.1 40 07:56 25.03.2020
5930 Clear 12 1016 76 10000 4.1 40 07:37 25.03.2020
5931 Clear 12 1015 76 10000 4.1 40 07:18 25.03.2020
5932 Clear 12 1015 76 10000 3.6 30 06:41 25.03.2020
5933 Clear 12 1015 76 10000 4.1 30 06:23 25.03.2020
5934 Clear 13 1015 76 10000 4.1 30 05:47 25.03.2020
5935 Clear 14 1015 76 10000 3.1 350 04:42 25.03.2020
5936 Clear 14 1015 71 10000 3.6 350 03:57 25.03.2020
5937 Clear 14 1015 71 10000 3.6 350 03:32 25.03.2020
5938 Clouds 15 1015 71 10000 3.6 320 01:40 25.03.2020
5939 -273 0 0 0 0 0 00:50 25.03.2020
5940 Clouds 15 1015 62 10000 3.1 330 00:27 25.03.2020
5941 Clouds 15 1015 67 10000 3.1 320 23:58 24.03.2020
5942 Clouds 15 1015 67 10000 3.1 320 23:39 24.03.2020
5943 Clouds 15 1015 62 10000 2.1 340 23:19 24.03.2020
5944 Clouds 15 1014 62 10000 3.6 330 22:54 24.03.2020
5945 Clouds 15 1014 62 10000 3.6 330 22:36 24.03.2020
5946 Clouds 15 1014 82 10000 2.6 20 22:18 24.03.2020
5947 Clouds 16 1014 59 0 3.1 20 21:42 24.03.2020
5948 Clouds 17 1013 59 10000 4.1 30 21:19 24.03.2020
5949 Clouds 17 1013 59 10000 4.1 30 20:59 24.03.2020
5950 Clouds 18 1013 55 10000 4.6 40 20:40 24.03.2020
5951 Rain 18 1012 59 10000 3.6 40 20:22 24.03.2020
5952 Rain 19 1012 55 10000 4.6 50 19:48 24.03.2020
5953 Clouds 19 1012 52 10000 4.6 50 19:23 24.03.2020
5954 Clouds 20 1012 52 10000 4.6 50 18:59 24.03.2020
5955 Clouds 20 1012 52 10000 5.1 60 18:40 24.03.2020
5956 Clouds 20 1012 52 10000 6.2 60 18:20 24.03.2020
5957 Clouds 21 1012 49 10000 5.1 40 17:58 24.03.2020
5958 Clouds 21 1012 49 10000 5.1 40 17:40 24.03.2020
5959 Clouds 21 1012 49 10000 7.2 40 17:22 24.03.2020
5960 Clouds 21 1012 46 10000 6.2 50 16:57 24.03.2020
5961 Clouds 21 1012 46 10000 6.2 50 16:38 24.03.2020
5962 Clouds 20 1012 49 10000 5.1 80 16:20 24.03.2020
5963 Clouds 20 1012 49 10000 6.2 60 15:44 24.03.2020
5964 Clouds 20 1012 49 10000 6.2 60 15:44 24.03.2020
5965 Clouds 20 1012 52 10000 5.7 30 15:25 24.03.2020
5966 Clouds 20 1012 52 10000 6.2 40 14:57 24.03.2020
5967 Clouds 20 1012 52 10000 6.2 40 14:39 24.03.2020
5968 Clouds 19 1013 52 10000 5.7 50 14:18 24.03.2020
5969 Clouds 19 1013 52 10000 6.2 60 13:41 24.03.2020
5970 Clouds 19 1013 59 10000 5.7 40 13:22 24.03.2020
5971 Clouds 18 1013 63 10000 5.1 40 12:47 24.03.2020
5972 Clouds 18 1013 63 10000 5.1 40 12:28 24.03.2020
5973 Clouds 17 1013 63 10000 6.7 40 11:58 24.03.2020
5974 Clouds 17 1013 63 10000 6.7 40 11:39 24.03.2020
5975 Clouds 16 1013 67 10000 5.7 40 11:18 24.03.2020
5976 Clear 15 1013 67 10000 5.7 50 10:42 24.03.2020
5977 Clear 15 1013 71 10000 6.7 40 10:19 24.03.2020
5978 Clear 14 1013 71 10000 4.6 40 09:55 24.03.2020
5979 Clear 14 1013 71 10000 4.6 40 09:37 24.03.2020
5980 Clear 14 1013 76 10000 4.1 20 09:19 24.03.2020
5981 Clear 12 1013 81 10000 4.1 30 08:38 24.03.2020
5982 Clear 11 1012 81 10000 5.7 30 08:20 24.03.2020
5983 Clear 11 1012 76 10000 4.6 40 07:47 24.03.2020
5984 Clear 11 1012 76 10000 2.6 10 07:24 24.03.2020
5985 Clear 11 1012 76 10000 2.6 10 06:50 24.03.2020
5986 Clear 11 1012 76 10000 4.1 20 06:24 24.03.2020
5987 Clear 12 1012 76 10000 5.1 40 04:57 24.03.2020
5988 Clear 12 1013 76 10000 3.6 340 03:46 24.03.2020
5989 Clear 13 1013 81 10000 3.1 330 02:49 24.03.2020
5990 Clouds 13 1013 81 10000 2.6 340 01:42 24.03.2020
5991 Clouds 14 1013 76 10000 2.6 350 00:44 24.03.2020
5992 Clouds 14 1013 76 10000 3.1 340 00:23 24.03.2020
5993 Clouds 14 1013 71 10000 3.6 350 23:44 23.03.2020
5994 Clouds 14 1013 71 10000 4.6 330 23:26 23.03.2020
5995 Rain 15 1013 76 10000 6.7 340 22:55 23.03.2020
5996 Rain 14 1013 76 10000 6.7 340 22:36 23.03.2020
5997 Rain 14 1013 76 10000 6.7 340 22:18 23.03.2020
5998 Rain 14 1012 72 10000 7.2 340 21:42 23.03.2020
5999 Rain 15 1012 67 10000 5.1 360 21:20 23.03.2020
6000 Rain 15 1012 67 10000 5.1 360 20:57 23.03.2020
6001 Clouds 15 1012 72 10000 6.2 330 20:39 23.03.2020
6002 Clouds 15 1011 67 10000 6.2 330 20:19 23.03.2020
6003 Clouds 16 1011 67 10000 6.2 330 19:45 23.03.2020
6004 Clouds 16 1011 67 10000 6.2 330 19:45 23.03.2020
6005 Clouds 16 1011 67 10000 6.2 350 19:27 23.03.2020
6006 Clouds 17 1011 45 10000 5.1 40 18:59 23.03.2020
6007 Clouds 18 1011 45 10000 5.1 40 18:41 23.03.2020
6008 Clouds 18 1011 48 10000 4.6 50 18:21 23.03.2020
6009 Clouds 20 1011 48 10000 5.7 60 17:44 23.03.2020
6010 Clouds 19 1011 48 10000 6.2 60 17:22 23.03.2020
6011 Clouds 19 1011 49 10000 6.2 50 16:59 23.03.2020
6012 Clouds 19 1011 49 10000 6.2 50 16:41 23.03.2020
6013 Clouds 19 1012 55 10000 5.7 50 16:23 23.03.2020
6014 Clouds 19 1012 55 10000 5.7 50 15:42 23.03.2020
6015 Clouds 19 1012 59 10000 4.1 330 15:20 23.03.2020
6016 Clouds 19 1012 59 10000 4.1 330 14:55 23.03.2020
6017 Clouds 18 1012 52 10000 6.2 60 14:36 23.03.2020
6018 Clouds 19 1013 55 10000 5.7 60 14:18 23.03.2020
6019 Clouds 18 1013 55 10000 5.7 60 13:40 23.03.2020
6020 Clouds 18 1013 48 10000 4.6 70 13:22 23.03.2020
6021 Clouds 18 1014 63 10000 5.1 50 12:55 23.03.2020
6022 Clouds 17 1014 63 10000 5.1 50 12:37 23.03.2020
6023 Clouds 17 1014 67 10000 5.1 50 12:19 23.03.2020
6024 Clouds 16 1014 72 10000 5.1 60 11:42 23.03.2020
6025 Clouds 15 1014 77 10000 6.2 60 11:21 23.03.2020
6026 Clouds 14 1014 82 10000 3.6 50 10:58 23.03.2020
6027 Clouds 14 1014 82 10000 3.6 50 10:39 23.03.2020
6028 Clouds 14 1014 87 10000 3.6 10 10:21 23.03.2020
6029 Clouds 14 1014 87 10000 3.6 10 09:57 23.03.2020
6030 Clouds 13 1014 87 10000 3.6 10 09:37 23.03.2020
6031 Clear 13 1014 87 10000 3.1 350 09:18 23.03.2020
6032 Clouds 12 1013 93 10000 4.1 330 08:37 23.03.2020
6033 Clouds 12 1013 93 10000 4.1 330 08:19 23.03.2020
6034 Clouds 12 1013 93 10000 5.1 340 07:50 23.03.2020
6035 Clouds 12 1013 93 10000 5.1 340 07:50 23.03.2020
6036 Clouds 12 1013 93 10000 5.1 340 07:31 23.03.2020
6037 Clouds 12 1013 87 10000 4.1 330 06:53 23.03.2020
6038 Clouds 12 1013 87 10000 4.1 320 06:25 23.03.2020
6039 Clouds 12 1012 87 10000 4.1 320 05:42 23.03.2020
6040 Clouds 12 1013 87 10000 4.1 310 03:45 23.03.2020
6041 Clouds 12 1013 87 10000 5.7 320 02:43 23.03.2020
6042 Clear 12 1013 87 10000 4.1 310 01:38 23.03.2020
6043 Clouds 12 1014 87 10000 3.1 320 00:44 23.03.2020
6044 Clouds 12 1013 87 10000 5.1 320 23:54 22.03.2020
6045 Clouds 12 1013 87 10000 5.1 320 23:36 22.03.2020
6046 Clouds 12 1013 87 10000 3.6 300 23:18 22.03.2020
6047 Clouds 12 1013 87 10000 3.6 320 22:40 22.03.2020
6048 Clouds 12 1013 87 10000 4.6 320 22:19 22.03.2020
6049 Clouds 13 1013 82 10000 4.6 310 21:40 22.03.2020
6050 Clouds 13 1013 82 10000 4.1 300 21:21 22.03.2020
6051 Clouds 14 1012 76 10000 3.6 310 20:58 22.03.2020
6052 Clouds 14 1012 76 10000 3.6 310 20:40 22.03.2020
6053 Clouds 14 1012 67 10000 3.6 300 20:21 22.03.2020
6054 Clouds 14 1012 67 10000 3.6 300 19:56 22.03.2020
6055 Clouds 15 1012 67 10000 3.6 310 19:37 22.03.2020
6056 Clouds 15 1012 67 10000 3.6 310 19:19 22.03.2020
6057 Clouds 15 1012 63 10000 5.1 330 18:57 22.03.2020
6058 Clouds 16 1012 63 10000 5.1 330 18:39 22.03.2020
6059 Clouds 16 1011 63 10000 5.1 340 18:18 22.03.2020
6060 Clouds 16 1011 59 10000 4.6 300 17:56 22.03.2020
6061 Clouds 17 1011 59 10000 4.6 300 17:37 22.03.2020
6062 Clouds 16 1011 63 10000 4.6 340 17:19 22.03.2020
6063 Clouds 16 1011 51 10000 2.1 310 16:55 22.03.2020
6064 Clouds 16 1011 51 10000 2.1 310 16:37 22.03.2020
6065 Clouds 17 1011 45 10000 3.1 70 16:19 22.03.2020
6066 Clouds 17 1011 45 10000 3.1 70 16:19 22.03.2020
6067 Clouds 17 1012 48 10000 4.1 100 15:39 22.03.2020
6068 Clouds 17 1012 55 10000 4.6 100 15:19 22.03.2020
6069 Clouds 17 1012 55 10000 4.1 60 14:46 22.03.2020
6070 Clouds 17 1012 51 10000 3.6 50 14:18 22.03.2020
6071 Clouds 17 1013 59 10000 3.1 80 13:42 22.03.2020
6072 Clouds 16 1013 59 10000 3.1 80 13:20 22.03.2020
6073 Clouds 16 1013 59 10000 3.1 80 12:57 22.03.2020
6074 Clouds 15 1013 67 10000 4.6 70 12:38 22.03.2020
6075 Clouds 15 1013 62 10000 4.6 60 12:18 22.03.2020
6076 Clouds 14 1013 71 10000 4.1 60 11:43 22.03.2020
6077 Clouds 14 1013 71 10000 4.6 60 11:24 22.03.2020
6078 Clear 13 1013 76 10000 4.1 50 10:58 22.03.2020
6079 Clear 13 1013 76 10000 4.1 50 10:39 22.03.2020
6080 Clear 13 1012 81 10000 2.6 40 10:21 22.03.2020
6081 Clear 12 1012 87 10000 2.1 40 09:43 22.03.2020
6082 Clear 11 1012 87 10000 2.1 40 09:43 22.03.2020
6083 Clear 11 1012 93 10000 4.1 30 09:24 22.03.2020
6084 Clear 9 1011 87 10000 3.1 360 08:48 22.03.2020
6085 Clear 9 1011 87 10000 3.1 360 08:48 22.03.2020
6086 Clear 9 1011 87 10000 3.1 360 08:29 22.03.2020
6087 Clear 8 1011 87 10000 2.1 350 07:53 22.03.2020
6088 Clear 8 1011 87 10000 2.1 350 07:32 22.03.2020
6089 Clear 8 1011 87 10000 2.6 360 06:40 22.03.2020
6090 Clear 8 1011 87 10000 2.6 350 05:37 22.03.2020
6091 Clear 9 1011 81 10000 2.1 340 03:47 22.03.2020
6092 Clear 9 1011 81 10000 2.1 340 01:36 22.03.2020
6093 Clear 9 1011 81 10000 1.5 320 00:49 22.03.2020
6094 Clear 10 1011 81 10000 1.5 310 00:29 22.03.2020
6095 Clear 10 1011 76 10000 1.5 320 23:45 21.03.2020
6096 Clear 10 1011 87 10000 1 0 23:21 21.03.2020
6097 Clouds 10 1010 81 10000 2.1 340 22:58 21.03.2020
6098 Clouds 10 1010 81 10000 2.1 340 22:37 21.03.2020
6099 Clouds 10 1010 87 10000 2.6 30 22:19 21.03.2020
6100 Clouds 11 1010 87 10000 2.6 30 21:57 21.03.2020
6101 Clouds 11 1010 76 10000 2.1 320 21:37 21.03.2020
6102 Clouds 11 1010 76 10000 2.1 320 21:18 21.03.2020
6103 Clouds 12 1010 81 10000 2.6 330 20:42 21.03.2020
6104 Rain 12 1009 71 10000 1.5 310 20:21 21.03.2020
6105 Rain 13 1009 71 10000 2.6 300 19:54 21.03.2020
6106 Rain 13 1009 71 10000 2.6 300 19:36 21.03.2020
6107 Rain 14 1009 71 10000 2.6 300 19:18 21.03.2020
6108 Rain 14 1009 71 10000 2.1 360 18:40 21.03.2020
6109 Rain 14 1009 62 10000 3.1 240 18:20 21.03.2020
6110 Rain 15 1009 62 10000 3.6 250 17:58 21.03.2020
6111 Rain 15 1009 62 10000 3.6 250 17:39 21.03.2020
6112 Rain 15 1009 62 10000 2.6 300 17:21 21.03.2020
6113 Rain 14 1009 62 10000 3.1 300 16:42 21.03.2020
6114 Clouds 15 1009 62 10000 1 0 16:22 21.03.2020
6115 Clouds 14 1009 62 10000 1 0 15:58 21.03.2020
6116 Clouds 14 1009 66 10000 2.1 100 15:39 21.03.2020
6117 Clouds 14 1010 54 10000 2.1 0 15:21 21.03.2020
6118 Clouds 14 1010 62 10000 3.1 250 14:55 21.03.2020
6119 Clouds 14 1010 62 10000 3.1 250 14:37 21.03.2020
6120 Clouds 14 1010 62 10000 3.1 230 14:19 21.03.2020
6121 Clouds 14 1010 62 10000 3.1 230 13:57 21.03.2020
6122 Clouds 13 1010 67 10000 4.1 240 13:38 21.03.2020
6123 Clouds 13 1010 67 10000 4.1 240 13:20 21.03.2020
6124 Clouds 13 1010 71 10000 2.6 220 12:41 21.03.2020
6125 Clouds 14 1011 81 10000 3.1 100 12:21 21.03.2020
6126 Clouds 14 1011 82 10000 2.6 80 11:59 21.03.2020
6127 Clouds 14 1011 82 10000 2.6 80 11:39 21.03.2020
6128 Clouds 14 1011 82 10000 2.6 80 11:39 21.03.2020
6129 Clouds 13 1011 87 10000 2.6 40 11:20 21.03.2020
6130 Clouds 13 1011 93 10000 2.6 50 10:58 21.03.2020
6131 Clouds 13 1011 93 10000 2.6 50 10:58 21.03.2020
6132 Clouds 12 1011 93 10000 2.6 50 10:40 21.03.2020
6133 Clouds 12 1010 100 10000 2.1 60 10:22 21.03.2020
6134 Clouds 11 1010 100 10000 2.1 60 09:59 21.03.2020
6135 Clouds 11 1010 100 10000 0.5 0 09:39 21.03.2020
6136 Clouds 10 1010 100 10000 1.5 330 09:21 21.03.2020
6137 Clouds 9 1010 100 10000 1.5 330 08:56 21.03.2020
6138 Clouds 9 1010 100 10000 1.5 129 08:38 21.03.2020
6139 Clouds 9 1010 100 10000 2.38 79 08:19 21.03.2020
6140 Clouds 8 1010 100 10000 2.38 79 07:39 21.03.2020
6141 Clouds 8 1010 100 10000 2.38 79 07:20 21.03.2020
6142 Clouds 8 1010 93 10000 2.38 79 06:44 21.03.2020
6143 Clouds 8 1010 100 10000 2.38 79 06:25 21.03.2020
6144 Clouds 9 1010 93 10000 2.38 79 05:41 21.03.2020
6145 Clouds 9 1010 93 10000 0.5 0 04:34 21.03.2020
6146 Clouds 10 1011 87 10000 1.5 260 02:37 21.03.2020
6147 Clouds 10 1012 93 10000 2.6 250 01:49 21.03.2020
6148 Clouds 10 1012 93 10000 2.6 250 01:26 21.03.2020
6149 Clouds 10 1012 93 10000 2.6 260 00:43 21.03.2020
6150 Clouds 11 1012 87 10000 1.5 280 00:24 21.03.2020
6151 Clouds 11 1012 87 10000 2.1 250 23:45 20.03.2020
6152 Clouds 11 1012 81 10000 2.1 280 23:22 20.03.2020
6153 Clouds 11 1012 87 10000 2.1 270 22:44 20.03.2020
6154 Clouds 12 1012 81 10000 2.6 260 22:25 20.03.2020
6155 Clouds 12 1012 81 10000 2.6 260 21:59 20.03.2020
6156 Clouds 12 1012 81 10000 2.6 270 21:41 20.03.2020
6157 Clouds 12 1012 76 10000 2.1 280 21:20 20.03.2020
6158 Clouds 12 1012 76 10000 2.1 280 20:59 20.03.2020
6159 Clouds 12 1012 76 10000 2.1 280 20:41 20.03.2020
6160 Clouds 13 1012 71 10000 3.6 310 20:20 20.03.2020
6161 Clouds 13 1012 71 10000 3.6 310 19:58 20.03.2020
6162 Clouds 13 1012 71 10000 3.6 310 19:39 20.03.2020
6163 Clouds 14 1012 67 10000 3.1 300 19:18 20.03.2020
6164 Clouds 14 1012 82 10000 1.5 20 18:39 20.03.2020
6165 Clouds 14 1012 82 10000 2.1 340 18:20 20.03.2020
6166 Clouds 14 1012 82 10000 1 0 17:56 20.03.2020
6167 Clouds 14 1012 82 10000 1 0 17:38 20.03.2020
6168 Rain 14 1012 82 10000 4.1 270 17:19 20.03.2020
6169 Clouds 14 1012 71 10000 2.6 300 16:43 20.03.2020
6170 Clouds 14 1013 76 10000 2.1 300 16:21 20.03.2020
6171 Clouds 14 1013 76 10000 2.1 300 15:59 20.03.2020
6172 Rain 14 1013 82 10000 1.5 270 15:41 20.03.2020
6173 Rain 13 1013 87 10000 1.5 310 15:20 20.03.2020
6174 Rain 14 1013 87 10000 1.5 310 14:42 20.03.2020
6175 Rain 13 1013 87 10000 2.1 300 14:21 20.03.2020
6176 Rain 13 1013 87 10000 2.1 300 13:55 20.03.2020
6177 Rain 14 1013 87 10000 2.1 300 13:36 20.03.2020
6178 Clouds 13 1014 93 10000 2.6 290 13:18 20.03.2020
6179 Rain 13 1014 93 10000 2.6 290 12:39 20.03.2020
6180 Drizzle 13 1014 93 9000 2.6 310 12:20 20.03.2020
6181 Clouds 12 1014 93 10000 2.6 290 11:42 20.03.2020
6182 Drizzle 12 1014 93 3000 4.1 300 11:22 20.03.2020
6183 Drizzle 12 1014 93 5000 2.6 310 10:59 20.03.2020
6184 Drizzle 12 1014 93 5000 2.6 310 10:41 20.03.2020
6185 Rain 12 1014 93 5000 3.1 310 10:20 20.03.2020
6186 Clouds 12 1013 93 10000 3.1 300 09:47 20.03.2020
6187 Clouds 12 1013 93 10000 3.6 300 09:22 20.03.2020
6188 Clouds 12 1013 93 10000 3.6 300 08:59 20.03.2020
6189 Clouds 12 1013 93 10000 3.6 300 08:40 20.03.2020
6190 Clouds 13 1013 87 10000 4.6 300 08:20 20.03.2020
6191 Clouds 13 1013 87 10000 4.6 300 07:48 20.03.2020
6192 Clouds 13 1013 87 10000 4.1 320 07:26 20.03.2020
6193 Clouds 13 1013 87 10000 4.6 310 06:51 20.03.2020
6194 Clouds 13 1013 87 10000 4.6 310 06:32 20.03.2020
6195 Clouds 13 1013 87 10000 4.6 310 04:51 20.03.2020
6196 Clouds 13 1014 87 10000 5.1 310 03:21 20.03.2020
6197 Clouds 13 1014 87 10000 4.6 310 01:57 20.03.2020
6198 Clouds 13 1014 87 10000 5.7 310 00:51 20.03.2020
6199 Clouds 13 1014 87 10000 5.7 310 00:29 20.03.2020
6200 Clouds 13 1014 87 10000 5.7 310 23:47 19.03.2020
6201 Clear 14 1014 87 10000 5.7 310 23:28 19.03.2020
6202 Clear 14 1015 87 10000 5.7 310 22:56 19.03.2020
6203 Clear 14 1015 87 10000 5.7 310 22:56 19.03.2020
6204 Clear 14 1015 87 10000 5.7 310 22:38 19.03.2020
6205 Clear 14 1014 77 10000 3.6 320 22:19 19.03.2020
6206 Clouds 14 1015 82 10000 5.7 320 21:42 19.03.2020
6207 Clouds 14 1015 82 10000 5.7 320 21:20 19.03.2020
6208 Clouds 14 1015 82 10000 5.7 320 20:59 19.03.2020
6209 Clouds 14 1015 77 10000 5.7 310 20:41 19.03.2020
6210 Clouds 15 1014 72 10000 5.1 310 20:22 19.03.2020
6211 Rain 16 1014 72 10000 4.1 300 19:55 19.03.2020
6212 Rain 16 1014 72 10000 4.1 300 19:37 19.03.2020
6213 Clouds 17 1014 63 10000 3.6 300 19:19 19.03.2020
6214 Clouds 18 1014 60 10000 2.6 310 18:55 19.03.2020
6215 Clouds 19 1014 60 10000 2.6 310 18:37 19.03.2020
6216 Clouds 19 1014 60 10000 2.6 310 18:37 19.03.2020
6217 Clouds 19 1014 60 10000 3.6 280 18:19 19.03.2020
6218 Clouds 19 1014 60 10000 1.5 0 17:41 19.03.2020
6219 Clouds 19 1015 56 10000 2.6 100 17:19 19.03.2020
6220 Clouds 19 1015 56 10000 2.6 80 16:44 19.03.2020
6221 Clouds 20 1015 49 10000 2.1 0 16:24 19.03.2020
6222 Clouds 20 1015 52 10000 1.5 0 15:46 19.03.2020
6223 Clouds 20 1015 52 10000 1.5 0 15:28 19.03.2020
6224 Clouds 20 1016 52 10000 1.5 0 14:58 19.03.2020
6225 Clouds 20 1016 56 10000 1.5 0 14:40 19.03.2020
6226 Clear 19 1016 55 10000 3.1 330 14:20 19.03.2020
6227 Clouds 20 1017 59 10000 2.6 40 13:41 19.03.2020
6228 Clouds 19 1017 63 10000 3.1 0 13:19 19.03.2020
6229 Clear 18 1018 59 10000 4.1 70 12:56 19.03.2020
6230 Clear 19 1018 59 10000 4.1 70 12:38 19.03.2020
6231 Clear 18 1018 63 10000 4.6 60 12:19 19.03.2020
6232 Clear 17 1018 67 10000 4.6 60 11:42 19.03.2020
6233 Clear 16 1018 67 10000 3.6 70 11:23 19.03.2020
6234 Clear 16 1018 67 10000 4.1 60 10:57 19.03.2020
6235 Clear 16 1018 67 10000 4.1 60 10:37 19.03.2020
6236 Clear 15 1018 71 10000 2.1 70 10:18 19.03.2020
6237 Clear 15 1017 76 10000 2.6 50 09:44 19.03.2020
6238 Clear 14 1017 76 10000 2.6 50 09:26 19.03.2020
6239 Clear 14 1018 76 10000 3.1 30 08:57 19.03.2020
6240 Clear 14 1018 76 10000 3.1 30 08:38 19.03.2020
6241 Clear 14 1018 76 10000 2.1 50 08:18 19.03.2020
6242 Clear 14 1018 76 10000 2.1 50 07:43 19.03.2020
6243 Clear 14 1018 76 10000 2.1 30 07:22 19.03.2020
6244 Clear 14 1018 71 10000 2.6 50 06:32 19.03.2020
6245 Clear 15 1018 67 10000 2.6 60 05:46 19.03.2020
6246 Clear 15 1018 67 10000 3.1 50 04:51 19.03.2020
6247 Clear 15 1018 76 10000 3.6 30 04:24 19.03.2020
6248 Clear 16 1019 63 10000 3.6 30 02:34 19.03.2020
6249 Clear 17 1019 63 10000 3.6 30 00:57 19.03.2020
6250 Clear 17 1019 59 10000 3.6 20 00:21 19.03.2020
6251 Clear 17 1019 55 10000 5.1 30 23:46 18.03.2020
6252 Clear 17 1019 55 10000 5.7 30 23:26 18.03.2020
6253 Clear 18 1019 52 10000 5.1 40 22:44 18.03.2020
6254 Clear 18 1019 55 10000 5.1 40 22:24 18.03.2020
6255 Clear 18 1019 55 10000 5.1 40 21:59 18.03.2020
6256 Clear 18 1019 52 10000 5.7 40 21:41 18.03.2020
6257 Clear 19 1018 63 10000 3.6 30 21:21 18.03.2020
6258 Clear 19 1018 63 10000 3.6 30 20:57 18.03.2020
6259 Clear 20 1018 55 10000 4.1 30 20:39 18.03.2020
6260 Clear 20 1018 52 10000 3.6 40 20:20 18.03.2020
6261 Clouds 21 1018 49 10000 5.1 30 19:55 18.03.2020
6262 Clouds 21 1018 49 10000 5.1 30 19:36 18.03.2020
6263 Clouds 22 1018 46 0 6.2 30 19:18 18.03.2020
6264 Clouds 22 1018 49 10000 5.7 40 18:41 18.03.2020
6265 Clouds 23 1018 43 10000 5.7 30 18:20 18.03.2020
6266 Clouds 22 1018 43 10000 6.2 30 17:57 18.03.2020
6267 Clouds 23 1018 43 10000 6.2 30 17:39 18.03.2020
6268 Clouds 23 1018 43 10000 5.7 40 17:21 18.03.2020
6269 Clouds 23 1018 43 10000 4.6 40 16:54 18.03.2020
6270 Clouds 23 1018 43 10000 4.6 40 16:36 18.03.2020
6271 Clouds 22 1019 46 10000 4.6 50 16:18 18.03.2020
6272 Clouds 22 1019 46 10000 4.6 50 15:44 18.03.2020
6273 Clouds 22 1019 46 10000 4.6 50 15:20 18.03.2020
6274 Clouds 22 1019 46 10000 4.6 40 14:45 18.03.2020
6275 Clear 21 1020 52 10000 4.6 60 14:22 18.03.2020
6276 Clear 21 1020 52 10000 4.6 60 13:56 18.03.2020
6277 Clear 21 1020 52 10000 4.6 60 13:36 18.03.2020
6278 Clouds 20 1020 52 10000 5.1 80 13:18 18.03.2020
6279 Clouds 19 1021 55 10000 5.7 60 12:41 18.03.2020
6280 Clouds 19 1021 55 10000 5.7 60 12:19 18.03.2020
6281 Clouds 18 1021 59 10000 7.2 60 11:40 18.03.2020
6282 Clear 18 1021 67 10000 6.7 60 11:21 18.03.2020
6283 Clear 17 1021 67 10000 7.2 60 10:58 18.03.2020
6284 Clear 16 1021 67 10000 7.2 60 10:39 18.03.2020
6285 Clear 16 1021 67 10000 7.2 40 10:20 18.03.2020
6286 Clear 16 1021 72 10000 7.2 40 09:44 18.03.2020
6287 Clear 16 1021 72 10000 7.2 40 09:26 18.03.2020
6288 Clear 15 1021 72 10000 7.2 40 08:58 18.03.2020
6289 Clear 15 1020 76 10000 6.7 30 08:39 18.03.2020
6290 Clear 15 1020 71 10000 7.2 30 08:21 18.03.2020
6291 Clear 14 1020 71 10000 7.2 30 07:49 18.03.2020
6292 Clear 14 1020 71 10000 7.2 30 07:30 18.03.2020
6293 Clear 14 1020 67 10000 6.7 30 06:50 18.03.2020
6294 Clear 14 1019 71 10000 5.7 20 06:24 18.03.2020
6295 Clear 14 1019 67 10000 7.2 30 05:35 18.03.2020
6296 Clear 15 1020 62 10000 6.2 30 04:27 18.03.2020
6297 Clear 15 1020 54 10000 5.1 350 02:51 18.03.2020
6298 Clouds 14 1020 54 10000 5.1 350 02:23 18.03.2020
6299 Clouds 14 1021 50 10000 5.1 340 01:29 18.03.2020
6300 Clouds 14 1021 50 10000 5.7 340 00:26 18.03.2020
6301 Clear 14 1022 50 10000 4.6 350 23:59 17.03.2020
6302 Clear 14 1022 50 10000 4.6 350 23:40 17.03.2020
6303 Clouds 14 1022 50 10000 4.1 360 23:19 17.03.2020
6304 Clouds 14 1022 47 10000 5.1 20 22:42 17.03.2020
6305 Clear 14 1022 50 10000 4.6 20 22:23 17.03.2020
6306 Clouds 14 1022 58 10000 3.6 360 21:42 17.03.2020
6307 Clear 15 1021 54 10000 4.6 30 21:22 17.03.2020
6308 Clouds 15 1021 54 10000 4.6 30 20:56 17.03.2020
6309 Clear 15 1021 48 10000 4.6 30 20:37 17.03.2020
6310 Clouds 16 1021 55 10000 4.1 20 20:19 17.03.2020
6311 Clouds 16 1021 44 10000 5.7 30 19:41 17.03.2020
6312 Clouds 17 1021 42 10000 4.6 50 19:18 17.03.2020
6313 Clouds 17 1021 45 10000 5.1 50 18:57 17.03.2020
6314 Clouds 17 1021 45 10000 5.1 50 18:39 17.03.2020
6315 Clouds 17 1020 45 10000 6.7 60 18:21 17.03.2020
6316 Clouds 17 1020 44 10000 6.7 70 17:55 17.03.2020
6317 Clouds 17 1020 44 10000 6.7 70 17:36 17.03.2020
6318 Clouds 17 1020 48 10000 6.2 70 17:18 17.03.2020
6319 Clouds 17 1020 42 10000 7.7 50 16:41 17.03.2020
6320 Clouds 17 1020 45 10000 7.2 60 16:19 17.03.2020
6321 Clouds 17 1020 44 10000 8.2 50 15:45 17.03.2020
6322 Clouds 17 1020 44 10000 8.2 50 15:22 17.03.2020
6323 Clouds 16 1020 44 10000 8.7 70 14:44 17.03.2020
6324 Clouds 16 1020 44 10000 8.7 70 14:25 17.03.2020
6325 Clouds 16 1020 48 10000 8.7 60 13:58 17.03.2020
6326 Clouds 16 1020 48 10000 8.7 60 13:39 17.03.2020
6327 Clouds 15 1020 50 10000 8.2 60 13:21 17.03.2020
6328 Clouds 15 1020 44 10000 9.8 60 12:44 17.03.2020
6329 Clouds 15 1020 44 10000 8.7 60 12:24 17.03.2020
6330 Clouds 14 1020 58 10000 9.3 40 11:48 17.03.2020
6331 Clouds 13 1020 54 10000 9.3 50 11:30 17.03.2020
6332 Clouds 13 1020 58 10000 9.3 40 10:59 17.03.2020
6333 Clouds 12 1020 58 10000 9.3 40 10:59 17.03.2020
6334 Clouds 12 1020 58 10000 9.3 40 10:40 17.03.2020
6335 Clouds 12 1020 58 10000 8.2 40 10:22 17.03.2020
6336 Clouds 12 1020 58 10000 8.2 40 10:22 17.03.2020
6337 Clouds 12 1020 58 10000 8.2 40 09:59 17.03.2020
6338 Clouds 11 1020 62 10000 7.7 40 09:41 17.03.2020
6339 Clouds 11 1020 66 10000 6.2 30 09:20 17.03.2020
6340 Clouds 10 1020 70 10000 4.6 30 08:51 17.03.2020
6341 Clouds 10 1019 70 10000 5.1 10 08:24 17.03.2020
6342 Clouds 9 1019 70 10000 5.1 10 07:58 17.03.2020
6343 Clouds 9 1019 70 10000 5.1 10 07:39 17.03.2020
6344 Clouds 9 1019 70 10000 5.7 20 07:19 17.03.2020
6345 Clouds 10 1019 70 10000 4.6 30 06:40 17.03.2020
6346 Clouds 10 1018 71 10000 5.1 40 06:19 17.03.2020
6347 Clouds 11 1018 71 10000 5.7 350 04:40 17.03.2020
6348 Clouds 11 1018 71 10000 6.2 340 03:19 17.03.2020
6349 Clouds 12 1018 71 10000 8.2 330 01:49 17.03.2020
6350 Clouds 12 1018 71 10000 8.2 330 01:29 17.03.2020
6351 Clouds 12 1019 76 10000 7.7 340 00:50 17.03.2020
6352 Clouds 12 1019 76 10000 6.2 340 23:51 16.03.2020
6353 Clouds 12 1019 76 10000 7.2 330 23:33 16.03.2020
6354 Clouds 12 1020 76 10000 4.1 350 22:47 16.03.2020
6355 Clouds 12 1019 66 10000 7.2 350 22:27 16.03.2020
6356 Clouds 12 1019 66 10000 7.2 350 21:59 16.03.2020
6357 Clouds 12 1019 71 10000 6.7 340 21:41 16.03.2020
6358 Clouds 12 1019 71 10000 6.7 340 21:23 16.03.2020
6359 Clouds 12 1019 66 10000 6.2 330 20:58 16.03.2020
6360 Clouds 12 1019 66 10000 6.2 330 20:38 16.03.2020
6361 Clouds 12 1019 62 10000 9.3 350 20:20 16.03.2020
6362 Clouds 12 1019 66 10000 6.7 340 19:42 16.03.2020
6363 Clouds 13 1019 62 10000 8.7 340 19:23 16.03.2020
6364 Clouds 13 1019 62 10000 8.7 340 18:57 16.03.2020
6365 Clouds 13 1019 62 10000 10.8 340 18:38 16.03.2020
6366 Clouds 13 1019 54 10000 11.3 330 18:18 16.03.2020
6367 Clouds 13 1019 54 10000 9.8 340 17:45 16.03.2020
6368 Clouds 13 1019 54 10000 10.3 340 17:24 16.03.2020
6369 Clouds 14 1019 47 10000 13.4 330 16:49 16.03.2020
6370 Clouds 14 1019 47 10000 13.4 330 16:31 16.03.2020
6371 Clouds 14 1019 50 10000 10.3 330 15:58 16.03.2020
6372 Clouds 14 1018 47 10000 10.8 310 15:40 16.03.2020
6373 Clouds 14 1019 47 10000 12.3 330 15:20 16.03.2020
6374 Clouds 14 1020 50 10000 11.8 330 14:44 16.03.2020
6375 Clouds 14 1020 47 10000 8.7 340 14:20 16.03.2020
6376 Clouds 14 1020 47 10000 8.7 340 14:20 16.03.2020
6377 Clouds 14 1020 50 10000 10.8 340 13:44 16.03.2020
6378 Clouds 14 1020 50 10000 10.8 340 13:25 16.03.2020
6379 Clouds 13 1020 58 10000 9.8 330 12:56 16.03.2020
6380 Clouds 13 1020 58 10000 9.8 330 12:37 16.03.2020
6381 Clouds 13 1021 58 10000 10.3 340 12:19 16.03.2020
6382 Clouds 13 1021 62 10000 9.8 340 11:42 16.03.2020
6383 Clouds 13 1021 62 10000 9.8 340 11:20 16.03.2020
6384 Clouds 12 1021 71 10000 6.7 340 10:43 16.03.2020
6385 Clouds 12 1021 76 10000 6.2 330 10:24 16.03.2020
6386 Clouds 11 1021 76 10000 6.2 330 09:47 16.03.2020
6387 Clouds 11 1021 76 10000 6.2 330 09:28 16.03.2020
6388 Clouds 10 1020 71 10000 5.7 320 08:59 16.03.2020
6389 Clouds 10 1020 76 10000 6.2 330 08:36 16.03.2020
6390 Clouds 10 1019 70 10000 5.1 330 08:18 16.03.2020
6391 Clouds 10 1019 70 10000 5.1 330 07:40 16.03.2020
6392 Clear 10 1019 70 10000 5.7 320 07:18 16.03.2020
6393 Clear 10 1019 70 10000 5.1 330 06:28 16.03.2020
6394 Clear 9 1019 70 10000 5.1 330 05:55 16.03.2020
6395 Clouds 10 1019 76 10000 2.1 330 03:54 16.03.2020
6396 Clouds 10 1019 76 10000 1.5 330 01:44 16.03.2020
6397 Clouds 10 1019 76 10000 2.1 340 00:44 16.03.2020
6398 Clouds 10 1019 76 10000 5.1 340 00:25 16.03.2020
6399 Clouds 10 1019 71 10000 5.7 340 23:39 15.03.2020
6400 Clouds 11 1019 66 10000 4.6 340 23:18 15.03.2020
6401 Clouds 11 1019 71 10000 5.7 340 22:42 15.03.2020
6402 Clouds 11 1018 62 10000 5.1 340 22:20 15.03.2020
6403 Clouds 11 1018 71 10000 4.1 340 21:39 15.03.2020
6404 Clouds 11 1018 66 10000 6.2 340 21:21 15.03.2020
6405 Clouds 12 1017 71 10000 6.2 340 20:55 15.03.2020
6406 Clouds 12 1017 71 10000 6.2 340 20:36 15.03.2020
6407 Clouds 12 1017 71 10000 6.7 340 20:18 15.03.2020
6408 Clouds 13 1017 76 10000 7.7 330 19:55 15.03.2020
6409 Clouds 13 1017 76 10000 7.7 330 19:37 15.03.2020
6410 Clouds 12 1017 76 10000 8.2 330 19:18 15.03.2020
6411 Clouds 13 1017 76 10000 8.2 330 18:41 15.03.2020
6412 Clouds 13 1017 76 10000 7.2 320 18:23 15.03.2020
6413 Clouds 13 1017 76 10000 7.2 320 17:58 15.03.2020
6414 Clouds 14 1016 76 10000 7.2 330 17:39 15.03.2020
6415 Clouds 15 1016 59 10000 6.2 330 17:20 15.03.2020
6416 Clouds 16 1016 51 10000 7.7 330 16:55 15.03.2020
6417 Clouds 17 1016 51 10000 7.7 330 16:36 15.03.2020
6418 Clouds 17 1016 51 10000 7.2 340 16:18 15.03.2020
6419 Clouds 17 1016 51 10000 5.7 310 15:41 15.03.2020
6420 Clouds 17 1017 55 10000 6.2 330 15:20 15.03.2020
6421 Clouds 17 1017 59 10000 5.1 320 14:47 15.03.2020
6422 Clouds 17 1017 59 10000 5.1 320 14:26 15.03.2020
6423 Clouds 17 1017 63 10000 6.7 330 13:59 15.03.2020
6424 Clouds 16 1017 63 10000 6.7 330 13:39 15.03.2020
6425 Clouds 17 1017 63 10000 5.7 320 13:21 15.03.2020
6426 Clouds 16 1017 63 10000 5.7 320 12:57 15.03.2020
6427 Clouds 16 1017 59 10000 5.1 320 12:38 15.03.2020
6428 Clouds 16 1017 67 10000 5.1 340 12:20 15.03.2020
6429 Clouds 16 1017 67 10000 4.6 310 11:40 15.03.2020
6430 Clouds 15 1017 67 10000 6.2 330 11:22 15.03.2020
6431 Clouds 14 1018 76 10000 6.2 320 10:56 15.03.2020
6432 Clouds 14 1018 76 10000 6.2 320 10:38 15.03.2020
6433 Clouds 13 1017 81 10000 5.7 320 10:20 15.03.2020
6434 Clouds 13 1017 87 10000 4.6 320 09:41 15.03.2020
6435 Clouds 13 1017 87 10000 4.6 320 09:22 15.03.2020
6436 Clouds 12 1016 93 10000 5.1 310 08:54 15.03.2020
6437 Clouds 12 1016 93 10000 5.1 310 08:36 15.03.2020
6438 Clouds 12 1016 93 10000 4.1 330 08:18 15.03.2020
6439 Clouds 12 1016 93 10000 5.7 310 07:44 15.03.2020
6440 Clouds 12 1016 93 10000 6.7 310 06:54 15.03.2020
6441 Clouds 11 1016 93 10000 4.6 310 06:24 15.03.2020
6442 Clouds 12 1016 93 10000 4.6 310 05:21 15.03.2020
6443 Clear 12 1016 87 10000 4.6 310 04:43 15.03.2020
6444 Clear 12 1016 87 10000 4.6 310 04:25 15.03.2020
6445 Clear 12 1016 81 10000 4.6 320 03:54 15.03.2020
6446 Clear 12 1017 87 10000 4.1 310 02:47 15.03.2020
6447 Clear 12 1017 81 10000 2.6 320 01:50 15.03.2020
6448 Clear 13 1017 71 10000 3.1 330 00:51 15.03.2020
6449 Clear 13 1017 71 10000 2.1 330 00:28 15.03.2020
6450 Clear 14 1017 67 10000 3.6 330 23:58 14.03.2020
6451 Clear 14 1017 67 10000 3.6 330 23:37 14.03.2020
6452 Clear 14 1017 71 10000 5.7 310 23:18 14.03.2020
6453 Clear 14 1017 72 10000 5.7 310 22:44 14.03.2020
6454 Clear 14 1017 72 10000 5.7 310 22:26 14.03.2020
6455 Clear 14 1017 77 10000 1 0 21:57 14.03.2020
6456 Clear 15 1017 77 10000 5.1 310 21:37 14.03.2020
6457 Clear 15 1017 77 10000 5.7 310 21:18 14.03.2020
6458 Clear 15 1017 77 10000 5.7 310 20:59 14.03.2020
6459 Clear 16 1017 72 10000 4.6 310 20:40 14.03.2020
6460 Clear 16 1017 72 10000 4.6 310 20:20 14.03.2020
6461 Clear 17 1017 72 10000 4.1 310 19:58 14.03.2020
6462 Clear 17 1017 72 10000 4.1 310 19:39 14.03.2020
6463 Clear 18 1017 68 10000 4.6 300 19:19 14.03.2020
6464 Clouds 20 1017 60 10000 2.1 300 18:37 14.03.2020
6465 Clouds 21 1017 60 10000 2.1 300 18:19 14.03.2020
6466 Clouds 22 1017 46 10000 1.5 0 17:39 14.03.2020
6467 Clouds 22 1017 43 10000 1.5 0 17:21 14.03.2020
6468 Clouds 22 1017 46 10000 2.1 110 16:42 14.03.2020
6469 Clouds 22 1017 40 10000 2.6 350 16:24 14.03.2020
6470 Clouds 22 1017 40 10000 2.6 350 15:59 14.03.2020
6471 Clouds 21 1018 52 10000 2.6 80 15:27 14.03.2020
6472 Clouds 21 1018 52 10000 2.6 80 14:59 14.03.2020
6473 Clouds 21 1018 60 10000 3.1 100 14:38 14.03.2020
6474 Clouds 20 1019 60 10000 3.1 60 14:20 14.03.2020
6475 Clouds 20 1019 68 10000 2.1 0 13:56 14.03.2020
6476 Clouds 19 1019 68 10000 2.1 0 13:38 14.03.2020
6477 Clear 19 1020 68 10000 3.1 70 13:18 14.03.2020
6478 Clear 18 1020 77 10000 2.6 80 12:43 14.03.2020
6479 Clear 18 1020 77 10000 2.6 80 12:43 14.03.2020
6480 Clear 17 1020 82 10000 2.6 80 12:24 14.03.2020
6481 Clear 16 1020 87 10000 3.1 70 11:44 14.03.2020
6482 Clear 16 1020 82 10000 2.6 50 11:25 14.03.2020
6483 Clear 15 1020 82 10000 2.6 360 10:48 14.03.2020
6484 Clear 15 1020 87 10000 3.1 350 10:28 14.03.2020
6485 Clear 14 1020 87 10000 3.1 350 09:59 14.03.2020
6486 Clouds 14 1020 93 10000 4.1 340 09:40 14.03.2020
6487 Clouds 13 1020 93 10000 3.1 340 09:21 14.03.2020
6488 Clouds 12 1019 100 10000 3.1 330 08:46 14.03.2020
6489 Clouds 12 1019 93 10000 5.7 10 08:27 14.03.2020
6490 Clouds 12 1019 93 10000 3.6 330 07:40 14.03.2020
6491 Clouds 12 1019 93 10000 3.6 330 07:21 14.03.2020
6492 Clouds 12 1019 87 10000 2.1 330 06:55 14.03.2020
6493 Clouds 12 1019 87 10000 2.1 330 06:36 14.03.2020
6494 Clouds 13 1019 93 10000 4.1 320 04:56 14.03.2020
6495 Clouds 12 1019 93 10000 4.1 320 03:37 14.03.2020
6496 Clouds 12 1020 87 10000 2.6 330 02:53 14.03.2020
6497 Clouds 13 1020 87 10000 2.1 330 01:47 14.03.2020
6498 Clouds 13 1020 87 10000 4.1 330 00:34 14.03.2020
6499 Clouds 13 1020 87 10000 5.7 330 23:44 13.03.2020
6500 Clouds 13 1020 87 10000 6.2 330 23:23 13.03.2020
6501 Clouds 13 1020 87 10000 7.2 330 22:46 13.03.2020
6502 Clouds 13 1019 82 10000 4.1 340 22:24 13.03.2020
6503 Clouds 12 1019 87 10000 5.7 330 21:42 13.03.2020
6504 Clouds 13 1019 87 10000 6.2 330 21:21 13.03.2020
6505 Clouds 13 1019 82 10000 4.6 330 20:56 13.03.2020
6506 Clouds 13 1019 82 10000 4.6 330 20:37 13.03.2020
6507 Clouds 13 1019 82 10000 4.6 330 20:18 13.03.2020
6508 Clouds 13 1019 82 10000 4.6 330 19:42 13.03.2020
6509 Clouds 13 1019 82 10000 5.7 330 19:23 13.03.2020
6510 Clouds 14 1019 76 10000 7.7 330 18:44 13.03.2020
6511 Clouds 14 1019 82 10000 6.2 340 18:25 13.03.2020
6512 Clouds 15 1019 77 10000 6.7 340 17:43 13.03.2020
6513 Clouds 15 1019 77 10000 6.7 340 17:22 13.03.2020
6514 Clouds 15 1019 77 10000 7.7 340 16:59 13.03.2020
6515 Clouds 15 1019 77 10000 7.7 340 16:39 13.03.2020
6516 Clouds 16 1019 72 10000 7.2 330 16:21 13.03.2020
6517 Clouds 16 1019 72 10000 7.2 330 15:46 13.03.2020
6518 Clouds 16 1019 72 10000 7.2 330 15:24 13.03.2020
6519 Clouds 16 1019 72 10000 7.2 330 14:59 13.03.2020
6520 Clouds 16 1019 67 10000 5.7 320 14:40 13.03.2020
6521 Clouds 16 1020 67 10000 6.7 320 14:22 13.03.2020
6522 Clouds 16 1020 67 10000 6.7 320 13:55 13.03.2020
6523 Clouds 16 1020 67 10000 6.7 320 13:36 13.03.2020
6524 Clouds 15 1020 72 10000 6.7 320 13:18 13.03.2020
6525 Clouds 15 1020 72 10000 7.2 330 12:39 13.03.2020
6526 Clouds 14 1020 72 10000 6.2 320 12:21 13.03.2020
6527 Clouds 14 1020 76 10000 6.2 330 11:57 13.03.2020
6528 Clouds 14 1020 76 10000 6.2 330 11:37 13.03.2020
6529 Clouds 14 1020 71 10000 5.7 330 11:19 13.03.2020
6530 Clouds 14 1020 76 10000 5.1 320 10:47 13.03.2020
6531 Clouds 13 1019 71 10000 2.1 360 10:26 13.03.2020
6532 Clouds 13 1019 81 10000 4.1 310 09:56 13.03.2020
6533 Clouds 13 1019 81 10000 4.1 310 09:38 13.03.2020
6534 Clouds 13 1019 81 10000 4.1 320 09:19 13.03.2020
6535 Clouds 12 1019 87 10000 4.6 340 08:42 13.03.2020
6536 Clouds 12 1019 87 10000 6.2 320 08:22 13.03.2020
6537 Clouds 12 1019 87 10000 5.7 320 07:47 13.03.2020
6538 Clouds 12 1018 87 10000 6.7 340 07:27 13.03.2020
6539 Clouds 12 1018 81 10000 7.2 330 06:46 13.03.2020
6540 Clouds 12 1018 87 10000 7.2 330 06:24 13.03.2020
6541 Clouds 12 1018 87 10000 7.7 310 05:46 13.03.2020
6542 Clouds 12 1018 87 10000 7.7 310 05:19 13.03.2020
6543 Clouds 12 1018 87 10000 8.2 310 04:35 13.03.2020
6544 Clouds 13 1019 87 10000 7.7 320 02:58 13.03.2020
6545 Clouds 13 1020 82 10000 4.1 340 01:43 13.03.2020
6546 Clouds 13 1020 87 10000 6.7 320 01:18 13.03.2020
6547 Clouds 13 1020 87 10000 6.2 320 00:46 13.03.2020
6548 Clouds 13 1020 82 10000 4.6 320 00:20 13.03.2020
6549 Clouds 13 1020 82 10000 5.7 320 23:47 12.03.2020
6550 Clouds 13 1020 82 10000 4.1 0 23:26 12.03.2020
6551 Clouds 13 1020 82 10000 7.2 340 22:55 12.03.2020
6552 Clouds 13 1020 82 10000 7.2 340 22:37 12.03.2020
6553 Clouds 13 1019 76 10000 5.7 340 22:19 12.03.2020
6554 Clouds 14 1019 82 10000 8.7 330 21:42 12.03.2020
6555 Clouds 14 1019 82 10000 8.7 330 21:24 12.03.2020
6556 Clouds 14 1019 82 10000 8.7 320 20:55 12.03.2020
6557 Clouds 14 1019 82 10000 8.7 320 20:37 12.03.2020
6558 Clouds 14 1018 72 10000 8.2 330 20:18 12.03.2020
6559 Clouds 15 1018 72 10000 8.2 330 19:39 12.03.2020
6560 Clouds 15 1018 67 10000 9.8 330 19:20 12.03.2020
6561 Clouds 16 1018 72 10000 7.2 320 18:43 12.03.2020
6562 Clouds 16 1018 67 10000 7.7 320 18:23 12.03.2020
6563 Clouds 17 1018 68 10000 7.2 330 17:56 12.03.2020
6564 Clouds 18 1018 68 10000 7.2 330 17:37 12.03.2020
6565 Clouds 19 1018 63 10000 7.7 330 17:18 12.03.2020
6566 Clouds 19 1018 68 10000 8.2 340 16:54 12.03.2020
6567 Clouds 19 1018 68 10000 8.2 340 16:36 12.03.2020
6568 Clouds 20 1018 60 10000 4.6 310 16:18 12.03.2020
6569 Clouds 20 1018 60 10000 4.6 310 15:41 12.03.2020
6570 Clouds 20 1018 56 10000 2.6 360 15:22 12.03.2020
6571 Clouds 20 1019 60 10000 5.7 340 14:39 12.03.2020
6572 Clouds 20 1018 56 10000 3.1 340 14:19 12.03.2020
6573 Clouds 20 1019 68 10000 4.6 340 13:41 12.03.2020
6574 Clouds 19 1019 68 10000 4.6 340 13:22 12.03.2020
6575 Clouds 19 1019 68 10000 4.1 350 12:55 12.03.2020
6576 Clouds 19 1019 68 10000 4.1 350 12:55 12.03.2020
6577 Clouds 19 1019 68 10000 4.1 350 12:37 12.03.2020
6578 Clouds 19 1019 68 10000 4.1 350 12:37 12.03.2020
6579 Clouds 18 1019 72 10000 5.1 330 12:18 12.03.2020
6580 Clouds 17 1019 77 10000 5.1 350 11:56 12.03.2020
6581 Clouds 18 1019 77 10000 5.1 350 11:56 12.03.2020
6582 Clouds 17 1019 77 10000 5.1 350 11:37 12.03.2020
6583 Clouds 16 1019 82 10000 6.2 330 11:19 12.03.2020
6584 Clouds 15 1019 87 10000 4.6 320 10:56 12.03.2020
6585 Clouds 15 1019 87 10000 4.6 320 10:38 12.03.2020
6586 Clouds 15 1019 82 10000 3.6 320 10:19 12.03.2020
6587 Clouds 14 1018 87 10000 5.1 310 09:43 12.03.2020
6588 Clouds 14 1018 93 10000 5.1 320 09:25 12.03.2020
6589 Clouds 14 1018 87 10000 4.6 310 08:41 12.03.2020
6590 Clouds 14 1017 82 10000 3.1 10 08:19 12.03.2020
6591 Clouds 13 1018 93 10000 4.6 310 07:53 12.03.2020
6592 Clouds 13 1017 87 10000 4.6 320 07:23 12.03.2020
6593 Clouds 13 1017 87 10000 2.1 340 06:52 12.03.2020
6594 Clouds 14 1017 82 10000 4.1 320 05:41 12.03.2020
6595 Clouds 15 1018 77 10000 1.5 10 04:29 12.03.2020
6596 Clouds 16 1019 77 10000 2.6 310 02:36 12.03.2020
6597 Clouds 16 1019 77 10000 4.6 330 01:30 12.03.2020
6598 Clouds 16 1019 77 10000 5.1 330 00:44 12.03.2020
6599 Clouds 16 1019 72 10000 4.1 320 00:26 12.03.2020
6600 Clouds 17 1019 77 10000 3.1 310 23:45 11.03.2020
6601 Clouds 17 1019 72 10000 3.6 320 23:24 11.03.2020
6602 Clouds 17 1019 72 10000 4.1 320 22:48 11.03.2020
6603 Clouds 18 1019 72 10000 4.1 320 22:29 11.03.2020
6604 Clouds 18 1019 68 10000 3.6 360 21:59 11.03.2020
6605 Clouds 20 1019 64 10000 4.1 320 21:41 11.03.2020
6606 Clouds 19 1019 64 10000 4.1 320 21:22 11.03.2020
6607 Clouds 19 1019 64 10000 4.1 320 21:22 11.03.2020
6608 Clouds 21 1019 53 10000 2.6 340 20:58 11.03.2020
6609 Clouds 21 1019 53 10000 2.6 340 20:39 11.03.2020
6610 Clouds 22 1019 49 10000 2.1 360 20:19 11.03.2020
6611 Clouds 24 1019 47 10000 3.1 40 19:44 11.03.2020
6612 Clouds 25 1019 44 10000 3.1 40 19:25 11.03.2020
6613 Clouds 25 1019 44 10000 3.1 40 18:58 11.03.2020
6614 Clouds 25 1019 41 10000 3.6 50 18:40 11.03.2020
6615 Clouds 25 1019 41 10000 3.6 50 18:40 11.03.2020
6616 Clouds 26 1019 39 10000 4.1 40 18:21 11.03.2020
6617 Clouds 26 1019 39 10000 3.1 60 17:57 11.03.2020
6618 Clouds 26 1019 39 10000 3.1 60 17:57 11.03.2020
6619 Clouds 26 1019 39 10000 3.1 60 17:39 11.03.2020
6620 Clouds 26 1019 39 10000 4.1 60 17:20 11.03.2020
6621 Clouds 26 1020 41 10000 3.1 70 16:46 11.03.2020
6622 Clouds 26 1020 38 10000 3.6 0 16:23 11.03.2020
6623 Clouds 25 1020 38 10000 3.6 0 15:46 11.03.2020
6624 Clouds 25 1020 47 10000 4.6 10 15:25 11.03.2020
6625 Clouds 25 1020 47 10000 4.6 10 14:59 11.03.2020
6626 Clouds 24 1022 46 10000 3.1 50 14:41 11.03.2020
6627 Clouds 24 1021 44 10000 4.1 60 14:22 11.03.2020
6628 Clouds 23 1022 53 10000 2.6 50 13:45 11.03.2020
6629 Clouds 22 1022 53 10000 2.6 50 13:27 11.03.2020
6630 Clouds 21 1022 53 10000 2.6 50 12:58 11.03.2020
6631 Clouds 20 1023 56 10000 2.1 60 12:40 11.03.2020
6632 Clouds 20 1023 63 10000 2.6 60 12:19 11.03.2020
6633 Clouds 19 1023 67 10000 2.6 60 11:55 11.03.2020
6634 Clouds 17 1023 67 10000 2.6 60 11:36 11.03.2020
6635 Clouds 16 1023 67 10000 2.6 70 11:18 11.03.2020
6636 Clouds 15 1023 62 10000 2.1 90 10:42 11.03.2020
6637 Clouds 15 1022 67 10000 2.1 60 10:18 11.03.2020
6638 Clouds 14 1023 76 10000 1.5 50 09:43 11.03.2020
6639 Clouds 13 1023 76 10000 1.5 40 09:25 11.03.2020
6640 Clouds 12 1023 71 10000 1.5 60 08:49 11.03.2020
6641 Clouds 12 1023 71 10000 1.5 60 08:31 11.03.2020
6642 Clear 12 1022 71 10000 1.5 360 07:59 11.03.2020
6643 Clear 12 1022 81 10000 2.6 360 07:38 11.03.2020
6644 Clear 12 1022 81 10000 2.6 360 07:18 11.03.2020
6645 Clear 11 1022 87 10000 1.5 340 06:37 11.03.2020
6646 Clear 11 1022 93 10000 3.51 33 05:36 11.03.2020
6647 Clear 11 1023 87 10000 3.14 27 04:29 11.03.2020
6648 Clear 13 1024 71 10000 2.1 340 02:20 11.03.2020
6649 Clear 14 1024 71 10000 2.1 340 01:27 11.03.2020
6650 Clear 14 1025 67 10000 3.6 320 00:46 11.03.2020
6651 Clear 15 1025 72 10000 4.1 320 23:58 10.03.2020
6652 Clear 15 1025 72 10000 4.6 310 23:40 10.03.2020
6653 Clear 15 1025 72 10000 4.6 310 23:21 10.03.2020
6654 Clear 15 1025 72 10000 4.6 310 22:39 10.03.2020
6655 Clear 16 1025 67 10000 4.6 310 22:20 10.03.2020